<?xml version="1.0" encoding="UTF-8" standalone="no" ?>
<gpx xmlns="http://www.topografix.com/GPX/1/1" xmlns:xsi="http://www.w3.org/2001/XMLSchema-instance" xsi:schemaLocation="http://www.topografix.com/GPX/1/1 http://www.topografix.com/GPX/1/1/gpx.xsd" version="1.1" creator="VisuGPX - https://www.visugpx.com">
  <metadata>
    <name>tHiBaLdUs : Matinée de ski février 2010</name>
    <desc><![CDATA[Matinée de ski à La Pierre Saint Martin]]></desc>
  </metadata>
  <trk>
    <name><![CDATA[tHiBaLdUs : Matinée de ski février 2010_1]]></name>
    <trkseg>
      <trkpt lat="42.97662" lon="-0.74542">
        <ele>1656.7</ele>
        <time>2010-02-24T09:20:18Z</time>
      </trkpt>
      <trkpt lat="42.97663" lon="-0.74542">
        <ele>1656.4</ele>
        <time>2010-02-24T09:20:30Z</time>
      </trkpt>
      <trkpt lat="42.97664" lon="-0.74542">
        <ele>1656.4</ele>
        <time>2010-02-24T09:20:44Z</time>
      </trkpt>
      <trkpt lat="42.97664" lon="-0.74542">
        <ele>1656.3</ele>
        <time>2010-02-24T09:20:56Z</time>
      </trkpt>
      <trkpt lat="42.97664" lon="-0.74543">
        <ele>1656.5</ele>
        <time>2010-02-24T09:21:03Z</time>
      </trkpt>
      <trkpt lat="42.97665" lon="-0.74544">
        <ele>1656.3</ele>
        <time>2010-02-24T09:21:33Z</time>
      </trkpt>
      <trkpt lat="42.9757" lon="-0.74682">
        <ele>1677.8</ele>
        <time>2010-02-24T09:26:29Z</time>
      </trkpt>
      <trkpt lat="42.97565" lon="-0.74679">
        <ele>1677.7</ele>
        <time>2010-02-24T09:26:32Z</time>
      </trkpt>
      <trkpt lat="42.97564" lon="-0.74679">
        <ele>1677.7</ele>
        <time>2010-02-24T09:26:33Z</time>
      </trkpt>
      <trkpt lat="42.97562" lon="-0.74678">
        <ele>1677.7</ele>
        <time>2010-02-24T09:26:34Z</time>
      </trkpt>
      <trkpt lat="42.97561" lon="-0.74679">
        <ele>1677.8</ele>
        <time>2010-02-24T09:26:35Z</time>
      </trkpt>
      <trkpt lat="42.97561" lon="-0.74678">
        <ele>1677.7</ele>
        <time>2010-02-24T09:26:36Z</time>
      </trkpt>
      <trkpt lat="42.97559" lon="-0.74679">
        <ele>1677.8</ele>
        <time>2010-02-24T09:26:37Z</time>
      </trkpt>
      <trkpt lat="42.97551" lon="-0.74676">
        <ele>1676.8</ele>
        <time>2010-02-24T09:26:43Z</time>
      </trkpt>
      <trkpt lat="42.97549" lon="-0.74675">
        <ele>1676.2</ele>
        <time>2010-02-24T09:26:45Z</time>
      </trkpt>
      <trkpt lat="42.97546" lon="-0.74674">
        <ele>1675.6</ele>
        <time>2010-02-24T09:26:47Z</time>
      </trkpt>
      <trkpt lat="42.97539" lon="-0.74672">
        <ele>1674.2</ele>
        <time>2010-02-24T09:26:51Z</time>
      </trkpt>
      <trkpt lat="42.97537" lon="-0.74672">
        <ele>1674</ele>
        <time>2010-02-24T09:26:53Z</time>
      </trkpt>
      <trkpt lat="42.97529" lon="-0.74671">
        <ele>1672.4</ele>
        <time>2010-02-24T09:26:58Z</time>
      </trkpt>
      <trkpt lat="42.97527" lon="-0.7467">
        <ele>1672.2</ele>
        <time>2010-02-24T09:26:59Z</time>
      </trkpt>
      <trkpt lat="42.9752" lon="-0.74669">
        <ele>1673.1</ele>
        <time>2010-02-24T09:27:03Z</time>
      </trkpt>
      <trkpt lat="42.97519" lon="-0.74669">
        <ele>1673.3</ele>
        <time>2010-02-24T09:27:04Z</time>
      </trkpt>
      <trkpt lat="42.97515" lon="-0.74668">
        <ele>1673.8</ele>
        <time>2010-02-24T09:27:06Z</time>
      </trkpt>
      <trkpt lat="42.97511" lon="-0.74667">
        <ele>1674.4</ele>
        <time>2010-02-24T09:27:08Z</time>
      </trkpt>
      <trkpt lat="42.97502" lon="-0.74665">
        <ele>1675.8</ele>
        <time>2010-02-24T09:27:13Z</time>
      </trkpt>
      <trkpt lat="42.975" lon="-0.74664">
        <ele>1676.1</ele>
        <time>2010-02-24T09:27:14Z</time>
      </trkpt>
      <trkpt lat="42.97496" lon="-0.74663">
        <ele>1676.5</ele>
        <time>2010-02-24T09:27:16Z</time>
      </trkpt>
      <trkpt lat="42.97492" lon="-0.74663">
        <ele>1676.8</ele>
        <time>2010-02-24T09:27:18Z</time>
      </trkpt>
      <trkpt lat="42.97491" lon="-0.74662">
        <ele>1677</ele>
        <time>2010-02-24T09:27:19Z</time>
      </trkpt>
      <trkpt lat="42.97489" lon="-0.74662">
        <ele>1677.1</ele>
        <time>2010-02-24T09:27:20Z</time>
      </trkpt>
      <trkpt lat="42.97483" lon="-0.74661">
        <ele>1677.5</ele>
        <time>2010-02-24T09:27:22Z</time>
      </trkpt>
      <trkpt lat="42.97474" lon="-0.74659">
        <ele>1678</ele>
        <time>2010-02-24T09:27:28Z</time>
      </trkpt>
      <trkpt lat="42.97469" lon="-0.74658">
        <ele>1679.3</ele>
        <time>2010-02-24T09:27:30Z</time>
      </trkpt>
      <trkpt lat="42.97458" lon="-0.74656">
        <ele>1683.2</ele>
        <time>2010-02-24T09:27:37Z</time>
      </trkpt>
      <trkpt lat="42.97448" lon="-0.74655">
        <ele>1687.2</ele>
        <time>2010-02-24T09:27:42Z</time>
      </trkpt>
      <trkpt lat="42.97444" lon="-0.74654">
        <ele>1688.5</ele>
        <time>2010-02-24T09:27:45Z</time>
      </trkpt>
      <trkpt lat="42.97414" lon="-0.74648">
        <ele>1694.5</ele>
        <time>2010-02-24T09:28:01Z</time>
      </trkpt>
      <trkpt lat="42.97379" lon="-0.74642">
        <ele>1704.1</ele>
        <time>2010-02-24T09:28:21Z</time>
      </trkpt>
      <trkpt lat="42.97375" lon="-0.74642">
        <ele>1705.1</ele>
        <time>2010-02-24T09:28:24Z</time>
      </trkpt>
      <trkpt lat="42.97374" lon="-0.74641">
        <ele>1705.6</ele>
        <time>2010-02-24T09:28:25Z</time>
      </trkpt>
      <trkpt lat="42.97358" lon="-0.74638">
        <ele>1709.9</ele>
        <time>2010-02-24T09:28:33Z</time>
      </trkpt>
      <trkpt lat="42.97356" lon="-0.74638">
        <ele>1710.4</ele>
        <time>2010-02-24T09:28:35Z</time>
      </trkpt>
      <trkpt lat="42.97337" lon="-0.74635">
        <ele>1716</ele>
        <time>2010-02-24T09:28:46Z</time>
      </trkpt>
      <trkpt lat="42.97335" lon="-0.74634">
        <ele>1716.5</ele>
        <time>2010-02-24T09:28:47Z</time>
      </trkpt>
      <trkpt lat="42.97333" lon="-0.74634">
        <ele>1717</ele>
        <time>2010-02-24T09:28:48Z</time>
      </trkpt>
      <trkpt lat="42.97321" lon="-0.74632">
        <ele>1717.7</ele>
        <time>2010-02-24T09:28:55Z</time>
      </trkpt>
      <trkpt lat="42.97319" lon="-0.74631">
        <ele>1717.8</ele>
        <time>2010-02-24T09:28:56Z</time>
      </trkpt>
      <trkpt lat="42.97317" lon="-0.74631">
        <ele>1717.9</ele>
        <time>2010-02-24T09:28:57Z</time>
      </trkpt>
      <trkpt lat="42.97312" lon="-0.7463">
        <ele>1718.3</ele>
        <time>2010-02-24T09:29:00Z</time>
      </trkpt>
      <trkpt lat="42.97306" lon="-0.74629">
        <ele>1718.7</ele>
        <time>2010-02-24T09:29:02Z</time>
      </trkpt>
      <trkpt lat="42.97263" lon="-0.74621">
        <ele>1725.6</ele>
        <time>2010-02-24T09:29:27Z</time>
      </trkpt>
      <trkpt lat="42.97262" lon="-0.74621">
        <ele>1725.9</ele>
        <time>2010-02-24T09:29:28Z</time>
      </trkpt>
      <trkpt lat="42.97244" lon="-0.74618">
        <ele>1730</ele>
        <time>2010-02-24T09:29:38Z</time>
      </trkpt>
      <trkpt lat="42.97243" lon="-0.74618">
        <ele>1730.6</ele>
        <time>2010-02-24T09:29:39Z</time>
      </trkpt>
      <trkpt lat="42.97234" lon="-0.74617">
        <ele>1733.6</ele>
        <time>2010-02-24T09:29:43Z</time>
      </trkpt>
      <trkpt lat="42.97209" lon="-0.74613">
        <ele>1737</ele>
        <time>2010-02-24T09:29:58Z</time>
      </trkpt>
      <trkpt lat="42.972" lon="-0.74611">
        <ele>1736.4</ele>
        <time>2010-02-24T09:30:03Z</time>
      </trkpt>
      <trkpt lat="42.97195" lon="-0.7461">
        <ele>1736.1</ele>
        <time>2010-02-24T09:30:05Z</time>
      </trkpt>
      <trkpt lat="42.97186" lon="-0.74608">
        <ele>1738.4</ele>
        <time>2010-02-24T09:30:11Z</time>
      </trkpt>
      <trkpt lat="42.97182" lon="-0.74608">
        <ele>1739.3</ele>
        <time>2010-02-24T09:30:13Z</time>
      </trkpt>
      <trkpt lat="42.9718" lon="-0.74607">
        <ele>1739.7</ele>
        <time>2010-02-24T09:30:14Z</time>
      </trkpt>
      <trkpt lat="42.9717" lon="-0.74605">
        <ele>1742.3</ele>
        <time>2010-02-24T09:30:20Z</time>
      </trkpt>
      <trkpt lat="42.97168" lon="-0.74605">
        <ele>1742.7</ele>
        <time>2010-02-24T09:30:21Z</time>
      </trkpt>
      <trkpt lat="42.97164" lon="-0.74604">
        <ele>1744</ele>
        <time>2010-02-24T09:30:23Z</time>
      </trkpt>
      <trkpt lat="42.97161" lon="-0.74603">
        <ele>1745.4</ele>
        <time>2010-02-24T09:30:24Z</time>
      </trkpt>
      <trkpt lat="42.97156" lon="-0.74602">
        <ele>1747.3</ele>
        <time>2010-02-24T09:30:28Z</time>
      </trkpt>
      <trkpt lat="42.97149" lon="-0.74602">
        <ele>1749.9</ele>
        <time>2010-02-24T09:30:32Z</time>
      </trkpt>
      <trkpt lat="42.97146" lon="-0.74601">
        <ele>1751</ele>
        <time>2010-02-24T09:30:34Z</time>
      </trkpt>
      <trkpt lat="42.97142" lon="-0.74598">
        <ele>1751.9</ele>
        <time>2010-02-24T09:30:35Z</time>
      </trkpt>
      <trkpt lat="42.9714" lon="-0.74596">
        <ele>1752.6</ele>
        <time>2010-02-24T09:30:37Z</time>
      </trkpt>
      <trkpt lat="42.97137" lon="-0.74593">
        <ele>1752.3</ele>
        <time>2010-02-24T09:30:38Z</time>
      </trkpt>
      <trkpt lat="42.97136" lon="-0.7459">
        <ele>1751.9</ele>
        <time>2010-02-24T09:30:39Z</time>
      </trkpt>
      <trkpt lat="42.97135" lon="-0.74587">
        <ele>1751.6</ele>
        <time>2010-02-24T09:30:40Z</time>
      </trkpt>
      <trkpt lat="42.97135" lon="-0.74584">
        <ele>1751.1</ele>
        <time>2010-02-24T09:30:42Z</time>
      </trkpt>
      <trkpt lat="42.97135" lon="-0.74581">
        <ele>1751.1</ele>
        <time>2010-02-24T09:30:45Z</time>
      </trkpt>
      <trkpt lat="42.97135" lon="-0.74582">
        <ele>1751.1</ele>
        <time>2010-02-24T09:30:48Z</time>
      </trkpt>
      <trkpt lat="42.97134" lon="-0.74581">
        <ele>1751.1</ele>
        <time>2010-02-24T09:30:53Z</time>
      </trkpt>
      <trkpt lat="42.97135" lon="-0.74582">
        <ele>1751.1</ele>
        <time>2010-02-24T09:30:59Z</time>
      </trkpt>
      <trkpt lat="42.97135" lon="-0.74582">
        <ele>1751.1</ele>
        <time>2010-02-24T09:31:00Z</time>
      </trkpt>
      <trkpt lat="42.97136" lon="-0.74583">
        <ele>1751.1</ele>
        <time>2010-02-24T09:31:05Z</time>
      </trkpt>
      <trkpt lat="42.97136" lon="-0.74584">
        <ele>1751.1</ele>
        <time>2010-02-24T09:31:10Z</time>
      </trkpt>
      <trkpt lat="42.97135" lon="-0.74583">
        <ele>1751.1</ele>
        <time>2010-02-24T09:31:13Z</time>
      </trkpt>
      <trkpt lat="42.97136" lon="-0.74581">
        <ele>1751</ele>
        <time>2010-02-24T09:31:16Z</time>
      </trkpt>
      <trkpt lat="42.97138" lon="-0.7458">
        <ele>1750.8</ele>
        <time>2010-02-24T09:31:17Z</time>
      </trkpt>
      <trkpt lat="42.97139" lon="-0.74578">
        <ele>1750.6</ele>
        <time>2010-02-24T09:31:19Z</time>
      </trkpt>
      <trkpt lat="42.9714" lon="-0.74576">
        <ele>1750.3</ele>
        <time>2010-02-24T09:31:20Z</time>
      </trkpt>
      <trkpt lat="42.97145" lon="-0.74567">
        <ele>1748.6</ele>
        <time>2010-02-24T09:31:24Z</time>
      </trkpt>
      <trkpt lat="42.97149" lon="-0.74558">
        <ele>1747.7</ele>
        <time>2010-02-24T09:31:26Z</time>
      </trkpt>
      <trkpt lat="42.97151" lon="-0.74557">
        <ele>1747.3</ele>
        <time>2010-02-24T09:31:27Z</time>
      </trkpt>
      <trkpt lat="42.97153" lon="-0.74557">
        <ele>1747</ele>
        <time>2010-02-24T09:31:28Z</time>
      </trkpt>
      <trkpt lat="42.97156" lon="-0.74559">
        <ele>1746.5</ele>
        <time>2010-02-24T09:31:30Z</time>
      </trkpt>
      <trkpt lat="42.97159" lon="-0.74559">
        <ele>1746</ele>
        <time>2010-02-24T09:31:31Z</time>
      </trkpt>
      <trkpt lat="42.97163" lon="-0.74558">
        <ele>1745.5</ele>
        <time>2010-02-24T09:31:32Z</time>
      </trkpt>
      <trkpt lat="42.97166" lon="-0.74555">
        <ele>1745.2</ele>
        <time>2010-02-24T09:31:33Z</time>
      </trkpt>
      <trkpt lat="42.97168" lon="-0.74551">
        <ele>1744.7</ele>
        <time>2010-02-24T09:31:34Z</time>
      </trkpt>
      <trkpt lat="42.97177" lon="-0.74549">
        <ele>1743</ele>
        <time>2010-02-24T09:31:35Z</time>
      </trkpt>
      <trkpt lat="42.97182" lon="-0.74552">
        <ele>1742</ele>
        <time>2010-02-24T09:31:36Z</time>
      </trkpt>
      <trkpt lat="42.97188" lon="-0.74554">
        <ele>1741</ele>
        <time>2010-02-24T09:31:37Z</time>
      </trkpt>
      <trkpt lat="42.97195" lon="-0.74555">
        <ele>1739.9</ele>
        <time>2010-02-24T09:31:39Z</time>
      </trkpt>
      <trkpt lat="42.97202" lon="-0.74554">
        <ele>1739.2</ele>
        <time>2010-02-24T09:31:40Z</time>
      </trkpt>
      <trkpt lat="42.97209" lon="-0.74556">
        <ele>1738.4</ele>
        <time>2010-02-24T09:31:41Z</time>
      </trkpt>
      <trkpt lat="42.97215" lon="-0.74559">
        <ele>1737.7</ele>
        <time>2010-02-24T09:31:42Z</time>
      </trkpt>
      <trkpt lat="42.97222" lon="-0.74561">
        <ele>1737</ele>
        <time>2010-02-24T09:31:43Z</time>
      </trkpt>
      <trkpt lat="42.97228" lon="-0.74561">
        <ele>1736.2</ele>
        <time>2010-02-24T09:31:44Z</time>
      </trkpt>
      <trkpt lat="42.97234" lon="-0.74557">
        <ele>1735.7</ele>
        <time>2010-02-24T09:31:45Z</time>
      </trkpt>
      <trkpt lat="42.97243" lon="-0.74546">
        <ele>1734.7</ele>
        <time>2010-02-24T09:31:46Z</time>
      </trkpt>
      <trkpt lat="42.97248" lon="-0.74541">
        <ele>1733.8</ele>
        <time>2010-02-24T09:31:47Z</time>
      </trkpt>
      <trkpt lat="42.97255" lon="-0.74537">
        <ele>1731.6</ele>
        <time>2010-02-24T09:31:48Z</time>
      </trkpt>
      <trkpt lat="42.97261" lon="-0.74532">
        <ele>1729.5</ele>
        <time>2010-02-24T09:31:50Z</time>
      </trkpt>
      <trkpt lat="42.97266" lon="-0.74525">
        <ele>1728.6</ele>
        <time>2010-02-24T09:31:51Z</time>
      </trkpt>
      <trkpt lat="42.9727" lon="-0.74516">
        <ele>1728.1</ele>
        <time>2010-02-24T09:31:52Z</time>
      </trkpt>
      <trkpt lat="42.97273" lon="-0.74506">
        <ele>1727.6</ele>
        <time>2010-02-24T09:31:53Z</time>
      </trkpt>
      <trkpt lat="42.97277" lon="-0.74498">
        <ele>1726.3</ele>
        <time>2010-02-24T09:31:54Z</time>
      </trkpt>
      <trkpt lat="42.97284" lon="-0.74491">
        <ele>1723.8</ele>
        <time>2010-02-24T09:31:55Z</time>
      </trkpt>
      <trkpt lat="42.97296" lon="-0.74474">
        <ele>1721.1</ele>
        <time>2010-02-24T09:31:56Z</time>
      </trkpt>
      <trkpt lat="42.973" lon="-0.74463">
        <ele>1720.1</ele>
        <time>2010-02-24T09:31:57Z</time>
      </trkpt>
      <trkpt lat="42.97304" lon="-0.74453">
        <ele>1718.6</ele>
        <time>2010-02-24T09:31:59Z</time>
      </trkpt>
      <trkpt lat="42.9731" lon="-0.74446">
        <ele>1717.2</ele>
        <time>2010-02-24T09:32:00Z</time>
      </trkpt>
      <trkpt lat="42.97318" lon="-0.74441">
        <ele>1716.1</ele>
        <time>2010-02-24T09:32:01Z</time>
      </trkpt>
      <trkpt lat="42.97326" lon="-0.74436">
        <ele>1715</ele>
        <time>2010-02-24T09:32:02Z</time>
      </trkpt>
      <trkpt lat="42.97332" lon="-0.74429">
        <ele>1713.9</ele>
        <time>2010-02-24T09:32:03Z</time>
      </trkpt>
      <trkpt lat="42.97337" lon="-0.74421">
        <ele>1712.9</ele>
        <time>2010-02-24T09:32:04Z</time>
      </trkpt>
      <trkpt lat="42.9734" lon="-0.74413">
        <ele>1712.4</ele>
        <time>2010-02-24T09:32:05Z</time>
      </trkpt>
      <trkpt lat="42.97353" lon="-0.74395">
        <ele>1710.4</ele>
        <time>2010-02-24T09:32:07Z</time>
      </trkpt>
      <trkpt lat="42.97356" lon="-0.74388">
        <ele>1710.2</ele>
        <time>2010-02-24T09:32:08Z</time>
      </trkpt>
      <trkpt lat="42.97359" lon="-0.74384">
        <ele>1708.9</ele>
        <time>2010-02-24T09:32:10Z</time>
      </trkpt>
      <trkpt lat="42.97361" lon="-0.74381">
        <ele>1707.9</ele>
        <time>2010-02-24T09:32:11Z</time>
      </trkpt>
      <trkpt lat="42.97361" lon="-0.7438">
        <ele>1707.7</ele>
        <time>2010-02-24T09:32:12Z</time>
      </trkpt>
      <trkpt lat="42.9736" lon="-0.74381">
        <ele>1708.3</ele>
        <time>2010-02-24T09:32:19Z</time>
      </trkpt>
      <trkpt lat="42.97359" lon="-0.74381">
        <ele>1708.5</ele>
        <time>2010-02-24T09:32:31Z</time>
      </trkpt>
      <trkpt lat="42.97359" lon="-0.74382">
        <ele>1708.5</ele>
        <time>2010-02-24T09:32:34Z</time>
      </trkpt>
      <trkpt lat="42.97359" lon="-0.74382">
        <ele>1708.6</ele>
        <time>2010-02-24T09:32:35Z</time>
      </trkpt>
      <trkpt lat="42.9736" lon="-0.7438">
        <ele>1708</ele>
        <time>2010-02-24T09:32:38Z</time>
      </trkpt>
      <trkpt lat="42.97362" lon="-0.74377">
        <ele>1707</ele>
        <time>2010-02-24T09:32:40Z</time>
      </trkpt>
      <trkpt lat="42.97366" lon="-0.74364">
        <ele>1703.9</ele>
        <time>2010-02-24T09:32:42Z</time>
      </trkpt>
      <trkpt lat="42.97368" lon="-0.74354">
        <ele>1702</ele>
        <time>2010-02-24T09:32:43Z</time>
      </trkpt>
      <trkpt lat="42.97371" lon="-0.74342">
        <ele>1700.1</ele>
        <time>2010-02-24T09:32:44Z</time>
      </trkpt>
      <trkpt lat="42.97375" lon="-0.74329">
        <ele>1698.7</ele>
        <time>2010-02-24T09:32:45Z</time>
      </trkpt>
      <trkpt lat="42.9738" lon="-0.74315">
        <ele>1697.9</ele>
        <time>2010-02-24T09:32:46Z</time>
      </trkpt>
      <trkpt lat="42.97387" lon="-0.74301">
        <ele>1696.4</ele>
        <time>2010-02-24T09:32:47Z</time>
      </trkpt>
      <trkpt lat="42.974" lon="-0.74271">
        <ele>1693.7</ele>
        <time>2010-02-24T09:32:48Z</time>
      </trkpt>
      <trkpt lat="42.97412" lon="-0.74241">
        <ele>1691.9</ele>
        <time>2010-02-24T09:32:51Z</time>
      </trkpt>
      <trkpt lat="42.9743" lon="-0.74196">
        <ele>1688.1</ele>
        <time>2010-02-24T09:32:54Z</time>
      </trkpt>
      <trkpt lat="42.97436" lon="-0.7418">
        <ele>1686.3</ele>
        <time>2010-02-24T09:32:55Z</time>
      </trkpt>
      <trkpt lat="42.97442" lon="-0.74163">
        <ele>1684.5</ele>
        <time>2010-02-24T09:32:56Z</time>
      </trkpt>
      <trkpt lat="42.97453" lon="-0.74129">
        <ele>1680.9</ele>
        <time>2010-02-24T09:32:57Z</time>
      </trkpt>
      <trkpt lat="42.97458" lon="-0.74112">
        <ele>1680</ele>
        <time>2010-02-24T09:32:58Z</time>
      </trkpt>
      <trkpt lat="42.97465" lon="-0.74094">
        <ele>1678.8</ele>
        <time>2010-02-24T09:32:59Z</time>
      </trkpt>
      <trkpt lat="42.97478" lon="-0.74059">
        <ele>1673</ele>
        <time>2010-02-24T09:33:02Z</time>
      </trkpt>
      <trkpt lat="42.97484" lon="-0.74042">
        <ele>1672.8</ele>
        <time>2010-02-24T09:33:03Z</time>
      </trkpt>
      <trkpt lat="42.97492" lon="-0.74027">
        <ele>1671</ele>
        <time>2010-02-24T09:33:04Z</time>
      </trkpt>
      <trkpt lat="42.97502" lon="-0.74013">
        <ele>1667.6</ele>
        <time>2010-02-24T09:33:05Z</time>
      </trkpt>
      <trkpt lat="42.97513" lon="-0.74001">
        <ele>1665.6</ele>
        <time>2010-02-24T09:33:06Z</time>
      </trkpt>
      <trkpt lat="42.97525" lon="-0.73988">
        <ele>1663.1</ele>
        <time>2010-02-24T09:33:07Z</time>
      </trkpt>
      <trkpt lat="42.9756" lon="-0.73948">
        <ele>1655.4</ele>
        <time>2010-02-24T09:33:09Z</time>
      </trkpt>
      <trkpt lat="42.97571" lon="-0.73936">
        <ele>1653.9</ele>
        <time>2010-02-24T09:33:11Z</time>
      </trkpt>
      <trkpt lat="42.97591" lon="-0.73909">
        <ele>1651.2</ele>
        <time>2010-02-24T09:33:13Z</time>
      </trkpt>
      <trkpt lat="42.976" lon="-0.73897">
        <ele>1650.2</ele>
        <time>2010-02-24T09:33:14Z</time>
      </trkpt>
      <trkpt lat="42.97616" lon="-0.73875">
        <ele>1650</ele>
        <time>2010-02-24T09:33:16Z</time>
      </trkpt>
      <trkpt lat="42.97623" lon="-0.73866">
        <ele>1649.1</ele>
        <time>2010-02-24T09:33:17Z</time>
      </trkpt>
      <trkpt lat="42.97637" lon="-0.73849">
        <ele>1647.7</ele>
        <time>2010-02-24T09:33:18Z</time>
      </trkpt>
      <trkpt lat="42.97644" lon="-0.73841">
        <ele>1647.4</ele>
        <time>2010-02-24T09:33:19Z</time>
      </trkpt>
      <trkpt lat="42.97651" lon="-0.73835">
        <ele>1647.9</ele>
        <time>2010-02-24T09:33:21Z</time>
      </trkpt>
      <trkpt lat="42.97665" lon="-0.73819">
        <ele>1646.4</ele>
        <time>2010-02-24T09:33:23Z</time>
      </trkpt>
      <trkpt lat="42.97672" lon="-0.73812">
        <ele>1643.4</ele>
        <time>2010-02-24T09:33:24Z</time>
      </trkpt>
      <trkpt lat="42.97679" lon="-0.73804">
        <ele>1640.1</ele>
        <time>2010-02-24T09:33:25Z</time>
      </trkpt>
      <trkpt lat="42.97685" lon="-0.73795">
        <ele>1638.6</ele>
        <time>2010-02-24T09:33:26Z</time>
      </trkpt>
      <trkpt lat="42.9769" lon="-0.73784">
        <ele>1637.9</ele>
        <time>2010-02-24T09:33:27Z</time>
      </trkpt>
      <trkpt lat="42.97694" lon="-0.73772">
        <ele>1637.3</ele>
        <time>2010-02-24T09:33:28Z</time>
      </trkpt>
      <trkpt lat="42.9771" lon="-0.7374">
        <ele>1635</ele>
        <time>2010-02-24T09:33:30Z</time>
      </trkpt>
      <trkpt lat="42.97714" lon="-0.73728">
        <ele>1634.6</ele>
        <time>2010-02-24T09:33:32Z</time>
      </trkpt>
      <trkpt lat="42.97718" lon="-0.73717">
        <ele>1633.9</ele>
        <time>2010-02-24T09:33:33Z</time>
      </trkpt>
      <trkpt lat="42.97726" lon="-0.73697">
        <ele>1631.4</ele>
        <time>2010-02-24T09:33:35Z</time>
      </trkpt>
      <trkpt lat="42.97735" lon="-0.73679">
        <ele>1630.3</ele>
        <time>2010-02-24T09:33:37Z</time>
      </trkpt>
      <trkpt lat="42.97743" lon="-0.73662">
        <ele>1629</ele>
        <time>2010-02-24T09:33:38Z</time>
      </trkpt>
      <trkpt lat="42.97749" lon="-0.73656">
        <ele>1627.1</ele>
        <time>2010-02-24T09:33:39Z</time>
      </trkpt>
      <trkpt lat="42.97755" lon="-0.73653">
        <ele>1626.7</ele>
        <time>2010-02-24T09:33:40Z</time>
      </trkpt>
      <trkpt lat="42.97768" lon="-0.7365">
        <ele>1627</ele>
        <time>2010-02-24T09:33:43Z</time>
      </trkpt>
      <trkpt lat="42.97773" lon="-0.73647">
        <ele>1627</ele>
        <time>2010-02-24T09:33:44Z</time>
      </trkpt>
      <trkpt lat="42.97775" lon="-0.73643">
        <ele>1627</ele>
        <time>2010-02-24T09:33:45Z</time>
      </trkpt>
      <trkpt lat="42.97775" lon="-0.7364">
        <ele>1626.8</ele>
        <time>2010-02-24T09:33:46Z</time>
      </trkpt>
      <trkpt lat="42.97774" lon="-0.7364">
        <ele>1626.8</ele>
        <time>2010-02-24T09:33:47Z</time>
      </trkpt>
      <trkpt lat="42.97773" lon="-0.7364">
        <ele>1626.7</ele>
        <time>2010-02-24T09:33:53Z</time>
      </trkpt>
      <trkpt lat="42.97772" lon="-0.73639">
        <ele>1626.6</ele>
        <time>2010-02-24T09:34:06Z</time>
      </trkpt>
      <trkpt lat="42.97772" lon="-0.73639">
        <ele>1626.5</ele>
        <time>2010-02-24T09:34:10Z</time>
      </trkpt>
      <trkpt lat="42.97772" lon="-0.73639">
        <ele>1626.5</ele>
        <time>2010-02-24T09:34:12Z</time>
      </trkpt>
      <trkpt lat="42.97772" lon="-0.73638">
        <ele>1626.5</ele>
        <time>2010-02-24T09:34:19Z</time>
      </trkpt>
      <trkpt lat="42.97771" lon="-0.73639">
        <ele>1626.5</ele>
        <time>2010-02-24T09:34:20Z</time>
      </trkpt>
      <trkpt lat="42.97771" lon="-0.73639">
        <ele>1626.5</ele>
        <time>2010-02-24T09:34:23Z</time>
      </trkpt>
      <trkpt lat="42.97771" lon="-0.73638">
        <ele>1626.5</ele>
        <time>2010-02-24T09:34:24Z</time>
      </trkpt>
      <trkpt lat="42.97771" lon="-0.73639">
        <ele>1626.5</ele>
        <time>2010-02-24T09:34:28Z</time>
      </trkpt>
      <trkpt lat="42.97771" lon="-0.73639">
        <ele>1626.5</ele>
        <time>2010-02-24T09:34:30Z</time>
      </trkpt>
      <trkpt lat="42.97771" lon="-0.73638">
        <ele>1626.4</ele>
        <time>2010-02-24T09:34:40Z</time>
      </trkpt>
      <trkpt lat="42.97771" lon="-0.73638">
        <ele>1626.5</ele>
        <time>2010-02-24T09:34:46Z</time>
      </trkpt>
      <trkpt lat="42.97771" lon="-0.73638">
        <ele>1626.4</ele>
        <time>2010-02-24T09:35:15Z</time>
      </trkpt>
      <trkpt lat="42.97771" lon="-0.73638">
        <ele>1626.4</ele>
        <time>2010-02-24T09:35:16Z</time>
      </trkpt>
      <trkpt lat="42.9777" lon="-0.73638">
        <ele>1626.4</ele>
        <time>2010-02-24T09:35:27Z</time>
      </trkpt>
      <trkpt lat="42.9777" lon="-0.73639">
        <ele>1626.4</ele>
        <time>2010-02-24T09:35:32Z</time>
      </trkpt>
      <trkpt lat="42.9777" lon="-0.73639">
        <ele>1626.4</ele>
        <time>2010-02-24T09:35:40Z</time>
      </trkpt>
      <trkpt lat="42.9777" lon="-0.7364">
        <ele>1626.5</ele>
        <time>2010-02-24T09:35:43Z</time>
      </trkpt>
      <trkpt lat="42.9777" lon="-0.7364">
        <ele>1626.5</ele>
        <time>2010-02-24T09:35:46Z</time>
      </trkpt>
      <trkpt lat="42.9777" lon="-0.7364">
        <ele>1626.5</ele>
        <time>2010-02-24T09:35:47Z</time>
      </trkpt>
      <trkpt lat="42.9777" lon="-0.73639">
        <ele>1626.4</ele>
        <time>2010-02-24T09:35:48Z</time>
      </trkpt>
      <trkpt lat="42.9777" lon="-0.73616">
        <ele>1624.1</ele>
        <time>2010-02-24T09:35:52Z</time>
      </trkpt>
      <trkpt lat="42.97775" lon="-0.736">
        <ele>1619.3</ele>
        <time>2010-02-24T09:35:54Z</time>
      </trkpt>
      <trkpt lat="42.97775" lon="-0.73591">
        <ele>1616.4</ele>
        <time>2010-02-24T09:35:56Z</time>
      </trkpt>
      <trkpt lat="42.97775" lon="-0.73582">
        <ele>1613.6</ele>
        <time>2010-02-24T09:35:57Z</time>
      </trkpt>
      <trkpt lat="42.97777" lon="-0.73559">
        <ele>1608.8</ele>
        <time>2010-02-24T09:35:59Z</time>
      </trkpt>
      <trkpt lat="42.97777" lon="-0.73548">
        <ele>1607</ele>
        <time>2010-02-24T09:36:00Z</time>
      </trkpt>
      <trkpt lat="42.9778" lon="-0.73525">
        <ele>1603.3</ele>
        <time>2010-02-24T09:36:02Z</time>
      </trkpt>
      <trkpt lat="42.97781" lon="-0.73514">
        <ele>1602.4</ele>
        <time>2010-02-24T09:36:03Z</time>
      </trkpt>
      <trkpt lat="42.97784" lon="-0.73493">
        <ele>1600.6</ele>
        <time>2010-02-24T09:36:04Z</time>
      </trkpt>
      <trkpt lat="42.97784" lon="-0.73484">
        <ele>1600</ele>
        <time>2010-02-24T09:36:06Z</time>
      </trkpt>
      <trkpt lat="42.97785" lon="-0.73474">
        <ele>1599.4</ele>
        <time>2010-02-24T09:36:07Z</time>
      </trkpt>
      <trkpt lat="42.97788" lon="-0.73466">
        <ele>1598.1</ele>
        <time>2010-02-24T09:36:08Z</time>
      </trkpt>
      <trkpt lat="42.9779" lon="-0.73456">
        <ele>1596</ele>
        <time>2010-02-24T09:36:09Z</time>
      </trkpt>
      <trkpt lat="42.97791" lon="-0.73446">
        <ele>1593.5</ele>
        <time>2010-02-24T09:36:10Z</time>
      </trkpt>
      <trkpt lat="42.97793" lon="-0.73436">
        <ele>1590.8</ele>
        <time>2010-02-24T09:36:11Z</time>
      </trkpt>
      <trkpt lat="42.97798" lon="-0.73429">
        <ele>1588</ele>
        <time>2010-02-24T09:36:12Z</time>
      </trkpt>
      <trkpt lat="42.97812" lon="-0.73413">
        <ele>1581</ele>
        <time>2010-02-24T09:36:13Z</time>
      </trkpt>
      <trkpt lat="42.97822" lon="-0.73409">
        <ele>1578.2</ele>
        <time>2010-02-24T09:36:15Z</time>
      </trkpt>
      <trkpt lat="42.97833" lon="-0.73408">
        <ele>1575</ele>
        <time>2010-02-24T09:36:16Z</time>
      </trkpt>
      <trkpt lat="42.97858" lon="-0.73409">
        <ele>1566.3</ele>
        <time>2010-02-24T09:36:18Z</time>
      </trkpt>
      <trkpt lat="42.97869" lon="-0.73412">
        <ele>1562.1</ele>
        <time>2010-02-24T09:36:19Z</time>
      </trkpt>
      <trkpt lat="42.9788" lon="-0.73421">
        <ele>1558.1</ele>
        <time>2010-02-24T09:36:20Z</time>
      </trkpt>
      <trkpt lat="42.97899" lon="-0.73433">
        <ele>1550.5</ele>
        <time>2010-02-24T09:36:22Z</time>
      </trkpt>
      <trkpt lat="42.97909" lon="-0.73439">
        <ele>1546.9</ele>
        <time>2010-02-24T09:36:23Z</time>
      </trkpt>
      <trkpt lat="42.97931" lon="-0.73454">
        <ele>1541.1</ele>
        <time>2010-02-24T09:36:24Z</time>
      </trkpt>
      <trkpt lat="42.97942" lon="-0.73462">
        <ele>1536.3</ele>
        <time>2010-02-24T09:36:26Z</time>
      </trkpt>
      <trkpt lat="42.97951" lon="-0.73473">
        <ele>1532.2</ele>
        <time>2010-02-24T09:36:27Z</time>
      </trkpt>
      <trkpt lat="42.97962" lon="-0.73482">
        <ele>1527.9</ele>
        <time>2010-02-24T09:36:28Z</time>
      </trkpt>
      <trkpt lat="42.97971" lon="-0.73492">
        <ele>1523.1</ele>
        <time>2010-02-24T09:36:29Z</time>
      </trkpt>
      <trkpt lat="42.9798" lon="-0.73502">
        <ele>1521.5</ele>
        <time>2010-02-24T09:36:30Z</time>
      </trkpt>
      <trkpt lat="42.97988" lon="-0.73512">
        <ele>1522.3</ele>
        <time>2010-02-24T09:36:31Z</time>
      </trkpt>
      <trkpt lat="42.97996" lon="-0.73519">
        <ele>1522.3</ele>
        <time>2010-02-24T09:36:32Z</time>
      </trkpt>
      <trkpt lat="42.98006" lon="-0.73521">
        <ele>1521.5</ele>
        <time>2010-02-24T09:36:33Z</time>
      </trkpt>
      <trkpt lat="42.98007" lon="-0.73517">
        <ele>1521.4</ele>
        <time>2010-02-24T09:36:36Z</time>
      </trkpt>
      <trkpt lat="42.98006" lon="-0.73515">
        <ele>1521.5</ele>
        <time>2010-02-24T09:36:38Z</time>
      </trkpt>
      <trkpt lat="42.98006" lon="-0.73514">
        <ele>1521.6</ele>
        <time>2010-02-24T09:36:39Z</time>
      </trkpt>
      <trkpt lat="42.98004" lon="-0.7351">
        <ele>1521.7</ele>
        <time>2010-02-24T09:36:46Z</time>
      </trkpt>
      <trkpt lat="42.98003" lon="-0.73509">
        <ele>1521.8</ele>
        <time>2010-02-24T09:36:53Z</time>
      </trkpt>
      <trkpt lat="42.98003" lon="-0.7351">
        <ele>1521.8</ele>
        <time>2010-02-24T09:36:58Z</time>
      </trkpt>
      <trkpt lat="42.98003" lon="-0.7351">
        <ele>1521.8</ele>
        <time>2010-02-24T09:37:02Z</time>
      </trkpt>
      <trkpt lat="42.98003" lon="-0.7351">
        <ele>1521.8</ele>
        <time>2010-02-24T09:37:05Z</time>
      </trkpt>
      <trkpt lat="42.98003" lon="-0.7351">
        <ele>1521.8</ele>
        <time>2010-02-24T09:37:10Z</time>
      </trkpt>
      <trkpt lat="42.98003" lon="-0.7351">
        <ele>1521.8</ele>
        <time>2010-02-24T09:37:11Z</time>
      </trkpt>
      <trkpt lat="42.98003" lon="-0.73509">
        <ele>1521.8</ele>
        <time>2010-02-24T09:37:12Z</time>
      </trkpt>
      <trkpt lat="42.98003" lon="-0.73509">
        <ele>1521.8</ele>
        <time>2010-02-24T09:37:13Z</time>
      </trkpt>
      <trkpt lat="42.98004" lon="-0.73509">
        <ele>1521.8</ele>
        <time>2010-02-24T09:37:14Z</time>
      </trkpt>
      <trkpt lat="42.98008" lon="-0.73505">
        <ele>1521.6</ele>
        <time>2010-02-24T09:37:19Z</time>
      </trkpt>
      <trkpt lat="42.98011" lon="-0.73502">
        <ele>1521.5</ele>
        <time>2010-02-24T09:37:22Z</time>
      </trkpt>
      <trkpt lat="42.98012" lon="-0.73501">
        <ele>1521.5</ele>
        <time>2010-02-24T09:37:23Z</time>
      </trkpt>
      <trkpt lat="42.98012" lon="-0.73501">
        <ele>1521.6</ele>
        <time>2010-02-24T09:37:25Z</time>
      </trkpt>
      <trkpt lat="42.98011" lon="-0.73501">
        <ele>1521.6</ele>
        <time>2010-02-24T09:37:29Z</time>
      </trkpt>
      <trkpt lat="42.98011" lon="-0.735">
        <ele>1521.6</ele>
        <time>2010-02-24T09:37:32Z</time>
      </trkpt>
      <trkpt lat="42.98012" lon="-0.73501">
        <ele>1521.6</ele>
        <time>2010-02-24T09:37:33Z</time>
      </trkpt>
      <trkpt lat="42.98011" lon="-0.73501">
        <ele>1521.6</ele>
        <time>2010-02-24T09:37:35Z</time>
      </trkpt>
      <trkpt lat="42.98012" lon="-0.73501">
        <ele>1521.5</ele>
        <time>2010-02-24T09:37:42Z</time>
      </trkpt>
      <trkpt lat="42.98011" lon="-0.73502">
        <ele>1521.5</ele>
        <time>2010-02-24T09:37:48Z</time>
      </trkpt>
      <trkpt lat="42.98012" lon="-0.73502">
        <ele>1521.5</ele>
        <time>2010-02-24T09:37:50Z</time>
      </trkpt>
      <trkpt lat="42.98011" lon="-0.73502">
        <ele>1521.5</ele>
        <time>2010-02-24T09:37:52Z</time>
      </trkpt>
      <trkpt lat="42.98011" lon="-0.73502">
        <ele>1521.5</ele>
        <time>2010-02-24T09:38:05Z</time>
      </trkpt>
      <trkpt lat="42.98011" lon="-0.73502">
        <ele>1521.5</ele>
        <time>2010-02-24T09:38:10Z</time>
      </trkpt>
      <trkpt lat="42.98011" lon="-0.73503">
        <ele>1521.5</ele>
        <time>2010-02-24T09:38:18Z</time>
      </trkpt>
      <trkpt lat="42.98011" lon="-0.73502">
        <ele>1521.5</ele>
        <time>2010-02-24T09:38:29Z</time>
      </trkpt>
      <trkpt lat="42.98011" lon="-0.73503">
        <ele>1521.5</ele>
        <time>2010-02-24T09:38:30Z</time>
      </trkpt>
      <trkpt lat="42.98011" lon="-0.73502">
        <ele>1521.5</ele>
        <time>2010-02-24T09:38:40Z</time>
      </trkpt>
      <trkpt lat="42.98011" lon="-0.73503">
        <ele>1521.5</ele>
        <time>2010-02-24T09:38:51Z</time>
      </trkpt>
      <trkpt lat="42.98011" lon="-0.73503">
        <ele>1521.5</ele>
        <time>2010-02-24T09:38:53Z</time>
      </trkpt>
      <trkpt lat="42.98012" lon="-0.73503">
        <ele>1521.5</ele>
        <time>2010-02-24T09:38:59Z</time>
      </trkpt>
      <trkpt lat="42.98011" lon="-0.73503">
        <ele>1521.5</ele>
        <time>2010-02-24T09:39:04Z</time>
      </trkpt>
      <trkpt lat="42.98012" lon="-0.73503">
        <ele>1521.5</ele>
        <time>2010-02-24T09:39:12Z</time>
      </trkpt>
      <trkpt lat="42.98012" lon="-0.73503">
        <ele>1521.5</ele>
        <time>2010-02-24T09:39:17Z</time>
      </trkpt>
      <trkpt lat="42.98012" lon="-0.73504">
        <ele>1521.5</ele>
        <time>2010-02-24T09:39:20Z</time>
      </trkpt>
      <trkpt lat="42.98012" lon="-0.73504">
        <ele>1521.5</ele>
        <time>2010-02-24T09:39:21Z</time>
      </trkpt>
      <trkpt lat="42.98012" lon="-0.73503">
        <ele>1521.5</ele>
        <time>2010-02-24T09:39:25Z</time>
      </trkpt>
      <trkpt lat="42.98012" lon="-0.73503">
        <ele>1521.5</ele>
        <time>2010-02-24T09:39:26Z</time>
      </trkpt>
      <trkpt lat="42.98012" lon="-0.73502">
        <ele>1521.5</ele>
        <time>2010-02-24T09:39:32Z</time>
      </trkpt>
      <trkpt lat="42.98012" lon="-0.73503">
        <ele>1521.5</ele>
        <time>2010-02-24T09:39:35Z</time>
      </trkpt>
      <trkpt lat="42.98012" lon="-0.73503">
        <ele>1521.5</ele>
        <time>2010-02-24T09:39:37Z</time>
      </trkpt>
      <trkpt lat="42.98012" lon="-0.73502">
        <ele>1521.5</ele>
        <time>2010-02-24T09:39:38Z</time>
      </trkpt>
      <trkpt lat="42.98012" lon="-0.73502">
        <ele>1521.5</ele>
        <time>2010-02-24T09:39:39Z</time>
      </trkpt>
      <trkpt lat="42.98011" lon="-0.73502">
        <ele>1521.5</ele>
        <time>2010-02-24T09:39:42Z</time>
      </trkpt>
      <trkpt lat="42.98012" lon="-0.73502">
        <ele>1521.5</ele>
        <time>2010-02-24T09:39:46Z</time>
      </trkpt>
      <trkpt lat="42.98012" lon="-0.73503">
        <ele>1521.5</ele>
        <time>2010-02-24T09:39:48Z</time>
      </trkpt>
      <trkpt lat="42.98012" lon="-0.73503">
        <ele>1521.5</ele>
        <time>2010-02-24T09:39:50Z</time>
      </trkpt>
      <trkpt lat="42.98013" lon="-0.73503">
        <ele>1521.4</ele>
        <time>2010-02-24T09:39:53Z</time>
      </trkpt>
      <trkpt lat="42.98013" lon="-0.73504">
        <ele>1521.4</ele>
        <time>2010-02-24T09:39:55Z</time>
      </trkpt>
      <trkpt lat="42.98013" lon="-0.73503">
        <ele>1521.4</ele>
        <time>2010-02-24T09:39:58Z</time>
      </trkpt>
      <trkpt lat="42.98014" lon="-0.73504">
        <ele>1521.4</ele>
        <time>2010-02-24T09:40:02Z</time>
      </trkpt>
      <trkpt lat="42.98014" lon="-0.73503">
        <ele>1521.4</ele>
        <time>2010-02-24T09:40:05Z</time>
      </trkpt>
      <trkpt lat="42.98014" lon="-0.73503">
        <ele>1521.4</ele>
        <time>2010-02-24T09:40:08Z</time>
      </trkpt>
      <trkpt lat="42.98014" lon="-0.73503">
        <ele>1521.4</ele>
        <time>2010-02-24T09:40:11Z</time>
      </trkpt>
      <trkpt lat="42.98015" lon="-0.73503">
        <ele>1521.3</ele>
        <time>2010-02-24T09:40:17Z</time>
      </trkpt>
      <trkpt lat="42.98018" lon="-0.73501">
        <ele>1521.3</ele>
        <time>2010-02-24T09:40:22Z</time>
      </trkpt>
      <trkpt lat="42.98018" lon="-0.735">
        <ele>1521.3</ele>
        <time>2010-02-24T09:40:23Z</time>
      </trkpt>
      <trkpt lat="42.9802" lon="-0.73499">
        <ele>1521.3</ele>
        <time>2010-02-24T09:40:25Z</time>
      </trkpt>
      <trkpt lat="42.98024" lon="-0.73494">
        <ele>1521.3</ele>
        <time>2010-02-24T09:40:29Z</time>
      </trkpt>
      <trkpt lat="42.98028" lon="-0.73492">
        <ele>1521.3</ele>
        <time>2010-02-24T09:40:36Z</time>
      </trkpt>
      <trkpt lat="42.98029" lon="-0.7349">
        <ele>1521.4</ele>
        <time>2010-02-24T09:40:39Z</time>
      </trkpt>
      <trkpt lat="42.98029" lon="-0.73488">
        <ele>1521.4</ele>
        <time>2010-02-24T09:40:40Z</time>
      </trkpt>
      <trkpt lat="42.98031" lon="-0.73486">
        <ele>1521.5</ele>
        <time>2010-02-24T09:40:51Z</time>
      </trkpt>
      <trkpt lat="42.98031" lon="-0.73485">
        <ele>1521.5</ele>
        <time>2010-02-24T09:40:54Z</time>
      </trkpt>
      <trkpt lat="42.98032" lon="-0.73485">
        <ele>1521.5</ele>
        <time>2010-02-24T09:40:58Z</time>
      </trkpt>
      <trkpt lat="42.98033" lon="-0.73484">
        <ele>1521.5</ele>
        <time>2010-02-24T09:41:01Z</time>
      </trkpt>
      <trkpt lat="42.98032" lon="-0.73482">
        <ele>1521.6</ele>
        <time>2010-02-24T09:41:04Z</time>
      </trkpt>
      <trkpt lat="42.98032" lon="-0.73481">
        <ele>1521.6</ele>
        <time>2010-02-24T09:41:08Z</time>
      </trkpt>
      <trkpt lat="42.98033" lon="-0.73481">
        <ele>1521.6</ele>
        <time>2010-02-24T09:41:10Z</time>
      </trkpt>
      <trkpt lat="42.98033" lon="-0.7348">
        <ele>1521.7</ele>
        <time>2010-02-24T09:41:14Z</time>
      </trkpt>
      <trkpt lat="42.98028" lon="-0.73473">
        <ele>1522</ele>
        <time>2010-02-24T09:41:20Z</time>
      </trkpt>
      <trkpt lat="42.98028" lon="-0.73473">
        <ele>1522</ele>
        <time>2010-02-24T09:41:21Z</time>
      </trkpt>
      <trkpt lat="42.98028" lon="-0.73473">
        <ele>1522</ele>
        <time>2010-02-24T09:41:22Z</time>
      </trkpt>
      <trkpt lat="42.98027" lon="-0.73474">
        <ele>1522</ele>
        <time>2010-02-24T09:41:28Z</time>
      </trkpt>
      <trkpt lat="42.98027" lon="-0.73474">
        <ele>1522</ele>
        <time>2010-02-24T09:41:29Z</time>
      </trkpt>
      <trkpt lat="42.98026" lon="-0.73474">
        <ele>1522</ele>
        <time>2010-02-24T09:41:33Z</time>
      </trkpt>
      <trkpt lat="42.98026" lon="-0.73475">
        <ele>1522</ele>
        <time>2010-02-24T09:41:35Z</time>
      </trkpt>
      <trkpt lat="42.98026" lon="-0.73476">
        <ele>1522</ele>
        <time>2010-02-24T09:41:39Z</time>
      </trkpt>
      <trkpt lat="42.98025" lon="-0.73474">
        <ele>1522</ele>
        <time>2010-02-24T09:41:43Z</time>
      </trkpt>
      <trkpt lat="42.98025" lon="-0.73472">
        <ele>1522.1</ele>
        <time>2010-02-24T09:41:49Z</time>
      </trkpt>
      <trkpt lat="42.98018" lon="-0.7346">
        <ele>1523.3</ele>
        <time>2010-02-24T09:41:52Z</time>
      </trkpt>
      <trkpt lat="42.98011" lon="-0.73447">
        <ele>1524.4</ele>
        <time>2010-02-24T09:41:57Z</time>
      </trkpt>
      <trkpt lat="42.98009" lon="-0.73443">
        <ele>1524.9</ele>
        <time>2010-02-24T09:41:58Z</time>
      </trkpt>
      <trkpt lat="42.98004" lon="-0.73433">
        <ele>1526.6</ele>
        <time>2010-02-24T09:42:01Z</time>
      </trkpt>
      <trkpt lat="42.9799" lon="-0.73409">
        <ele>1531.4</ele>
        <time>2010-02-24T09:42:08Z</time>
      </trkpt>
      <trkpt lat="42.97978" lon="-0.73385">
        <ele>1537.3</ele>
        <time>2010-02-24T09:42:15Z</time>
      </trkpt>
      <trkpt lat="42.97967" lon="-0.73366">
        <ele>1542.5</ele>
        <time>2010-02-24T09:42:21Z</time>
      </trkpt>
      <trkpt lat="42.97963" lon="-0.73359">
        <ele>1544.7</ele>
        <time>2010-02-24T09:42:22Z</time>
      </trkpt>
      <trkpt lat="42.97956" lon="-0.73346">
        <ele>1549.1</ele>
        <time>2010-02-24T09:42:27Z</time>
      </trkpt>
      <trkpt lat="42.97949" lon="-0.73333">
        <ele>1553.1</ele>
        <time>2010-02-24T09:42:31Z</time>
      </trkpt>
      <trkpt lat="42.97938" lon="-0.73313">
        <ele>1558.9</ele>
        <time>2010-02-24T09:42:37Z</time>
      </trkpt>
      <trkpt lat="42.97936" lon="-0.7331">
        <ele>1559.7</ele>
        <time>2010-02-24T09:42:38Z</time>
      </trkpt>
      <trkpt lat="42.97929" lon="-0.73297">
        <ele>1563.1</ele>
        <time>2010-02-24T09:42:42Z</time>
      </trkpt>
      <trkpt lat="42.97921" lon="-0.73282">
        <ele>1566</ele>
        <time>2010-02-24T09:42:46Z</time>
      </trkpt>
      <trkpt lat="42.97919" lon="-0.73279">
        <ele>1566.6</ele>
        <time>2010-02-24T09:42:47Z</time>
      </trkpt>
      <trkpt lat="42.97915" lon="-0.73272">
        <ele>1567.9</ele>
        <time>2010-02-24T09:42:49Z</time>
      </trkpt>
      <trkpt lat="42.97913" lon="-0.73269">
        <ele>1568.5</ele>
        <time>2010-02-24T09:42:50Z</time>
      </trkpt>
      <trkpt lat="42.97908" lon="-0.7326">
        <ele>1570.6</ele>
        <time>2010-02-24T09:42:52Z</time>
      </trkpt>
      <trkpt lat="42.97901" lon="-0.73246">
        <ele>1573.8</ele>
        <time>2010-02-24T09:42:57Z</time>
      </trkpt>
      <trkpt lat="42.97894" lon="-0.73233">
        <ele>1576.8</ele>
        <time>2010-02-24T09:43:01Z</time>
      </trkpt>
      <trkpt lat="42.97888" lon="-0.73223">
        <ele>1579.1</ele>
        <time>2010-02-24T09:43:03Z</time>
      </trkpt>
      <trkpt lat="42.97885" lon="-0.73216">
        <ele>1581.1</ele>
        <time>2010-02-24T09:43:06Z</time>
      </trkpt>
      <trkpt lat="42.97882" lon="-0.73213">
        <ele>1582.1</ele>
        <time>2010-02-24T09:43:07Z</time>
      </trkpt>
      <trkpt lat="42.97875" lon="-0.732">
        <ele>1585.4</ele>
        <time>2010-02-24T09:43:11Z</time>
      </trkpt>
      <trkpt lat="42.9787" lon="-0.73191">
        <ele>1587.8</ele>
        <time>2010-02-24T09:43:13Z</time>
      </trkpt>
      <trkpt lat="42.97866" lon="-0.73185">
        <ele>1590</ele>
        <time>2010-02-24T09:43:15Z</time>
      </trkpt>
      <trkpt lat="42.97859" lon="-0.73173">
        <ele>1595.6</ele>
        <time>2010-02-24T09:43:20Z</time>
      </trkpt>
      <trkpt lat="42.97851" lon="-0.73157">
        <ele>1602.2</ele>
        <time>2010-02-24T09:43:24Z</time>
      </trkpt>
      <trkpt lat="42.97848" lon="-0.7315">
        <ele>1604.1</ele>
        <time>2010-02-24T09:43:27Z</time>
      </trkpt>
      <trkpt lat="42.97844" lon="-0.73143">
        <ele>1605.9</ele>
        <time>2010-02-24T09:43:29Z</time>
      </trkpt>
      <trkpt lat="42.97839" lon="-0.73134">
        <ele>1608.4</ele>
        <time>2010-02-24T09:43:32Z</time>
      </trkpt>
      <trkpt lat="42.97814" lon="-0.73088">
        <ele>1623.8</ele>
        <time>2010-02-24T09:43:45Z</time>
      </trkpt>
      <trkpt lat="42.97806" lon="-0.73075">
        <ele>1626.7</ele>
        <time>2010-02-24T09:43:50Z</time>
      </trkpt>
      <trkpt lat="42.97801" lon="-0.73066">
        <ele>1629</ele>
        <time>2010-02-24T09:43:53Z</time>
      </trkpt>
      <trkpt lat="42.97787" lon="-0.73041">
        <ele>1634.5</ele>
        <time>2010-02-24T09:44:00Z</time>
      </trkpt>
      <trkpt lat="42.97778" lon="-0.73026">
        <ele>1638.3</ele>
        <time>2010-02-24T09:44:04Z</time>
      </trkpt>
      <trkpt lat="42.97765" lon="-0.73002">
        <ele>1646.6</ele>
        <time>2010-02-24T09:44:13Z</time>
      </trkpt>
      <trkpt lat="42.97758" lon="-0.7299">
        <ele>1648.5</ele>
        <time>2010-02-24T09:44:15Z</time>
      </trkpt>
      <trkpt lat="42.97747" lon="-0.72969">
        <ele>1651.2</ele>
        <time>2010-02-24T09:44:22Z</time>
      </trkpt>
      <trkpt lat="42.9774" lon="-0.72957">
        <ele>1654.7</ele>
        <time>2010-02-24T09:44:25Z</time>
      </trkpt>
      <trkpt lat="42.97725" lon="-0.72931">
        <ele>1664.1</ele>
        <time>2010-02-24T09:44:35Z</time>
      </trkpt>
      <trkpt lat="42.97723" lon="-0.72928">
        <ele>1665</ele>
        <time>2010-02-24T09:44:36Z</time>
      </trkpt>
      <trkpt lat="42.97711" lon="-0.72906">
        <ele>1673.2</ele>
        <time>2010-02-24T09:44:44Z</time>
      </trkpt>
      <trkpt lat="42.97707" lon="-0.72898">
        <ele>1674.3</ele>
        <time>2010-02-24T09:44:46Z</time>
      </trkpt>
      <trkpt lat="42.977" lon="-0.72884">
        <ele>1676.5</ele>
        <time>2010-02-24T09:44:50Z</time>
      </trkpt>
      <trkpt lat="42.97696" lon="-0.72878">
        <ele>1677.8</ele>
        <time>2010-02-24T09:44:52Z</time>
      </trkpt>
      <trkpt lat="42.97686" lon="-0.72858">
        <ele>1683.3</ele>
        <time>2010-02-24T09:44:58Z</time>
      </trkpt>
      <trkpt lat="42.97684" lon="-0.72854">
        <ele>1684.1</ele>
        <time>2010-02-24T09:44:59Z</time>
      </trkpt>
      <trkpt lat="42.97678" lon="-0.72844">
        <ele>1686.2</ele>
        <time>2010-02-24T09:45:02Z</time>
      </trkpt>
      <trkpt lat="42.97656" lon="-0.72804">
        <ele>1693.3</ele>
        <time>2010-02-24T09:45:14Z</time>
      </trkpt>
      <trkpt lat="42.97643" lon="-0.72782">
        <ele>1701.1</ele>
        <time>2010-02-24T09:45:21Z</time>
      </trkpt>
      <trkpt lat="42.97623" lon="-0.72745">
        <ele>1715.1</ele>
        <time>2010-02-24T09:45:33Z</time>
      </trkpt>
      <trkpt lat="42.97619" lon="-0.7274">
        <ele>1716.9</ele>
        <time>2010-02-24T09:45:35Z</time>
      </trkpt>
      <trkpt lat="42.97613" lon="-0.7273">
        <ele>1719.8</ele>
        <time>2010-02-24T09:45:37Z</time>
      </trkpt>
      <trkpt lat="42.97608" lon="-0.7272">
        <ele>1722.3</ele>
        <time>2010-02-24T09:45:41Z</time>
      </trkpt>
      <trkpt lat="42.97602" lon="-0.72708">
        <ele>1724.2</ele>
        <time>2010-02-24T09:45:44Z</time>
      </trkpt>
      <trkpt lat="42.97591" lon="-0.72689">
        <ele>1725.9</ele>
        <time>2010-02-24T09:45:50Z</time>
      </trkpt>
      <trkpt lat="42.97587" lon="-0.72683">
        <ele>1726.3</ele>
        <time>2010-02-24T09:45:52Z</time>
      </trkpt>
      <trkpt lat="42.97577" lon="-0.72663">
        <ele>1725.9</ele>
        <time>2010-02-24T09:45:57Z</time>
      </trkpt>
      <trkpt lat="42.9757" lon="-0.7265">
        <ele>1725.7</ele>
        <time>2010-02-24T09:46:01Z</time>
      </trkpt>
      <trkpt lat="42.97568" lon="-0.72647">
        <ele>1725.7</ele>
        <time>2010-02-24T09:46:02Z</time>
      </trkpt>
      <trkpt lat="42.97566" lon="-0.72643">
        <ele>1725.7</ele>
        <time>2010-02-24T09:46:03Z</time>
      </trkpt>
      <trkpt lat="42.97558" lon="-0.72629">
        <ele>1728.8</ele>
        <time>2010-02-24T09:46:06Z</time>
      </trkpt>
      <trkpt lat="42.97556" lon="-0.72626">
        <ele>1729.8</ele>
        <time>2010-02-24T09:46:07Z</time>
      </trkpt>
      <trkpt lat="42.97553" lon="-0.72624">
        <ele>1730</ele>
        <time>2010-02-24T09:46:08Z</time>
      </trkpt>
      <trkpt lat="42.97546" lon="-0.72618">
        <ele>1730.2</ele>
        <time>2010-02-24T09:46:12Z</time>
      </trkpt>
      <trkpt lat="42.97529" lon="-0.72605">
        <ele>1729.3</ele>
        <time>2010-02-24T09:46:17Z</time>
      </trkpt>
      <trkpt lat="42.97521" lon="-0.72599">
        <ele>1730.5</ele>
        <time>2010-02-24T09:46:21Z</time>
      </trkpt>
      <trkpt lat="42.97516" lon="-0.72595">
        <ele>1731.5</ele>
        <time>2010-02-24T09:46:23Z</time>
      </trkpt>
      <trkpt lat="42.97511" lon="-0.7259">
        <ele>1732.5</ele>
        <time>2010-02-24T09:46:25Z</time>
      </trkpt>
      <trkpt lat="42.97503" lon="-0.72585">
        <ele>1733.7</ele>
        <time>2010-02-24T09:46:28Z</time>
      </trkpt>
      <trkpt lat="42.97496" lon="-0.72578">
        <ele>1735.4</ele>
        <time>2010-02-24T09:46:30Z</time>
      </trkpt>
      <trkpt lat="42.9749" lon="-0.72574">
        <ele>1737.1</ele>
        <time>2010-02-24T09:46:33Z</time>
      </trkpt>
      <trkpt lat="42.97485" lon="-0.7257">
        <ele>1738.7</ele>
        <time>2010-02-24T09:46:35Z</time>
      </trkpt>
      <trkpt lat="42.97475" lon="-0.72562">
        <ele>1741.7</ele>
        <time>2010-02-24T09:46:38Z</time>
      </trkpt>
      <trkpt lat="42.9747" lon="-0.72557">
        <ele>1743.3</ele>
        <time>2010-02-24T09:46:41Z</time>
      </trkpt>
      <trkpt lat="42.97463" lon="-0.72551">
        <ele>1746.2</ele>
        <time>2010-02-24T09:46:44Z</time>
      </trkpt>
      <trkpt lat="42.97446" lon="-0.72539">
        <ele>1751.4</ele>
        <time>2010-02-24T09:46:49Z</time>
      </trkpt>
      <trkpt lat="42.97428" lon="-0.72524">
        <ele>1759</ele>
        <time>2010-02-24T09:46:57Z</time>
      </trkpt>
      <trkpt lat="42.97423" lon="-0.7252">
        <ele>1761.9</ele>
        <time>2010-02-24T09:46:58Z</time>
      </trkpt>
      <trkpt lat="42.97421" lon="-0.72518">
        <ele>1763.5</ele>
        <time>2010-02-24T09:46:59Z</time>
      </trkpt>
      <trkpt lat="42.97416" lon="-0.72514">
        <ele>1766.7</ele>
        <time>2010-02-24T09:47:02Z</time>
      </trkpt>
      <trkpt lat="42.97409" lon="-0.72507">
        <ele>1770.6</ele>
        <time>2010-02-24T09:47:05Z</time>
      </trkpt>
      <trkpt lat="42.97379" lon="-0.72484">
        <ele>1785</ele>
        <time>2010-02-24T09:47:17Z</time>
      </trkpt>
      <trkpt lat="42.97372" lon="-0.72478">
        <ele>1788.6</ele>
        <time>2010-02-24T09:47:19Z</time>
      </trkpt>
      <trkpt lat="42.97362" lon="-0.7247">
        <ele>1793.1</ele>
        <time>2010-02-24T09:47:24Z</time>
      </trkpt>
      <trkpt lat="42.97357" lon="-0.72465">
        <ele>1796.2</ele>
        <time>2010-02-24T09:47:26Z</time>
      </trkpt>
      <trkpt lat="42.97344" lon="-0.72455">
        <ele>1802.1</ele>
        <time>2010-02-24T09:47:30Z</time>
      </trkpt>
      <trkpt lat="42.97339" lon="-0.72451">
        <ele>1803.8</ele>
        <time>2010-02-24T09:47:33Z</time>
      </trkpt>
      <trkpt lat="42.97321" lon="-0.72436">
        <ele>1810.7</ele>
        <time>2010-02-24T09:47:39Z</time>
      </trkpt>
      <trkpt lat="42.97305" lon="-0.72423">
        <ele>1815.4</ele>
        <time>2010-02-24T09:47:46Z</time>
      </trkpt>
      <trkpt lat="42.97297" lon="-0.72417">
        <ele>1816.6</ele>
        <time>2010-02-24T09:47:49Z</time>
      </trkpt>
      <trkpt lat="42.97294" lon="-0.72416">
        <ele>1816.9</ele>
        <time>2010-02-24T09:47:50Z</time>
      </trkpt>
      <trkpt lat="42.97288" lon="-0.72414">
        <ele>1817</ele>
        <time>2010-02-24T09:47:51Z</time>
      </trkpt>
      <trkpt lat="42.97285" lon="-0.72413">
        <ele>1816.5</ele>
        <time>2010-02-24T09:47:53Z</time>
      </trkpt>
      <trkpt lat="42.97283" lon="-0.72414">
        <ele>1815.9</ele>
        <time>2010-02-24T09:47:54Z</time>
      </trkpt>
      <trkpt lat="42.9728" lon="-0.72415">
        <ele>1814.9</ele>
        <time>2010-02-24T09:47:56Z</time>
      </trkpt>
      <trkpt lat="42.97277" lon="-0.72415">
        <ele>1814.7</ele>
        <time>2010-02-24T09:47:59Z</time>
      </trkpt>
      <trkpt lat="42.97276" lon="-0.72415">
        <ele>1815</ele>
        <time>2010-02-24T09:48:08Z</time>
      </trkpt>
      <trkpt lat="42.97275" lon="-0.72414">
        <ele>1815.2</ele>
        <time>2010-02-24T09:48:10Z</time>
      </trkpt>
      <trkpt lat="42.97273" lon="-0.72413">
        <ele>1816</ele>
        <time>2010-02-24T09:48:16Z</time>
      </trkpt>
      <trkpt lat="42.97272" lon="-0.72413">
        <ele>1816.1</ele>
        <time>2010-02-24T09:48:18Z</time>
      </trkpt>
      <trkpt lat="42.97272" lon="-0.72412">
        <ele>1816.4</ele>
        <time>2010-02-24T09:48:20Z</time>
      </trkpt>
      <trkpt lat="42.97272" lon="-0.72412">
        <ele>1816.5</ele>
        <time>2010-02-24T09:48:21Z</time>
      </trkpt>
      <trkpt lat="42.97272" lon="-0.72411">
        <ele>1816.8</ele>
        <time>2010-02-24T09:48:25Z</time>
      </trkpt>
      <trkpt lat="42.97271" lon="-0.72411">
        <ele>1817</ele>
        <time>2010-02-24T09:48:27Z</time>
      </trkpt>
      <trkpt lat="42.97271" lon="-0.7241">
        <ele>1817.1</ele>
        <time>2010-02-24T09:48:28Z</time>
      </trkpt>
      <trkpt lat="42.9727" lon="-0.7241">
        <ele>1817.2</ele>
        <time>2010-02-24T09:48:29Z</time>
      </trkpt>
      <trkpt lat="42.9727" lon="-0.72409">
        <ele>1817.6</ele>
        <time>2010-02-24T09:48:31Z</time>
      </trkpt>
      <trkpt lat="42.97269" lon="-0.72409">
        <ele>1817.8</ele>
        <time>2010-02-24T09:48:34Z</time>
      </trkpt>
      <trkpt lat="42.97268" lon="-0.72409">
        <ele>1817.7</ele>
        <time>2010-02-24T09:48:36Z</time>
      </trkpt>
      <trkpt lat="42.97268" lon="-0.72409">
        <ele>1817.8</ele>
        <time>2010-02-24T09:48:38Z</time>
      </trkpt>
      <trkpt lat="42.97268" lon="-0.72409">
        <ele>1817.7</ele>
        <time>2010-02-24T09:48:40Z</time>
      </trkpt>
      <trkpt lat="42.97265" lon="-0.72408">
        <ele>1818.1</ele>
        <time>2010-02-24T09:48:47Z</time>
      </trkpt>
      <trkpt lat="42.97264" lon="-0.72408">
        <ele>1818.2</ele>
        <time>2010-02-24T09:48:50Z</time>
      </trkpt>
      <trkpt lat="42.97263" lon="-0.72407">
        <ele>1818.4</ele>
        <time>2010-02-24T09:48:52Z</time>
      </trkpt>
      <trkpt lat="42.97263" lon="-0.72406">
        <ele>1818.7</ele>
        <time>2010-02-24T09:48:53Z</time>
      </trkpt>
      <trkpt lat="42.97262" lon="-0.72403">
        <ele>1819.4</ele>
        <time>2010-02-24T09:48:55Z</time>
      </trkpt>
      <trkpt lat="42.97259" lon="-0.724">
        <ele>1820.1</ele>
        <time>2010-02-24T09:48:56Z</time>
      </trkpt>
      <trkpt lat="42.9723" lon="-0.72375">
        <ele>1829.6</ele>
        <time>2010-02-24T09:49:07Z</time>
      </trkpt>
      <trkpt lat="42.97213" lon="-0.72362">
        <ele>1837.4</ele>
        <time>2010-02-24T09:49:13Z</time>
      </trkpt>
      <trkpt lat="42.97208" lon="-0.72357">
        <ele>1840.2</ele>
        <time>2010-02-24T09:49:16Z</time>
      </trkpt>
      <trkpt lat="42.97205" lon="-0.72355">
        <ele>1841.7</ele>
        <time>2010-02-24T09:49:17Z</time>
      </trkpt>
      <trkpt lat="42.97198" lon="-0.7235">
        <ele>1845.7</ele>
        <time>2010-02-24T09:49:20Z</time>
      </trkpt>
      <trkpt lat="42.97181" lon="-0.72336">
        <ele>1855.3</ele>
        <time>2010-02-24T09:49:27Z</time>
      </trkpt>
      <trkpt lat="42.97176" lon="-0.72333">
        <ele>1857.5</ele>
        <time>2010-02-24T09:49:29Z</time>
      </trkpt>
      <trkpt lat="42.97164" lon="-0.72323">
        <ele>1864.1</ele>
        <time>2010-02-24T09:49:33Z</time>
      </trkpt>
      <trkpt lat="42.97152" lon="-0.72313">
        <ele>1870.9</ele>
        <time>2010-02-24T09:49:39Z</time>
      </trkpt>
      <trkpt lat="42.97145" lon="-0.72307">
        <ele>1874.3</ele>
        <time>2010-02-24T09:49:42Z</time>
      </trkpt>
      <trkpt lat="42.97127" lon="-0.72293">
        <ele>1883.3</ele>
        <time>2010-02-24T09:49:49Z</time>
      </trkpt>
      <trkpt lat="42.97125" lon="-0.7229">
        <ele>1884.4</ele>
        <time>2010-02-24T09:49:50Z</time>
      </trkpt>
      <trkpt lat="42.97107" lon="-0.72276">
        <ele>1892.3</ele>
        <time>2010-02-24T09:49:57Z</time>
      </trkpt>
      <trkpt lat="42.97105" lon="-0.72273">
        <ele>1893.3</ele>
        <time>2010-02-24T09:49:58Z</time>
      </trkpt>
      <trkpt lat="42.97094" lon="-0.72264">
        <ele>1896.7</ele>
        <time>2010-02-24T09:50:02Z</time>
      </trkpt>
      <trkpt lat="42.97089" lon="-0.7226">
        <ele>1897.9</ele>
        <time>2010-02-24T09:50:03Z</time>
      </trkpt>
      <trkpt lat="42.97084" lon="-0.72256">
        <ele>1899</ele>
        <time>2010-02-24T09:50:05Z</time>
      </trkpt>
      <trkpt lat="42.97071" lon="-0.72245">
        <ele>1903.8</ele>
        <time>2010-02-24T09:50:11Z</time>
      </trkpt>
      <trkpt lat="42.97066" lon="-0.7224">
        <ele>1905.4</ele>
        <time>2010-02-24T09:50:12Z</time>
      </trkpt>
      <trkpt lat="42.9705" lon="-0.72228">
        <ele>1908.7</ele>
        <time>2010-02-24T09:50:19Z</time>
      </trkpt>
      <trkpt lat="42.97037" lon="-0.72218">
        <ele>1912.8</ele>
        <time>2010-02-24T09:50:23Z</time>
      </trkpt>
      <trkpt lat="42.9703" lon="-0.72211">
        <ele>1914.3</ele>
        <time>2010-02-24T09:50:27Z</time>
      </trkpt>
      <trkpt lat="42.97024" lon="-0.72207">
        <ele>1914.9</ele>
        <time>2010-02-24T09:50:29Z</time>
      </trkpt>
      <trkpt lat="42.97021" lon="-0.72205">
        <ele>1915.3</ele>
        <time>2010-02-24T09:50:30Z</time>
      </trkpt>
      <trkpt lat="42.97018" lon="-0.72204">
        <ele>1915.7</ele>
        <time>2010-02-24T09:50:31Z</time>
      </trkpt>
      <trkpt lat="42.97015" lon="-0.72203">
        <ele>1916.1</ele>
        <time>2010-02-24T09:50:32Z</time>
      </trkpt>
      <trkpt lat="42.96997" lon="-0.72205">
        <ele>1918.7</ele>
        <time>2010-02-24T09:50:38Z</time>
      </trkpt>
      <trkpt lat="42.96983" lon="-0.72206">
        <ele>1923.6</ele>
        <time>2010-02-24T09:50:43Z</time>
      </trkpt>
      <trkpt lat="42.96974" lon="-0.72206">
        <ele>1926.7</ele>
        <time>2010-02-24T09:50:45Z</time>
      </trkpt>
      <trkpt lat="42.96965" lon="-0.72207">
        <ele>1929.8</ele>
        <time>2010-02-24T09:50:49Z</time>
      </trkpt>
      <trkpt lat="42.96954" lon="-0.72207">
        <ele>1933.4</ele>
        <time>2010-02-24T09:50:53Z</time>
      </trkpt>
      <trkpt lat="42.96931" lon="-0.72208">
        <ele>1944.5</ele>
        <time>2010-02-24T09:51:01Z</time>
      </trkpt>
      <trkpt lat="42.9692" lon="-0.7221">
        <ele>1951.8</ele>
        <time>2010-02-24T09:51:04Z</time>
      </trkpt>
      <trkpt lat="42.96917" lon="-0.7221">
        <ele>1953.7</ele>
        <time>2010-02-24T09:51:05Z</time>
      </trkpt>
      <trkpt lat="42.96893" lon="-0.72212">
        <ele>1962.1</ele>
        <time>2010-02-24T09:51:14Z</time>
      </trkpt>
      <trkpt lat="42.96873" lon="-0.72213">
        <ele>1969.4</ele>
        <time>2010-02-24T09:51:21Z</time>
      </trkpt>
      <trkpt lat="42.96867" lon="-0.72213">
        <ele>1971.5</ele>
        <time>2010-02-24T09:51:23Z</time>
      </trkpt>
      <trkpt lat="42.96856" lon="-0.72214">
        <ele>1975.9</ele>
        <time>2010-02-24T09:51:26Z</time>
      </trkpt>
      <trkpt lat="42.96836" lon="-0.72214">
        <ele>1984.4</ele>
        <time>2010-02-24T09:51:34Z</time>
      </trkpt>
      <trkpt lat="42.96816" lon="-0.72215">
        <ele>1992.9</ele>
        <time>2010-02-24T09:51:41Z</time>
      </trkpt>
      <trkpt lat="42.96809" lon="-0.72215">
        <ele>1995.4</ele>
        <time>2010-02-24T09:51:43Z</time>
      </trkpt>
      <trkpt lat="42.96789" lon="-0.72216">
        <ele>2000.9</ele>
        <time>2010-02-24T09:51:50Z</time>
      </trkpt>
      <trkpt lat="42.9678" lon="-0.72216">
        <ele>2002.9</ele>
        <time>2010-02-24T09:51:53Z</time>
      </trkpt>
      <trkpt lat="42.96764" lon="-0.72216">
        <ele>2005.4</ele>
        <time>2010-02-24T09:51:57Z</time>
      </trkpt>
      <trkpt lat="42.96753" lon="-0.72217">
        <ele>2007.3</ele>
        <time>2010-02-24T09:52:02Z</time>
      </trkpt>
      <trkpt lat="42.96747" lon="-0.72217">
        <ele>2008.5</ele>
        <time>2010-02-24T09:52:04Z</time>
      </trkpt>
      <trkpt lat="42.96741" lon="-0.72218">
        <ele>2010</ele>
        <time>2010-02-24T09:52:05Z</time>
      </trkpt>
      <trkpt lat="42.96717" lon="-0.72219">
        <ele>2016.3</ele>
        <time>2010-02-24T09:52:14Z</time>
      </trkpt>
      <trkpt lat="42.96703" lon="-0.72218">
        <ele>2020.2</ele>
        <time>2010-02-24T09:52:17Z</time>
      </trkpt>
      <trkpt lat="42.96682" lon="-0.72221">
        <ele>2026.9</ele>
        <time>2010-02-24T09:52:25Z</time>
      </trkpt>
      <trkpt lat="42.96659" lon="-0.72222">
        <ele>2034.7</ele>
        <time>2010-02-24T09:52:33Z</time>
      </trkpt>
      <trkpt lat="42.96653" lon="-0.72222">
        <ele>2036.8</ele>
        <time>2010-02-24T09:52:35Z</time>
      </trkpt>
      <trkpt lat="42.96636" lon="-0.72223">
        <ele>2043</ele>
        <time>2010-02-24T09:52:41Z</time>
      </trkpt>
      <trkpt lat="42.9663" lon="-0.72223">
        <ele>2045.2</ele>
        <time>2010-02-24T09:52:43Z</time>
      </trkpt>
      <trkpt lat="42.96607" lon="-0.72224">
        <ele>2053.4</ele>
        <time>2010-02-24T09:52:51Z</time>
      </trkpt>
      <trkpt lat="42.96601" lon="-0.72224">
        <ele>2055.4</ele>
        <time>2010-02-24T09:52:53Z</time>
      </trkpt>
      <trkpt lat="42.9659" lon="-0.72225">
        <ele>2059.1</ele>
        <time>2010-02-24T09:52:56Z</time>
      </trkpt>
      <trkpt lat="42.9657" lon="-0.72225">
        <ele>2066.3</ele>
        <time>2010-02-24T09:53:04Z</time>
      </trkpt>
      <trkpt lat="42.96555" lon="-0.72226">
        <ele>2072</ele>
        <time>2010-02-24T09:53:08Z</time>
      </trkpt>
      <trkpt lat="42.9654" lon="-0.72226">
        <ele>2078.2</ele>
        <time>2010-02-24T09:53:14Z</time>
      </trkpt>
      <trkpt lat="42.96531" lon="-0.72226">
        <ele>2081.8</ele>
        <time>2010-02-24T09:53:17Z</time>
      </trkpt>
      <trkpt lat="42.96517" lon="-0.72227">
        <ele>2087.3</ele>
        <time>2010-02-24T09:53:22Z</time>
      </trkpt>
      <trkpt lat="42.96512" lon="-0.72228">
        <ele>2089.1</ele>
        <time>2010-02-24T09:53:24Z</time>
      </trkpt>
      <trkpt lat="42.965" lon="-0.72228">
        <ele>2093.1</ele>
        <time>2010-02-24T09:53:27Z</time>
      </trkpt>
      <trkpt lat="42.96479" lon="-0.72229">
        <ele>2098.3</ele>
        <time>2010-02-24T09:53:35Z</time>
      </trkpt>
      <trkpt lat="42.9647" lon="-0.7223">
        <ele>2100.6</ele>
        <time>2010-02-24T09:53:37Z</time>
      </trkpt>
      <trkpt lat="42.96452" lon="-0.7223">
        <ele>2105.9</ele>
        <time>2010-02-24T09:53:44Z</time>
      </trkpt>
      <trkpt lat="42.96443" lon="-0.72231">
        <ele>2108.4</ele>
        <time>2010-02-24T09:53:47Z</time>
      </trkpt>
      <trkpt lat="42.96435" lon="-0.7223">
        <ele>2110.7</ele>
        <time>2010-02-24T09:53:49Z</time>
      </trkpt>
      <trkpt lat="42.96432" lon="-0.72231">
        <ele>2111.6</ele>
        <time>2010-02-24T09:53:51Z</time>
      </trkpt>
      <trkpt lat="42.96423" lon="-0.72231">
        <ele>2114</ele>
        <time>2010-02-24T09:53:54Z</time>
      </trkpt>
      <trkpt lat="42.96418" lon="-0.72231">
        <ele>2115.7</ele>
        <time>2010-02-24T09:53:56Z</time>
      </trkpt>
      <trkpt lat="42.96406" lon="-0.72232">
        <ele>2117.1</ele>
        <time>2010-02-24T09:53:59Z</time>
      </trkpt>
      <trkpt lat="42.96394" lon="-0.72234">
        <ele>2118.6</ele>
        <time>2010-02-24T09:54:04Z</time>
      </trkpt>
      <trkpt lat="42.96391" lon="-0.72233">
        <ele>2118.8</ele>
        <time>2010-02-24T09:54:05Z</time>
      </trkpt>
      <trkpt lat="42.96385" lon="-0.72232">
        <ele>2118.9</ele>
        <time>2010-02-24T09:54:07Z</time>
      </trkpt>
      <trkpt lat="42.96381" lon="-0.72231">
        <ele>2119.2</ele>
        <time>2010-02-24T09:54:09Z</time>
      </trkpt>
      <trkpt lat="42.9638" lon="-0.72231">
        <ele>2119.3</ele>
        <time>2010-02-24T09:54:10Z</time>
      </trkpt>
      <trkpt lat="42.9638" lon="-0.72231">
        <ele>2119.3</ele>
        <time>2010-02-24T09:54:13Z</time>
      </trkpt>
      <trkpt lat="42.9638" lon="-0.72231">
        <ele>2119.2</ele>
        <time>2010-02-24T09:54:21Z</time>
      </trkpt>
      <trkpt lat="42.96381" lon="-0.7223">
        <ele>2119.1</ele>
        <time>2010-02-24T09:54:28Z</time>
      </trkpt>
      <trkpt lat="42.9638" lon="-0.72228">
        <ele>2118.8</ele>
        <time>2010-02-24T09:54:37Z</time>
      </trkpt>
      <trkpt lat="42.9638" lon="-0.72225">
        <ele>2118.5</ele>
        <time>2010-02-24T09:54:38Z</time>
      </trkpt>
      <trkpt lat="42.96381" lon="-0.72222">
        <ele>2118.1</ele>
        <time>2010-02-24T09:54:39Z</time>
      </trkpt>
      <trkpt lat="42.96383" lon="-0.72219">
        <ele>2117.5</ele>
        <time>2010-02-24T09:54:40Z</time>
      </trkpt>
      <trkpt lat="42.96383" lon="-0.72219">
        <ele>2117.5</ele>
        <time>2010-02-24T09:54:41Z</time>
      </trkpt>
      <trkpt lat="42.96383" lon="-0.72219">
        <ele>2117.5</ele>
        <time>2010-02-24T09:54:44Z</time>
      </trkpt>
      <trkpt lat="42.96385" lon="-0.72217">
        <ele>2116.9</ele>
        <time>2010-02-24T09:54:47Z</time>
      </trkpt>
      <trkpt lat="42.96391" lon="-0.72215">
        <ele>2116</ele>
        <time>2010-02-24T09:54:49Z</time>
      </trkpt>
      <trkpt lat="42.96394" lon="-0.72212">
        <ele>2115.4</ele>
        <time>2010-02-24T09:54:50Z</time>
      </trkpt>
      <trkpt lat="42.96401" lon="-0.7221">
        <ele>2114.5</ele>
        <time>2010-02-24T09:54:51Z</time>
      </trkpt>
      <trkpt lat="42.96402" lon="-0.7221">
        <ele>2114.4</ele>
        <time>2010-02-24T09:54:55Z</time>
      </trkpt>
      <trkpt lat="42.96404" lon="-0.72209">
        <ele>2114.2</ele>
        <time>2010-02-24T09:54:59Z</time>
      </trkpt>
      <trkpt lat="42.96405" lon="-0.72208">
        <ele>2114</ele>
        <time>2010-02-24T09:55:01Z</time>
      </trkpt>
      <trkpt lat="42.96409" lon="-0.72206">
        <ele>2113.4</ele>
        <time>2010-02-24T09:55:04Z</time>
      </trkpt>
      <trkpt lat="42.96416" lon="-0.72203">
        <ele>2112.7</ele>
        <time>2010-02-24T09:55:06Z</time>
      </trkpt>
      <trkpt lat="42.9642" lon="-0.72203">
        <ele>2112.1</ele>
        <time>2010-02-24T09:55:07Z</time>
      </trkpt>
      <trkpt lat="42.96423" lon="-0.72204">
        <ele>2111.7</ele>
        <time>2010-02-24T09:55:08Z</time>
      </trkpt>
      <trkpt lat="42.96433" lon="-0.72211">
        <ele>2110.4</ele>
        <time>2010-02-24T09:55:10Z</time>
      </trkpt>
      <trkpt lat="42.96437" lon="-0.72211">
        <ele>2109.6</ele>
        <time>2010-02-24T09:55:11Z</time>
      </trkpt>
      <trkpt lat="42.96442" lon="-0.72209">
        <ele>2108.8</ele>
        <time>2010-02-24T09:55:12Z</time>
      </trkpt>
      <trkpt lat="42.96448" lon="-0.72207">
        <ele>2107.6</ele>
        <time>2010-02-24T09:55:14Z</time>
      </trkpt>
      <trkpt lat="42.96453" lon="-0.72209">
        <ele>2105.8</ele>
        <time>2010-02-24T09:55:15Z</time>
      </trkpt>
      <trkpt lat="42.96459" lon="-0.72209">
        <ele>2104</ele>
        <time>2010-02-24T09:55:16Z</time>
      </trkpt>
      <trkpt lat="42.96465" lon="-0.72206">
        <ele>2102.2</ele>
        <time>2010-02-24T09:55:17Z</time>
      </trkpt>
      <trkpt lat="42.96471" lon="-0.72204">
        <ele>2100.5</ele>
        <time>2010-02-24T09:55:18Z</time>
      </trkpt>
      <trkpt lat="42.96476" lon="-0.72205">
        <ele>2098.9</ele>
        <time>2010-02-24T09:55:19Z</time>
      </trkpt>
      <trkpt lat="42.96479" lon="-0.72208">
        <ele>2098.1</ele>
        <time>2010-02-24T09:55:20Z</time>
      </trkpt>
      <trkpt lat="42.96481" lon="-0.72211">
        <ele>2097.6</ele>
        <time>2010-02-24T09:55:22Z</time>
      </trkpt>
      <trkpt lat="42.96481" lon="-0.72211">
        <ele>2097.6</ele>
        <time>2010-02-24T09:55:26Z</time>
      </trkpt>
      <trkpt lat="42.9648" lon="-0.72211">
        <ele>2097.9</ele>
        <time>2010-02-24T09:55:33Z</time>
      </trkpt>
      <trkpt lat="42.96481" lon="-0.72211">
        <ele>2097.8</ele>
        <time>2010-02-24T09:55:40Z</time>
      </trkpt>
      <trkpt lat="42.96482" lon="-0.72211">
        <ele>2097.4</ele>
        <time>2010-02-24T09:55:42Z</time>
      </trkpt>
      <trkpt lat="42.96484" lon="-0.72213">
        <ele>2096.9</ele>
        <time>2010-02-24T09:55:45Z</time>
      </trkpt>
      <trkpt lat="42.96486" lon="-0.72213">
        <ele>2096.4</ele>
        <time>2010-02-24T09:55:46Z</time>
      </trkpt>
      <trkpt lat="42.96489" lon="-0.72212">
        <ele>2095.5</ele>
        <time>2010-02-24T09:55:47Z</time>
      </trkpt>
      <trkpt lat="42.96493" lon="-0.72209">
        <ele>2094.4</ele>
        <time>2010-02-24T09:55:48Z</time>
      </trkpt>
      <trkpt lat="42.96497" lon="-0.72205">
        <ele>2093.2</ele>
        <time>2010-02-24T09:55:49Z</time>
      </trkpt>
      <trkpt lat="42.96502" lon="-0.72202">
        <ele>2091.7</ele>
        <time>2010-02-24T09:55:50Z</time>
      </trkpt>
      <trkpt lat="42.96511" lon="-0.72207">
        <ele>2088.7</ele>
        <time>2010-02-24T09:55:51Z</time>
      </trkpt>
      <trkpt lat="42.96515" lon="-0.7221">
        <ele>2087</ele>
        <time>2010-02-24T09:55:52Z</time>
      </trkpt>
      <trkpt lat="42.96521" lon="-0.7221">
        <ele>2085.1</ele>
        <time>2010-02-24T09:55:53Z</time>
      </trkpt>
      <trkpt lat="42.96525" lon="-0.72206">
        <ele>2083.3</ele>
        <time>2010-02-24T09:55:54Z</time>
      </trkpt>
      <trkpt lat="42.96529" lon="-0.722">
        <ele>2081.7</ele>
        <time>2010-02-24T09:55:56Z</time>
      </trkpt>
      <trkpt lat="42.96532" lon="-0.72195">
        <ele>2079.9</ele>
        <time>2010-02-24T09:55:57Z</time>
      </trkpt>
      <trkpt lat="42.96537" lon="-0.72194">
        <ele>2078.1</ele>
        <time>2010-02-24T09:55:58Z</time>
      </trkpt>
      <trkpt lat="42.9654" lon="-0.72197">
        <ele>2076.6</ele>
        <time>2010-02-24T09:55:59Z</time>
      </trkpt>
      <trkpt lat="42.96542" lon="-0.72201">
        <ele>2075.5</ele>
        <time>2010-02-24T09:56:00Z</time>
      </trkpt>
      <trkpt lat="42.96545" lon="-0.72206">
        <ele>2074.5</ele>
        <time>2010-02-24T09:56:01Z</time>
      </trkpt>
      <trkpt lat="42.96555" lon="-0.72215">
        <ele>2070.9</ele>
        <time>2010-02-24T09:56:02Z</time>
      </trkpt>
      <trkpt lat="42.9656" lon="-0.72214">
        <ele>2068.8</ele>
        <time>2010-02-24T09:56:03Z</time>
      </trkpt>
      <trkpt lat="42.96564" lon="-0.72208">
        <ele>2067.1</ele>
        <time>2010-02-24T09:56:04Z</time>
      </trkpt>
      <trkpt lat="42.96567" lon="-0.72201">
        <ele>2065.6</ele>
        <time>2010-02-24T09:56:06Z</time>
      </trkpt>
      <trkpt lat="42.96569" lon="-0.72194">
        <ele>2064.6</ele>
        <time>2010-02-24T09:56:07Z</time>
      </trkpt>
      <trkpt lat="42.96572" lon="-0.7219">
        <ele>2064.1</ele>
        <time>2010-02-24T09:56:08Z</time>
      </trkpt>
      <trkpt lat="42.96575" lon="-0.72189">
        <ele>2063.1</ele>
        <time>2010-02-24T09:56:09Z</time>
      </trkpt>
      <trkpt lat="42.96577" lon="-0.72189">
        <ele>2062.3</ele>
        <time>2010-02-24T09:56:11Z</time>
      </trkpt>
      <trkpt lat="42.96576" lon="-0.7219">
        <ele>2062.6</ele>
        <time>2010-02-24T09:56:20Z</time>
      </trkpt>
      <trkpt lat="42.96576" lon="-0.7219">
        <ele>2062.5</ele>
        <time>2010-02-24T09:56:31Z</time>
      </trkpt>
      <trkpt lat="42.96584" lon="-0.72196">
        <ele>2060</ele>
        <time>2010-02-24T09:56:34Z</time>
      </trkpt>
      <trkpt lat="42.96588" lon="-0.72198">
        <ele>2058.7</ele>
        <time>2010-02-24T09:56:36Z</time>
      </trkpt>
      <trkpt lat="42.96594" lon="-0.72196">
        <ele>2057</ele>
        <time>2010-02-24T09:56:37Z</time>
      </trkpt>
      <trkpt lat="42.96599" lon="-0.72191">
        <ele>2055.5</ele>
        <time>2010-02-24T09:56:38Z</time>
      </trkpt>
      <trkpt lat="42.96604" lon="-0.72184">
        <ele>2054</ele>
        <time>2010-02-24T09:56:39Z</time>
      </trkpt>
      <trkpt lat="42.9661" lon="-0.72178">
        <ele>2052.4</ele>
        <time>2010-02-24T09:56:40Z</time>
      </trkpt>
      <trkpt lat="42.96616" lon="-0.72174">
        <ele>2050.1</ele>
        <time>2010-02-24T09:56:41Z</time>
      </trkpt>
      <trkpt lat="42.96625" lon="-0.72176">
        <ele>2047.1</ele>
        <time>2010-02-24T09:56:42Z</time>
      </trkpt>
      <trkpt lat="42.96645" lon="-0.72189">
        <ele>2039.7</ele>
        <time>2010-02-24T09:56:43Z</time>
      </trkpt>
      <trkpt lat="42.96657" lon="-0.7219">
        <ele>2035.5</ele>
        <time>2010-02-24T09:56:44Z</time>
      </trkpt>
      <trkpt lat="42.96668" lon="-0.72187">
        <ele>2031.3</ele>
        <time>2010-02-24T09:56:46Z</time>
      </trkpt>
      <trkpt lat="42.96679" lon="-0.72179">
        <ele>2026.9</ele>
        <time>2010-02-24T09:56:47Z</time>
      </trkpt>
      <trkpt lat="42.9669" lon="-0.72174">
        <ele>2022</ele>
        <time>2010-02-24T09:56:48Z</time>
      </trkpt>
      <trkpt lat="42.96702" lon="-0.72173">
        <ele>2018.1</ele>
        <time>2010-02-24T09:56:49Z</time>
      </trkpt>
      <trkpt lat="42.96715" lon="-0.72177">
        <ele>2014.8</ele>
        <time>2010-02-24T09:56:50Z</time>
      </trkpt>
      <trkpt lat="42.96725" lon="-0.72185">
        <ele>2012</ele>
        <time>2010-02-24T09:56:51Z</time>
      </trkpt>
      <trkpt lat="42.96737" lon="-0.72205">
        <ele>2009.7</ele>
        <time>2010-02-24T09:56:53Z</time>
      </trkpt>
      <trkpt lat="42.96739" lon="-0.72206">
        <ele>2009.5</ele>
        <time>2010-02-24T09:56:54Z</time>
      </trkpt>
      <trkpt lat="42.96738" lon="-0.72202">
        <ele>2009.4</ele>
        <time>2010-02-24T09:56:58Z</time>
      </trkpt>
      <trkpt lat="42.96737" lon="-0.722">
        <ele>2009.4</ele>
        <time>2010-02-24T09:57:00Z</time>
      </trkpt>
      <trkpt lat="42.96736" lon="-0.722">
        <ele>2009.6</ele>
        <time>2010-02-24T09:57:01Z</time>
      </trkpt>
      <trkpt lat="42.96734" lon="-0.722">
        <ele>2009.9</ele>
        <time>2010-02-24T09:57:07Z</time>
      </trkpt>
      <trkpt lat="42.96734" lon="-0.72199">
        <ele>2009.9</ele>
        <time>2010-02-24T09:57:12Z</time>
      </trkpt>
      <trkpt lat="42.96733" lon="-0.72199">
        <ele>2010.1</ele>
        <time>2010-02-24T09:57:24Z</time>
      </trkpt>
      <trkpt lat="42.96733" lon="-0.722">
        <ele>2010.2</ele>
        <time>2010-02-24T09:57:31Z</time>
      </trkpt>
      <trkpt lat="42.96733" lon="-0.722">
        <ele>2010.2</ele>
        <time>2010-02-24T09:57:32Z</time>
      </trkpt>
      <trkpt lat="42.96733" lon="-0.722">
        <ele>2010.1</ele>
        <time>2010-02-24T09:57:33Z</time>
      </trkpt>
      <trkpt lat="42.96742" lon="-0.72194">
        <ele>2007.8</ele>
        <time>2010-02-24T09:57:35Z</time>
      </trkpt>
      <trkpt lat="42.96747" lon="-0.72192">
        <ele>2007</ele>
        <time>2010-02-24T09:57:36Z</time>
      </trkpt>
      <trkpt lat="42.96757" lon="-0.72195">
        <ele>2004.7</ele>
        <time>2010-02-24T09:57:39Z</time>
      </trkpt>
      <trkpt lat="42.96763" lon="-0.72193">
        <ele>2003.9</ele>
        <time>2010-02-24T09:57:40Z</time>
      </trkpt>
      <trkpt lat="42.96768" lon="-0.72189">
        <ele>2003.9</ele>
        <time>2010-02-24T09:57:41Z</time>
      </trkpt>
      <trkpt lat="42.96773" lon="-0.72186">
        <ele>2003.8</ele>
        <time>2010-02-24T09:57:42Z</time>
      </trkpt>
      <trkpt lat="42.96776" lon="-0.72186">
        <ele>2003.4</ele>
        <time>2010-02-24T09:57:43Z</time>
      </trkpt>
      <trkpt lat="42.96781" lon="-0.72187">
        <ele>2002.2</ele>
        <time>2010-02-24T09:57:47Z</time>
      </trkpt>
      <trkpt lat="42.9678" lon="-0.72187">
        <ele>2002.3</ele>
        <time>2010-02-24T09:57:48Z</time>
      </trkpt>
      <trkpt lat="42.9678" lon="-0.72186">
        <ele>2002.5</ele>
        <time>2010-02-24T09:57:55Z</time>
      </trkpt>
      <trkpt lat="42.9678" lon="-0.72186">
        <ele>2002.6</ele>
        <time>2010-02-24T09:57:57Z</time>
      </trkpt>
      <trkpt lat="42.96783" lon="-0.72187">
        <ele>2001.5</ele>
        <time>2010-02-24T09:58:01Z</time>
      </trkpt>
      <trkpt lat="42.96787" lon="-0.72187">
        <ele>2000.4</ele>
        <time>2010-02-24T09:58:02Z</time>
      </trkpt>
      <trkpt lat="42.96797" lon="-0.72185">
        <ele>1998.1</ele>
        <time>2010-02-24T09:58:04Z</time>
      </trkpt>
      <trkpt lat="42.9681" lon="-0.72187">
        <ele>1993.6</ele>
        <time>2010-02-24T09:58:05Z</time>
      </trkpt>
      <trkpt lat="42.96816" lon="-0.72186">
        <ele>1990.8</ele>
        <time>2010-02-24T09:58:06Z</time>
      </trkpt>
      <trkpt lat="42.96823" lon="-0.72182">
        <ele>1988.1</ele>
        <time>2010-02-24T09:58:07Z</time>
      </trkpt>
      <trkpt lat="42.96829" lon="-0.7218">
        <ele>1985.3</ele>
        <time>2010-02-24T09:58:09Z</time>
      </trkpt>
      <trkpt lat="42.96834" lon="-0.7218">
        <ele>1982.6</ele>
        <time>2010-02-24T09:58:10Z</time>
      </trkpt>
      <trkpt lat="42.96838" lon="-0.72183">
        <ele>1981.4</ele>
        <time>2010-02-24T09:58:11Z</time>
      </trkpt>
      <trkpt lat="42.96845" lon="-0.72192">
        <ele>1979.4</ele>
        <time>2010-02-24T09:58:13Z</time>
      </trkpt>
      <trkpt lat="42.9685" lon="-0.72197">
        <ele>1977.7</ele>
        <time>2010-02-24T09:58:14Z</time>
      </trkpt>
      <trkpt lat="42.96862" lon="-0.72197">
        <ele>1972.9</ele>
        <time>2010-02-24T09:58:15Z</time>
      </trkpt>
      <trkpt lat="42.96867" lon="-0.72196">
        <ele>1970.5</ele>
        <time>2010-02-24T09:58:16Z</time>
      </trkpt>
      <trkpt lat="42.96872" lon="-0.72196">
        <ele>1968.6</ele>
        <time>2010-02-24T09:58:18Z</time>
      </trkpt>
      <trkpt lat="42.96874" lon="-0.72197">
        <ele>1967.7</ele>
        <time>2010-02-24T09:58:19Z</time>
      </trkpt>
      <trkpt lat="42.96875" lon="-0.72198">
        <ele>1967.2</ele>
        <time>2010-02-24T09:58:21Z</time>
      </trkpt>
      <trkpt lat="42.96876" lon="-0.72198">
        <ele>1967.1</ele>
        <time>2010-02-24T09:58:23Z</time>
      </trkpt>
      <trkpt lat="42.96874" lon="-0.72198">
        <ele>1967.6</ele>
        <time>2010-02-24T09:58:31Z</time>
      </trkpt>
      <trkpt lat="42.96873" lon="-0.72196">
        <ele>1967.9</ele>
        <time>2010-02-24T09:58:51Z</time>
      </trkpt>
      <trkpt lat="42.96881" lon="-0.722">
        <ele>1965</ele>
        <time>2010-02-24T09:58:55Z</time>
      </trkpt>
      <trkpt lat="42.96893" lon="-0.72196">
        <ele>1959.3</ele>
        <time>2010-02-24T09:58:56Z</time>
      </trkpt>
      <trkpt lat="42.96905" lon="-0.7218">
        <ele>1953</ele>
        <time>2010-02-24T09:58:59Z</time>
      </trkpt>
      <trkpt lat="42.96911" lon="-0.72173">
        <ele>1949.8</ele>
        <time>2010-02-24T09:59:00Z</time>
      </trkpt>
      <trkpt lat="42.96919" lon="-0.72171">
        <ele>1946.4</ele>
        <time>2010-02-24T09:59:01Z</time>
      </trkpt>
      <trkpt lat="42.96928" lon="-0.72175">
        <ele>1942.2</ele>
        <time>2010-02-24T09:59:02Z</time>
      </trkpt>
      <trkpt lat="42.96938" lon="-0.72177">
        <ele>1937.7</ele>
        <time>2010-02-24T09:59:03Z</time>
      </trkpt>
      <trkpt lat="42.96948" lon="-0.72175">
        <ele>1932.8</ele>
        <time>2010-02-24T09:59:04Z</time>
      </trkpt>
      <trkpt lat="42.96969" lon="-0.72164">
        <ele>1924.2</ele>
        <time>2010-02-24T09:59:05Z</time>
      </trkpt>
      <trkpt lat="42.9698" lon="-0.72163">
        <ele>1921.5</ele>
        <time>2010-02-24T09:59:06Z</time>
      </trkpt>
      <trkpt lat="42.96989" lon="-0.72165">
        <ele>1919.9</ele>
        <time>2010-02-24T09:59:07Z</time>
      </trkpt>
      <trkpt lat="42.96995" lon="-0.7217">
        <ele>1918.9</ele>
        <time>2010-02-24T09:59:08Z</time>
      </trkpt>
      <trkpt lat="42.96997" lon="-0.72176">
        <ele>1918.6</ele>
        <time>2010-02-24T09:59:10Z</time>
      </trkpt>
      <trkpt lat="42.96997" lon="-0.7218">
        <ele>1918.6</ele>
        <time>2010-02-24T09:59:11Z</time>
      </trkpt>
      <trkpt lat="42.96996" lon="-0.72182">
        <ele>1918.7</ele>
        <time>2010-02-24T09:59:13Z</time>
      </trkpt>
      <trkpt lat="42.96995" lon="-0.72183">
        <ele>1918.9</ele>
        <time>2010-02-24T09:59:15Z</time>
      </trkpt>
      <trkpt lat="42.96993" lon="-0.72184">
        <ele>1919.3</ele>
        <time>2010-02-24T09:59:23Z</time>
      </trkpt>
      <trkpt lat="42.96992" lon="-0.72184">
        <ele>1919.4</ele>
        <time>2010-02-24T09:59:32Z</time>
      </trkpt>
      <trkpt lat="42.96992" lon="-0.72183">
        <ele>1919.4</ele>
        <time>2010-02-24T09:59:45Z</time>
      </trkpt>
      <trkpt lat="42.96992" lon="-0.72183">
        <ele>1919.4</ele>
        <time>2010-02-24T09:59:47Z</time>
      </trkpt>
      <trkpt lat="42.96992" lon="-0.72183">
        <ele>1919.4</ele>
        <time>2010-02-24T10:00:01Z</time>
      </trkpt>
      <trkpt lat="42.96995" lon="-0.72185">
        <ele>1918.9</ele>
        <time>2010-02-24T10:00:17Z</time>
      </trkpt>
      <trkpt lat="42.97004" lon="-0.72198">
        <ele>1917.5</ele>
        <time>2010-02-24T10:00:19Z</time>
      </trkpt>
      <trkpt lat="42.97007" lon="-0.72203">
        <ele>1917</ele>
        <time>2010-02-24T10:00:21Z</time>
      </trkpt>
      <trkpt lat="42.97008" lon="-0.72209">
        <ele>1916.7</ele>
        <time>2010-02-24T10:00:22Z</time>
      </trkpt>
      <trkpt lat="42.97008" lon="-0.72213">
        <ele>1916.5</ele>
        <time>2010-02-24T10:00:23Z</time>
      </trkpt>
      <trkpt lat="42.97006" lon="-0.72219">
        <ele>1916.4</ele>
        <time>2010-02-24T10:00:26Z</time>
      </trkpt>
      <trkpt lat="42.97004" lon="-0.72223">
        <ele>1916.5</ele>
        <time>2010-02-24T10:00:29Z</time>
      </trkpt>
      <trkpt lat="42.97002" lon="-0.72226">
        <ele>1916.3</ele>
        <time>2010-02-24T10:00:30Z</time>
      </trkpt>
      <trkpt lat="42.96998" lon="-0.72234">
        <ele>1916.5</ele>
        <time>2010-02-24T10:00:33Z</time>
      </trkpt>
      <trkpt lat="42.96996" lon="-0.72239">
        <ele>1916.7</ele>
        <time>2010-02-24T10:00:34Z</time>
      </trkpt>
      <trkpt lat="42.96994" lon="-0.72252">
        <ele>1916.4</ele>
        <time>2010-02-24T10:00:36Z</time>
      </trkpt>
      <trkpt lat="42.96994" lon="-0.72258">
        <ele>1916.3</ele>
        <time>2010-02-24T10:00:37Z</time>
      </trkpt>
      <trkpt lat="42.96995" lon="-0.7227">
        <ele>1914.7</ele>
        <time>2010-02-24T10:00:38Z</time>
      </trkpt>
      <trkpt lat="42.96998" lon="-0.72286">
        <ele>1911.9</ele>
        <time>2010-02-24T10:00:42Z</time>
      </trkpt>
      <trkpt lat="42.97" lon="-0.72296">
        <ele>1909.9</ele>
        <time>2010-02-24T10:00:44Z</time>
      </trkpt>
      <trkpt lat="42.97007" lon="-0.72313">
        <ele>1907.6</ele>
        <time>2010-02-24T10:00:48Z</time>
      </trkpt>
      <trkpt lat="42.9701" lon="-0.72324">
        <ele>1906.8</ele>
        <time>2010-02-24T10:00:50Z</time>
      </trkpt>
      <trkpt lat="42.9701" lon="-0.72327">
        <ele>1906.8</ele>
        <time>2010-02-24T10:00:52Z</time>
      </trkpt>
      <trkpt lat="42.97011" lon="-0.72334">
        <ele>1906.9</ele>
        <time>2010-02-24T10:00:55Z</time>
      </trkpt>
      <trkpt lat="42.9701" lon="-0.72339">
        <ele>1906.3</ele>
        <time>2010-02-24T10:00:57Z</time>
      </trkpt>
      <trkpt lat="42.97008" lon="-0.72345">
        <ele>1905.7</ele>
        <time>2010-02-24T10:00:59Z</time>
      </trkpt>
      <trkpt lat="42.97008" lon="-0.72346">
        <ele>1905.7</ele>
        <time>2010-02-24T10:01:00Z</time>
      </trkpt>
      <trkpt lat="42.97007" lon="-0.72347">
        <ele>1905.5</ele>
        <time>2010-02-24T10:01:02Z</time>
      </trkpt>
      <trkpt lat="42.97007" lon="-0.72348">
        <ele>1905.2</ele>
        <time>2010-02-24T10:01:03Z</time>
      </trkpt>
      <trkpt lat="42.97007" lon="-0.72349">
        <ele>1905.2</ele>
        <time>2010-02-24T10:01:04Z</time>
      </trkpt>
      <trkpt lat="42.97005" lon="-0.72355">
        <ele>1904.3</ele>
        <time>2010-02-24T10:01:11Z</time>
      </trkpt>
      <trkpt lat="42.97005" lon="-0.72356">
        <ele>1904.2</ele>
        <time>2010-02-24T10:01:14Z</time>
      </trkpt>
      <trkpt lat="42.97005" lon="-0.72356">
        <ele>1904.3</ele>
        <time>2010-02-24T10:01:17Z</time>
      </trkpt>
      <trkpt lat="42.97005" lon="-0.72357">
        <ele>1904.1</ele>
        <time>2010-02-24T10:01:21Z</time>
      </trkpt>
      <trkpt lat="42.97004" lon="-0.72357">
        <ele>1904</ele>
        <time>2010-02-24T10:01:26Z</time>
      </trkpt>
      <trkpt lat="42.97004" lon="-0.72358">
        <ele>1903.9</ele>
        <time>2010-02-24T10:01:27Z</time>
      </trkpt>
      <trkpt lat="42.97003" lon="-0.72359">
        <ele>1903.8</ele>
        <time>2010-02-24T10:01:30Z</time>
      </trkpt>
      <trkpt lat="42.97003" lon="-0.72359">
        <ele>1903.9</ele>
        <time>2010-02-24T10:01:34Z</time>
      </trkpt>
      <trkpt lat="42.97003" lon="-0.7236">
        <ele>1903.8</ele>
        <time>2010-02-24T10:01:38Z</time>
      </trkpt>
      <trkpt lat="42.97002" lon="-0.72361">
        <ele>1903.6</ele>
        <time>2010-02-24T10:01:40Z</time>
      </trkpt>
      <trkpt lat="42.97001" lon="-0.72363">
        <ele>1903.6</ele>
        <time>2010-02-24T10:01:43Z</time>
      </trkpt>
      <trkpt lat="42.97" lon="-0.72366">
        <ele>1903.6</ele>
        <time>2010-02-24T10:01:45Z</time>
      </trkpt>
      <trkpt lat="42.96998" lon="-0.72373">
        <ele>1903.2</ele>
        <time>2010-02-24T10:01:49Z</time>
      </trkpt>
      <trkpt lat="42.96996" lon="-0.72379">
        <ele>1902.7</ele>
        <time>2010-02-24T10:01:51Z</time>
      </trkpt>
      <trkpt lat="42.96994" lon="-0.72387">
        <ele>1901.7</ele>
        <time>2010-02-24T10:01:53Z</time>
      </trkpt>
      <trkpt lat="42.96995" lon="-0.72389">
        <ele>1901.3</ele>
        <time>2010-02-24T10:01:54Z</time>
      </trkpt>
      <trkpt lat="42.96995" lon="-0.7239">
        <ele>1901.2</ele>
        <time>2010-02-24T10:01:55Z</time>
      </trkpt>
      <trkpt lat="42.96995" lon="-0.7239">
        <ele>1901.2</ele>
        <time>2010-02-24T10:01:56Z</time>
      </trkpt>
      <trkpt lat="42.96995" lon="-0.7239">
        <ele>1901.1</ele>
        <time>2010-02-24T10:02:00Z</time>
      </trkpt>
      <trkpt lat="42.96995" lon="-0.7239">
        <ele>1901.1</ele>
        <time>2010-02-24T10:02:02Z</time>
      </trkpt>
      <trkpt lat="42.96995" lon="-0.72391">
        <ele>1901.1</ele>
        <time>2010-02-24T10:02:04Z</time>
      </trkpt>
      <trkpt lat="42.96991" lon="-0.72392">
        <ele>1901.1</ele>
        <time>2010-02-24T10:02:18Z</time>
      </trkpt>
      <trkpt lat="42.96991" lon="-0.72393">
        <ele>1901</ele>
        <time>2010-02-24T10:02:22Z</time>
      </trkpt>
      <trkpt lat="42.96991" lon="-0.72393">
        <ele>1901</ele>
        <time>2010-02-24T10:02:24Z</time>
      </trkpt>
      <trkpt lat="42.96992" lon="-0.72393">
        <ele>1900.9</ele>
        <time>2010-02-24T10:02:30Z</time>
      </trkpt>
      <trkpt lat="42.96992" lon="-0.72393">
        <ele>1900.9</ele>
        <time>2010-02-24T10:02:31Z</time>
      </trkpt>
      <trkpt lat="42.96992" lon="-0.72393">
        <ele>1901</ele>
        <time>2010-02-24T10:02:35Z</time>
      </trkpt>
      <trkpt lat="42.96992" lon="-0.72393">
        <ele>1900.9</ele>
        <time>2010-02-24T10:02:37Z</time>
      </trkpt>
      <trkpt lat="42.96991" lon="-0.72393">
        <ele>1900.9</ele>
        <time>2010-02-24T10:02:40Z</time>
      </trkpt>
      <trkpt lat="42.96988" lon="-0.72396">
        <ele>1900.6</ele>
        <time>2010-02-24T10:02:45Z</time>
      </trkpt>
      <trkpt lat="42.96989" lon="-0.72396">
        <ele>1900.5</ele>
        <time>2010-02-24T10:02:47Z</time>
      </trkpt>
      <trkpt lat="42.96988" lon="-0.72396">
        <ele>1900.6</ele>
        <time>2010-02-24T10:02:48Z</time>
      </trkpt>
      <trkpt lat="42.96989" lon="-0.72395">
        <ele>1900.7</ele>
        <time>2010-02-24T10:02:51Z</time>
      </trkpt>
      <trkpt lat="42.96989" lon="-0.72394">
        <ele>1900.8</ele>
        <time>2010-02-24T10:02:52Z</time>
      </trkpt>
      <trkpt lat="42.96989" lon="-0.72395">
        <ele>1900.7</ele>
        <time>2010-02-24T10:02:56Z</time>
      </trkpt>
      <trkpt lat="42.96989" lon="-0.72395">
        <ele>1900.6</ele>
        <time>2010-02-24T10:02:57Z</time>
      </trkpt>
      <trkpt lat="42.96989" lon="-0.72396">
        <ele>1900.5</ele>
        <time>2010-02-24T10:02:59Z</time>
      </trkpt>
      <trkpt lat="42.96989" lon="-0.72396">
        <ele>1900.5</ele>
        <time>2010-02-24T10:03:00Z</time>
      </trkpt>
      <trkpt lat="42.9699" lon="-0.72397">
        <ele>1900.2</ele>
        <time>2010-02-24T10:03:02Z</time>
      </trkpt>
      <trkpt lat="42.9699" lon="-0.724">
        <ele>1899.7</ele>
        <time>2010-02-24T10:03:03Z</time>
      </trkpt>
      <trkpt lat="42.9699" lon="-0.72404">
        <ele>1898.9</ele>
        <time>2010-02-24T10:03:04Z</time>
      </trkpt>
      <trkpt lat="42.96988" lon="-0.72416">
        <ele>1896.6</ele>
        <time>2010-02-24T10:03:07Z</time>
      </trkpt>
      <trkpt lat="42.96987" lon="-0.72423">
        <ele>1895.2</ele>
        <time>2010-02-24T10:03:08Z</time>
      </trkpt>
      <trkpt lat="42.96987" lon="-0.72432">
        <ele>1893.5</ele>
        <time>2010-02-24T10:03:09Z</time>
      </trkpt>
      <trkpt lat="42.96987" lon="-0.72442">
        <ele>1891.6</ele>
        <time>2010-02-24T10:03:10Z</time>
      </trkpt>
      <trkpt lat="42.96988" lon="-0.72453">
        <ele>1888.6</ele>
        <time>2010-02-24T10:03:11Z</time>
      </trkpt>
      <trkpt lat="42.96987" lon="-0.72465">
        <ele>1884.9</ele>
        <time>2010-02-24T10:03:12Z</time>
      </trkpt>
      <trkpt lat="42.96988" lon="-0.72489">
        <ele>1878.3</ele>
        <time>2010-02-24T10:03:13Z</time>
      </trkpt>
      <trkpt lat="42.96993" lon="-0.72512">
        <ele>1873</ele>
        <time>2010-02-24T10:03:16Z</time>
      </trkpt>
      <trkpt lat="42.96993" lon="-0.72523">
        <ele>1870.3</ele>
        <time>2010-02-24T10:03:17Z</time>
      </trkpt>
      <trkpt lat="42.96993" lon="-0.72533">
        <ele>1868.3</ele>
        <time>2010-02-24T10:03:18Z</time>
      </trkpt>
      <trkpt lat="42.96991" lon="-0.72543">
        <ele>1867</ele>
        <time>2010-02-24T10:03:19Z</time>
      </trkpt>
      <trkpt lat="42.96989" lon="-0.72553">
        <ele>1866</ele>
        <time>2010-02-24T10:03:20Z</time>
      </trkpt>
      <trkpt lat="42.96987" lon="-0.72563">
        <ele>1864.2</ele>
        <time>2010-02-24T10:03:21Z</time>
      </trkpt>
      <trkpt lat="42.96981" lon="-0.72583">
        <ele>1857.7</ele>
        <time>2010-02-24T10:03:22Z</time>
      </trkpt>
      <trkpt lat="42.96977" lon="-0.72595">
        <ele>1854.6</ele>
        <time>2010-02-24T10:03:23Z</time>
      </trkpt>
      <trkpt lat="42.96969" lon="-0.7262">
        <ele>1849.8</ele>
        <time>2010-02-24T10:03:25Z</time>
      </trkpt>
      <trkpt lat="42.96957" lon="-0.72664">
        <ele>1841.4</ele>
        <time>2010-02-24T10:03:29Z</time>
      </trkpt>
      <trkpt lat="42.96944" lon="-0.72706">
        <ele>1836</ele>
        <time>2010-02-24T10:03:32Z</time>
      </trkpt>
      <trkpt lat="42.96934" lon="-0.72734">
        <ele>1833.8</ele>
        <time>2010-02-24T10:03:33Z</time>
      </trkpt>
      <trkpt lat="42.96929" lon="-0.72747">
        <ele>1831.5</ele>
        <time>2010-02-24T10:03:34Z</time>
      </trkpt>
      <trkpt lat="42.96925" lon="-0.72759">
        <ele>1831</ele>
        <time>2010-02-24T10:03:36Z</time>
      </trkpt>
      <trkpt lat="42.96921" lon="-0.72771">
        <ele>1830.7</ele>
        <time>2010-02-24T10:03:37Z</time>
      </trkpt>
      <trkpt lat="42.9692" lon="-0.72783">
        <ele>1830.3</ele>
        <time>2010-02-24T10:03:38Z</time>
      </trkpt>
      <trkpt lat="42.96921" lon="-0.72795">
        <ele>1829.5</ele>
        <time>2010-02-24T10:03:39Z</time>
      </trkpt>
      <trkpt lat="42.96925" lon="-0.72806">
        <ele>1827.8</ele>
        <time>2010-02-24T10:03:40Z</time>
      </trkpt>
      <trkpt lat="42.96934" lon="-0.72827">
        <ele>1826.3</ele>
        <time>2010-02-24T10:03:42Z</time>
      </trkpt>
      <trkpt lat="42.96948" lon="-0.72848">
        <ele>1824.6</ele>
        <time>2010-02-24T10:03:44Z</time>
      </trkpt>
      <trkpt lat="42.96961" lon="-0.72866">
        <ele>1822.9</ele>
        <time>2010-02-24T10:03:45Z</time>
      </trkpt>
      <trkpt lat="42.96966" lon="-0.72875">
        <ele>1822.2</ele>
        <time>2010-02-24T10:03:47Z</time>
      </trkpt>
      <trkpt lat="42.96972" lon="-0.72884">
        <ele>1820.8</ele>
        <time>2010-02-24T10:03:48Z</time>
      </trkpt>
      <trkpt lat="42.96979" lon="-0.72892">
        <ele>1820.4</ele>
        <time>2010-02-24T10:03:49Z</time>
      </trkpt>
      <trkpt lat="42.96987" lon="-0.72897">
        <ele>1819.4</ele>
        <time>2010-02-24T10:03:50Z</time>
      </trkpt>
      <trkpt lat="42.96995" lon="-0.72902">
        <ele>1817.5</ele>
        <time>2010-02-24T10:03:51Z</time>
      </trkpt>
      <trkpt lat="42.97009" lon="-0.72916">
        <ele>1815</ele>
        <time>2010-02-24T10:03:52Z</time>
      </trkpt>
      <trkpt lat="42.97013" lon="-0.72923">
        <ele>1814.3</ele>
        <time>2010-02-24T10:03:53Z</time>
      </trkpt>
      <trkpt lat="42.97014" lon="-0.72932">
        <ele>1814</ele>
        <time>2010-02-24T10:03:54Z</time>
      </trkpt>
      <trkpt lat="42.97012" lon="-0.72941">
        <ele>1813.4</ele>
        <time>2010-02-24T10:03:55Z</time>
      </trkpt>
      <trkpt lat="42.9701" lon="-0.72951">
        <ele>1811.8</ele>
        <time>2010-02-24T10:03:57Z</time>
      </trkpt>
      <trkpt lat="42.97009" lon="-0.72963">
        <ele>1809.5</ele>
        <time>2010-02-24T10:03:58Z</time>
      </trkpt>
      <trkpt lat="42.97009" lon="-0.72987">
        <ele>1803.7</ele>
        <time>2010-02-24T10:04:00Z</time>
      </trkpt>
      <trkpt lat="42.97007" lon="-0.73017">
        <ele>1797.5</ele>
        <time>2010-02-24T10:04:02Z</time>
      </trkpt>
      <trkpt lat="42.97003" lon="-0.73049">
        <ele>1792</ele>
        <time>2010-02-24T10:04:03Z</time>
      </trkpt>
      <trkpt lat="42.96996" lon="-0.73081">
        <ele>1789.3</ele>
        <time>2010-02-24T10:04:05Z</time>
      </trkpt>
      <trkpt lat="42.96993" lon="-0.73097">
        <ele>1787.9</ele>
        <time>2010-02-24T10:04:06Z</time>
      </trkpt>
      <trkpt lat="42.96992" lon="-0.73113">
        <ele>1787</ele>
        <time>2010-02-24T10:04:08Z</time>
      </trkpt>
      <trkpt lat="42.96992" lon="-0.73128">
        <ele>1787.1</ele>
        <time>2010-02-24T10:04:09Z</time>
      </trkpt>
      <trkpt lat="42.96994" lon="-0.73143">
        <ele>1786.1</ele>
        <time>2010-02-24T10:04:10Z</time>
      </trkpt>
      <trkpt lat="42.96997" lon="-0.73157">
        <ele>1784.8</ele>
        <time>2010-02-24T10:04:11Z</time>
      </trkpt>
      <trkpt lat="42.97009" lon="-0.73209">
        <ele>1782.1</ele>
        <time>2010-02-24T10:04:14Z</time>
      </trkpt>
      <trkpt lat="42.97014" lon="-0.73231">
        <ele>1782.5</ele>
        <time>2010-02-24T10:04:16Z</time>
      </trkpt>
      <trkpt lat="42.97015" lon="-0.73241">
        <ele>1782.3</ele>
        <time>2010-02-24T10:04:18Z</time>
      </trkpt>
      <trkpt lat="42.97018" lon="-0.7325">
        <ele>1781.7</ele>
        <time>2010-02-24T10:04:19Z</time>
      </trkpt>
      <trkpt lat="42.97021" lon="-0.73259">
        <ele>1780.7</ele>
        <time>2010-02-24T10:04:20Z</time>
      </trkpt>
      <trkpt lat="42.97025" lon="-0.73267">
        <ele>1779.4</ele>
        <time>2010-02-24T10:04:21Z</time>
      </trkpt>
      <trkpt lat="42.97031" lon="-0.73274">
        <ele>1778.3</ele>
        <time>2010-02-24T10:04:22Z</time>
      </trkpt>
      <trkpt lat="42.97038" lon="-0.73281">
        <ele>1777.3</ele>
        <time>2010-02-24T10:04:23Z</time>
      </trkpt>
      <trkpt lat="42.97056" lon="-0.73293">
        <ele>1770.1</ele>
        <time>2010-02-24T10:04:24Z</time>
      </trkpt>
      <trkpt lat="42.97064" lon="-0.73298">
        <ele>1769.5</ele>
        <time>2010-02-24T10:04:25Z</time>
      </trkpt>
      <trkpt lat="42.97071" lon="-0.73303">
        <ele>1769.1</ele>
        <time>2010-02-24T10:04:27Z</time>
      </trkpt>
      <trkpt lat="42.97077" lon="-0.73309">
        <ele>1768.9</ele>
        <time>2010-02-24T10:04:28Z</time>
      </trkpt>
      <trkpt lat="42.97083" lon="-0.73315">
        <ele>1768.5</ele>
        <time>2010-02-24T10:04:29Z</time>
      </trkpt>
      <trkpt lat="42.97088" lon="-0.73322">
        <ele>1769.1</ele>
        <time>2010-02-24T10:04:30Z</time>
      </trkpt>
      <trkpt lat="42.97092" lon="-0.73329">
        <ele>1769.8</ele>
        <time>2010-02-24T10:04:31Z</time>
      </trkpt>
      <trkpt lat="42.97096" lon="-0.73336">
        <ele>1770.1</ele>
        <time>2010-02-24T10:04:32Z</time>
      </trkpt>
      <trkpt lat="42.971" lon="-0.73343">
        <ele>1769.9</ele>
        <time>2010-02-24T10:04:33Z</time>
      </trkpt>
      <trkpt lat="42.97103" lon="-0.7335">
        <ele>1769.2</ele>
        <time>2010-02-24T10:04:34Z</time>
      </trkpt>
      <trkpt lat="42.97109" lon="-0.73364">
        <ele>1767.4</ele>
        <time>2010-02-24T10:04:35Z</time>
      </trkpt>
      <trkpt lat="42.97111" lon="-0.73371">
        <ele>1766.9</ele>
        <time>2010-02-24T10:04:37Z</time>
      </trkpt>
      <trkpt lat="42.97113" lon="-0.7338">
        <ele>1766.2</ele>
        <time>2010-02-24T10:04:38Z</time>
      </trkpt>
      <trkpt lat="42.97115" lon="-0.73398">
        <ele>1765.1</ele>
        <time>2010-02-24T10:04:40Z</time>
      </trkpt>
      <trkpt lat="42.97115" lon="-0.73408">
        <ele>1764.7</ele>
        <time>2010-02-24T10:04:41Z</time>
      </trkpt>
      <trkpt lat="42.97117" lon="-0.73417">
        <ele>1764.2</ele>
        <time>2010-02-24T10:04:42Z</time>
      </trkpt>
      <trkpt lat="42.97119" lon="-0.73425">
        <ele>1763.4</ele>
        <time>2010-02-24T10:04:43Z</time>
      </trkpt>
      <trkpt lat="42.97125" lon="-0.73436">
        <ele>1762.1</ele>
        <time>2010-02-24T10:04:44Z</time>
      </trkpt>
      <trkpt lat="42.97127" lon="-0.7344">
        <ele>1761.4</ele>
        <time>2010-02-24T10:04:46Z</time>
      </trkpt>
      <trkpt lat="42.97128" lon="-0.7344">
        <ele>1761.5</ele>
        <time>2010-02-24T10:04:49Z</time>
      </trkpt>
      <trkpt lat="42.97126" lon="-0.73438">
        <ele>1761.7</ele>
        <time>2010-02-24T10:05:02Z</time>
      </trkpt>
      <trkpt lat="42.97126" lon="-0.73436">
        <ele>1762</ele>
        <time>2010-02-24T10:05:09Z</time>
      </trkpt>
      <trkpt lat="42.97126" lon="-0.73436">
        <ele>1762.1</ele>
        <time>2010-02-24T10:05:13Z</time>
      </trkpt>
      <trkpt lat="42.97126" lon="-0.73435">
        <ele>1762.2</ele>
        <time>2010-02-24T10:05:17Z</time>
      </trkpt>
      <trkpt lat="42.97126" lon="-0.73433">
        <ele>1762.5</ele>
        <time>2010-02-24T10:05:20Z</time>
      </trkpt>
      <trkpt lat="42.97127" lon="-0.7343">
        <ele>1762.7</ele>
        <time>2010-02-24T10:05:22Z</time>
      </trkpt>
      <trkpt lat="42.97128" lon="-0.73429">
        <ele>1762.9</ele>
        <time>2010-02-24T10:05:23Z</time>
      </trkpt>
      <trkpt lat="42.97129" lon="-0.73429">
        <ele>1762.9</ele>
        <time>2010-02-24T10:05:24Z</time>
      </trkpt>
      <trkpt lat="42.97131" lon="-0.73429">
        <ele>1762.9</ele>
        <time>2010-02-24T10:05:25Z</time>
      </trkpt>
      <trkpt lat="42.97133" lon="-0.7343">
        <ele>1762.7</ele>
        <time>2010-02-24T10:05:26Z</time>
      </trkpt>
      <trkpt lat="42.97141" lon="-0.73438">
        <ele>1761.4</ele>
        <time>2010-02-24T10:05:30Z</time>
      </trkpt>
      <trkpt lat="42.97145" lon="-0.73442">
        <ele>1761.2</ele>
        <time>2010-02-24T10:05:31Z</time>
      </trkpt>
      <trkpt lat="42.97152" lon="-0.73451">
        <ele>1760.4</ele>
        <time>2010-02-24T10:05:33Z</time>
      </trkpt>
      <trkpt lat="42.97159" lon="-0.73461">
        <ele>1758.4</ele>
        <time>2010-02-24T10:05:35Z</time>
      </trkpt>
      <trkpt lat="42.97168" lon="-0.73476">
        <ele>1754.2</ele>
        <time>2010-02-24T10:05:37Z</time>
      </trkpt>
      <trkpt lat="42.97173" lon="-0.73481">
        <ele>1752.7</ele>
        <time>2010-02-24T10:05:39Z</time>
      </trkpt>
      <trkpt lat="42.97194" lon="-0.73506">
        <ele>1748</ele>
        <time>2010-02-24T10:05:42Z</time>
      </trkpt>
      <trkpt lat="42.97203" lon="-0.73519">
        <ele>1745.4</ele>
        <time>2010-02-24T10:05:43Z</time>
      </trkpt>
      <trkpt lat="42.9721" lon="-0.73533">
        <ele>1744.5</ele>
        <time>2010-02-24T10:05:44Z</time>
      </trkpt>
      <trkpt lat="42.97216" lon="-0.73547">
        <ele>1744.8</ele>
        <time>2010-02-24T10:05:45Z</time>
      </trkpt>
      <trkpt lat="42.9722" lon="-0.73577">
        <ele>1743.9</ele>
        <time>2010-02-24T10:05:46Z</time>
      </trkpt>
      <trkpt lat="42.9722" lon="-0.73592">
        <ele>1742.7</ele>
        <time>2010-02-24T10:05:47Z</time>
      </trkpt>
      <trkpt lat="42.9722" lon="-0.73607">
        <ele>1741.7</ele>
        <time>2010-02-24T10:05:49Z</time>
      </trkpt>
      <trkpt lat="42.97221" lon="-0.73634">
        <ele>1739.9</ele>
        <time>2010-02-24T10:05:51Z</time>
      </trkpt>
      <trkpt lat="42.97222" lon="-0.73648">
        <ele>1739.3</ele>
        <time>2010-02-24T10:05:52Z</time>
      </trkpt>
      <trkpt lat="42.97224" lon="-0.73661">
        <ele>1738.3</ele>
        <time>2010-02-24T10:05:53Z</time>
      </trkpt>
      <trkpt lat="42.97226" lon="-0.73674">
        <ele>1737.3</ele>
        <time>2010-02-24T10:05:54Z</time>
      </trkpt>
      <trkpt lat="42.97233" lon="-0.73711">
        <ele>1736.4</ele>
        <time>2010-02-24T10:05:56Z</time>
      </trkpt>
      <trkpt lat="42.97236" lon="-0.73722">
        <ele>1736.4</ele>
        <time>2010-02-24T10:05:57Z</time>
      </trkpt>
      <trkpt lat="42.97239" lon="-0.73732">
        <ele>1735.1</ele>
        <time>2010-02-24T10:05:58Z</time>
      </trkpt>
      <trkpt lat="42.97243" lon="-0.73742">
        <ele>1733.9</ele>
        <time>2010-02-24T10:06:00Z</time>
      </trkpt>
      <trkpt lat="42.97248" lon="-0.73752">
        <ele>1733.4</ele>
        <time>2010-02-24T10:06:01Z</time>
      </trkpt>
      <trkpt lat="42.97254" lon="-0.73761">
        <ele>1732.1</ele>
        <time>2010-02-24T10:06:02Z</time>
      </trkpt>
      <trkpt lat="42.97261" lon="-0.73771">
        <ele>1730.5</ele>
        <time>2010-02-24T10:06:03Z</time>
      </trkpt>
      <trkpt lat="42.97273" lon="-0.73789">
        <ele>1729.9</ele>
        <time>2010-02-24T10:06:05Z</time>
      </trkpt>
      <trkpt lat="42.97278" lon="-0.73799">
        <ele>1729.6</ele>
        <time>2010-02-24T10:06:06Z</time>
      </trkpt>
      <trkpt lat="42.97282" lon="-0.73808">
        <ele>1728</ele>
        <time>2010-02-24T10:06:07Z</time>
      </trkpt>
      <trkpt lat="42.97287" lon="-0.73827">
        <ele>1727.4</ele>
        <time>2010-02-24T10:06:08Z</time>
      </trkpt>
      <trkpt lat="42.97289" lon="-0.73838">
        <ele>1727.1</ele>
        <time>2010-02-24T10:06:10Z</time>
      </trkpt>
      <trkpt lat="42.97292" lon="-0.73848">
        <ele>1727.1</ele>
        <time>2010-02-24T10:06:11Z</time>
      </trkpt>
      <trkpt lat="42.97295" lon="-0.73857">
        <ele>1727.1</ele>
        <time>2010-02-24T10:06:12Z</time>
      </trkpt>
      <trkpt lat="42.97302" lon="-0.73874">
        <ele>1725.3</ele>
        <time>2010-02-24T10:06:14Z</time>
      </trkpt>
      <trkpt lat="42.97305" lon="-0.73882">
        <ele>1724.3</ele>
        <time>2010-02-24T10:06:15Z</time>
      </trkpt>
      <trkpt lat="42.97307" lon="-0.7389">
        <ele>1724.2</ele>
        <time>2010-02-24T10:06:16Z</time>
      </trkpt>
      <trkpt lat="42.97312" lon="-0.73909">
        <ele>1725.9</ele>
        <time>2010-02-24T10:06:17Z</time>
      </trkpt>
      <trkpt lat="42.97315" lon="-0.73925">
        <ele>1726.8</ele>
        <time>2010-02-24T10:06:20Z</time>
      </trkpt>
      <trkpt lat="42.97321" lon="-0.7395">
        <ele>1725.9</ele>
        <time>2010-02-24T10:06:24Z</time>
      </trkpt>
      <trkpt lat="42.97325" lon="-0.73964">
        <ele>1723.2</ele>
        <time>2010-02-24T10:06:26Z</time>
      </trkpt>
      <trkpt lat="42.97331" lon="-0.73981">
        <ele>1720.7</ele>
        <time>2010-02-24T10:06:28Z</time>
      </trkpt>
      <trkpt lat="42.97337" lon="-0.73996">
        <ele>1717.7</ele>
        <time>2010-02-24T10:06:30Z</time>
      </trkpt>
      <trkpt lat="42.9734" lon="-0.74003">
        <ele>1716.3</ele>
        <time>2010-02-24T10:06:31Z</time>
      </trkpt>
      <trkpt lat="42.97343" lon="-0.74008">
        <ele>1715.6</ele>
        <time>2010-02-24T10:06:32Z</time>
      </trkpt>
      <trkpt lat="42.97346" lon="-0.7401">
        <ele>1714.9</ele>
        <time>2010-02-24T10:06:33Z</time>
      </trkpt>
      <trkpt lat="42.97347" lon="-0.7401">
        <ele>1714.7</ele>
        <time>2010-02-24T10:06:35Z</time>
      </trkpt>
      <trkpt lat="42.97346" lon="-0.74009">
        <ele>1714.8</ele>
        <time>2010-02-24T10:06:36Z</time>
      </trkpt>
      <trkpt lat="42.97346" lon="-0.74008">
        <ele>1714.9</ele>
        <time>2010-02-24T10:06:37Z</time>
      </trkpt>
      <trkpt lat="42.97346" lon="-0.74008">
        <ele>1714.8</ele>
        <time>2010-02-24T10:06:39Z</time>
      </trkpt>
      <trkpt lat="42.97346" lon="-0.74007">
        <ele>1714.8</ele>
        <time>2010-02-24T10:06:47Z</time>
      </trkpt>
      <trkpt lat="42.97346" lon="-0.74006">
        <ele>1714.9</ele>
        <time>2010-02-24T10:06:52Z</time>
      </trkpt>
      <trkpt lat="42.97346" lon="-0.74006">
        <ele>1714.9</ele>
        <time>2010-02-24T10:06:54Z</time>
      </trkpt>
      <trkpt lat="42.97346" lon="-0.74006">
        <ele>1714.9</ele>
        <time>2010-02-24T10:06:55Z</time>
      </trkpt>
      <trkpt lat="42.97345" lon="-0.74008">
        <ele>1715.2</ele>
        <time>2010-02-24T10:06:59Z</time>
      </trkpt>
      <trkpt lat="42.97343" lon="-0.74009">
        <ele>1715.6</ele>
        <time>2010-02-24T10:07:03Z</time>
      </trkpt>
      <trkpt lat="42.97343" lon="-0.74009">
        <ele>1715.6</ele>
        <time>2010-02-24T10:07:04Z</time>
      </trkpt>
      <trkpt lat="42.97345" lon="-0.7402">
        <ele>1715.1</ele>
        <time>2010-02-24T10:07:07Z</time>
      </trkpt>
      <trkpt lat="42.97347" lon="-0.74036">
        <ele>1714.8</ele>
        <time>2010-02-24T10:07:09Z</time>
      </trkpt>
      <trkpt lat="42.97348" lon="-0.74046">
        <ele>1714.6</ele>
        <time>2010-02-24T10:07:11Z</time>
      </trkpt>
      <trkpt lat="42.97355" lon="-0.74078">
        <ele>1713.7</ele>
        <time>2010-02-24T10:07:14Z</time>
      </trkpt>
      <trkpt lat="42.97359" lon="-0.741">
        <ele>1709.7</ele>
        <time>2010-02-24T10:07:16Z</time>
      </trkpt>
      <trkpt lat="42.97361" lon="-0.74112">
        <ele>1707.2</ele>
        <time>2010-02-24T10:07:17Z</time>
      </trkpt>
      <trkpt lat="42.97364" lon="-0.74139">
        <ele>1706.8</ele>
        <time>2010-02-24T10:07:18Z</time>
      </trkpt>
      <trkpt lat="42.97365" lon="-0.74152">
        <ele>1706</ele>
        <time>2010-02-24T10:07:19Z</time>
      </trkpt>
      <trkpt lat="42.97365" lon="-0.74164">
        <ele>1705.2</ele>
        <time>2010-02-24T10:07:21Z</time>
      </trkpt>
      <trkpt lat="42.97366" lon="-0.74177">
        <ele>1704.3</ele>
        <time>2010-02-24T10:07:22Z</time>
      </trkpt>
      <trkpt lat="42.97369" lon="-0.74202">
        <ele>1703.5</ele>
        <time>2010-02-24T10:07:24Z</time>
      </trkpt>
      <trkpt lat="42.97371" lon="-0.74214">
        <ele>1704.1</ele>
        <time>2010-02-24T10:07:25Z</time>
      </trkpt>
      <trkpt lat="42.97376" lon="-0.7425">
        <ele>1707.1</ele>
        <time>2010-02-24T10:07:28Z</time>
      </trkpt>
      <trkpt lat="42.97377" lon="-0.74266">
        <ele>1704.2</ele>
        <time>2010-02-24T10:07:30Z</time>
      </trkpt>
      <trkpt lat="42.97377" lon="-0.74285">
        <ele>1701.3</ele>
        <time>2010-02-24T10:07:33Z</time>
      </trkpt>
      <trkpt lat="42.97375" lon="-0.74295">
        <ele>1701</ele>
        <time>2010-02-24T10:07:34Z</time>
      </trkpt>
      <trkpt lat="42.97374" lon="-0.74303">
        <ele>1700.2</ele>
        <time>2010-02-24T10:07:35Z</time>
      </trkpt>
      <trkpt lat="42.97371" lon="-0.74311">
        <ele>1700.2</ele>
        <time>2010-02-24T10:07:36Z</time>
      </trkpt>
      <trkpt lat="42.9737" lon="-0.74318">
        <ele>1700.2</ele>
        <time>2010-02-24T10:07:37Z</time>
      </trkpt>
      <trkpt lat="42.97371" lon="-0.74322">
        <ele>1699.8</ele>
        <time>2010-02-24T10:07:38Z</time>
      </trkpt>
      <trkpt lat="42.97375" lon="-0.74321">
        <ele>1699</ele>
        <time>2010-02-24T10:07:39Z</time>
      </trkpt>
      <trkpt lat="42.97376" lon="-0.74315">
        <ele>1699</ele>
        <time>2010-02-24T10:07:43Z</time>
      </trkpt>
      <trkpt lat="42.97375" lon="-0.74315">
        <ele>1699.1</ele>
        <time>2010-02-24T10:07:45Z</time>
      </trkpt>
      <trkpt lat="42.97376" lon="-0.74315">
        <ele>1699</ele>
        <time>2010-02-24T10:07:50Z</time>
      </trkpt>
      <trkpt lat="42.97376" lon="-0.74315">
        <ele>1699</ele>
        <time>2010-02-24T10:07:54Z</time>
      </trkpt>
      <trkpt lat="42.97378" lon="-0.74311">
        <ele>1698.6</ele>
        <time>2010-02-24T10:07:57Z</time>
      </trkpt>
      <trkpt lat="42.97389" lon="-0.74295">
        <ele>1695.8</ele>
        <time>2010-02-24T10:07:59Z</time>
      </trkpt>
      <trkpt lat="42.97397" lon="-0.74282">
        <ele>1693.6</ele>
        <time>2010-02-24T10:08:01Z</time>
      </trkpt>
      <trkpt lat="42.97405" lon="-0.74268">
        <ele>1692.8</ele>
        <time>2010-02-24T10:08:04Z</time>
      </trkpt>
      <trkpt lat="42.97408" lon="-0.74261">
        <ele>1692.6</ele>
        <time>2010-02-24T10:08:05Z</time>
      </trkpt>
      <trkpt lat="42.97411" lon="-0.74252">
        <ele>1692.2</ele>
        <time>2010-02-24T10:08:06Z</time>
      </trkpt>
      <trkpt lat="42.97414" lon="-0.74244">
        <ele>1690.9</ele>
        <time>2010-02-24T10:08:07Z</time>
      </trkpt>
      <trkpt lat="42.97417" lon="-0.74234">
        <ele>1689.5</ele>
        <time>2010-02-24T10:08:08Z</time>
      </trkpt>
      <trkpt lat="42.97422" lon="-0.74215">
        <ele>1688.5</ele>
        <time>2010-02-24T10:08:09Z</time>
      </trkpt>
      <trkpt lat="42.97427" lon="-0.74205">
        <ele>1688.1</ele>
        <time>2010-02-24T10:08:10Z</time>
      </trkpt>
      <trkpt lat="42.97439" lon="-0.74185">
        <ele>1685.5</ele>
        <time>2010-02-24T10:08:12Z</time>
      </trkpt>
      <trkpt lat="42.97445" lon="-0.74174">
        <ele>1684</ele>
        <time>2010-02-24T10:08:14Z</time>
      </trkpt>
      <trkpt lat="42.9745" lon="-0.74162">
        <ele>1683</ele>
        <time>2010-02-24T10:08:15Z</time>
      </trkpt>
      <trkpt lat="42.97458" lon="-0.74136">
        <ele>1679.2</ele>
        <time>2010-02-24T10:08:17Z</time>
      </trkpt>
      <trkpt lat="42.97462" lon="-0.74123">
        <ele>1678.5</ele>
        <time>2010-02-24T10:08:18Z</time>
      </trkpt>
      <trkpt lat="42.97466" lon="-0.7411">
        <ele>1677.4</ele>
        <time>2010-02-24T10:08:19Z</time>
      </trkpt>
      <trkpt lat="42.97474" lon="-0.74084">
        <ele>1674.7</ele>
        <time>2010-02-24T10:08:20Z</time>
      </trkpt>
      <trkpt lat="42.97479" lon="-0.74071">
        <ele>1673.5</ele>
        <time>2010-02-24T10:08:21Z</time>
      </trkpt>
      <trkpt lat="42.97483" lon="-0.74058">
        <ele>1672.7</ele>
        <time>2010-02-24T10:08:22Z</time>
      </trkpt>
      <trkpt lat="42.97487" lon="-0.74046">
        <ele>1672.4</ele>
        <time>2010-02-24T10:08:24Z</time>
      </trkpt>
      <trkpt lat="42.975" lon="-0.74025">
        <ele>1668.9</ele>
        <time>2010-02-24T10:08:26Z</time>
      </trkpt>
      <trkpt lat="42.97506" lon="-0.74013">
        <ele>1666.9</ele>
        <time>2010-02-24T10:08:27Z</time>
      </trkpt>
      <trkpt lat="42.97513" lon="-0.74001">
        <ele>1665.6</ele>
        <time>2010-02-24T10:08:28Z</time>
      </trkpt>
      <trkpt lat="42.97532" lon="-0.73981">
        <ele>1661.5</ele>
        <time>2010-02-24T10:08:30Z</time>
      </trkpt>
      <trkpt lat="42.97553" lon="-0.73961">
        <ele>1656.9</ele>
        <time>2010-02-24T10:08:31Z</time>
      </trkpt>
      <trkpt lat="42.97564" lon="-0.7395">
        <ele>1654.8</ele>
        <time>2010-02-24T10:08:33Z</time>
      </trkpt>
      <trkpt lat="42.97573" lon="-0.73938">
        <ele>1653.3</ele>
        <time>2010-02-24T10:08:34Z</time>
      </trkpt>
      <trkpt lat="42.97583" lon="-0.73925">
        <ele>1652.5</ele>
        <time>2010-02-24T10:08:35Z</time>
      </trkpt>
      <trkpt lat="42.97608" lon="-0.73889">
        <ele>1650.6</ele>
        <time>2010-02-24T10:08:38Z</time>
      </trkpt>
      <trkpt lat="42.97615" lon="-0.73879">
        <ele>1650.4</ele>
        <time>2010-02-24T10:08:39Z</time>
      </trkpt>
      <trkpt lat="42.9763" lon="-0.7386">
        <ele>1648.3</ele>
        <time>2010-02-24T10:08:40Z</time>
      </trkpt>
      <trkpt lat="42.97637" lon="-0.7385">
        <ele>1647.7</ele>
        <time>2010-02-24T10:08:41Z</time>
      </trkpt>
      <trkpt lat="42.97644" lon="-0.7384">
        <ele>1647.4</ele>
        <time>2010-02-24T10:08:43Z</time>
      </trkpt>
      <trkpt lat="42.97652" lon="-0.73831">
        <ele>1647.6</ele>
        <time>2010-02-24T10:08:44Z</time>
      </trkpt>
      <trkpt lat="42.97659" lon="-0.73822">
        <ele>1646.7</ele>
        <time>2010-02-24T10:08:45Z</time>
      </trkpt>
      <trkpt lat="42.97673" lon="-0.73802">
        <ele>1642.1</ele>
        <time>2010-02-24T10:08:47Z</time>
      </trkpt>
      <trkpt lat="42.97679" lon="-0.73792">
        <ele>1640.8</ele>
        <time>2010-02-24T10:08:48Z</time>
      </trkpt>
      <trkpt lat="42.97683" lon="-0.73781">
        <ele>1640</ele>
        <time>2010-02-24T10:08:49Z</time>
      </trkpt>
      <trkpt lat="42.97695" lon="-0.73759">
        <ele>1637.6</ele>
        <time>2010-02-24T10:08:50Z</time>
      </trkpt>
      <trkpt lat="42.97708" lon="-0.7374">
        <ele>1635.4</ele>
        <time>2010-02-24T10:08:52Z</time>
      </trkpt>
      <trkpt lat="42.97714" lon="-0.7373">
        <ele>1634.5</ele>
        <time>2010-02-24T10:08:53Z</time>
      </trkpt>
      <trkpt lat="42.97719" lon="-0.73719">
        <ele>1633.6</ele>
        <time>2010-02-24T10:08:55Z</time>
      </trkpt>
      <trkpt lat="42.97722" lon="-0.73707">
        <ele>1632.4</ele>
        <time>2010-02-24T10:08:56Z</time>
      </trkpt>
      <trkpt lat="42.97727" lon="-0.73696">
        <ele>1631.3</ele>
        <time>2010-02-24T10:08:57Z</time>
      </trkpt>
      <trkpt lat="42.97732" lon="-0.73686">
        <ele>1630.6</ele>
        <time>2010-02-24T10:08:58Z</time>
      </trkpt>
      <trkpt lat="42.97735" lon="-0.73676">
        <ele>1630.3</ele>
        <time>2010-02-24T10:08:59Z</time>
      </trkpt>
      <trkpt lat="42.97738" lon="-0.73666">
        <ele>1630.1</ele>
        <time>2010-02-24T10:09:00Z</time>
      </trkpt>
      <trkpt lat="42.97742" lon="-0.73657">
        <ele>1628.9</ele>
        <time>2010-02-24T10:09:01Z</time>
      </trkpt>
      <trkpt lat="42.97751" lon="-0.73646">
        <ele>1625.8</ele>
        <time>2010-02-24T10:09:02Z</time>
      </trkpt>
      <trkpt lat="42.97757" lon="-0.73645">
        <ele>1626.1</ele>
        <time>2010-02-24T10:09:04Z</time>
      </trkpt>
      <trkpt lat="42.97764" lon="-0.73647">
        <ele>1626.6</ele>
        <time>2010-02-24T10:09:05Z</time>
      </trkpt>
      <trkpt lat="42.97769" lon="-0.73648">
        <ele>1626.9</ele>
        <time>2010-02-24T10:09:06Z</time>
      </trkpt>
      <trkpt lat="42.97773" lon="-0.73647">
        <ele>1627.1</ele>
        <time>2010-02-24T10:09:07Z</time>
      </trkpt>
      <trkpt lat="42.97774" lon="-0.73645">
        <ele>1627</ele>
        <time>2010-02-24T10:09:08Z</time>
      </trkpt>
      <trkpt lat="42.97774" lon="-0.73644">
        <ele>1626.9</ele>
        <time>2010-02-24T10:09:09Z</time>
      </trkpt>
      <trkpt lat="42.97773" lon="-0.73644">
        <ele>1626.9</ele>
        <time>2010-02-24T10:09:10Z</time>
      </trkpt>
      <trkpt lat="42.97772" lon="-0.73645">
        <ele>1626.9</ele>
        <time>2010-02-24T10:09:14Z</time>
      </trkpt>
      <trkpt lat="42.97772" lon="-0.73645">
        <ele>1626.9</ele>
        <time>2010-02-24T10:09:18Z</time>
      </trkpt>
      <trkpt lat="42.97772" lon="-0.73645">
        <ele>1626.9</ele>
        <time>2010-02-24T10:09:19Z</time>
      </trkpt>
      <trkpt lat="42.97771" lon="-0.73646">
        <ele>1626.9</ele>
        <time>2010-02-24T10:09:22Z</time>
      </trkpt>
      <trkpt lat="42.9777" lon="-0.73645">
        <ele>1626.8</ele>
        <time>2010-02-24T10:09:32Z</time>
      </trkpt>
      <trkpt lat="42.97769" lon="-0.73645">
        <ele>1626.8</ele>
        <time>2010-02-24T10:09:34Z</time>
      </trkpt>
      <trkpt lat="42.97769" lon="-0.73646">
        <ele>1626.8</ele>
        <time>2010-02-24T10:09:39Z</time>
      </trkpt>
      <trkpt lat="42.97769" lon="-0.73645">
        <ele>1626.7</ele>
        <time>2010-02-24T10:09:42Z</time>
      </trkpt>
      <trkpt lat="42.97765" lon="-0.73636">
        <ele>1625.9</ele>
        <time>2010-02-24T10:09:47Z</time>
      </trkpt>
      <trkpt lat="42.97764" lon="-0.73631">
        <ele>1625.7</ele>
        <time>2010-02-24T10:09:48Z</time>
      </trkpt>
      <trkpt lat="42.97764" lon="-0.73626">
        <ele>1625.5</ele>
        <time>2010-02-24T10:09:49Z</time>
      </trkpt>
      <trkpt lat="42.97766" lon="-0.7362">
        <ele>1625</ele>
        <time>2010-02-24T10:09:50Z</time>
      </trkpt>
      <trkpt lat="42.9777" lon="-0.73614">
        <ele>1624</ele>
        <time>2010-02-24T10:09:51Z</time>
      </trkpt>
      <trkpt lat="42.97772" lon="-0.73607">
        <ele>1622.1</ele>
        <time>2010-02-24T10:09:52Z</time>
      </trkpt>
      <trkpt lat="42.9777" lon="-0.73593">
        <ele>1618.5</ele>
        <time>2010-02-24T10:09:53Z</time>
      </trkpt>
      <trkpt lat="42.97771" lon="-0.73586">
        <ele>1616.2</ele>
        <time>2010-02-24T10:09:54Z</time>
      </trkpt>
      <trkpt lat="42.97773" lon="-0.73578">
        <ele>1613.6</ele>
        <time>2010-02-24T10:09:56Z</time>
      </trkpt>
      <trkpt lat="42.97775" lon="-0.7357">
        <ele>1611.4</ele>
        <time>2010-02-24T10:09:57Z</time>
      </trkpt>
      <trkpt lat="42.97773" lon="-0.73561">
        <ele>1609.8</ele>
        <time>2010-02-24T10:09:58Z</time>
      </trkpt>
      <trkpt lat="42.97771" lon="-0.73552">
        <ele>1608.8</ele>
        <time>2010-02-24T10:09:59Z</time>
      </trkpt>
      <trkpt lat="42.9777" lon="-0.73543">
        <ele>1608.4</ele>
        <time>2010-02-24T10:10:00Z</time>
      </trkpt>
      <trkpt lat="42.9777" lon="-0.73534">
        <ele>1607.9</ele>
        <time>2010-02-24T10:10:01Z</time>
      </trkpt>
      <trkpt lat="42.97771" lon="-0.73518">
        <ele>1606.7</ele>
        <time>2010-02-24T10:10:02Z</time>
      </trkpt>
      <trkpt lat="42.97776" lon="-0.73504">
        <ele>1603.2</ele>
        <time>2010-02-24T10:10:05Z</time>
      </trkpt>
      <trkpt lat="42.9778" lon="-0.73497">
        <ele>1601.5</ele>
        <time>2010-02-24T10:10:06Z</time>
      </trkpt>
      <trkpt lat="42.97785" lon="-0.73493">
        <ele>1600.6</ele>
        <time>2010-02-24T10:10:07Z</time>
      </trkpt>
      <trkpt lat="42.97798" lon="-0.73477">
        <ele>1599.6</ele>
        <time>2010-02-24T10:10:11Z</time>
      </trkpt>
      <trkpt lat="42.97799" lon="-0.73476">
        <ele>1599.6</ele>
        <time>2010-02-24T10:10:12Z</time>
      </trkpt>
      <trkpt lat="42.97798" lon="-0.73476">
        <ele>1599.7</ele>
        <time>2010-02-24T10:10:13Z</time>
      </trkpt>
      <trkpt lat="42.97799" lon="-0.73475">
        <ele>1599.7</ele>
        <time>2010-02-24T10:10:14Z</time>
      </trkpt>
      <trkpt lat="42.97799" lon="-0.73476">
        <ele>1599.7</ele>
        <time>2010-02-24T10:10:17Z</time>
      </trkpt>
      <trkpt lat="42.97798" lon="-0.73476">
        <ele>1599.6</ele>
        <time>2010-02-24T10:10:22Z</time>
      </trkpt>
      <trkpt lat="42.97797" lon="-0.73476">
        <ele>1599.6</ele>
        <time>2010-02-24T10:10:24Z</time>
      </trkpt>
      <trkpt lat="42.97797" lon="-0.73475">
        <ele>1599.6</ele>
        <time>2010-02-24T10:10:25Z</time>
      </trkpt>
      <trkpt lat="42.97794" lon="-0.73475">
        <ele>1599.6</ele>
        <time>2010-02-24T10:10:28Z</time>
      </trkpt>
      <trkpt lat="42.9779" lon="-0.73475">
        <ele>1599.5</ele>
        <time>2010-02-24T10:10:29Z</time>
      </trkpt>
      <trkpt lat="42.97786" lon="-0.73473">
        <ele>1599.3</ele>
        <time>2010-02-24T10:10:30Z</time>
      </trkpt>
      <trkpt lat="42.97784" lon="-0.7347">
        <ele>1598.8</ele>
        <time>2010-02-24T10:10:31Z</time>
      </trkpt>
      <trkpt lat="42.97786" lon="-0.73466">
        <ele>1598.2</ele>
        <time>2010-02-24T10:10:32Z</time>
      </trkpt>
      <trkpt lat="42.9779" lon="-0.73456">
        <ele>1595.9</ele>
        <time>2010-02-24T10:10:33Z</time>
      </trkpt>
      <trkpt lat="42.9779" lon="-0.7345">
        <ele>1594.6</ele>
        <time>2010-02-24T10:10:34Z</time>
      </trkpt>
      <trkpt lat="42.97789" lon="-0.7344">
        <ele>1592.9</ele>
        <time>2010-02-24T10:10:37Z</time>
      </trkpt>
      <trkpt lat="42.97789" lon="-0.73434">
        <ele>1591.8</ele>
        <time>2010-02-24T10:10:39Z</time>
      </trkpt>
      <trkpt lat="42.97787" lon="-0.7342">
        <ele>1589.7</ele>
        <time>2010-02-24T10:10:42Z</time>
      </trkpt>
      <trkpt lat="42.97785" lon="-0.73409">
        <ele>1589.3</ele>
        <time>2010-02-24T10:10:44Z</time>
      </trkpt>
      <trkpt lat="42.97785" lon="-0.73405">
        <ele>1589</ele>
        <time>2010-02-24T10:10:45Z</time>
      </trkpt>
      <trkpt lat="42.97788" lon="-0.73402">
        <ele>1588.4</ele>
        <time>2010-02-24T10:10:47Z</time>
      </trkpt>
      <trkpt lat="42.97791" lon="-0.73404">
        <ele>1587.4</ele>
        <time>2010-02-24T10:10:48Z</time>
      </trkpt>
      <trkpt lat="42.97795" lon="-0.73407">
        <ele>1586.4</ele>
        <time>2010-02-24T10:10:49Z</time>
      </trkpt>
      <trkpt lat="42.978" lon="-0.7341">
        <ele>1585</ele>
        <time>2010-02-24T10:10:50Z</time>
      </trkpt>
      <trkpt lat="42.97805" lon="-0.73411">
        <ele>1583.5</ele>
        <time>2010-02-24T10:10:51Z</time>
      </trkpt>
      <trkpt lat="42.9781" lon="-0.73408">
        <ele>1582</ele>
        <time>2010-02-24T10:10:52Z</time>
      </trkpt>
      <trkpt lat="42.97815" lon="-0.73402">
        <ele>1580.8</ele>
        <time>2010-02-24T10:10:53Z</time>
      </trkpt>
      <trkpt lat="42.97827" lon="-0.73395">
        <ele>1578</ele>
        <time>2010-02-24T10:10:54Z</time>
      </trkpt>
      <trkpt lat="42.97834" lon="-0.73398">
        <ele>1575.9</ele>
        <time>2010-02-24T10:10:55Z</time>
      </trkpt>
      <trkpt lat="42.97839" lon="-0.73405">
        <ele>1573.3</ele>
        <time>2010-02-24T10:10:57Z</time>
      </trkpt>
      <trkpt lat="42.97845" lon="-0.73411">
        <ele>1570.6</ele>
        <time>2010-02-24T10:10:58Z</time>
      </trkpt>
      <trkpt lat="42.97853" lon="-0.73412">
        <ele>1567.9</ele>
        <time>2010-02-24T10:10:59Z</time>
      </trkpt>
      <trkpt lat="42.97859" lon="-0.73411">
        <ele>1565.6</ele>
        <time>2010-02-24T10:11:00Z</time>
      </trkpt>
      <trkpt lat="42.97865" lon="-0.73406">
        <ele>1563.5</ele>
        <time>2010-02-24T10:11:01Z</time>
      </trkpt>
      <trkpt lat="42.97871" lon="-0.73401">
        <ele>1561.6</ele>
        <time>2010-02-24T10:11:02Z</time>
      </trkpt>
      <trkpt lat="42.97878" lon="-0.73397">
        <ele>1559.5</ele>
        <time>2010-02-24T10:11:03Z</time>
      </trkpt>
      <trkpt lat="42.97892" lon="-0.73402">
        <ele>1554.6</ele>
        <time>2010-02-24T10:11:04Z</time>
      </trkpt>
      <trkpt lat="42.97897" lon="-0.73412">
        <ele>1552.6</ele>
        <time>2010-02-24T10:11:05Z</time>
      </trkpt>
      <trkpt lat="42.97902" lon="-0.73422">
        <ele>1550.4</ele>
        <time>2010-02-24T10:11:06Z</time>
      </trkpt>
      <trkpt lat="42.97908" lon="-0.7343">
        <ele>1547.9</ele>
        <time>2010-02-24T10:11:08Z</time>
      </trkpt>
      <trkpt lat="42.97915" lon="-0.73435">
        <ele>1545.3</ele>
        <time>2010-02-24T10:11:09Z</time>
      </trkpt>
      <trkpt lat="42.97923" lon="-0.7344">
        <ele>1542.6</ele>
        <time>2010-02-24T10:11:10Z</time>
      </trkpt>
      <trkpt lat="42.9793" lon="-0.73448">
        <ele>1540.6</ele>
        <time>2010-02-24T10:11:11Z</time>
      </trkpt>
      <trkpt lat="42.97938" lon="-0.73456">
        <ele>1537.9</ele>
        <time>2010-02-24T10:11:12Z</time>
      </trkpt>
      <trkpt lat="42.97948" lon="-0.73462">
        <ele>1534</ele>
        <time>2010-02-24T10:11:13Z</time>
      </trkpt>
      <trkpt lat="42.97965" lon="-0.73478">
        <ele>1527.9</ele>
        <time>2010-02-24T10:11:14Z</time>
      </trkpt>
      <trkpt lat="42.97971" lon="-0.73489">
        <ele>1524</ele>
        <time>2010-02-24T10:11:15Z</time>
      </trkpt>
      <trkpt lat="42.97976" lon="-0.73496">
        <ele>1521.9</ele>
        <time>2010-02-24T10:11:17Z</time>
      </trkpt>
      <trkpt lat="42.97982" lon="-0.73499">
        <ele>1521.6</ele>
        <time>2010-02-24T10:11:18Z</time>
      </trkpt>
      <trkpt lat="42.97987" lon="-0.735">
        <ele>1521.6</ele>
        <time>2010-02-24T10:11:19Z</time>
      </trkpt>
      <trkpt lat="42.97992" lon="-0.73502">
        <ele>1521.8</ele>
        <time>2010-02-24T10:11:20Z</time>
      </trkpt>
      <trkpt lat="42.97996" lon="-0.73507">
        <ele>1522</ele>
        <time>2010-02-24T10:11:21Z</time>
      </trkpt>
      <trkpt lat="42.98" lon="-0.73509">
        <ele>1522</ele>
        <time>2010-02-24T10:11:22Z</time>
      </trkpt>
      <trkpt lat="42.98002" lon="-0.73509">
        <ele>1521.9</ele>
        <time>2010-02-24T10:11:23Z</time>
      </trkpt>
      <trkpt lat="42.98005" lon="-0.73511">
        <ele>1521.7</ele>
        <time>2010-02-24T10:11:25Z</time>
      </trkpt>
      <trkpt lat="42.98005" lon="-0.7351">
        <ele>1521.7</ele>
        <time>2010-02-24T10:11:30Z</time>
      </trkpt>
      <trkpt lat="42.98006" lon="-0.73509">
        <ele>1521.7</ele>
        <time>2010-02-24T10:11:31Z</time>
      </trkpt>
      <trkpt lat="42.98005" lon="-0.73508">
        <ele>1521.7</ele>
        <time>2010-02-24T10:11:40Z</time>
      </trkpt>
      <trkpt lat="42.98005" lon="-0.73508">
        <ele>1521.7</ele>
        <time>2010-02-24T10:11:43Z</time>
      </trkpt>
      <trkpt lat="42.98006" lon="-0.73508">
        <ele>1521.7</ele>
        <time>2010-02-24T10:11:55Z</time>
      </trkpt>
      <trkpt lat="42.98005" lon="-0.73508">
        <ele>1521.7</ele>
        <time>2010-02-24T10:11:56Z</time>
      </trkpt>
      <trkpt lat="42.98006" lon="-0.73509">
        <ele>1521.7</ele>
        <time>2010-02-24T10:11:59Z</time>
      </trkpt>
      <trkpt lat="42.98004" lon="-0.73509">
        <ele>1521.8</ele>
        <time>2010-02-24T10:12:04Z</time>
      </trkpt>
      <trkpt lat="42.98003" lon="-0.73509">
        <ele>1521.9</ele>
        <time>2010-02-24T10:12:12Z</time>
      </trkpt>
      <trkpt lat="42.98004" lon="-0.73509">
        <ele>1521.8</ele>
        <time>2010-02-24T10:12:15Z</time>
      </trkpt>
      <trkpt lat="42.98005" lon="-0.7351">
        <ele>1521.7</ele>
        <time>2010-02-24T10:12:16Z</time>
      </trkpt>
      <trkpt lat="42.98008" lon="-0.73512">
        <ele>1521.5</ele>
        <time>2010-02-24T10:12:19Z</time>
      </trkpt>
      <trkpt lat="42.9801" lon="-0.73511">
        <ele>1521.4</ele>
        <time>2010-02-24T10:12:31Z</time>
      </trkpt>
      <trkpt lat="42.9801" lon="-0.73512">
        <ele>1521.4</ele>
        <time>2010-02-24T10:12:37Z</time>
      </trkpt>
      <trkpt lat="42.9801" lon="-0.73511">
        <ele>1521.4</ele>
        <time>2010-02-24T10:12:41Z</time>
      </trkpt>
      <trkpt lat="42.98011" lon="-0.73511">
        <ele>1521.3</ele>
        <time>2010-02-24T10:12:42Z</time>
      </trkpt>
      <trkpt lat="42.98014" lon="-0.73514">
        <ele>1521</ele>
        <time>2010-02-24T10:12:46Z</time>
      </trkpt>
      <trkpt lat="42.98016" lon="-0.73515">
        <ele>1520.8</ele>
        <time>2010-02-24T10:12:47Z</time>
      </trkpt>
      <trkpt lat="42.9802" lon="-0.73515">
        <ele>1520.5</ele>
        <time>2010-02-24T10:12:50Z</time>
      </trkpt>
      <trkpt lat="42.98023" lon="-0.73514">
        <ele>1520.3</ele>
        <time>2010-02-24T10:12:51Z</time>
      </trkpt>
      <trkpt lat="42.98025" lon="-0.73512">
        <ele>1520.3</ele>
        <time>2010-02-24T10:12:52Z</time>
      </trkpt>
      <trkpt lat="42.98029" lon="-0.73507">
        <ele>1520.5</ele>
        <time>2010-02-24T10:12:56Z</time>
      </trkpt>
      <trkpt lat="42.98028" lon="-0.73507">
        <ele>1520.5</ele>
        <time>2010-02-24T10:13:01Z</time>
      </trkpt>
      <trkpt lat="42.98028" lon="-0.73507">
        <ele>1520.5</ele>
        <time>2010-02-24T10:13:04Z</time>
      </trkpt>
      <trkpt lat="42.98028" lon="-0.73507">
        <ele>1520.5</ele>
        <time>2010-02-24T10:13:06Z</time>
      </trkpt>
      <trkpt lat="42.98028" lon="-0.73507">
        <ele>1520.5</ele>
        <time>2010-02-24T10:13:07Z</time>
      </trkpt>
      <trkpt lat="42.98028" lon="-0.73507">
        <ele>1520.5</ele>
        <time>2010-02-24T10:13:08Z</time>
      </trkpt>
      <trkpt lat="42.98029" lon="-0.73508">
        <ele>1520.4</ele>
        <time>2010-02-24T10:13:15Z</time>
      </trkpt>
      <trkpt lat="42.98029" lon="-0.73507">
        <ele>1520.5</ele>
        <time>2010-02-24T10:13:19Z</time>
      </trkpt>
      <trkpt lat="42.9803" lon="-0.73507">
        <ele>1520.4</ele>
        <time>2010-02-24T10:13:22Z</time>
      </trkpt>
      <trkpt lat="42.98029" lon="-0.73507">
        <ele>1520.5</ele>
        <time>2010-02-24T10:13:26Z</time>
      </trkpt>
      <trkpt lat="42.98031" lon="-0.73507">
        <ele>1520.4</ele>
        <time>2010-02-24T10:13:28Z</time>
      </trkpt>
      <trkpt lat="42.98031" lon="-0.73506">
        <ele>1520.5</ele>
        <time>2010-02-24T10:13:34Z</time>
      </trkpt>
      <trkpt lat="42.98031" lon="-0.73506">
        <ele>1520.5</ele>
        <time>2010-02-24T10:13:36Z</time>
      </trkpt>
      <trkpt lat="42.98031" lon="-0.73506">
        <ele>1520.5</ele>
        <time>2010-02-24T10:13:42Z</time>
      </trkpt>
      <trkpt lat="42.98031" lon="-0.73506">
        <ele>1520.5</ele>
        <time>2010-02-24T10:13:45Z</time>
      </trkpt>
      <trkpt lat="42.98032" lon="-0.73505">
        <ele>1520.5</ele>
        <time>2010-02-24T10:13:48Z</time>
      </trkpt>
      <trkpt lat="42.98033" lon="-0.73504">
        <ele>1520.5</ele>
        <time>2010-02-24T10:13:53Z</time>
      </trkpt>
      <trkpt lat="42.98032" lon="-0.73505">
        <ele>1520.5</ele>
        <time>2010-02-24T10:13:55Z</time>
      </trkpt>
      <trkpt lat="42.98032" lon="-0.73504">
        <ele>1520.6</ele>
        <time>2010-02-24T10:13:58Z</time>
      </trkpt>
      <trkpt lat="42.98032" lon="-0.73505">
        <ele>1520.5</ele>
        <time>2010-02-24T10:14:03Z</time>
      </trkpt>
      <trkpt lat="42.98032" lon="-0.73504">
        <ele>1520.6</ele>
        <time>2010-02-24T10:14:05Z</time>
      </trkpt>
      <trkpt lat="42.98034" lon="-0.73504">
        <ele>1520.5</ele>
        <time>2010-02-24T10:14:15Z</time>
      </trkpt>
      <trkpt lat="42.98034" lon="-0.73505">
        <ele>1520.5</ele>
        <time>2010-02-24T10:14:19Z</time>
      </trkpt>
      <trkpt lat="42.98033" lon="-0.73505">
        <ele>1520.5</ele>
        <time>2010-02-24T10:14:28Z</time>
      </trkpt>
      <trkpt lat="42.98033" lon="-0.73504">
        <ele>1520.5</ele>
        <time>2010-02-24T10:14:29Z</time>
      </trkpt>
      <trkpt lat="42.98034" lon="-0.73504">
        <ele>1520.5</ele>
        <time>2010-02-24T10:14:33Z</time>
      </trkpt>
      <trkpt lat="42.98034" lon="-0.73503">
        <ele>1520.6</ele>
        <time>2010-02-24T10:14:37Z</time>
      </trkpt>
      <trkpt lat="42.98034" lon="-0.73503">
        <ele>1520.6</ele>
        <time>2010-02-24T10:14:38Z</time>
      </trkpt>
      <trkpt lat="42.98035" lon="-0.73503">
        <ele>1520.5</ele>
        <time>2010-02-24T10:14:42Z</time>
      </trkpt>
      <trkpt lat="42.98035" lon="-0.73503">
        <ele>1520.5</ele>
        <time>2010-02-24T10:14:43Z</time>
      </trkpt>
      <trkpt lat="42.98036" lon="-0.73502">
        <ele>1520.6</ele>
        <time>2010-02-24T10:14:49Z</time>
      </trkpt>
      <trkpt lat="42.98037" lon="-0.73501">
        <ele>1520.6</ele>
        <time>2010-02-24T10:14:53Z</time>
      </trkpt>
      <trkpt lat="42.98038" lon="-0.73499">
        <ele>1520.7</ele>
        <time>2010-02-24T10:14:56Z</time>
      </trkpt>
      <trkpt lat="42.98038" lon="-0.73499">
        <ele>1520.7</ele>
        <time>2010-02-24T10:14:57Z</time>
      </trkpt>
      <trkpt lat="42.98038" lon="-0.735">
        <ele>1520.7</ele>
        <time>2010-02-24T10:14:58Z</time>
      </trkpt>
      <trkpt lat="42.98039" lon="-0.735">
        <ele>1520.6</ele>
        <time>2010-02-24T10:15:01Z</time>
      </trkpt>
      <trkpt lat="42.98039" lon="-0.73499">
        <ele>1520.7</ele>
        <time>2010-02-24T10:15:03Z</time>
      </trkpt>
      <trkpt lat="42.9804" lon="-0.73499">
        <ele>1520.6</ele>
        <time>2010-02-24T10:15:04Z</time>
      </trkpt>
      <trkpt lat="42.9804" lon="-0.73499">
        <ele>1520.6</ele>
        <time>2010-02-24T10:15:13Z</time>
      </trkpt>
      <trkpt lat="42.98041" lon="-0.73499">
        <ele>1520.6</ele>
        <time>2010-02-24T10:15:16Z</time>
      </trkpt>
      <trkpt lat="42.98041" lon="-0.73498">
        <ele>1520.6</ele>
        <time>2010-02-24T10:15:20Z</time>
      </trkpt>
      <trkpt lat="42.98042" lon="-0.73499">
        <ele>1520.6</ele>
        <time>2010-02-24T10:15:27Z</time>
      </trkpt>
      <trkpt lat="42.98043" lon="-0.73498">
        <ele>1520.6</ele>
        <time>2010-02-24T10:15:31Z</time>
      </trkpt>
      <trkpt lat="42.98043" lon="-0.73498">
        <ele>1520.6</ele>
        <time>2010-02-24T10:15:32Z</time>
      </trkpt>
      <trkpt lat="42.98044" lon="-0.73498">
        <ele>1520.5</ele>
        <time>2010-02-24T10:15:40Z</time>
      </trkpt>
      <trkpt lat="42.98044" lon="-0.73498">
        <ele>1520.5</ele>
        <time>2010-02-24T10:15:43Z</time>
      </trkpt>
      <trkpt lat="42.98045" lon="-0.73498">
        <ele>1520.5</ele>
        <time>2010-02-24T10:15:47Z</time>
      </trkpt>
      <trkpt lat="42.98045" lon="-0.73499">
        <ele>1520.4</ele>
        <time>2010-02-24T10:15:50Z</time>
      </trkpt>
      <trkpt lat="42.98045" lon="-0.73499">
        <ele>1520.4</ele>
        <time>2010-02-24T10:15:52Z</time>
      </trkpt>
      <trkpt lat="42.98045" lon="-0.73499">
        <ele>1520.4</ele>
        <time>2010-02-24T10:15:55Z</time>
      </trkpt>
      <trkpt lat="42.98045" lon="-0.73499">
        <ele>1520.4</ele>
        <time>2010-02-24T10:15:56Z</time>
      </trkpt>
      <trkpt lat="42.98045" lon="-0.73499">
        <ele>1520.4</ele>
        <time>2010-02-24T10:15:58Z</time>
      </trkpt>
      <trkpt lat="42.98045" lon="-0.73497">
        <ele>1520.6</ele>
        <time>2010-02-24T10:16:07Z</time>
      </trkpt>
      <trkpt lat="42.98043" lon="-0.73495">
        <ele>1520.7</ele>
        <time>2010-02-24T10:16:11Z</time>
      </trkpt>
      <trkpt lat="42.98042" lon="-0.73496">
        <ele>1520.7</ele>
        <time>2010-02-24T10:16:23Z</time>
      </trkpt>
      <trkpt lat="42.98042" lon="-0.73498">
        <ele>1520.6</ele>
        <time>2010-02-24T10:16:28Z</time>
      </trkpt>
      <trkpt lat="42.98041" lon="-0.73499">
        <ele>1520.6</ele>
        <time>2010-02-24T10:16:29Z</time>
      </trkpt>
      <trkpt lat="42.98041" lon="-0.735">
        <ele>1520.5</ele>
        <time>2010-02-24T10:16:33Z</time>
      </trkpt>
      <trkpt lat="42.98041" lon="-0.73501">
        <ele>1520.5</ele>
        <time>2010-02-24T10:16:35Z</time>
      </trkpt>
      <trkpt lat="42.9804" lon="-0.73502">
        <ele>1520.4</ele>
        <time>2010-02-24T10:16:37Z</time>
      </trkpt>
      <trkpt lat="42.9804" lon="-0.73502">
        <ele>1520.4</ele>
        <time>2010-02-24T10:16:38Z</time>
      </trkpt>
      <trkpt lat="42.9804" lon="-0.73503">
        <ele>1520.4</ele>
        <time>2010-02-24T10:16:40Z</time>
      </trkpt>
      <trkpt lat="42.9804" lon="-0.73503">
        <ele>1520.4</ele>
        <time>2010-02-24T10:16:41Z</time>
      </trkpt>
      <trkpt lat="42.98041" lon="-0.73504">
        <ele>1520.3</ele>
        <time>2010-02-24T10:16:42Z</time>
      </trkpt>
      <trkpt lat="42.9804" lon="-0.73504">
        <ele>1520.3</ele>
        <time>2010-02-24T10:16:43Z</time>
      </trkpt>
      <trkpt lat="42.9804" lon="-0.73504">
        <ele>1520.3</ele>
        <time>2010-02-24T10:16:44Z</time>
      </trkpt>
      <trkpt lat="42.9804" lon="-0.73505">
        <ele>1520.2</ele>
        <time>2010-02-24T10:16:46Z</time>
      </trkpt>
      <trkpt lat="42.98039" lon="-0.73509">
        <ele>1520</ele>
        <time>2010-02-24T10:16:50Z</time>
      </trkpt>
      <trkpt lat="42.98036" lon="-0.73514">
        <ele>1519.7</ele>
        <time>2010-02-24T10:16:52Z</time>
      </trkpt>
      <trkpt lat="42.98034" lon="-0.73517">
        <ele>1519.6</ele>
        <time>2010-02-24T10:16:53Z</time>
      </trkpt>
      <trkpt lat="42.98032" lon="-0.7352">
        <ele>1519.4</ele>
        <time>2010-02-24T10:16:56Z</time>
      </trkpt>
      <trkpt lat="42.98027" lon="-0.73528">
        <ele>1519.1</ele>
        <time>2010-02-24T10:17:00Z</time>
      </trkpt>
      <trkpt lat="42.98018" lon="-0.73537">
        <ele>1519.6</ele>
        <time>2010-02-24T10:17:06Z</time>
      </trkpt>
      <trkpt lat="42.98001" lon="-0.73561">
        <ele>1521.9</ele>
        <time>2010-02-24T10:17:20Z</time>
      </trkpt>
      <trkpt lat="42.97992" lon="-0.73572">
        <ele>1525.6</ele>
        <time>2010-02-24T10:17:27Z</time>
      </trkpt>
      <trkpt lat="42.97989" lon="-0.73575">
        <ele>1526.7</ele>
        <time>2010-02-24T10:17:29Z</time>
      </trkpt>
      <trkpt lat="42.97974" lon="-0.73594">
        <ele>1534.2</ele>
        <time>2010-02-24T10:17:41Z</time>
      </trkpt>
      <trkpt lat="42.97969" lon="-0.73601">
        <ele>1537</ele>
        <time>2010-02-24T10:17:44Z</time>
      </trkpt>
      <trkpt lat="42.97965" lon="-0.73606">
        <ele>1538.5</ele>
        <time>2010-02-24T10:17:48Z</time>
      </trkpt>
      <trkpt lat="42.97952" lon="-0.73622">
        <ele>1541.3</ele>
        <time>2010-02-24T10:17:58Z</time>
      </trkpt>
      <trkpt lat="42.97951" lon="-0.73624">
        <ele>1541.4</ele>
        <time>2010-02-24T10:17:59Z</time>
      </trkpt>
      <trkpt lat="42.9794" lon="-0.73636">
        <ele>1542.8</ele>
        <time>2010-02-24T10:18:07Z</time>
      </trkpt>
      <trkpt lat="42.97937" lon="-0.7364">
        <ele>1543.2</ele>
        <time>2010-02-24T10:18:09Z</time>
      </trkpt>
      <trkpt lat="42.97935" lon="-0.73643">
        <ele>1543.8</ele>
        <time>2010-02-24T10:18:11Z</time>
      </trkpt>
      <trkpt lat="42.97929" lon="-0.7365">
        <ele>1546</ele>
        <time>2010-02-24T10:18:15Z</time>
      </trkpt>
      <trkpt lat="42.97925" lon="-0.73655">
        <ele>1548.1</ele>
        <time>2010-02-24T10:18:19Z</time>
      </trkpt>
      <trkpt lat="42.97912" lon="-0.73671">
        <ele>1557.9</ele>
        <time>2010-02-24T10:18:29Z</time>
      </trkpt>
      <trkpt lat="42.97908" lon="-0.73676">
        <ele>1561.5</ele>
        <time>2010-02-24T10:18:32Z</time>
      </trkpt>
      <trkpt lat="42.97907" lon="-0.73678">
        <ele>1562.6</ele>
        <time>2010-02-24T10:18:33Z</time>
      </trkpt>
      <trkpt lat="42.97896" lon="-0.73692">
        <ele>1576.1</ele>
        <time>2010-02-24T10:18:43Z</time>
      </trkpt>
      <trkpt lat="42.97882" lon="-0.73708">
        <ele>1595.3</ele>
        <time>2010-02-24T10:18:55Z</time>
      </trkpt>
      <trkpt lat="42.9788" lon="-0.73711">
        <ele>1597.7</ele>
        <time>2010-02-24T10:18:58Z</time>
      </trkpt>
      <trkpt lat="42.97877" lon="-0.73715">
        <ele>1601.3</ele>
        <time>2010-02-24T10:19:01Z</time>
      </trkpt>
      <trkpt lat="42.9787" lon="-0.73724">
        <ele>1609.5</ele>
        <time>2010-02-24T10:19:07Z</time>
      </trkpt>
      <trkpt lat="42.97867" lon="-0.73727">
        <ele>1611.7</ele>
        <time>2010-02-24T10:19:10Z</time>
      </trkpt>
      <trkpt lat="42.97865" lon="-0.7373">
        <ele>1613.7</ele>
        <time>2010-02-24T10:19:12Z</time>
      </trkpt>
      <trkpt lat="42.97858" lon="-0.73738">
        <ele>1616.8</ele>
        <time>2010-02-24T10:19:16Z</time>
      </trkpt>
      <trkpt lat="42.97852" lon="-0.73747">
        <ele>1618</ele>
        <time>2010-02-24T10:19:22Z</time>
      </trkpt>
      <trkpt lat="42.97842" lon="-0.73758">
        <ele>1616.9</ele>
        <time>2010-02-24T10:19:29Z</time>
      </trkpt>
      <trkpt lat="42.97838" lon="-0.73764">
        <ele>1615.7</ele>
        <time>2010-02-24T10:19:32Z</time>
      </trkpt>
      <trkpt lat="42.97835" lon="-0.73767">
        <ele>1614.8</ele>
        <time>2010-02-24T10:19:34Z</time>
      </trkpt>
      <trkpt lat="42.97834" lon="-0.73769">
        <ele>1614.3</ele>
        <time>2010-02-24T10:19:35Z</time>
      </trkpt>
      <trkpt lat="42.97831" lon="-0.73772">
        <ele>1613.9</ele>
        <time>2010-02-24T10:19:36Z</time>
      </trkpt>
      <trkpt lat="42.97828" lon="-0.73775">
        <ele>1613.4</ele>
        <time>2010-02-24T10:19:39Z</time>
      </trkpt>
      <trkpt lat="42.97825" lon="-0.73778">
        <ele>1613.5</ele>
        <time>2010-02-24T10:19:41Z</time>
      </trkpt>
      <trkpt lat="42.97824" lon="-0.7378">
        <ele>1613.8</ele>
        <time>2010-02-24T10:19:42Z</time>
      </trkpt>
      <trkpt lat="42.97821" lon="-0.73783">
        <ele>1614.5</ele>
        <time>2010-02-24T10:19:44Z</time>
      </trkpt>
      <trkpt lat="42.97811" lon="-0.73797">
        <ele>1617.9</ele>
        <time>2010-02-24T10:19:52Z</time>
      </trkpt>
      <trkpt lat="42.97794" lon="-0.73817">
        <ele>1620.2</ele>
        <time>2010-02-24T10:20:04Z</time>
      </trkpt>
      <trkpt lat="42.97792" lon="-0.7382">
        <ele>1620.5</ele>
        <time>2010-02-24T10:20:06Z</time>
      </trkpt>
      <trkpt lat="42.97791" lon="-0.73822">
        <ele>1620.6</ele>
        <time>2010-02-24T10:20:07Z</time>
      </trkpt>
      <trkpt lat="42.97788" lon="-0.73825">
        <ele>1621</ele>
        <time>2010-02-24T10:20:08Z</time>
      </trkpt>
      <trkpt lat="42.97773" lon="-0.73845">
        <ele>1622.8</ele>
        <time>2010-02-24T10:20:21Z</time>
      </trkpt>
      <trkpt lat="42.97768" lon="-0.7385">
        <ele>1623</ele>
        <time>2010-02-24T10:20:24Z</time>
      </trkpt>
      <trkpt lat="42.9776" lon="-0.7386">
        <ele>1623.9</ele>
        <time>2010-02-24T10:20:29Z</time>
      </trkpt>
      <trkpt lat="42.9774" lon="-0.73885">
        <ele>1629.6</ele>
        <time>2010-02-24T10:20:45Z</time>
      </trkpt>
      <trkpt lat="42.97732" lon="-0.73897">
        <ele>1632.8</ele>
        <time>2010-02-24T10:20:52Z</time>
      </trkpt>
      <trkpt lat="42.9773" lon="-0.73898">
        <ele>1633.3</ele>
        <time>2010-02-24T10:20:53Z</time>
      </trkpt>
      <trkpt lat="42.97725" lon="-0.73905">
        <ele>1635.8</ele>
        <time>2010-02-24T10:20:57Z</time>
      </trkpt>
      <trkpt lat="42.97724" lon="-0.73906">
        <ele>1636.5</ele>
        <time>2010-02-24T10:20:58Z</time>
      </trkpt>
      <trkpt lat="42.97721" lon="-0.73909">
        <ele>1637.7</ele>
        <time>2010-02-24T10:20:59Z</time>
      </trkpt>
      <trkpt lat="42.97712" lon="-0.73921">
        <ele>1641.2</ele>
        <time>2010-02-24T10:21:07Z</time>
      </trkpt>
      <trkpt lat="42.9771" lon="-0.73924">
        <ele>1642.1</ele>
        <time>2010-02-24T10:21:08Z</time>
      </trkpt>
      <trkpt lat="42.97707" lon="-0.73927">
        <ele>1643</ele>
        <time>2010-02-24T10:21:10Z</time>
      </trkpt>
      <trkpt lat="42.97706" lon="-0.73929">
        <ele>1643.5</ele>
        <time>2010-02-24T10:21:12Z</time>
      </trkpt>
      <trkpt lat="42.97697" lon="-0.73941">
        <ele>1647.6</ele>
        <time>2010-02-24T10:21:18Z</time>
      </trkpt>
      <trkpt lat="42.97694" lon="-0.73944">
        <ele>1648.8</ele>
        <time>2010-02-24T10:21:20Z</time>
      </trkpt>
      <trkpt lat="42.97693" lon="-0.73946">
        <ele>1648.9</ele>
        <time>2010-02-24T10:21:21Z</time>
      </trkpt>
      <trkpt lat="42.97688" lon="-0.73951">
        <ele>1648.5</ele>
        <time>2010-02-24T10:21:25Z</time>
      </trkpt>
      <trkpt lat="42.97687" lon="-0.73953">
        <ele>1648.4</ele>
        <time>2010-02-24T10:21:26Z</time>
      </trkpt>
      <trkpt lat="42.97684" lon="-0.73956">
        <ele>1648.1</ele>
        <time>2010-02-24T10:21:28Z</time>
      </trkpt>
      <trkpt lat="42.97682" lon="-0.73959">
        <ele>1647.8</ele>
        <time>2010-02-24T10:21:29Z</time>
      </trkpt>
      <trkpt lat="42.97679" lon="-0.73962">
        <ele>1647.5</ele>
        <time>2010-02-24T10:21:32Z</time>
      </trkpt>
      <trkpt lat="42.97678" lon="-0.73964">
        <ele>1647.3</ele>
        <time>2010-02-24T10:21:33Z</time>
      </trkpt>
      <trkpt lat="42.97675" lon="-0.73967">
        <ele>1647</ele>
        <time>2010-02-24T10:21:35Z</time>
      </trkpt>
      <trkpt lat="42.97672" lon="-0.73971">
        <ele>1646.6</ele>
        <time>2010-02-24T10:21:37Z</time>
      </trkpt>
      <trkpt lat="42.97671" lon="-0.73973">
        <ele>1646.4</ele>
        <time>2010-02-24T10:21:38Z</time>
      </trkpt>
      <trkpt lat="42.97657" lon="-0.7399">
        <ele>1647.3</ele>
        <time>2010-02-24T10:21:48Z</time>
      </trkpt>
      <trkpt lat="42.97647" lon="-0.74002">
        <ele>1647.8</ele>
        <time>2010-02-24T10:21:55Z</time>
      </trkpt>
      <trkpt lat="42.97646" lon="-0.74003">
        <ele>1648</ele>
        <time>2010-02-24T10:21:56Z</time>
      </trkpt>
      <trkpt lat="42.97613" lon="-0.74045">
        <ele>1648.2</ele>
        <time>2010-02-24T10:22:20Z</time>
      </trkpt>
      <trkpt lat="42.9761" lon="-0.74048">
        <ele>1648.3</ele>
        <time>2010-02-24T10:22:23Z</time>
      </trkpt>
      <trkpt lat="42.97607" lon="-0.74051">
        <ele>1648.8</ele>
        <time>2010-02-24T10:22:25Z</time>
      </trkpt>
      <trkpt lat="42.97592" lon="-0.7407">
        <ele>1653.3</ele>
        <time>2010-02-24T10:22:36Z</time>
      </trkpt>
      <trkpt lat="42.97591" lon="-0.74072">
        <ele>1653.8</ele>
        <time>2010-02-24T10:22:37Z</time>
      </trkpt>
      <trkpt lat="42.97584" lon="-0.7408">
        <ele>1656.6</ele>
        <time>2010-02-24T10:22:41Z</time>
      </trkpt>
      <trkpt lat="42.97583" lon="-0.74082">
        <ele>1657</ele>
        <time>2010-02-24T10:22:42Z</time>
      </trkpt>
      <trkpt lat="42.9758" lon="-0.74085">
        <ele>1657.2</ele>
        <time>2010-02-24T10:22:45Z</time>
      </trkpt>
      <trkpt lat="42.97571" lon="-0.74096">
        <ele>1657.7</ele>
        <time>2010-02-24T10:22:51Z</time>
      </trkpt>
      <trkpt lat="42.97566" lon="-0.74103">
        <ele>1657.9</ele>
        <time>2010-02-24T10:22:56Z</time>
      </trkpt>
      <trkpt lat="42.97556" lon="-0.74115">
        <ele>1658</ele>
        <time>2010-02-24T10:23:02Z</time>
      </trkpt>
      <trkpt lat="42.97555" lon="-0.74117">
        <ele>1658.2</ele>
        <time>2010-02-24T10:23:04Z</time>
      </trkpt>
      <trkpt lat="42.97552" lon="-0.7412">
        <ele>1658.7</ele>
        <time>2010-02-24T10:23:06Z</time>
      </trkpt>
      <trkpt lat="42.97549" lon="-0.74123">
        <ele>1659.2</ele>
        <time>2010-02-24T10:23:08Z</time>
      </trkpt>
      <trkpt lat="42.97548" lon="-0.74125">
        <ele>1659.4</ele>
        <time>2010-02-24T10:23:09Z</time>
      </trkpt>
      <trkpt lat="42.97539" lon="-0.74135">
        <ele>1660.9</ele>
        <time>2010-02-24T10:23:15Z</time>
      </trkpt>
      <trkpt lat="42.97537" lon="-0.74138">
        <ele>1661.4</ele>
        <time>2010-02-24T10:23:17Z</time>
      </trkpt>
      <trkpt lat="42.97535" lon="-0.7414">
        <ele>1661.6</ele>
        <time>2010-02-24T10:23:18Z</time>
      </trkpt>
      <trkpt lat="42.97534" lon="-0.74142">
        <ele>1661.8</ele>
        <time>2010-02-24T10:23:19Z</time>
      </trkpt>
      <trkpt lat="42.97525" lon="-0.74154">
        <ele>1663.7</ele>
        <time>2010-02-24T10:23:26Z</time>
      </trkpt>
      <trkpt lat="42.97522" lon="-0.74157">
        <ele>1664.8</ele>
        <time>2010-02-24T10:23:28Z</time>
      </trkpt>
      <trkpt lat="42.97513" lon="-0.74169">
        <ele>1669.7</ele>
        <time>2010-02-24T10:23:34Z</time>
      </trkpt>
      <trkpt lat="42.97503" lon="-0.74182">
        <ele>1674.1</ele>
        <time>2010-02-24T10:23:42Z</time>
      </trkpt>
      <trkpt lat="42.97498" lon="-0.74189">
        <ele>1675.6</ele>
        <time>2010-02-24T10:23:47Z</time>
      </trkpt>
      <trkpt lat="42.97466" lon="-0.74228">
        <ele>1681.5</ele>
        <time>2010-02-24T10:24:10Z</time>
      </trkpt>
      <trkpt lat="42.97452" lon="-0.74246">
        <ele>1684.6</ele>
        <time>2010-02-24T10:24:21Z</time>
      </trkpt>
      <trkpt lat="42.97446" lon="-0.74254">
        <ele>1685.8</ele>
        <time>2010-02-24T10:24:26Z</time>
      </trkpt>
      <trkpt lat="42.97444" lon="-0.74256">
        <ele>1686.3</ele>
        <time>2010-02-24T10:24:27Z</time>
      </trkpt>
      <trkpt lat="42.97435" lon="-0.74267">
        <ele>1689</ele>
        <time>2010-02-24T10:24:33Z</time>
      </trkpt>
      <trkpt lat="42.9743" lon="-0.74274">
        <ele>1689.6</ele>
        <time>2010-02-24T10:24:38Z</time>
      </trkpt>
      <trkpt lat="42.97428" lon="-0.74276">
        <ele>1689.7</ele>
        <time>2010-02-24T10:24:39Z</time>
      </trkpt>
      <trkpt lat="42.97416" lon="-0.74291">
        <ele>1690</ele>
        <time>2010-02-24T10:24:48Z</time>
      </trkpt>
      <trkpt lat="42.97415" lon="-0.74292">
        <ele>1690.4</ele>
        <time>2010-02-24T10:24:49Z</time>
      </trkpt>
      <trkpt lat="42.97412" lon="-0.74296">
        <ele>1691.1</ele>
        <time>2010-02-24T10:24:51Z</time>
      </trkpt>
      <trkpt lat="42.97411" lon="-0.74297">
        <ele>1691.5</ele>
        <time>2010-02-24T10:24:52Z</time>
      </trkpt>
      <trkpt lat="42.97404" lon="-0.74305">
        <ele>1693.2</ele>
        <time>2010-02-24T10:24:57Z</time>
      </trkpt>
      <trkpt lat="42.97401" lon="-0.74309">
        <ele>1693.8</ele>
        <time>2010-02-24T10:24:59Z</time>
      </trkpt>
      <trkpt lat="42.97395" lon="-0.74317">
        <ele>1695</ele>
        <time>2010-02-24T10:25:03Z</time>
      </trkpt>
      <trkpt lat="42.97386" lon="-0.74327">
        <ele>1696.5</ele>
        <time>2010-02-24T10:25:10Z</time>
      </trkpt>
      <trkpt lat="42.97385" lon="-0.74329">
        <ele>1696.7</ele>
        <time>2010-02-24T10:25:11Z</time>
      </trkpt>
      <trkpt lat="42.97384" lon="-0.7433">
        <ele>1697</ele>
        <time>2010-02-24T10:25:12Z</time>
      </trkpt>
      <trkpt lat="42.9737" lon="-0.74347">
        <ele>1700.8</ele>
        <time>2010-02-24T10:25:22Z</time>
      </trkpt>
      <trkpt lat="42.97368" lon="-0.7435">
        <ele>1701.7</ele>
        <time>2010-02-24T10:25:24Z</time>
      </trkpt>
      <trkpt lat="42.97365" lon="-0.74353">
        <ele>1702.9</ele>
        <time>2010-02-24T10:25:25Z</time>
      </trkpt>
      <trkpt lat="42.97363" lon="-0.74357">
        <ele>1703.9</ele>
        <time>2010-02-24T10:25:27Z</time>
      </trkpt>
      <trkpt lat="42.9736" lon="-0.7436">
        <ele>1705.2</ele>
        <time>2010-02-24T10:25:30Z</time>
      </trkpt>
      <trkpt lat="42.97359" lon="-0.74362">
        <ele>1705.9</ele>
        <time>2010-02-24T10:25:31Z</time>
      </trkpt>
      <trkpt lat="42.97345" lon="-0.7438">
        <ele>1712.6</ele>
        <time>2010-02-24T10:25:42Z</time>
      </trkpt>
      <trkpt lat="42.97343" lon="-0.74382">
        <ele>1713.1</ele>
        <time>2010-02-24T10:25:43Z</time>
      </trkpt>
      <trkpt lat="42.97342" lon="-0.74384">
        <ele>1713.5</ele>
        <time>2010-02-24T10:25:44Z</time>
      </trkpt>
      <trkpt lat="42.97339" lon="-0.74387">
        <ele>1714.5</ele>
        <time>2010-02-24T10:25:45Z</time>
      </trkpt>
      <trkpt lat="42.9733" lon="-0.74398">
        <ele>1716.6</ele>
        <time>2010-02-24T10:25:52Z</time>
      </trkpt>
      <trkpt lat="42.97328" lon="-0.74401">
        <ele>1717.1</ele>
        <time>2010-02-24T10:25:53Z</time>
      </trkpt>
      <trkpt lat="42.97327" lon="-0.74405">
        <ele>1717.2</ele>
        <time>2010-02-24T10:25:54Z</time>
      </trkpt>
      <trkpt lat="42.97328" lon="-0.74413">
        <ele>1715.9</ele>
        <time>2010-02-24T10:25:56Z</time>
      </trkpt>
      <trkpt lat="42.97335" lon="-0.74437">
        <ele>1712.8</ele>
        <time>2010-02-24T10:26:01Z</time>
      </trkpt>
      <trkpt lat="42.97336" lon="-0.74442">
        <ele>1711.9</ele>
        <time>2010-02-24T10:26:02Z</time>
      </trkpt>
      <trkpt lat="42.97339" lon="-0.74447">
        <ele>1710.8</ele>
        <time>2010-02-24T10:26:03Z</time>
      </trkpt>
      <trkpt lat="42.97345" lon="-0.7446">
        <ele>1708.4</ele>
        <time>2010-02-24T10:26:05Z</time>
      </trkpt>
      <trkpt lat="42.97352" lon="-0.74475">
        <ele>1707</ele>
        <time>2010-02-24T10:26:06Z</time>
      </trkpt>
      <trkpt lat="42.97357" lon="-0.74487">
        <ele>1706.9</ele>
        <time>2010-02-24T10:26:09Z</time>
      </trkpt>
      <trkpt lat="42.97362" lon="-0.74498">
        <ele>1707.8</ele>
        <time>2010-02-24T10:26:11Z</time>
      </trkpt>
      <trkpt lat="42.97364" lon="-0.74504">
        <ele>1708</ele>
        <time>2010-02-24T10:26:12Z</time>
      </trkpt>
      <trkpt lat="42.97367" lon="-0.74509">
        <ele>1708</ele>
        <time>2010-02-24T10:26:13Z</time>
      </trkpt>
      <trkpt lat="42.9737" lon="-0.74515">
        <ele>1707.9</ele>
        <time>2010-02-24T10:26:14Z</time>
      </trkpt>
      <trkpt lat="42.97372" lon="-0.74522">
        <ele>1707.9</ele>
        <time>2010-02-24T10:26:15Z</time>
      </trkpt>
      <trkpt lat="42.97378" lon="-0.74535">
        <ele>1707.1</ele>
        <time>2010-02-24T10:26:16Z</time>
      </trkpt>
      <trkpt lat="42.97388" lon="-0.74545">
        <ele>1704.5</ele>
        <time>2010-02-24T10:26:19Z</time>
      </trkpt>
      <trkpt lat="42.97393" lon="-0.74552">
        <ele>1703.3</ele>
        <time>2010-02-24T10:26:20Z</time>
      </trkpt>
      <trkpt lat="42.97398" lon="-0.74557">
        <ele>1702.1</ele>
        <time>2010-02-24T10:26:21Z</time>
      </trkpt>
      <trkpt lat="42.97403" lon="-0.74558">
        <ele>1700.9</ele>
        <time>2010-02-24T10:26:22Z</time>
      </trkpt>
      <trkpt lat="42.97408" lon="-0.74555">
        <ele>1700</ele>
        <time>2010-02-24T10:26:23Z</time>
      </trkpt>
      <trkpt lat="42.97412" lon="-0.7455">
        <ele>1699.3</ele>
        <time>2010-02-24T10:26:24Z</time>
      </trkpt>
      <trkpt lat="42.97423" lon="-0.74543">
        <ele>1697</ele>
        <time>2010-02-24T10:26:25Z</time>
      </trkpt>
      <trkpt lat="42.97437" lon="-0.74536">
        <ele>1693.7</ele>
        <time>2010-02-24T10:26:27Z</time>
      </trkpt>
      <trkpt lat="42.97445" lon="-0.74533">
        <ele>1691.9</ele>
        <time>2010-02-24T10:26:29Z</time>
      </trkpt>
      <trkpt lat="42.97453" lon="-0.74534">
        <ele>1689.9</ele>
        <time>2010-02-24T10:26:30Z</time>
      </trkpt>
      <trkpt lat="42.97461" lon="-0.74532">
        <ele>1688</ele>
        <time>2010-02-24T10:26:31Z</time>
      </trkpt>
      <trkpt lat="42.9747" lon="-0.74529">
        <ele>1686.5</ele>
        <time>2010-02-24T10:26:32Z</time>
      </trkpt>
      <trkpt lat="42.97478" lon="-0.74526">
        <ele>1684.7</ele>
        <time>2010-02-24T10:26:33Z</time>
      </trkpt>
      <trkpt lat="42.97487" lon="-0.74528">
        <ele>1682.8</ele>
        <time>2010-02-24T10:26:34Z</time>
      </trkpt>
      <trkpt lat="42.97496" lon="-0.74532">
        <ele>1680.1</ele>
        <time>2010-02-24T10:26:35Z</time>
      </trkpt>
      <trkpt lat="42.97515" lon="-0.74537">
        <ele>1676.4</ele>
        <time>2010-02-24T10:26:36Z</time>
      </trkpt>
      <trkpt lat="42.97524" lon="-0.74542">
        <ele>1675</ele>
        <time>2010-02-24T10:26:37Z</time>
      </trkpt>
      <trkpt lat="42.97532" lon="-0.74548">
        <ele>1673.7</ele>
        <time>2010-02-24T10:26:38Z</time>
      </trkpt>
      <trkpt lat="42.9754" lon="-0.74553">
        <ele>1672.5</ele>
        <time>2010-02-24T10:26:39Z</time>
      </trkpt>
      <trkpt lat="42.9755" lon="-0.74557">
        <ele>1671.5</ele>
        <time>2010-02-24T10:26:41Z</time>
      </trkpt>
      <trkpt lat="42.9756" lon="-0.7456">
        <ele>1670.2</ele>
        <time>2010-02-24T10:26:42Z</time>
      </trkpt>
      <trkpt lat="42.97569" lon="-0.74562">
        <ele>1669.3</ele>
        <time>2010-02-24T10:26:43Z</time>
      </trkpt>
      <trkpt lat="42.97579" lon="-0.74563">
        <ele>1668.6</ele>
        <time>2010-02-24T10:26:44Z</time>
      </trkpt>
      <trkpt lat="42.97587" lon="-0.74564">
        <ele>1668</ele>
        <time>2010-02-24T10:26:45Z</time>
      </trkpt>
      <trkpt lat="42.97595" lon="-0.74567">
        <ele>1667.7</ele>
        <time>2010-02-24T10:26:46Z</time>
      </trkpt>
      <trkpt lat="42.97616" lon="-0.74578">
        <ele>1667.7</ele>
        <time>2010-02-24T10:26:51Z</time>
      </trkpt>
      <trkpt lat="42.97618" lon="-0.74578">
        <ele>1667.2</ele>
        <time>2010-02-24T10:26:52Z</time>
      </trkpt>
      <trkpt lat="42.97619" lon="-0.74577">
        <ele>1666.7</ele>
        <time>2010-02-24T10:26:53Z</time>
      </trkpt>
      <trkpt lat="42.97619" lon="-0.74577">
        <ele>1666.5</ele>
        <time>2010-02-24T10:26:55Z</time>
      </trkpt>
      <trkpt lat="42.97618" lon="-0.74577">
        <ele>1666.9</ele>
        <time>2010-02-24T10:27:07Z</time>
      </trkpt>
      <trkpt lat="42.97617" lon="-0.74576">
        <ele>1666.9</ele>
        <time>2010-02-24T10:27:14Z</time>
      </trkpt>
      <trkpt lat="42.97617" lon="-0.74576">
        <ele>1666.8</ele>
        <time>2010-02-24T10:27:15Z</time>
      </trkpt>
      <trkpt lat="42.97617" lon="-0.74576">
        <ele>1666.7</ele>
        <time>2010-02-24T10:27:20Z</time>
      </trkpt>
      <trkpt lat="42.97617" lon="-0.74576">
        <ele>1666.9</ele>
        <time>2010-02-24T10:27:23Z</time>
      </trkpt>
      <trkpt lat="42.97617" lon="-0.74578">
        <ele>1667.3</ele>
        <time>2010-02-24T10:27:25Z</time>
      </trkpt>
      <trkpt lat="42.97617" lon="-0.74579">
        <ele>1667.4</ele>
        <time>2010-02-24T10:27:26Z</time>
      </trkpt>
      <trkpt lat="42.97625" lon="-0.74596">
        <ele>1666.1</ele>
        <time>2010-02-24T10:27:31Z</time>
      </trkpt>
      <trkpt lat="42.97626" lon="-0.74601">
        <ele>1665.7</ele>
        <time>2010-02-24T10:27:32Z</time>
      </trkpt>
      <trkpt lat="42.97627" lon="-0.74606">
        <ele>1665.4</ele>
        <time>2010-02-24T10:27:33Z</time>
      </trkpt>
      <trkpt lat="42.97629" lon="-0.74615">
        <ele>1665</ele>
        <time>2010-02-24T10:27:35Z</time>
      </trkpt>
      <trkpt lat="42.9763" lon="-0.7462">
        <ele>1664.6</ele>
        <time>2010-02-24T10:27:36Z</time>
      </trkpt>
      <trkpt lat="42.97632" lon="-0.74625">
        <ele>1663.9</ele>
        <time>2010-02-24T10:27:37Z</time>
      </trkpt>
      <trkpt lat="42.97636" lon="-0.74629">
        <ele>1662.9</ele>
        <time>2010-02-24T10:27:38Z</time>
      </trkpt>
      <trkpt lat="42.97647" lon="-0.74638">
        <ele>1660.9</ele>
        <time>2010-02-24T10:27:39Z</time>
      </trkpt>
      <trkpt lat="42.97655" lon="-0.74643">
        <ele>1659.8</ele>
        <time>2010-02-24T10:27:41Z</time>
      </trkpt>
      <trkpt lat="42.97663" lon="-0.74648">
        <ele>1658.6</ele>
        <time>2010-02-24T10:27:42Z</time>
      </trkpt>
      <trkpt lat="42.97672" lon="-0.74654">
        <ele>1657.2</ele>
        <time>2010-02-24T10:27:43Z</time>
      </trkpt>
      <trkpt lat="42.97681" lon="-0.74661">
        <ele>1655.9</ele>
        <time>2010-02-24T10:27:44Z</time>
      </trkpt>
      <trkpt lat="42.9769" lon="-0.74671">
        <ele>1654.7</ele>
        <time>2010-02-24T10:27:45Z</time>
      </trkpt>
      <trkpt lat="42.97697" lon="-0.74682">
        <ele>1653.6</ele>
        <time>2010-02-24T10:27:46Z</time>
      </trkpt>
      <trkpt lat="42.97709" lon="-0.74707">
        <ele>1652.6</ele>
        <time>2010-02-24T10:27:47Z</time>
      </trkpt>
      <trkpt lat="42.97729" lon="-0.74747">
        <ele>1648.6</ele>
        <time>2010-02-24T10:27:51Z</time>
      </trkpt>
      <trkpt lat="42.97735" lon="-0.7476">
        <ele>1647.3</ele>
        <time>2010-02-24T10:27:52Z</time>
      </trkpt>
      <trkpt lat="42.9774" lon="-0.74774">
        <ele>1646.2</ele>
        <time>2010-02-24T10:27:53Z</time>
      </trkpt>
      <trkpt lat="42.97745" lon="-0.74786">
        <ele>1645.5</ele>
        <time>2010-02-24T10:27:54Z</time>
      </trkpt>
      <trkpt lat="42.97759" lon="-0.74805">
        <ele>1644</ele>
        <time>2010-02-24T10:27:56Z</time>
      </trkpt>
      <trkpt lat="42.97769" lon="-0.74823">
        <ele>1642.3</ele>
        <time>2010-02-24T10:27:57Z</time>
      </trkpt>
      <trkpt lat="42.97775" lon="-0.74829">
        <ele>1641.4</ele>
        <time>2010-02-24T10:27:58Z</time>
      </trkpt>
      <trkpt lat="42.97781" lon="-0.74834">
        <ele>1640.7</ele>
        <time>2010-02-24T10:27:59Z</time>
      </trkpt>
      <trkpt lat="42.97785" lon="-0.74841">
        <ele>1640.3</ele>
        <time>2010-02-24T10:28:00Z</time>
      </trkpt>
      <trkpt lat="42.97788" lon="-0.74847">
        <ele>1640</ele>
        <time>2010-02-24T10:28:01Z</time>
      </trkpt>
      <trkpt lat="42.97792" lon="-0.74851">
        <ele>1639.8</ele>
        <time>2010-02-24T10:28:03Z</time>
      </trkpt>
      <trkpt lat="42.97795" lon="-0.74855">
        <ele>1639.6</ele>
        <time>2010-02-24T10:28:04Z</time>
      </trkpt>
      <trkpt lat="42.97796" lon="-0.74857">
        <ele>1639.6</ele>
        <time>2010-02-24T10:28:05Z</time>
      </trkpt>
      <trkpt lat="42.97797" lon="-0.74859">
        <ele>1639.6</ele>
        <time>2010-02-24T10:28:06Z</time>
      </trkpt>
      <trkpt lat="42.97797" lon="-0.74858">
        <ele>1639.6</ele>
        <time>2010-02-24T10:28:09Z</time>
      </trkpt>
      <trkpt lat="42.97796" lon="-0.74858">
        <ele>1639.6</ele>
        <time>2010-02-24T10:28:17Z</time>
      </trkpt>
      <trkpt lat="42.97796" lon="-0.74858">
        <ele>1639.6</ele>
        <time>2010-02-24T10:28:18Z</time>
      </trkpt>
      <trkpt lat="42.97796" lon="-0.74859">
        <ele>1639.7</ele>
        <time>2010-02-24T10:28:20Z</time>
      </trkpt>
      <trkpt lat="42.97796" lon="-0.74859">
        <ele>1639.6</ele>
        <time>2010-02-24T10:28:24Z</time>
      </trkpt>
      <trkpt lat="42.97796" lon="-0.74858">
        <ele>1639.6</ele>
        <time>2010-02-24T10:28:27Z</time>
      </trkpt>
      <trkpt lat="42.97796" lon="-0.74858">
        <ele>1639.6</ele>
        <time>2010-02-24T10:28:32Z</time>
      </trkpt>
      <trkpt lat="42.97796" lon="-0.74858">
        <ele>1639.6</ele>
        <time>2010-02-24T10:28:35Z</time>
      </trkpt>
      <trkpt lat="42.97796" lon="-0.74858">
        <ele>1639.6</ele>
        <time>2010-02-24T10:28:37Z</time>
      </trkpt>
      <trkpt lat="42.97796" lon="-0.74858">
        <ele>1639.6</ele>
        <time>2010-02-24T10:28:38Z</time>
      </trkpt>
      <trkpt lat="42.97796" lon="-0.74859">
        <ele>1639.7</ele>
        <time>2010-02-24T10:28:44Z</time>
      </trkpt>
      <trkpt lat="42.97795" lon="-0.7486">
        <ele>1639.7</ele>
        <time>2010-02-24T10:29:00Z</time>
      </trkpt>
      <trkpt lat="42.97795" lon="-0.74859">
        <ele>1639.7</ele>
        <time>2010-02-24T10:29:05Z</time>
      </trkpt>
      <trkpt lat="42.97795" lon="-0.74859">
        <ele>1639.7</ele>
        <time>2010-02-24T10:29:06Z</time>
      </trkpt>
      <trkpt lat="42.97796" lon="-0.74859">
        <ele>1639.7</ele>
        <time>2010-02-24T10:29:10Z</time>
      </trkpt>
      <trkpt lat="42.97798" lon="-0.74863">
        <ele>1639.7</ele>
        <time>2010-02-24T10:29:25Z</time>
      </trkpt>
      <trkpt lat="42.97798" lon="-0.74863">
        <ele>1639.7</ele>
        <time>2010-02-24T10:29:27Z</time>
      </trkpt>
      <trkpt lat="42.97799" lon="-0.74863">
        <ele>1639.7</ele>
        <time>2010-02-24T10:29:34Z</time>
      </trkpt>
      <trkpt lat="42.97799" lon="-0.74863">
        <ele>1639.7</ele>
        <time>2010-02-24T10:29:37Z</time>
      </trkpt>
      <trkpt lat="42.97798" lon="-0.74863">
        <ele>1639.7</ele>
        <time>2010-02-24T10:29:38Z</time>
      </trkpt>
      <trkpt lat="42.97799" lon="-0.74863">
        <ele>1639.7</ele>
        <time>2010-02-24T10:29:40Z</time>
      </trkpt>
      <trkpt lat="42.97799" lon="-0.74864">
        <ele>1639.8</ele>
        <time>2010-02-24T10:29:42Z</time>
      </trkpt>
      <trkpt lat="42.97799" lon="-0.74864">
        <ele>1639.8</ele>
        <time>2010-02-24T10:29:43Z</time>
      </trkpt>
      <trkpt lat="42.97799" lon="-0.74865">
        <ele>1639.9</ele>
        <time>2010-02-24T10:29:51Z</time>
      </trkpt>
      <trkpt lat="42.97799" lon="-0.74865">
        <ele>1639.8</ele>
        <time>2010-02-24T10:30:02Z</time>
      </trkpt>
      <trkpt lat="42.97799" lon="-0.74865">
        <ele>1639.8</ele>
        <time>2010-02-24T10:30:05Z</time>
      </trkpt>
      <trkpt lat="42.97799" lon="-0.74864">
        <ele>1639.7</ele>
        <time>2010-02-24T10:30:13Z</time>
      </trkpt>
      <trkpt lat="42.97798" lon="-0.74864">
        <ele>1639.8</ele>
        <time>2010-02-24T10:30:22Z</time>
      </trkpt>
      <trkpt lat="42.97799" lon="-0.74864">
        <ele>1639.8</ele>
        <time>2010-02-24T10:30:27Z</time>
      </trkpt>
      <trkpt lat="42.97799" lon="-0.74864">
        <ele>1639.8</ele>
        <time>2010-02-24T10:30:28Z</time>
      </trkpt>
      <trkpt lat="42.97799" lon="-0.74864">
        <ele>1639.8</ele>
        <time>2010-02-24T10:30:30Z</time>
      </trkpt>
      <trkpt lat="42.97799" lon="-0.74864">
        <ele>1639.8</ele>
        <time>2010-02-24T10:30:31Z</time>
      </trkpt>
      <trkpt lat="42.97799" lon="-0.74864">
        <ele>1639.7</ele>
        <time>2010-02-24T10:30:37Z</time>
      </trkpt>
      <trkpt lat="42.97799" lon="-0.74863">
        <ele>1639.7</ele>
        <time>2010-02-24T10:30:39Z</time>
      </trkpt>
      <trkpt lat="42.978" lon="-0.74863">
        <ele>1639.6</ele>
        <time>2010-02-24T10:30:40Z</time>
      </trkpt>
      <trkpt lat="42.978" lon="-0.74863">
        <ele>1639.6</ele>
        <time>2010-02-24T10:30:42Z</time>
      </trkpt>
      <trkpt lat="42.978" lon="-0.74863">
        <ele>1639.6</ele>
        <time>2010-02-24T10:30:43Z</time>
      </trkpt>
      <trkpt lat="42.978" lon="-0.74863">
        <ele>1639.6</ele>
        <time>2010-02-24T10:30:47Z</time>
      </trkpt>
      <trkpt lat="42.978" lon="-0.74863">
        <ele>1639.6</ele>
        <time>2010-02-24T10:30:48Z</time>
      </trkpt>
      <trkpt lat="42.978" lon="-0.74863">
        <ele>1639.6</ele>
        <time>2010-02-24T10:30:50Z</time>
      </trkpt>
      <trkpt lat="42.978" lon="-0.74864">
        <ele>1639.7</ele>
        <time>2010-02-24T10:30:51Z</time>
      </trkpt>
      <trkpt lat="42.978" lon="-0.74864">
        <ele>1639.7</ele>
        <time>2010-02-24T10:30:52Z</time>
      </trkpt>
      <trkpt lat="42.978" lon="-0.74865">
        <ele>1639.8</ele>
        <time>2010-02-24T10:30:59Z</time>
      </trkpt>
      <trkpt lat="42.978" lon="-0.74865">
        <ele>1639.9</ele>
        <time>2010-02-24T10:31:03Z</time>
      </trkpt>
      <trkpt lat="42.978" lon="-0.74864">
        <ele>1639.7</ele>
        <time>2010-02-24T10:31:09Z</time>
      </trkpt>
      <trkpt lat="42.978" lon="-0.74865">
        <ele>1639.8</ele>
        <time>2010-02-24T10:31:12Z</time>
      </trkpt>
      <trkpt lat="42.97799" lon="-0.74865">
        <ele>1639.9</ele>
        <time>2010-02-24T10:31:18Z</time>
      </trkpt>
      <trkpt lat="42.978" lon="-0.74865">
        <ele>1639.8</ele>
        <time>2010-02-24T10:31:21Z</time>
      </trkpt>
      <trkpt lat="42.97799" lon="-0.74865">
        <ele>1639.9</ele>
        <time>2010-02-24T10:31:24Z</time>
      </trkpt>
      <trkpt lat="42.97798" lon="-0.74866">
        <ele>1640</ele>
        <time>2010-02-24T10:31:28Z</time>
      </trkpt>
      <trkpt lat="42.97799" lon="-0.74867">
        <ele>1640.1</ele>
        <time>2010-02-24T10:31:29Z</time>
      </trkpt>
      <trkpt lat="42.97798" lon="-0.74867">
        <ele>1640.1</ele>
        <time>2010-02-24T10:31:33Z</time>
      </trkpt>
      <trkpt lat="42.97798" lon="-0.74868">
        <ele>1640.2</ele>
        <time>2010-02-24T10:31:34Z</time>
      </trkpt>
      <trkpt lat="42.97798" lon="-0.74868">
        <ele>1640.2</ele>
        <time>2010-02-24T10:31:39Z</time>
      </trkpt>
      <trkpt lat="42.97798" lon="-0.74867">
        <ele>1640.2</ele>
        <time>2010-02-24T10:31:43Z</time>
      </trkpt>
      <trkpt lat="42.97798" lon="-0.74867">
        <ele>1640.2</ele>
        <time>2010-02-24T10:31:51Z</time>
      </trkpt>
      <trkpt lat="42.97798" lon="-0.74868">
        <ele>1640.2</ele>
        <time>2010-02-24T10:31:52Z</time>
      </trkpt>
      <trkpt lat="42.97797" lon="-0.74871">
        <ele>1640.5</ele>
        <time>2010-02-24T10:31:55Z</time>
      </trkpt>
      <trkpt lat="42.97796" lon="-0.74875">
        <ele>1641.1</ele>
        <time>2010-02-24T10:31:58Z</time>
      </trkpt>
      <trkpt lat="42.97793" lon="-0.74882">
        <ele>1641.8</ele>
        <time>2010-02-24T10:32:00Z</time>
      </trkpt>
      <trkpt lat="42.9779" lon="-0.7489">
        <ele>1642.7</ele>
        <time>2010-02-24T10:32:03Z</time>
      </trkpt>
      <trkpt lat="42.9778" lon="-0.74914">
        <ele>1645.2</ele>
        <time>2010-02-24T10:32:11Z</time>
      </trkpt>
      <trkpt lat="42.97778" lon="-0.74921">
        <ele>1645.8</ele>
        <time>2010-02-24T10:32:13Z</time>
      </trkpt>
      <trkpt lat="42.97771" lon="-0.74939">
        <ele>1650.3</ele>
        <time>2010-02-24T10:32:19Z</time>
      </trkpt>
      <trkpt lat="42.9777" lon="-0.74941">
        <ele>1651.1</ele>
        <time>2010-02-24T10:32:20Z</time>
      </trkpt>
      <trkpt lat="42.97766" lon="-0.7495">
        <ele>1653.5</ele>
        <time>2010-02-24T10:32:23Z</time>
      </trkpt>
      <trkpt lat="42.97759" lon="-0.74969">
        <ele>1659.4</ele>
        <time>2010-02-24T10:32:30Z</time>
      </trkpt>
      <trkpt lat="42.97752" lon="-0.74982">
        <ele>1664.3</ele>
        <time>2010-02-24T10:32:34Z</time>
      </trkpt>
      <trkpt lat="42.97749" lon="-0.74991">
        <ele>1667.2</ele>
        <time>2010-02-24T10:32:38Z</time>
      </trkpt>
      <trkpt lat="42.97747" lon="-0.74996">
        <ele>1669</ele>
        <time>2010-02-24T10:32:40Z</time>
      </trkpt>
      <trkpt lat="42.97743" lon="-0.75004">
        <ele>1671.7</ele>
        <time>2010-02-24T10:32:43Z</time>
      </trkpt>
      <trkpt lat="42.97733" lon="-0.75029">
        <ele>1679.3</ele>
        <time>2010-02-24T10:32:52Z</time>
      </trkpt>
      <trkpt lat="42.97729" lon="-0.75037">
        <ele>1681.6</ele>
        <time>2010-02-24T10:32:55Z</time>
      </trkpt>
      <trkpt lat="42.97725" lon="-0.75046">
        <ele>1683.8</ele>
        <time>2010-02-24T10:32:57Z</time>
      </trkpt>
      <trkpt lat="42.97723" lon="-0.75052">
        <ele>1685.2</ele>
        <time>2010-02-24T10:33:00Z</time>
      </trkpt>
      <trkpt lat="42.97719" lon="-0.7506">
        <ele>1687.4</ele>
        <time>2010-02-24T10:33:03Z</time>
      </trkpt>
      <trkpt lat="42.97717" lon="-0.75066">
        <ele>1688.8</ele>
        <time>2010-02-24T10:33:05Z</time>
      </trkpt>
      <trkpt lat="42.97715" lon="-0.75072">
        <ele>1690.2</ele>
        <time>2010-02-24T10:33:06Z</time>
      </trkpt>
      <trkpt lat="42.9771" lon="-0.75084">
        <ele>1693.1</ele>
        <time>2010-02-24T10:33:11Z</time>
      </trkpt>
      <trkpt lat="42.97703" lon="-0.75097">
        <ele>1696.9</ele>
        <time>2010-02-24T10:33:16Z</time>
      </trkpt>
      <trkpt lat="42.97688" lon="-0.75133">
        <ele>1708.5</ele>
        <time>2010-02-24T10:33:28Z</time>
      </trkpt>
      <trkpt lat="42.97686" lon="-0.75139">
        <ele>1710.5</ele>
        <time>2010-02-24T10:33:31Z</time>
      </trkpt>
      <trkpt lat="42.97681" lon="-0.75149">
        <ele>1714.8</ele>
        <time>2010-02-24T10:33:35Z</time>
      </trkpt>
      <trkpt lat="42.97679" lon="-0.75155">
        <ele>1717</ele>
        <time>2010-02-24T10:33:36Z</time>
      </trkpt>
      <trkpt lat="42.97678" lon="-0.75157">
        <ele>1718</ele>
        <time>2010-02-24T10:33:37Z</time>
      </trkpt>
      <trkpt lat="42.97673" lon="-0.75165">
        <ele>1721.2</ele>
        <time>2010-02-24T10:33:41Z</time>
      </trkpt>
      <trkpt lat="42.9767" lon="-0.7517">
        <ele>1723.5</ele>
        <time>2010-02-24T10:33:43Z</time>
      </trkpt>
      <trkpt lat="42.97668" lon="-0.75176">
        <ele>1725.8</ele>
        <time>2010-02-24T10:33:45Z</time>
      </trkpt>
      <trkpt lat="42.97665" lon="-0.75188">
        <ele>1730.1</ele>
        <time>2010-02-24T10:33:48Z</time>
      </trkpt>
      <trkpt lat="42.97663" lon="-0.75194">
        <ele>1732.1</ele>
        <time>2010-02-24T10:33:51Z</time>
      </trkpt>
      <trkpt lat="42.9766" lon="-0.752">
        <ele>1733.9</ele>
        <time>2010-02-24T10:33:53Z</time>
      </trkpt>
      <trkpt lat="42.97658" lon="-0.75206">
        <ele>1735.9</ele>
        <time>2010-02-24T10:33:55Z</time>
      </trkpt>
      <trkpt lat="42.97654" lon="-0.75215">
        <ele>1738.6</ele>
        <time>2010-02-24T10:33:57Z</time>
      </trkpt>
      <trkpt lat="42.9765" lon="-0.75225">
        <ele>1742.5</ele>
        <time>2010-02-24T10:34:02Z</time>
      </trkpt>
      <trkpt lat="42.97647" lon="-0.75233">
        <ele>1745.9</ele>
        <time>2010-02-24T10:34:05Z</time>
      </trkpt>
      <trkpt lat="42.97644" lon="-0.75233">
        <ele>1746.8</ele>
        <time>2010-02-24T10:34:06Z</time>
      </trkpt>
      <trkpt lat="42.9764" lon="-0.75228">
        <ele>1745.9</ele>
        <time>2010-02-24T10:34:16Z</time>
      </trkpt>
      <trkpt lat="42.9764" lon="-0.75229">
        <ele>1746</ele>
        <time>2010-02-24T10:34:31Z</time>
      </trkpt>
      <trkpt lat="42.97639" lon="-0.75228">
        <ele>1746.1</ele>
        <time>2010-02-24T10:34:34Z</time>
      </trkpt>
      <trkpt lat="42.97638" lon="-0.75227">
        <ele>1746</ele>
        <time>2010-02-24T10:34:36Z</time>
      </trkpt>
      <trkpt lat="42.97639" lon="-0.75227">
        <ele>1745.9</ele>
        <time>2010-02-24T10:34:39Z</time>
      </trkpt>
      <trkpt lat="42.97638" lon="-0.75228">
        <ele>1746</ele>
        <time>2010-02-24T10:34:43Z</time>
      </trkpt>
      <trkpt lat="42.97638" lon="-0.75228">
        <ele>1746.1</ele>
        <time>2010-02-24T10:34:45Z</time>
      </trkpt>
      <trkpt lat="42.97638" lon="-0.75226">
        <ele>1745.7</ele>
        <time>2010-02-24T10:34:48Z</time>
      </trkpt>
      <trkpt lat="42.97637" lon="-0.75224">
        <ele>1745.1</ele>
        <time>2010-02-24T10:34:49Z</time>
      </trkpt>
      <trkpt lat="42.97635" lon="-0.75214">
        <ele>1742.2</ele>
        <time>2010-02-24T10:34:52Z</time>
      </trkpt>
      <trkpt lat="42.97632" lon="-0.75207">
        <ele>1740.6</ele>
        <time>2010-02-24T10:34:53Z</time>
      </trkpt>
      <trkpt lat="42.97626" lon="-0.75195">
        <ele>1737.9</ele>
        <time>2010-02-24T10:34:55Z</time>
      </trkpt>
      <trkpt lat="42.97623" lon="-0.7519">
        <ele>1736.8</ele>
        <time>2010-02-24T10:34:56Z</time>
      </trkpt>
      <trkpt lat="42.9762" lon="-0.75187">
        <ele>1736.3</ele>
        <time>2010-02-24T10:34:57Z</time>
      </trkpt>
      <trkpt lat="42.97617" lon="-0.75185">
        <ele>1736.1</ele>
        <time>2010-02-24T10:35:00Z</time>
      </trkpt>
      <trkpt lat="42.97619" lon="-0.75184">
        <ele>1735.4</ele>
        <time>2010-02-24T10:35:08Z</time>
      </trkpt>
      <trkpt lat="42.97618" lon="-0.75183">
        <ele>1735.3</ele>
        <time>2010-02-24T10:35:10Z</time>
      </trkpt>
      <trkpt lat="42.9762" lon="-0.75182">
        <ele>1734.7</ele>
        <time>2010-02-24T10:35:24Z</time>
      </trkpt>
      <trkpt lat="42.9762" lon="-0.75182">
        <ele>1734.6</ele>
        <time>2010-02-24T10:35:26Z</time>
      </trkpt>
      <trkpt lat="42.97621" lon="-0.75181">
        <ele>1734.1</ele>
        <time>2010-02-24T10:35:29Z</time>
      </trkpt>
      <trkpt lat="42.9762" lon="-0.75179">
        <ele>1733.4</ele>
        <time>2010-02-24T10:35:34Z</time>
      </trkpt>
      <trkpt lat="42.97618" lon="-0.75177">
        <ele>1733.1</ele>
        <time>2010-02-24T10:35:35Z</time>
      </trkpt>
      <trkpt lat="42.97614" lon="-0.75175">
        <ele>1732.7</ele>
        <time>2010-02-24T10:35:37Z</time>
      </trkpt>
      <trkpt lat="42.97609" lon="-0.75172">
        <ele>1732</ele>
        <time>2010-02-24T10:35:39Z</time>
      </trkpt>
      <trkpt lat="42.97601" lon="-0.75167">
        <ele>1730.3</ele>
        <time>2010-02-24T10:35:40Z</time>
      </trkpt>
      <trkpt lat="42.97596" lon="-0.75163">
        <ele>1729.4</ele>
        <time>2010-02-24T10:35:41Z</time>
      </trkpt>
      <trkpt lat="42.97585" lon="-0.75157">
        <ele>1727.9</ele>
        <time>2010-02-24T10:35:45Z</time>
      </trkpt>
      <trkpt lat="42.9758" lon="-0.75155">
        <ele>1726.9</ele>
        <time>2010-02-24T10:35:47Z</time>
      </trkpt>
      <trkpt lat="42.97576" lon="-0.75154">
        <ele>1726</ele>
        <time>2010-02-24T10:35:49Z</time>
      </trkpt>
      <trkpt lat="42.97571" lon="-0.75153">
        <ele>1725.4</ele>
        <time>2010-02-24T10:35:50Z</time>
      </trkpt>
      <trkpt lat="42.97569" lon="-0.75153">
        <ele>1724.8</ele>
        <time>2010-02-24T10:35:52Z</time>
      </trkpt>
      <trkpt lat="42.97565" lon="-0.75151">
        <ele>1723.8</ele>
        <time>2010-02-24T10:35:53Z</time>
      </trkpt>
      <trkpt lat="42.9756" lon="-0.75148">
        <ele>1722.3</ele>
        <time>2010-02-24T10:35:54Z</time>
      </trkpt>
      <trkpt lat="42.97555" lon="-0.75144">
        <ele>1720.6</ele>
        <time>2010-02-24T10:35:55Z</time>
      </trkpt>
      <trkpt lat="42.97551" lon="-0.7514">
        <ele>1719.9</ele>
        <time>2010-02-24T10:35:56Z</time>
      </trkpt>
      <trkpt lat="42.97544" lon="-0.75132">
        <ele>1719</ele>
        <time>2010-02-24T10:35:58Z</time>
      </trkpt>
      <trkpt lat="42.97538" lon="-0.75127">
        <ele>1718.6</ele>
        <time>2010-02-24T10:35:59Z</time>
      </trkpt>
      <trkpt lat="42.97534" lon="-0.75124">
        <ele>1718.5</ele>
        <time>2010-02-24T10:36:03Z</time>
      </trkpt>
      <trkpt lat="42.97534" lon="-0.75124">
        <ele>1718.4</ele>
        <time>2010-02-24T10:36:04Z</time>
      </trkpt>
      <trkpt lat="42.97535" lon="-0.75123">
        <ele>1718.2</ele>
        <time>2010-02-24T10:36:06Z</time>
      </trkpt>
      <trkpt lat="42.97535" lon="-0.75123">
        <ele>1718.1</ele>
        <time>2010-02-24T10:36:08Z</time>
      </trkpt>
      <trkpt lat="42.97535" lon="-0.75123">
        <ele>1718.1</ele>
        <time>2010-02-24T10:36:09Z</time>
      </trkpt>
      <trkpt lat="42.97535" lon="-0.75124">
        <ele>1718.3</ele>
        <time>2010-02-24T10:36:20Z</time>
      </trkpt>
      <trkpt lat="42.97535" lon="-0.75124">
        <ele>1718.3</ele>
        <time>2010-02-24T10:36:22Z</time>
      </trkpt>
      <trkpt lat="42.97535" lon="-0.75124">
        <ele>1718.4</ele>
        <time>2010-02-24T10:36:24Z</time>
      </trkpt>
      <trkpt lat="42.97536" lon="-0.75125">
        <ele>1718.4</ele>
        <time>2010-02-24T10:36:31Z</time>
      </trkpt>
      <trkpt lat="42.97536" lon="-0.75125">
        <ele>1718.4</ele>
        <time>2010-02-24T10:36:32Z</time>
      </trkpt>
      <trkpt lat="42.97537" lon="-0.75123">
        <ele>1718</ele>
        <time>2010-02-24T10:36:35Z</time>
      </trkpt>
      <trkpt lat="42.97537" lon="-0.7512">
        <ele>1717.2</ele>
        <time>2010-02-24T10:36:36Z</time>
      </trkpt>
      <trkpt lat="42.97536" lon="-0.75117">
        <ele>1716.5</ele>
        <time>2010-02-24T10:36:37Z</time>
      </trkpt>
      <trkpt lat="42.97536" lon="-0.75115">
        <ele>1716</ele>
        <time>2010-02-24T10:36:38Z</time>
      </trkpt>
      <trkpt lat="42.97537" lon="-0.75114">
        <ele>1715.6</ele>
        <time>2010-02-24T10:36:39Z</time>
      </trkpt>
      <trkpt lat="42.97537" lon="-0.75109">
        <ele>1714.6</ele>
        <time>2010-02-24T10:36:41Z</time>
      </trkpt>
      <trkpt lat="42.97536" lon="-0.75102">
        <ele>1713.3</ele>
        <time>2010-02-24T10:36:43Z</time>
      </trkpt>
      <trkpt lat="42.97536" lon="-0.75097">
        <ele>1712.3</ele>
        <time>2010-02-24T10:36:45Z</time>
      </trkpt>
      <trkpt lat="42.97537" lon="-0.7509">
        <ele>1711</ele>
        <time>2010-02-24T10:36:46Z</time>
      </trkpt>
      <trkpt lat="42.9754" lon="-0.75073">
        <ele>1708.2</ele>
        <time>2010-02-24T10:36:48Z</time>
      </trkpt>
      <trkpt lat="42.97544" lon="-0.75063">
        <ele>1706.9</ele>
        <time>2010-02-24T10:36:49Z</time>
      </trkpt>
      <trkpt lat="42.9755" lon="-0.75054">
        <ele>1705.6</ele>
        <time>2010-02-24T10:36:50Z</time>
      </trkpt>
      <trkpt lat="42.97565" lon="-0.7504">
        <ele>1703.8</ele>
        <time>2010-02-24T10:36:51Z</time>
      </trkpt>
      <trkpt lat="42.97572" lon="-0.75033">
        <ele>1702.7</ele>
        <time>2010-02-24T10:36:52Z</time>
      </trkpt>
      <trkpt lat="42.97577" lon="-0.75023">
        <ele>1701.8</ele>
        <time>2010-02-24T10:36:53Z</time>
      </trkpt>
      <trkpt lat="42.97581" lon="-0.75013">
        <ele>1701</ele>
        <time>2010-02-24T10:36:55Z</time>
      </trkpt>
      <trkpt lat="42.97583" lon="-0.75003">
        <ele>1700.2</ele>
        <time>2010-02-24T10:36:56Z</time>
      </trkpt>
      <trkpt lat="42.97586" lon="-0.74993">
        <ele>1699.1</ele>
        <time>2010-02-24T10:36:57Z</time>
      </trkpt>
      <trkpt lat="42.97592" lon="-0.74986">
        <ele>1697.4</ele>
        <time>2010-02-24T10:36:58Z</time>
      </trkpt>
      <trkpt lat="42.97601" lon="-0.74981">
        <ele>1695</ele>
        <time>2010-02-24T10:36:59Z</time>
      </trkpt>
      <trkpt lat="42.9761" lon="-0.74974">
        <ele>1691.8</ele>
        <time>2010-02-24T10:37:00Z</time>
      </trkpt>
      <trkpt lat="42.97617" lon="-0.74964">
        <ele>1689.2</ele>
        <time>2010-02-24T10:37:01Z</time>
      </trkpt>
      <trkpt lat="42.9762" lon="-0.74951">
        <ele>1686.9</ele>
        <time>2010-02-24T10:37:02Z</time>
      </trkpt>
      <trkpt lat="42.97621" lon="-0.74922">
        <ele>1682.8</ele>
        <time>2010-02-24T10:37:03Z</time>
      </trkpt>
      <trkpt lat="42.97622" lon="-0.74906">
        <ele>1681.2</ele>
        <time>2010-02-24T10:37:04Z</time>
      </trkpt>
      <trkpt lat="42.97623" lon="-0.74892">
        <ele>1679.8</ele>
        <time>2010-02-24T10:37:06Z</time>
      </trkpt>
      <trkpt lat="42.97629" lon="-0.74864">
        <ele>1675.4</ele>
        <time>2010-02-24T10:37:08Z</time>
      </trkpt>
      <trkpt lat="42.9763" lon="-0.74852">
        <ele>1673.7</ele>
        <time>2010-02-24T10:37:09Z</time>
      </trkpt>
      <trkpt lat="42.9763" lon="-0.74842">
        <ele>1673.1</ele>
        <time>2010-02-24T10:37:10Z</time>
      </trkpt>
      <trkpt lat="42.97628" lon="-0.74835">
        <ele>1673.1</ele>
        <time>2010-02-24T10:37:11Z</time>
      </trkpt>
      <trkpt lat="42.97627" lon="-0.74832">
        <ele>1673.2</ele>
        <time>2010-02-24T10:37:12Z</time>
      </trkpt>
      <trkpt lat="42.97627" lon="-0.74832">
        <ele>1673.1</ele>
        <time>2010-02-24T10:37:13Z</time>
      </trkpt>
      <trkpt lat="42.97628" lon="-0.74832">
        <ele>1672.7</ele>
        <time>2010-02-24T10:37:17Z</time>
      </trkpt>
      <trkpt lat="42.9763" lon="-0.74831">
        <ele>1672.1</ele>
        <time>2010-02-24T10:37:18Z</time>
      </trkpt>
      <trkpt lat="42.97637" lon="-0.74824">
        <ele>1668.9</ele>
        <time>2010-02-24T10:37:20Z</time>
      </trkpt>
      <trkpt lat="42.97644" lon="-0.74817">
        <ele>1666.8</ele>
        <time>2010-02-24T10:37:21Z</time>
      </trkpt>
      <trkpt lat="42.97663" lon="-0.7481">
        <ele>1662.7</ele>
        <time>2010-02-24T10:37:22Z</time>
      </trkpt>
      <trkpt lat="42.97686" lon="-0.74808">
        <ele>1656</ele>
        <time>2010-02-24T10:37:24Z</time>
      </trkpt>
      <trkpt lat="42.97698" lon="-0.74808">
        <ele>1652.6</ele>
        <time>2010-02-24T10:37:26Z</time>
      </trkpt>
      <trkpt lat="42.97711" lon="-0.74813">
        <ele>1650.4</ele>
        <time>2010-02-24T10:37:27Z</time>
      </trkpt>
      <trkpt lat="42.97723" lon="-0.74816">
        <ele>1647.9</ele>
        <time>2010-02-24T10:37:28Z</time>
      </trkpt>
      <trkpt lat="42.97736" lon="-0.74817">
        <ele>1646.4</ele>
        <time>2010-02-24T10:37:29Z</time>
      </trkpt>
      <trkpt lat="42.97748" lon="-0.74816">
        <ele>1644.8</ele>
        <time>2010-02-24T10:37:30Z</time>
      </trkpt>
      <trkpt lat="42.9777" lon="-0.74824">
        <ele>1642.2</ele>
        <time>2010-02-24T10:37:31Z</time>
      </trkpt>
      <trkpt lat="42.97779" lon="-0.7483">
        <ele>1641</ele>
        <time>2010-02-24T10:37:32Z</time>
      </trkpt>
      <trkpt lat="42.97787" lon="-0.74835">
        <ele>1640</ele>
        <time>2010-02-24T10:37:33Z</time>
      </trkpt>
      <trkpt lat="42.97795" lon="-0.7484">
        <ele>1639.3</ele>
        <time>2010-02-24T10:37:34Z</time>
      </trkpt>
      <trkpt lat="42.978" lon="-0.74846">
        <ele>1638.9</ele>
        <time>2010-02-24T10:37:36Z</time>
      </trkpt>
      <trkpt lat="42.97802" lon="-0.74852">
        <ele>1639</ele>
        <time>2010-02-24T10:37:37Z</time>
      </trkpt>
      <trkpt lat="42.97803" lon="-0.74856">
        <ele>1639</ele>
        <time>2010-02-24T10:37:38Z</time>
      </trkpt>
      <trkpt lat="42.97803" lon="-0.74858">
        <ele>1639.1</ele>
        <time>2010-02-24T10:37:39Z</time>
      </trkpt>
      <trkpt lat="42.97803" lon="-0.74859">
        <ele>1639.1</ele>
        <time>2010-02-24T10:37:40Z</time>
      </trkpt>
      <trkpt lat="42.978" lon="-0.7486">
        <ele>1639.3</ele>
        <time>2010-02-24T10:37:47Z</time>
      </trkpt>
      <trkpt lat="42.978" lon="-0.7486">
        <ele>1639.4</ele>
        <time>2010-02-24T10:37:53Z</time>
      </trkpt>
      <trkpt lat="42.97799" lon="-0.7486">
        <ele>1639.5</ele>
        <time>2010-02-24T10:37:58Z</time>
      </trkpt>
      <trkpt lat="42.978" lon="-0.74861">
        <ele>1639.4</ele>
        <time>2010-02-24T10:38:01Z</time>
      </trkpt>
      <trkpt lat="42.978" lon="-0.74863">
        <ele>1639.6</ele>
        <time>2010-02-24T10:38:04Z</time>
      </trkpt>
      <trkpt lat="42.97801" lon="-0.74862">
        <ele>1639.5</ele>
        <time>2010-02-24T10:38:07Z</time>
      </trkpt>
      <trkpt lat="42.97801" lon="-0.74863">
        <ele>1639.6</ele>
        <time>2010-02-24T10:38:13Z</time>
      </trkpt>
      <trkpt lat="42.97801" lon="-0.74863">
        <ele>1639.5</ele>
        <time>2010-02-24T10:38:18Z</time>
      </trkpt>
      <trkpt lat="42.97801" lon="-0.74863">
        <ele>1639.5</ele>
        <time>2010-02-24T10:38:19Z</time>
      </trkpt>
      <trkpt lat="42.978" lon="-0.74862">
        <ele>1639.4</ele>
        <time>2010-02-24T10:38:27Z</time>
      </trkpt>
      <trkpt lat="42.978" lon="-0.74862">
        <ele>1639.5</ele>
        <time>2010-02-24T10:38:37Z</time>
      </trkpt>
      <trkpt lat="42.978" lon="-0.74863">
        <ele>1639.6</ele>
        <time>2010-02-24T10:38:40Z</time>
      </trkpt>
      <trkpt lat="42.97798" lon="-0.74869">
        <ele>1640.3</ele>
        <time>2010-02-24T10:38:46Z</time>
      </trkpt>
      <trkpt lat="42.9779" lon="-0.74886">
        <ele>1642.3</ele>
        <time>2010-02-24T10:38:53Z</time>
      </trkpt>
      <trkpt lat="42.97784" lon="-0.749">
        <ele>1644.1</ele>
        <time>2010-02-24T10:38:56Z</time>
      </trkpt>
      <trkpt lat="42.97779" lon="-0.74912">
        <ele>1644.8</ele>
        <time>2010-02-24T10:39:01Z</time>
      </trkpt>
      <trkpt lat="42.97776" lon="-0.7492">
        <ele>1645.9</ele>
        <time>2010-02-24T10:39:04Z</time>
      </trkpt>
      <trkpt lat="42.97775" lon="-0.74924">
        <ele>1646.7</ele>
        <time>2010-02-24T10:39:05Z</time>
      </trkpt>
      <trkpt lat="42.97767" lon="-0.74942">
        <ele>1651.8</ele>
        <time>2010-02-24T10:39:11Z</time>
      </trkpt>
      <trkpt lat="42.97764" lon="-0.7495">
        <ele>1654.3</ele>
        <time>2010-02-24T10:39:14Z</time>
      </trkpt>
      <trkpt lat="42.97762" lon="-0.74956">
        <ele>1655.9</ele>
        <time>2010-02-24T10:39:15Z</time>
      </trkpt>
      <trkpt lat="42.97757" lon="-0.74967">
        <ele>1659.6</ele>
        <time>2010-02-24T10:39:20Z</time>
      </trkpt>
      <trkpt lat="42.97752" lon="-0.74978">
        <ele>1663.7</ele>
        <time>2010-02-24T10:39:24Z</time>
      </trkpt>
      <trkpt lat="42.97746" lon="-0.74992">
        <ele>1668.4</ele>
        <time>2010-02-24T10:39:29Z</time>
      </trkpt>
      <trkpt lat="42.97741" lon="-0.75003">
        <ele>1672.1</ele>
        <time>2010-02-24T10:39:33Z</time>
      </trkpt>
      <trkpt lat="42.97739" lon="-0.75009">
        <ele>1673.7</ele>
        <time>2010-02-24T10:39:35Z</time>
      </trkpt>
      <trkpt lat="42.97734" lon="-0.75019">
        <ele>1677.1</ele>
        <time>2010-02-24T10:39:39Z</time>
      </trkpt>
      <trkpt lat="42.97729" lon="-0.75031">
        <ele>1680.4</ele>
        <time>2010-02-24T10:39:43Z</time>
      </trkpt>
      <trkpt lat="42.97727" lon="-0.75036">
        <ele>1681.9</ele>
        <time>2010-02-24T10:39:45Z</time>
      </trkpt>
      <trkpt lat="42.97724" lon="-0.7504">
        <ele>1683.3</ele>
        <time>2010-02-24T10:39:46Z</time>
      </trkpt>
      <trkpt lat="42.97722" lon="-0.75047">
        <ele>1684.7</ele>
        <time>2010-02-24T10:39:48Z</time>
      </trkpt>
      <trkpt lat="42.9772" lon="-0.75053">
        <ele>1686.1</ele>
        <time>2010-02-24T10:39:51Z</time>
      </trkpt>
      <trkpt lat="42.97715" lon="-0.75064">
        <ele>1689.1</ele>
        <time>2010-02-24T10:39:55Z</time>
      </trkpt>
      <trkpt lat="42.9771" lon="-0.7508">
        <ele>1692.7</ele>
        <time>2010-02-24T10:40:00Z</time>
      </trkpt>
      <trkpt lat="42.97707" lon="-0.75085">
        <ele>1694.2</ele>
        <time>2010-02-24T10:40:02Z</time>
      </trkpt>
      <trkpt lat="42.97705" lon="-0.75088">
        <ele>1695</ele>
        <time>2010-02-24T10:40:03Z</time>
      </trkpt>
      <trkpt lat="42.97701" lon="-0.75097">
        <ele>1697.2</ele>
        <time>2010-02-24T10:40:06Z</time>
      </trkpt>
      <trkpt lat="42.97699" lon="-0.75103">
        <ele>1698.8</ele>
        <time>2010-02-24T10:40:07Z</time>
      </trkpt>
      <trkpt lat="42.97696" lon="-0.7511">
        <ele>1700.3</ele>
        <time>2010-02-24T10:40:10Z</time>
      </trkpt>
      <trkpt lat="42.97693" lon="-0.75119">
        <ele>1703.2</ele>
        <time>2010-02-24T10:40:13Z</time>
      </trkpt>
      <trkpt lat="42.97689" lon="-0.7513">
        <ele>1707.3</ele>
        <time>2010-02-24T10:40:16Z</time>
      </trkpt>
      <trkpt lat="42.97684" lon="-0.75141">
        <ele>1711.5</ele>
        <time>2010-02-24T10:40:21Z</time>
      </trkpt>
      <trkpt lat="42.97681" lon="-0.75149">
        <ele>1714.7</ele>
        <time>2010-02-24T10:40:24Z</time>
      </trkpt>
      <trkpt lat="42.97678" lon="-0.75157">
        <ele>1717.9</ele>
        <time>2010-02-24T10:40:26Z</time>
      </trkpt>
      <trkpt lat="42.97674" lon="-0.75165">
        <ele>1721</ele>
        <time>2010-02-24T10:40:30Z</time>
      </trkpt>
      <trkpt lat="42.97672" lon="-0.75171">
        <ele>1723</ele>
        <time>2010-02-24T10:40:32Z</time>
      </trkpt>
      <trkpt lat="42.97658" lon="-0.75201">
        <ele>1734.6</ele>
        <time>2010-02-24T10:40:43Z</time>
      </trkpt>
      <trkpt lat="42.97653" lon="-0.75216">
        <ele>1739.3</ele>
        <time>2010-02-24T10:40:47Z</time>
      </trkpt>
      <trkpt lat="42.97649" lon="-0.75223">
        <ele>1742.2</ele>
        <time>2010-02-24T10:40:51Z</time>
      </trkpt>
      <trkpt lat="42.97648" lon="-0.75226">
        <ele>1743.3</ele>
        <time>2010-02-24T10:40:52Z</time>
      </trkpt>
      <trkpt lat="42.97645" lon="-0.75234">
        <ele>1746.6</ele>
        <time>2010-02-24T10:40:55Z</time>
      </trkpt>
      <trkpt lat="42.97641" lon="-0.75244">
        <ele>1751.3</ele>
        <time>2010-02-24T10:40:58Z</time>
      </trkpt>
      <trkpt lat="42.97637" lon="-0.75252">
        <ele>1754.2</ele>
        <time>2010-02-24T10:41:02Z</time>
      </trkpt>
      <trkpt lat="42.97635" lon="-0.75255">
        <ele>1754.6</ele>
        <time>2010-02-24T10:41:03Z</time>
      </trkpt>
      <trkpt lat="42.97633" lon="-0.75256">
        <ele>1754.7</ele>
        <time>2010-02-24T10:41:04Z</time>
      </trkpt>
      <trkpt lat="42.97627" lon="-0.75255">
        <ele>1754.5</ele>
        <time>2010-02-24T10:41:08Z</time>
      </trkpt>
      <trkpt lat="42.97625" lon="-0.75254">
        <ele>1754.4</ele>
        <time>2010-02-24T10:41:09Z</time>
      </trkpt>
      <trkpt lat="42.97623" lon="-0.75253">
        <ele>1754.2</ele>
        <time>2010-02-24T10:41:12Z</time>
      </trkpt>
      <trkpt lat="42.9762" lon="-0.7525">
        <ele>1753.9</ele>
        <time>2010-02-24T10:41:16Z</time>
      </trkpt>
      <trkpt lat="42.97614" lon="-0.75245">
        <ele>1753.3</ele>
        <time>2010-02-24T10:41:22Z</time>
      </trkpt>
      <trkpt lat="42.97614" lon="-0.75244">
        <ele>1753.2</ele>
        <time>2010-02-24T10:41:24Z</time>
      </trkpt>
      <trkpt lat="42.9761" lon="-0.75238">
        <ele>1752.8</ele>
        <time>2010-02-24T10:41:28Z</time>
      </trkpt>
      <trkpt lat="42.97606" lon="-0.75229">
        <ele>1752.1</ele>
        <time>2010-02-24T10:41:36Z</time>
      </trkpt>
      <trkpt lat="42.97606" lon="-0.75229">
        <ele>1752</ele>
        <time>2010-02-24T10:41:37Z</time>
      </trkpt>
      <trkpt lat="42.97606" lon="-0.75229">
        <ele>1752.1</ele>
        <time>2010-02-24T10:41:38Z</time>
      </trkpt>
      <trkpt lat="42.97606" lon="-0.75228">
        <ele>1752</ele>
        <time>2010-02-24T10:41:46Z</time>
      </trkpt>
      <trkpt lat="42.97605" lon="-0.75228">
        <ele>1751.9</ele>
        <time>2010-02-24T10:41:49Z</time>
      </trkpt>
      <trkpt lat="42.97606" lon="-0.75228">
        <ele>1751.9</ele>
        <time>2010-02-24T10:41:54Z</time>
      </trkpt>
      <trkpt lat="42.97606" lon="-0.75227">
        <ele>1751.7</ele>
        <time>2010-02-24T10:42:01Z</time>
      </trkpt>
      <trkpt lat="42.97606" lon="-0.75226">
        <ele>1751.7</ele>
        <time>2010-02-24T10:42:06Z</time>
      </trkpt>
      <trkpt lat="42.97606" lon="-0.75226">
        <ele>1751.6</ele>
        <time>2010-02-24T10:42:13Z</time>
      </trkpt>
      <trkpt lat="42.97606" lon="-0.75226">
        <ele>1751.7</ele>
        <time>2010-02-24T10:42:17Z</time>
      </trkpt>
      <trkpt lat="42.97605" lon="-0.7523">
        <ele>1752.3</ele>
        <time>2010-02-24T10:42:24Z</time>
      </trkpt>
      <trkpt lat="42.97604" lon="-0.7523">
        <ele>1752.3</ele>
        <time>2010-02-24T10:42:25Z</time>
      </trkpt>
      <trkpt lat="42.97605" lon="-0.7523">
        <ele>1752.2</ele>
        <time>2010-02-24T10:42:28Z</time>
      </trkpt>
      <trkpt lat="42.97603" lon="-0.75228">
        <ele>1752.1</ele>
        <time>2010-02-24T10:42:30Z</time>
      </trkpt>
      <trkpt lat="42.976" lon="-0.75227">
        <ele>1752.1</ele>
        <time>2010-02-24T10:42:34Z</time>
      </trkpt>
      <trkpt lat="42.97597" lon="-0.75227">
        <ele>1752.3</ele>
        <time>2010-02-24T10:42:39Z</time>
      </trkpt>
      <trkpt lat="42.97597" lon="-0.75228">
        <ele>1752.4</ele>
        <time>2010-02-24T10:42:40Z</time>
      </trkpt>
      <trkpt lat="42.97593" lon="-0.75226">
        <ele>1752.3</ele>
        <time>2010-02-24T10:42:47Z</time>
      </trkpt>
      <trkpt lat="42.97591" lon="-0.75226">
        <ele>1752.3</ele>
        <time>2010-02-24T10:42:49Z</time>
      </trkpt>
      <trkpt lat="42.97588" lon="-0.75225">
        <ele>1752.4</ele>
        <time>2010-02-24T10:42:50Z</time>
      </trkpt>
      <trkpt lat="42.97585" lon="-0.75226">
        <ele>1752.7</ele>
        <time>2010-02-24T10:42:53Z</time>
      </trkpt>
      <trkpt lat="42.97579" lon="-0.75226">
        <ele>1752.6</ele>
        <time>2010-02-24T10:42:56Z</time>
      </trkpt>
      <trkpt lat="42.97573" lon="-0.75227">
        <ele>1752.7</ele>
        <time>2010-02-24T10:43:00Z</time>
      </trkpt>
      <trkpt lat="42.97572" lon="-0.75227">
        <ele>1752.5</ele>
        <time>2010-02-24T10:43:02Z</time>
      </trkpt>
      <trkpt lat="42.9757" lon="-0.75227">
        <ele>1752.5</ele>
        <time>2010-02-24T10:43:06Z</time>
      </trkpt>
      <trkpt lat="42.97569" lon="-0.75227">
        <ele>1752.3</ele>
        <time>2010-02-24T10:43:09Z</time>
      </trkpt>
      <trkpt lat="42.97566" lon="-0.75227">
        <ele>1752.2</ele>
        <time>2010-02-24T10:43:11Z</time>
      </trkpt>
      <trkpt lat="42.97558" lon="-0.75228">
        <ele>1752.2</ele>
        <time>2010-02-24T10:43:16Z</time>
      </trkpt>
      <trkpt lat="42.97556" lon="-0.75229">
        <ele>1752.2</ele>
        <time>2010-02-24T10:43:18Z</time>
      </trkpt>
      <trkpt lat="42.97555" lon="-0.7523">
        <ele>1752.2</ele>
        <time>2010-02-24T10:43:20Z</time>
      </trkpt>
      <trkpt lat="42.97555" lon="-0.75229">
        <ele>1752.2</ele>
        <time>2010-02-24T10:43:21Z</time>
      </trkpt>
      <trkpt lat="42.97555" lon="-0.75229">
        <ele>1752</ele>
        <time>2010-02-24T10:43:25Z</time>
      </trkpt>
      <trkpt lat="42.97553" lon="-0.75229">
        <ele>1751.8</ele>
        <time>2010-02-24T10:43:27Z</time>
      </trkpt>
      <trkpt lat="42.97551" lon="-0.75229">
        <ele>1751.6</ele>
        <time>2010-02-24T10:43:30Z</time>
      </trkpt>
      <trkpt lat="42.9755" lon="-0.7523">
        <ele>1751.5</ele>
        <time>2010-02-24T10:43:31Z</time>
      </trkpt>
      <trkpt lat="42.97549" lon="-0.7523">
        <ele>1751.4</ele>
        <time>2010-02-24T10:43:33Z</time>
      </trkpt>
      <trkpt lat="42.97548" lon="-0.7523">
        <ele>1751.4</ele>
        <time>2010-02-24T10:43:36Z</time>
      </trkpt>
      <trkpt lat="42.97547" lon="-0.7523">
        <ele>1751.2</ele>
        <time>2010-02-24T10:43:38Z</time>
      </trkpt>
      <trkpt lat="42.97546" lon="-0.75231">
        <ele>1751.2</ele>
        <time>2010-02-24T10:43:43Z</time>
      </trkpt>
      <trkpt lat="42.97545" lon="-0.75234">
        <ele>1751.6</ele>
        <time>2010-02-24T10:43:58Z</time>
      </trkpt>
      <trkpt lat="42.97545" lon="-0.75235">
        <ele>1751.8</ele>
        <time>2010-02-24T10:44:00Z</time>
      </trkpt>
      <trkpt lat="42.97544" lon="-0.75236">
        <ele>1751.9</ele>
        <time>2010-02-24T10:44:01Z</time>
      </trkpt>
      <trkpt lat="42.97544" lon="-0.75237">
        <ele>1752</ele>
        <time>2010-02-24T10:44:02Z</time>
      </trkpt>
      <trkpt lat="42.97544" lon="-0.75237">
        <ele>1752</ele>
        <time>2010-02-24T10:44:06Z</time>
      </trkpt>
      <trkpt lat="42.97544" lon="-0.75238">
        <ele>1752.2</ele>
        <time>2010-02-24T10:44:08Z</time>
      </trkpt>
      <trkpt lat="42.97544" lon="-0.75238">
        <ele>1752.2</ele>
        <time>2010-02-24T10:44:10Z</time>
      </trkpt>
      <trkpt lat="42.97543" lon="-0.75239">
        <ele>1752.3</ele>
        <time>2010-02-24T10:44:11Z</time>
      </trkpt>
      <trkpt lat="42.97542" lon="-0.75241">
        <ele>1752.5</ele>
        <time>2010-02-24T10:44:19Z</time>
      </trkpt>
      <trkpt lat="42.97542" lon="-0.75243">
        <ele>1752.7</ele>
        <time>2010-02-24T10:44:21Z</time>
      </trkpt>
      <trkpt lat="42.97542" lon="-0.75244">
        <ele>1752.9</ele>
        <time>2010-02-24T10:44:23Z</time>
      </trkpt>
      <trkpt lat="42.97541" lon="-0.75248">
        <ele>1753.7</ele>
        <time>2010-02-24T10:44:29Z</time>
      </trkpt>
      <trkpt lat="42.97541" lon="-0.75251">
        <ele>1753.8</ele>
        <time>2010-02-24T10:44:31Z</time>
      </trkpt>
      <trkpt lat="42.97541" lon="-0.75252">
        <ele>1753.6</ele>
        <time>2010-02-24T10:44:32Z</time>
      </trkpt>
      <trkpt lat="42.9754" lon="-0.75254">
        <ele>1753.1</ele>
        <time>2010-02-24T10:44:38Z</time>
      </trkpt>
      <trkpt lat="42.9754" lon="-0.75256">
        <ele>1752.9</ele>
        <time>2010-02-24T10:44:40Z</time>
      </trkpt>
      <trkpt lat="42.9754" lon="-0.75257">
        <ele>1752.7</ele>
        <time>2010-02-24T10:44:42Z</time>
      </trkpt>
      <trkpt lat="42.9754" lon="-0.75257">
        <ele>1752.7</ele>
        <time>2010-02-24T10:44:44Z</time>
      </trkpt>
      <trkpt lat="42.9754" lon="-0.75256">
        <ele>1752.8</ele>
        <time>2010-02-24T10:44:47Z</time>
      </trkpt>
      <trkpt lat="42.97539" lon="-0.75256">
        <ele>1752.8</ele>
        <time>2010-02-24T10:44:48Z</time>
      </trkpt>
      <trkpt lat="42.97539" lon="-0.75257">
        <ele>1752.7</ele>
        <time>2010-02-24T10:44:50Z</time>
      </trkpt>
      <trkpt lat="42.97539" lon="-0.75258">
        <ele>1752.6</ele>
        <time>2010-02-24T10:44:51Z</time>
      </trkpt>
      <trkpt lat="42.97539" lon="-0.75261">
        <ele>1752.1</ele>
        <time>2010-02-24T10:44:54Z</time>
      </trkpt>
      <trkpt lat="42.9754" lon="-0.75264">
        <ele>1751.8</ele>
        <time>2010-02-24T10:44:57Z</time>
      </trkpt>
      <trkpt lat="42.9754" lon="-0.75266">
        <ele>1751.5</ele>
        <time>2010-02-24T10:44:59Z</time>
      </trkpt>
      <trkpt lat="42.97538" lon="-0.75274">
        <ele>1750</ele>
        <time>2010-02-24T10:45:03Z</time>
      </trkpt>
      <trkpt lat="42.97538" lon="-0.75277">
        <ele>1749.5</ele>
        <time>2010-02-24T10:45:04Z</time>
      </trkpt>
      <trkpt lat="42.97538" lon="-0.75286">
        <ele>1747.4</ele>
        <time>2010-02-24T10:45:06Z</time>
      </trkpt>
      <trkpt lat="42.97539" lon="-0.75298">
        <ele>1744.2</ele>
        <time>2010-02-24T10:45:09Z</time>
      </trkpt>
      <trkpt lat="42.97539" lon="-0.75306">
        <ele>1742.1</ele>
        <time>2010-02-24T10:45:10Z</time>
      </trkpt>
      <trkpt lat="42.97538" lon="-0.75335">
        <ele>1733.5</ele>
        <time>2010-02-24T10:45:13Z</time>
      </trkpt>
      <trkpt lat="42.97538" lon="-0.75346">
        <ele>1730.3</ele>
        <time>2010-02-24T10:45:14Z</time>
      </trkpt>
      <trkpt lat="42.97538" lon="-0.75371">
        <ele>1723.6</ele>
        <time>2010-02-24T10:45:15Z</time>
      </trkpt>
      <trkpt lat="42.97538" lon="-0.754">
        <ele>1717.2</ele>
        <time>2010-02-24T10:45:18Z</time>
      </trkpt>
      <trkpt lat="42.97539" lon="-0.75415">
        <ele>1714.5</ele>
        <time>2010-02-24T10:45:19Z</time>
      </trkpt>
      <trkpt lat="42.9754" lon="-0.7543">
        <ele>1712.8</ele>
        <time>2010-02-24T10:45:20Z</time>
      </trkpt>
      <trkpt lat="42.97541" lon="-0.75445">
        <ele>1711.1</ele>
        <time>2010-02-24T10:45:21Z</time>
      </trkpt>
      <trkpt lat="42.97544" lon="-0.75472">
        <ele>1709.2</ele>
        <time>2010-02-24T10:45:23Z</time>
      </trkpt>
      <trkpt lat="42.97546" lon="-0.75495">
        <ele>1708</ele>
        <time>2010-02-24T10:45:24Z</time>
      </trkpt>
      <trkpt lat="42.97546" lon="-0.75506">
        <ele>1707.2</ele>
        <time>2010-02-24T10:45:25Z</time>
      </trkpt>
      <trkpt lat="42.97546" lon="-0.75516">
        <ele>1706.2</ele>
        <time>2010-02-24T10:45:27Z</time>
      </trkpt>
      <trkpt lat="42.97549" lon="-0.75525">
        <ele>1705</ele>
        <time>2010-02-24T10:45:28Z</time>
      </trkpt>
      <trkpt lat="42.97555" lon="-0.75543">
        <ele>1702.9</ele>
        <time>2010-02-24T10:45:30Z</time>
      </trkpt>
      <trkpt lat="42.97558" lon="-0.75552">
        <ele>1701.9</ele>
        <time>2010-02-24T10:45:31Z</time>
      </trkpt>
      <trkpt lat="42.9756" lon="-0.75561">
        <ele>1700.7</ele>
        <time>2010-02-24T10:45:32Z</time>
      </trkpt>
      <trkpt lat="42.97563" lon="-0.7557">
        <ele>1699.3</ele>
        <time>2010-02-24T10:45:33Z</time>
      </trkpt>
      <trkpt lat="42.97572" lon="-0.75585">
        <ele>1695.8</ele>
        <time>2010-02-24T10:45:34Z</time>
      </trkpt>
      <trkpt lat="42.97578" lon="-0.75593">
        <ele>1693.8</ele>
        <time>2010-02-24T10:45:35Z</time>
      </trkpt>
      <trkpt lat="42.97582" lon="-0.75602">
        <ele>1692.1</ele>
        <time>2010-02-24T10:45:36Z</time>
      </trkpt>
      <trkpt lat="42.97584" lon="-0.75613">
        <ele>1690.7</ele>
        <time>2010-02-24T10:45:37Z</time>
      </trkpt>
      <trkpt lat="42.97584" lon="-0.75624">
        <ele>1689.2</ele>
        <time>2010-02-24T10:45:39Z</time>
      </trkpt>
      <trkpt lat="42.97582" lon="-0.75633">
        <ele>1688.1</ele>
        <time>2010-02-24T10:45:40Z</time>
      </trkpt>
      <trkpt lat="42.97579" lon="-0.7564">
        <ele>1687.5</ele>
        <time>2010-02-24T10:45:41Z</time>
      </trkpt>
      <trkpt lat="42.97576" lon="-0.75645">
        <ele>1687.3</ele>
        <time>2010-02-24T10:45:42Z</time>
      </trkpt>
      <trkpt lat="42.97575" lon="-0.75647">
        <ele>1687.2</ele>
        <time>2010-02-24T10:45:43Z</time>
      </trkpt>
      <trkpt lat="42.97574" lon="-0.75648">
        <ele>1687.2</ele>
        <time>2010-02-24T10:45:44Z</time>
      </trkpt>
      <trkpt lat="42.97572" lon="-0.75648">
        <ele>1687.4</ele>
        <time>2010-02-24T10:45:45Z</time>
      </trkpt>
      <trkpt lat="42.97572" lon="-0.75647">
        <ele>1687.5</ele>
        <time>2010-02-24T10:45:48Z</time>
      </trkpt>
      <trkpt lat="42.97572" lon="-0.75647">
        <ele>1687.6</ele>
        <time>2010-02-24T10:45:49Z</time>
      </trkpt>
      <trkpt lat="42.97572" lon="-0.75645">
        <ele>1687.9</ele>
        <time>2010-02-24T10:45:54Z</time>
      </trkpt>
      <trkpt lat="42.97572" lon="-0.75644">
        <ele>1687.9</ele>
        <time>2010-02-24T10:45:59Z</time>
      </trkpt>
      <trkpt lat="42.97572" lon="-0.75641">
        <ele>1688.3</ele>
        <time>2010-02-24T10:46:02Z</time>
      </trkpt>
      <trkpt lat="42.97572" lon="-0.75641">
        <ele>1688.5</ele>
        <time>2010-02-24T10:46:04Z</time>
      </trkpt>
      <trkpt lat="42.97573" lon="-0.7564">
        <ele>1688.4</ele>
        <time>2010-02-24T10:46:11Z</time>
      </trkpt>
      <trkpt lat="42.97573" lon="-0.75639">
        <ele>1688.5</ele>
        <time>2010-02-24T10:46:13Z</time>
      </trkpt>
      <trkpt lat="42.97573" lon="-0.75638">
        <ele>1688.5</ele>
        <time>2010-02-24T10:46:14Z</time>
      </trkpt>
      <trkpt lat="42.97573" lon="-0.75638">
        <ele>1688.7</ele>
        <time>2010-02-24T10:46:16Z</time>
      </trkpt>
      <trkpt lat="42.97573" lon="-0.75637">
        <ele>1688.8</ele>
        <time>2010-02-24T10:46:20Z</time>
      </trkpt>
      <trkpt lat="42.97574" lon="-0.75636">
        <ele>1688.8</ele>
        <time>2010-02-24T10:46:34Z</time>
      </trkpt>
      <trkpt lat="42.97574" lon="-0.75636">
        <ele>1688.8</ele>
        <time>2010-02-24T10:46:37Z</time>
      </trkpt>
      <trkpt lat="42.97575" lon="-0.75636">
        <ele>1688.6</ele>
        <time>2010-02-24T10:46:42Z</time>
      </trkpt>
      <trkpt lat="42.97576" lon="-0.75635">
        <ele>1688.5</ele>
        <time>2010-02-24T10:46:43Z</time>
      </trkpt>
      <trkpt lat="42.97577" lon="-0.75635">
        <ele>1688.5</ele>
        <time>2010-02-24T10:46:44Z</time>
      </trkpt>
      <trkpt lat="42.97576" lon="-0.75633">
        <ele>1688.8</ele>
        <time>2010-02-24T10:46:46Z</time>
      </trkpt>
      <trkpt lat="42.97576" lon="-0.75634">
        <ele>1688.8</ele>
        <time>2010-02-24T10:46:54Z</time>
      </trkpt>
      <trkpt lat="42.97575" lon="-0.75633">
        <ele>1688.9</ele>
        <time>2010-02-24T10:46:55Z</time>
      </trkpt>
      <trkpt lat="42.97573" lon="-0.75631">
        <ele>1689.5</ele>
        <time>2010-02-24T10:47:00Z</time>
      </trkpt>
      <trkpt lat="42.97568" lon="-0.75622">
        <ele>1691.3</ele>
        <time>2010-02-24T10:47:03Z</time>
      </trkpt>
      <trkpt lat="42.97563" lon="-0.75611">
        <ele>1693.3</ele>
        <time>2010-02-24T10:47:06Z</time>
      </trkpt>
      <trkpt lat="42.97559" lon="-0.75602">
        <ele>1695.3</ele>
        <time>2010-02-24T10:47:10Z</time>
      </trkpt>
      <trkpt lat="42.97554" lon="-0.75593">
        <ele>1697.5</ele>
        <time>2010-02-24T10:47:13Z</time>
      </trkpt>
      <trkpt lat="42.97544" lon="-0.75574">
        <ele>1700.9</ele>
        <time>2010-02-24T10:47:18Z</time>
      </trkpt>
      <trkpt lat="42.9754" lon="-0.75565">
        <ele>1702.2</ele>
        <time>2010-02-24T10:47:22Z</time>
      </trkpt>
      <trkpt lat="42.97536" lon="-0.75558">
        <ele>1703.1</ele>
        <time>2010-02-24T10:47:24Z</time>
      </trkpt>
      <trkpt lat="42.97533" lon="-0.75553">
        <ele>1704</ele>
        <time>2010-02-24T10:47:26Z</time>
      </trkpt>
      <trkpt lat="42.97524" lon="-0.75534">
        <ele>1706.9</ele>
        <time>2010-02-24T10:47:32Z</time>
      </trkpt>
      <trkpt lat="42.97519" lon="-0.75526">
        <ele>1708.1</ele>
        <time>2010-02-24T10:47:35Z</time>
      </trkpt>
      <trkpt lat="42.97515" lon="-0.75516">
        <ele>1709.3</ele>
        <time>2010-02-24T10:47:37Z</time>
      </trkpt>
      <trkpt lat="42.97512" lon="-0.7551">
        <ele>1710.1</ele>
        <time>2010-02-24T10:47:39Z</time>
      </trkpt>
      <trkpt lat="42.97507" lon="-0.755">
        <ele>1711.2</ele>
        <time>2010-02-24T10:47:43Z</time>
      </trkpt>
      <trkpt lat="42.97504" lon="-0.75495">
        <ele>1712.1</ele>
        <time>2010-02-24T10:47:45Z</time>
      </trkpt>
      <trkpt lat="42.97499" lon="-0.75487">
        <ele>1713.5</ele>
        <time>2010-02-24T10:47:48Z</time>
      </trkpt>
      <trkpt lat="42.97492" lon="-0.75472">
        <ele>1717</ele>
        <time>2010-02-24T10:47:53Z</time>
      </trkpt>
      <trkpt lat="42.97479" lon="-0.75449">
        <ele>1723.4</ele>
        <time>2010-02-24T10:48:01Z</time>
      </trkpt>
      <trkpt lat="42.97478" lon="-0.75446">
        <ele>1724.2</ele>
        <time>2010-02-24T10:48:02Z</time>
      </trkpt>
      <trkpt lat="42.9747" lon="-0.75431">
        <ele>1728.4</ele>
        <time>2010-02-24T10:48:07Z</time>
      </trkpt>
      <trkpt lat="42.97444" lon="-0.75381">
        <ele>1741.2</ele>
        <time>2010-02-24T10:48:24Z</time>
      </trkpt>
      <trkpt lat="42.97441" lon="-0.75376">
        <ele>1742.9</ele>
        <time>2010-02-24T10:48:26Z</time>
      </trkpt>
      <trkpt lat="42.97422" lon="-0.75339">
        <ele>1751.1</ele>
        <time>2010-02-24T10:48:38Z</time>
      </trkpt>
      <trkpt lat="42.97416" lon="-0.75328">
        <ele>1753.2</ele>
        <time>2010-02-24T10:48:42Z</time>
      </trkpt>
      <trkpt lat="42.97414" lon="-0.75325">
        <ele>1753.8</ele>
        <time>2010-02-24T10:48:43Z</time>
      </trkpt>
      <trkpt lat="42.97408" lon="-0.75312">
        <ele>1756.1</ele>
        <time>2010-02-24T10:48:47Z</time>
      </trkpt>
      <trkpt lat="42.97401" lon="-0.75297">
        <ele>1758</ele>
        <time>2010-02-24T10:48:52Z</time>
      </trkpt>
      <trkpt lat="42.97398" lon="-0.75291">
        <ele>1758.8</ele>
        <time>2010-02-24T10:48:54Z</time>
      </trkpt>
      <trkpt lat="42.97387" lon="-0.75272">
        <ele>1760.4</ele>
        <time>2010-02-24T10:48:59Z</time>
      </trkpt>
      <trkpt lat="42.97385" lon="-0.75269">
        <ele>1760.5</ele>
        <time>2010-02-24T10:49:00Z</time>
      </trkpt>
      <trkpt lat="42.97383" lon="-0.75265">
        <ele>1760.6</ele>
        <time>2010-02-24T10:49:01Z</time>
      </trkpt>
      <trkpt lat="42.97381" lon="-0.75261">
        <ele>1760.6</ele>
        <time>2010-02-24T10:49:03Z</time>
      </trkpt>
      <trkpt lat="42.97378" lon="-0.75259">
        <ele>1760.3</ele>
        <time>2010-02-24T10:49:04Z</time>
      </trkpt>
      <trkpt lat="42.97375" lon="-0.7526">
        <ele>1759.8</ele>
        <time>2010-02-24T10:49:05Z</time>
      </trkpt>
      <trkpt lat="42.97373" lon="-0.75263">
        <ele>1759.3</ele>
        <time>2010-02-24T10:49:06Z</time>
      </trkpt>
      <trkpt lat="42.97372" lon="-0.75266">
        <ele>1759</ele>
        <time>2010-02-24T10:49:07Z</time>
      </trkpt>
      <trkpt lat="42.97372" lon="-0.75274">
        <ele>1758.4</ele>
        <time>2010-02-24T10:49:10Z</time>
      </trkpt>
      <trkpt lat="42.97373" lon="-0.75275">
        <ele>1758.4</ele>
        <time>2010-02-24T10:49:11Z</time>
      </trkpt>
      <trkpt lat="42.97373" lon="-0.75276">
        <ele>1758.4</ele>
        <time>2010-02-24T10:49:17Z</time>
      </trkpt>
      <trkpt lat="42.97374" lon="-0.75276">
        <ele>1758.5</ele>
        <time>2010-02-24T10:49:21Z</time>
      </trkpt>
      <trkpt lat="42.97373" lon="-0.75277">
        <ele>1758.3</ele>
        <time>2010-02-24T10:49:26Z</time>
      </trkpt>
      <trkpt lat="42.97374" lon="-0.75277">
        <ele>1758.5</ele>
        <time>2010-02-24T10:49:31Z</time>
      </trkpt>
      <trkpt lat="42.97373" lon="-0.75277">
        <ele>1758.4</ele>
        <time>2010-02-24T10:49:38Z</time>
      </trkpt>
      <trkpt lat="42.97373" lon="-0.75277">
        <ele>1758.4</ele>
        <time>2010-02-24T10:49:39Z</time>
      </trkpt>
      <trkpt lat="42.97373" lon="-0.75279">
        <ele>1758.3</ele>
        <time>2010-02-24T10:49:42Z</time>
      </trkpt>
      <trkpt lat="42.97375" lon="-0.75289">
        <ele>1757.7</ele>
        <time>2010-02-24T10:49:48Z</time>
      </trkpt>
      <trkpt lat="42.97377" lon="-0.75294">
        <ele>1757.4</ele>
        <time>2010-02-24T10:49:50Z</time>
      </trkpt>
      <trkpt lat="42.9738" lon="-0.75299">
        <ele>1757</ele>
        <time>2010-02-24T10:49:52Z</time>
      </trkpt>
      <trkpt lat="42.97383" lon="-0.75306">
        <ele>1756.2</ele>
        <time>2010-02-24T10:49:56Z</time>
      </trkpt>
      <trkpt lat="42.97387" lon="-0.75311">
        <ele>1755.2</ele>
        <time>2010-02-24T10:49:58Z</time>
      </trkpt>
      <trkpt lat="42.9739" lon="-0.75317">
        <ele>1754</ele>
        <time>2010-02-24T10:50:00Z</time>
      </trkpt>
      <trkpt lat="42.97394" lon="-0.75327">
        <ele>1752.4</ele>
        <time>2010-02-24T10:50:01Z</time>
      </trkpt>
      <trkpt lat="42.97397" lon="-0.7534">
        <ele>1750.4</ele>
        <time>2010-02-24T10:50:04Z</time>
      </trkpt>
      <trkpt lat="42.97398" lon="-0.75348">
        <ele>1749.3</ele>
        <time>2010-02-24T10:50:05Z</time>
      </trkpt>
      <trkpt lat="42.974" lon="-0.75356">
        <ele>1748</ele>
        <time>2010-02-24T10:50:06Z</time>
      </trkpt>
      <trkpt lat="42.97404" lon="-0.75364">
        <ele>1746.5</ele>
        <time>2010-02-24T10:50:07Z</time>
      </trkpt>
      <trkpt lat="42.97409" lon="-0.75371">
        <ele>1745</ele>
        <time>2010-02-24T10:50:08Z</time>
      </trkpt>
      <trkpt lat="42.97415" lon="-0.75376">
        <ele>1743.5</ele>
        <time>2010-02-24T10:50:09Z</time>
      </trkpt>
      <trkpt lat="42.97422" lon="-0.75381">
        <ele>1742.1</ele>
        <time>2010-02-24T10:50:10Z</time>
      </trkpt>
      <trkpt lat="42.97432" lon="-0.75395">
        <ele>1739</ele>
        <time>2010-02-24T10:50:11Z</time>
      </trkpt>
      <trkpt lat="42.97435" lon="-0.75404">
        <ele>1737.4</ele>
        <time>2010-02-24T10:50:12Z</time>
      </trkpt>
      <trkpt lat="42.97437" lon="-0.75413">
        <ele>1735.8</ele>
        <time>2010-02-24T10:50:14Z</time>
      </trkpt>
      <trkpt lat="42.97439" lon="-0.75423">
        <ele>1734</ele>
        <time>2010-02-24T10:50:15Z</time>
      </trkpt>
      <trkpt lat="42.97444" lon="-0.75432">
        <ele>1732.3</ele>
        <time>2010-02-24T10:50:16Z</time>
      </trkpt>
      <trkpt lat="42.9745" lon="-0.7544">
        <ele>1730.1</ele>
        <time>2010-02-24T10:50:17Z</time>
      </trkpt>
      <trkpt lat="42.97457" lon="-0.75447">
        <ele>1727.7</ele>
        <time>2010-02-24T10:50:18Z</time>
      </trkpt>
      <trkpt lat="42.97465" lon="-0.75455">
        <ele>1725.3</ele>
        <time>2010-02-24T10:50:19Z</time>
      </trkpt>
      <trkpt lat="42.97477" lon="-0.75477">
        <ele>1719.8</ele>
        <time>2010-02-24T10:50:20Z</time>
      </trkpt>
      <trkpt lat="42.97482" lon="-0.7549">
        <ele>1716.4</ele>
        <time>2010-02-24T10:50:21Z</time>
      </trkpt>
      <trkpt lat="42.97493" lon="-0.75514">
        <ele>1711.9</ele>
        <time>2010-02-24T10:50:23Z</time>
      </trkpt>
      <trkpt lat="42.97496" lon="-0.75525">
        <ele>1710.6</ele>
        <time>2010-02-24T10:50:25Z</time>
      </trkpt>
      <trkpt lat="42.97498" lon="-0.75536">
        <ele>1710.4</ele>
        <time>2010-02-24T10:50:26Z</time>
      </trkpt>
      <trkpt lat="42.97501" lon="-0.75544">
        <ele>1710.4</ele>
        <time>2010-02-24T10:50:27Z</time>
      </trkpt>
      <trkpt lat="42.97504" lon="-0.75551">
        <ele>1710</ele>
        <time>2010-02-24T10:50:28Z</time>
      </trkpt>
      <trkpt lat="42.97511" lon="-0.75564">
        <ele>1707.7</ele>
        <time>2010-02-24T10:50:30Z</time>
      </trkpt>
      <trkpt lat="42.97519" lon="-0.7558">
        <ele>1704.1</ele>
        <time>2010-02-24T10:50:31Z</time>
      </trkpt>
      <trkpt lat="42.97531" lon="-0.75595">
        <ele>1699.5</ele>
        <time>2010-02-24T10:50:33Z</time>
      </trkpt>
      <trkpt lat="42.97536" lon="-0.75604">
        <ele>1697.7</ele>
        <time>2010-02-24T10:50:35Z</time>
      </trkpt>
      <trkpt lat="42.9754" lon="-0.75615">
        <ele>1695.7</ele>
        <time>2010-02-24T10:50:36Z</time>
      </trkpt>
      <trkpt lat="42.97545" lon="-0.75625">
        <ele>1693.7</ele>
        <time>2010-02-24T10:50:37Z</time>
      </trkpt>
      <trkpt lat="42.9755" lon="-0.75634">
        <ele>1692</ele>
        <time>2010-02-24T10:50:38Z</time>
      </trkpt>
      <trkpt lat="42.97555" lon="-0.75643">
        <ele>1690.6</ele>
        <time>2010-02-24T10:50:39Z</time>
      </trkpt>
      <trkpt lat="42.97557" lon="-0.75653">
        <ele>1689.3</ele>
        <time>2010-02-24T10:50:40Z</time>
      </trkpt>
      <trkpt lat="42.97558" lon="-0.7567">
        <ele>1687.3</ele>
        <time>2010-02-24T10:50:42Z</time>
      </trkpt>
      <trkpt lat="42.97559" lon="-0.75686">
        <ele>1685.6</ele>
        <time>2010-02-24T10:50:43Z</time>
      </trkpt>
      <trkpt lat="42.97558" lon="-0.75691">
        <ele>1685.5</ele>
        <time>2010-02-24T10:50:45Z</time>
      </trkpt>
      <trkpt lat="42.97555" lon="-0.75697">
        <ele>1685.8</ele>
        <time>2010-02-24T10:50:48Z</time>
      </trkpt>
      <trkpt lat="42.97552" lon="-0.75698">
        <ele>1685.9</ele>
        <time>2010-02-24T10:51:08Z</time>
      </trkpt>
      <trkpt lat="42.97551" lon="-0.75701">
        <ele>1685.7</ele>
        <time>2010-02-24T10:51:12Z</time>
      </trkpt>
      <trkpt lat="42.97551" lon="-0.75702">
        <ele>1685.6</ele>
        <time>2010-02-24T10:51:13Z</time>
      </trkpt>
      <trkpt lat="42.97549" lon="-0.75703">
        <ele>1685.6</ele>
        <time>2010-02-24T10:51:18Z</time>
      </trkpt>
      <trkpt lat="42.9755" lon="-0.75701">
        <ele>1685.7</ele>
        <time>2010-02-24T10:51:24Z</time>
      </trkpt>
      <trkpt lat="42.97549" lon="-0.75702">
        <ele>1685.7</ele>
        <time>2010-02-24T10:51:27Z</time>
      </trkpt>
      <trkpt lat="42.97549" lon="-0.75702">
        <ele>1685.7</ele>
        <time>2010-02-24T10:51:28Z</time>
      </trkpt>
      <trkpt lat="42.97549" lon="-0.75702">
        <ele>1685.7</ele>
        <time>2010-02-24T10:51:31Z</time>
      </trkpt>
      <trkpt lat="42.97549" lon="-0.75701">
        <ele>1685.8</ele>
        <time>2010-02-24T10:51:40Z</time>
      </trkpt>
      <trkpt lat="42.97549" lon="-0.75701">
        <ele>1685.7</ele>
        <time>2010-02-24T10:51:41Z</time>
      </trkpt>
      <trkpt lat="42.97549" lon="-0.75701">
        <ele>1685.8</ele>
        <time>2010-02-24T10:51:42Z</time>
      </trkpt>
      <trkpt lat="42.97548" lon="-0.75701">
        <ele>1685.8</ele>
        <time>2010-02-24T10:51:52Z</time>
      </trkpt>
      <trkpt lat="42.97548" lon="-0.75701">
        <ele>1685.8</ele>
        <time>2010-02-24T10:51:53Z</time>
      </trkpt>
      <trkpt lat="42.97548" lon="-0.75701">
        <ele>1685.8</ele>
        <time>2010-02-24T10:51:55Z</time>
      </trkpt>
      <trkpt lat="42.97547" lon="-0.75701">
        <ele>1685.9</ele>
        <time>2010-02-24T10:51:58Z</time>
      </trkpt>
      <trkpt lat="42.97546" lon="-0.757">
        <ele>1686.1</ele>
        <time>2010-02-24T10:52:00Z</time>
      </trkpt>
      <trkpt lat="42.97545" lon="-0.75699">
        <ele>1686.2</ele>
        <time>2010-02-24T10:52:02Z</time>
      </trkpt>
      <trkpt lat="42.97544" lon="-0.75698">
        <ele>1686.3</ele>
        <time>2010-02-24T10:52:03Z</time>
      </trkpt>
      <trkpt lat="42.97542" lon="-0.75697">
        <ele>1686.6</ele>
        <time>2010-02-24T10:52:04Z</time>
      </trkpt>
      <trkpt lat="42.97528" lon="-0.75693">
        <ele>1688</ele>
        <time>2010-02-24T10:52:10Z</time>
      </trkpt>
      <trkpt lat="42.97516" lon="-0.75687">
        <ele>1690.6</ele>
        <time>2010-02-24T10:52:14Z</time>
      </trkpt>
      <trkpt lat="42.9751" lon="-0.75684">
        <ele>1691.9</ele>
        <time>2010-02-24T10:52:15Z</time>
      </trkpt>
      <trkpt lat="42.97493" lon="-0.75677">
        <ele>1695.2</ele>
        <time>2010-02-24T10:52:21Z</time>
      </trkpt>
      <trkpt lat="42.9749" lon="-0.75676">
        <ele>1695.7</ele>
        <time>2010-02-24T10:52:22Z</time>
      </trkpt>
      <trkpt lat="42.97474" lon="-0.7567">
        <ele>1697.8</ele>
        <time>2010-02-24T10:52:26Z</time>
      </trkpt>
      <trkpt lat="42.97461" lon="-0.75664">
        <ele>1699.9</ele>
        <time>2010-02-24T10:52:31Z</time>
      </trkpt>
      <trkpt lat="42.97449" lon="-0.75658">
        <ele>1702.1</ele>
        <time>2010-02-24T10:52:34Z</time>
      </trkpt>
      <trkpt lat="42.97436" lon="-0.75653">
        <ele>1705.7</ele>
        <time>2010-02-24T10:52:39Z</time>
      </trkpt>
      <trkpt lat="42.9743" lon="-0.75651">
        <ele>1707.7</ele>
        <time>2010-02-24T10:52:41Z</time>
      </trkpt>
      <trkpt lat="42.97424" lon="-0.75647">
        <ele>1709.7</ele>
        <time>2010-02-24T10:52:43Z</time>
      </trkpt>
      <trkpt lat="42.97415" lon="-0.75643">
        <ele>1712.5</ele>
        <time>2010-02-24T10:52:45Z</time>
      </trkpt>
      <trkpt lat="42.97409" lon="-0.75639">
        <ele>1714.6</ele>
        <time>2010-02-24T10:52:47Z</time>
      </trkpt>
      <trkpt lat="42.97396" lon="-0.75634">
        <ele>1719.2</ele>
        <time>2010-02-24T10:52:52Z</time>
      </trkpt>
      <trkpt lat="42.97393" lon="-0.75633">
        <ele>1720.3</ele>
        <time>2010-02-24T10:52:53Z</time>
      </trkpt>
      <trkpt lat="42.97384" lon="-0.75629">
        <ele>1723</ele>
        <time>2010-02-24T10:52:55Z</time>
      </trkpt>
      <trkpt lat="42.97374" lon="-0.75624">
        <ele>1725</ele>
        <time>2010-02-24T10:52:59Z</time>
      </trkpt>
      <trkpt lat="42.97361" lon="-0.75619">
        <ele>1727.5</ele>
        <time>2010-02-24T10:53:03Z</time>
      </trkpt>
      <trkpt lat="42.97354" lon="-0.75616">
        <ele>1728.9</ele>
        <time>2010-02-24T10:53:04Z</time>
      </trkpt>
      <trkpt lat="42.97349" lon="-0.75613">
        <ele>1730.1</ele>
        <time>2010-02-24T10:53:06Z</time>
      </trkpt>
      <trkpt lat="42.97339" lon="-0.75608">
        <ele>1732.2</ele>
        <time>2010-02-24T10:53:10Z</time>
      </trkpt>
      <trkpt lat="42.97333" lon="-0.75605">
        <ele>1733.6</ele>
        <time>2010-02-24T10:53:12Z</time>
      </trkpt>
      <trkpt lat="42.97323" lon="-0.75602">
        <ele>1736.9</ele>
        <time>2010-02-24T10:53:14Z</time>
      </trkpt>
      <trkpt lat="42.97311" lon="-0.75597">
        <ele>1741.1</ele>
        <time>2010-02-24T10:53:18Z</time>
      </trkpt>
      <trkpt lat="42.97281" lon="-0.75583">
        <ele>1753.7</ele>
        <time>2010-02-24T10:53:28Z</time>
      </trkpt>
      <trkpt lat="42.97272" lon="-0.75579">
        <ele>1757.3</ele>
        <time>2010-02-24T10:53:32Z</time>
      </trkpt>
      <trkpt lat="42.97266" lon="-0.75577">
        <ele>1759.5</ele>
        <time>2010-02-24T10:53:34Z</time>
      </trkpt>
      <trkpt lat="42.97247" lon="-0.75569">
        <ele>1765.8</ele>
        <time>2010-02-24T10:53:40Z</time>
      </trkpt>
      <trkpt lat="42.97219" lon="-0.75556">
        <ele>1769.3</ele>
        <time>2010-02-24T10:53:48Z</time>
      </trkpt>
      <trkpt lat="42.97216" lon="-0.75555">
        <ele>1769.8</ele>
        <time>2010-02-24T10:53:49Z</time>
      </trkpt>
      <trkpt lat="42.97196" lon="-0.75546">
        <ele>1772.5</ele>
        <time>2010-02-24T10:53:56Z</time>
      </trkpt>
      <trkpt lat="42.97189" lon="-0.75543">
        <ele>1773.7</ele>
        <time>2010-02-24T10:53:57Z</time>
      </trkpt>
      <trkpt lat="42.97174" lon="-0.75537">
        <ele>1777.1</ele>
        <time>2010-02-24T10:54:03Z</time>
      </trkpt>
      <trkpt lat="42.97162" lon="-0.75531">
        <ele>1781.5</ele>
        <time>2010-02-24T10:54:06Z</time>
      </trkpt>
      <trkpt lat="42.97153" lon="-0.75527">
        <ele>1785.8</ele>
        <time>2010-02-24T10:54:10Z</time>
      </trkpt>
      <trkpt lat="42.97147" lon="-0.75525">
        <ele>1788.3</ele>
        <time>2010-02-24T10:54:12Z</time>
      </trkpt>
      <trkpt lat="42.97144" lon="-0.75524">
        <ele>1789.7</ele>
        <time>2010-02-24T10:54:13Z</time>
      </trkpt>
      <trkpt lat="42.97132" lon="-0.75518">
        <ele>1795.3</ele>
        <time>2010-02-24T10:54:17Z</time>
      </trkpt>
      <trkpt lat="42.97123" lon="-0.75514">
        <ele>1799.6</ele>
        <time>2010-02-24T10:54:20Z</time>
      </trkpt>
      <trkpt lat="42.97112" lon="-0.75509">
        <ele>1806</ele>
        <time>2010-02-24T10:54:24Z</time>
      </trkpt>
      <trkpt lat="42.97095" lon="-0.75501">
        <ele>1815.6</ele>
        <time>2010-02-24T10:54:29Z</time>
      </trkpt>
      <trkpt lat="42.97086" lon="-0.75496">
        <ele>1820</ele>
        <time>2010-02-24T10:54:33Z</time>
      </trkpt>
      <trkpt lat="42.97083" lon="-0.75495">
        <ele>1821.4</ele>
        <time>2010-02-24T10:54:34Z</time>
      </trkpt>
      <trkpt lat="42.97076" lon="-0.75493">
        <ele>1823.8</ele>
        <time>2010-02-24T10:54:36Z</time>
      </trkpt>
      <trkpt lat="42.97064" lon="-0.75488">
        <ele>1828.3</ele>
        <time>2010-02-24T10:54:39Z</time>
      </trkpt>
      <trkpt lat="42.97042" lon="-0.75479">
        <ele>1836</ele>
        <time>2010-02-24T10:54:47Z</time>
      </trkpt>
      <trkpt lat="42.97029" lon="-0.75473">
        <ele>1840.4</ele>
        <time>2010-02-24T10:54:50Z</time>
      </trkpt>
      <trkpt lat="42.97017" lon="-0.75468">
        <ele>1846</ele>
        <time>2010-02-24T10:54:55Z</time>
      </trkpt>
      <trkpt lat="42.97005" lon="-0.75463">
        <ele>1851.5</ele>
        <time>2010-02-24T10:54:58Z</time>
      </trkpt>
      <trkpt lat="42.96997" lon="-0.75459">
        <ele>1855.5</ele>
        <time>2010-02-24T10:55:02Z</time>
      </trkpt>
      <trkpt lat="42.96991" lon="-0.75456">
        <ele>1858.2</ele>
        <time>2010-02-24T10:55:04Z</time>
      </trkpt>
      <trkpt lat="42.96964" lon="-0.75445">
        <ele>1871.4</ele>
        <time>2010-02-24T10:55:13Z</time>
      </trkpt>
      <trkpt lat="42.96955" lon="-0.75441">
        <ele>1875.8</ele>
        <time>2010-02-24T10:55:16Z</time>
      </trkpt>
      <trkpt lat="42.96943" lon="-0.75435">
        <ele>1881.8</ele>
        <time>2010-02-24T10:55:19Z</time>
      </trkpt>
      <trkpt lat="42.96934" lon="-0.75432">
        <ele>1886.9</ele>
        <time>2010-02-24T10:55:23Z</time>
      </trkpt>
      <trkpt lat="42.96928" lon="-0.75429">
        <ele>1890</ele>
        <time>2010-02-24T10:55:25Z</time>
      </trkpt>
      <trkpt lat="42.96922" lon="-0.75427">
        <ele>1893.2</ele>
        <time>2010-02-24T10:55:27Z</time>
      </trkpt>
      <trkpt lat="42.96913" lon="-0.75422">
        <ele>1896.5</ele>
        <time>2010-02-24T10:55:29Z</time>
      </trkpt>
      <trkpt lat="42.96899" lon="-0.75416">
        <ele>1900.1</ele>
        <time>2010-02-24T10:55:35Z</time>
      </trkpt>
      <trkpt lat="42.96891" lon="-0.75411">
        <ele>1901.6</ele>
        <time>2010-02-24T10:55:37Z</time>
      </trkpt>
      <trkpt lat="42.96887" lon="-0.75407">
        <ele>1901.8</ele>
        <time>2010-02-24T10:55:38Z</time>
      </trkpt>
      <trkpt lat="42.9688" lon="-0.75394">
        <ele>1901.2</ele>
        <time>2010-02-24T10:55:39Z</time>
      </trkpt>
      <trkpt lat="42.9688" lon="-0.75386">
        <ele>1900.9</ele>
        <time>2010-02-24T10:55:40Z</time>
      </trkpt>
      <trkpt lat="42.96882" lon="-0.75379">
        <ele>1901</ele>
        <time>2010-02-24T10:55:42Z</time>
      </trkpt>
      <trkpt lat="42.96886" lon="-0.75372">
        <ele>1900.4</ele>
        <time>2010-02-24T10:55:43Z</time>
      </trkpt>
      <trkpt lat="42.96896" lon="-0.75359">
        <ele>1898</ele>
        <time>2010-02-24T10:55:45Z</time>
      </trkpt>
      <trkpt lat="42.969" lon="-0.75353">
        <ele>1897.2</ele>
        <time>2010-02-24T10:55:46Z</time>
      </trkpt>
      <trkpt lat="42.96903" lon="-0.75347">
        <ele>1896.4</ele>
        <time>2010-02-24T10:55:47Z</time>
      </trkpt>
      <trkpt lat="42.96913" lon="-0.75328">
        <ele>1892.9</ele>
        <time>2010-02-24T10:55:50Z</time>
      </trkpt>
      <trkpt lat="42.96917" lon="-0.75318">
        <ele>1891.6</ele>
        <time>2010-02-24T10:55:52Z</time>
      </trkpt>
      <trkpt lat="42.96919" lon="-0.75309">
        <ele>1890.9</ele>
        <time>2010-02-24T10:55:55Z</time>
      </trkpt>
      <trkpt lat="42.96921" lon="-0.75304">
        <ele>1890.5</ele>
        <time>2010-02-24T10:55:56Z</time>
      </trkpt>
      <trkpt lat="42.96923" lon="-0.75299">
        <ele>1889.9</ele>
        <time>2010-02-24T10:55:57Z</time>
      </trkpt>
      <trkpt lat="42.96926" lon="-0.75292">
        <ele>1889.4</ele>
        <time>2010-02-24T10:55:58Z</time>
      </trkpt>
      <trkpt lat="42.96938" lon="-0.75271">
        <ele>1887.3</ele>
        <time>2010-02-24T10:56:00Z</time>
      </trkpt>
      <trkpt lat="42.96943" lon="-0.75263">
        <ele>1885.7</ele>
        <time>2010-02-24T10:56:01Z</time>
      </trkpt>
      <trkpt lat="42.96948" lon="-0.75258">
        <ele>1883.6</ele>
        <time>2010-02-24T10:56:03Z</time>
      </trkpt>
      <trkpt lat="42.96955" lon="-0.75257">
        <ele>1881.3</ele>
        <time>2010-02-24T10:56:04Z</time>
      </trkpt>
      <trkpt lat="42.96962" lon="-0.75263">
        <ele>1878.5</ele>
        <time>2010-02-24T10:56:05Z</time>
      </trkpt>
      <trkpt lat="42.96968" lon="-0.75273">
        <ele>1875.5</ele>
        <time>2010-02-24T10:56:06Z</time>
      </trkpt>
      <trkpt lat="42.96974" lon="-0.7528">
        <ele>1872</ele>
        <time>2010-02-24T10:56:07Z</time>
      </trkpt>
      <trkpt lat="42.96982" lon="-0.75282">
        <ele>1868.1</ele>
        <time>2010-02-24T10:56:08Z</time>
      </trkpt>
      <trkpt lat="42.96991" lon="-0.75279">
        <ele>1864.8</ele>
        <time>2010-02-24T10:56:09Z</time>
      </trkpt>
      <trkpt lat="42.97008" lon="-0.75256">
        <ele>1859.2</ele>
        <time>2010-02-24T10:56:11Z</time>
      </trkpt>
      <trkpt lat="42.97013" lon="-0.75254">
        <ele>1856.4</ele>
        <time>2010-02-24T10:56:13Z</time>
      </trkpt>
      <trkpt lat="42.97018" lon="-0.75257">
        <ele>1853.6</ele>
        <time>2010-02-24T10:56:14Z</time>
      </trkpt>
      <trkpt lat="42.97027" lon="-0.75273">
        <ele>1848.5</ele>
        <time>2010-02-24T10:56:16Z</time>
      </trkpt>
      <trkpt lat="42.97033" lon="-0.75278">
        <ele>1845.9</ele>
        <time>2010-02-24T10:56:17Z</time>
      </trkpt>
      <trkpt lat="42.9704" lon="-0.75279">
        <ele>1842.9</ele>
        <time>2010-02-24T10:56:18Z</time>
      </trkpt>
      <trkpt lat="42.97049" lon="-0.75275">
        <ele>1839.7</ele>
        <time>2010-02-24T10:56:19Z</time>
      </trkpt>
      <trkpt lat="42.97061" lon="-0.75259">
        <ele>1835.4</ele>
        <time>2010-02-24T10:56:20Z</time>
      </trkpt>
      <trkpt lat="42.97063" lon="-0.75252">
        <ele>1834.5</ele>
        <time>2010-02-24T10:56:21Z</time>
      </trkpt>
      <trkpt lat="42.97064" lon="-0.7525">
        <ele>1834.4</ele>
        <time>2010-02-24T10:56:24Z</time>
      </trkpt>
      <trkpt lat="42.97063" lon="-0.75251">
        <ele>1834.5</ele>
        <time>2010-02-24T10:56:27Z</time>
      </trkpt>
      <trkpt lat="42.97063" lon="-0.75251">
        <ele>1834.7</ele>
        <time>2010-02-24T10:56:29Z</time>
      </trkpt>
      <trkpt lat="42.97063" lon="-0.75251">
        <ele>1834.8</ele>
        <time>2010-02-24T10:56:32Z</time>
      </trkpt>
      <trkpt lat="42.97062" lon="-0.75251">
        <ele>1834.8</ele>
        <time>2010-02-24T10:56:34Z</time>
      </trkpt>
      <trkpt lat="42.97063" lon="-0.75253">
        <ele>1834.6</ele>
        <time>2010-02-24T10:56:37Z</time>
      </trkpt>
      <trkpt lat="42.97063" lon="-0.75253">
        <ele>1834.6</ele>
        <time>2010-02-24T10:56:39Z</time>
      </trkpt>
      <trkpt lat="42.97063" lon="-0.75254">
        <ele>1834.8</ele>
        <time>2010-02-24T10:56:54Z</time>
      </trkpt>
      <trkpt lat="42.97063" lon="-0.75254">
        <ele>1834.7</ele>
        <time>2010-02-24T10:56:55Z</time>
      </trkpt>
      <trkpt lat="42.97063" lon="-0.75255">
        <ele>1834.6</ele>
        <time>2010-02-24T10:56:59Z</time>
      </trkpt>
      <trkpt lat="42.97063" lon="-0.75256">
        <ele>1834.6</ele>
        <time>2010-02-24T10:57:02Z</time>
      </trkpt>
      <trkpt lat="42.97063" lon="-0.75255">
        <ele>1834.7</ele>
        <time>2010-02-24T10:57:12Z</time>
      </trkpt>
      <trkpt lat="42.97063" lon="-0.75256">
        <ele>1834.6</ele>
        <time>2010-02-24T10:57:16Z</time>
      </trkpt>
      <trkpt lat="42.97066" lon="-0.75253">
        <ele>1833.7</ele>
        <time>2010-02-24T10:57:18Z</time>
      </trkpt>
      <trkpt lat="42.9707" lon="-0.75252">
        <ele>1832.5</ele>
        <time>2010-02-24T10:57:19Z</time>
      </trkpt>
      <trkpt lat="42.97078" lon="-0.75256">
        <ele>1830</ele>
        <time>2010-02-24T10:57:21Z</time>
      </trkpt>
      <trkpt lat="42.97082" lon="-0.75262">
        <ele>1828.9</ele>
        <time>2010-02-24T10:57:22Z</time>
      </trkpt>
      <trkpt lat="42.97083" lon="-0.75264">
        <ele>1828.7</ele>
        <time>2010-02-24T10:57:26Z</time>
      </trkpt>
      <trkpt lat="42.97082" lon="-0.75265">
        <ele>1829</ele>
        <time>2010-02-24T10:57:39Z</time>
      </trkpt>
      <trkpt lat="42.97082" lon="-0.75264">
        <ele>1829.1</ele>
        <time>2010-02-24T10:57:42Z</time>
      </trkpt>
      <trkpt lat="42.97082" lon="-0.75265">
        <ele>1829.1</ele>
        <time>2010-02-24T10:57:44Z</time>
      </trkpt>
      <trkpt lat="42.97082" lon="-0.75265">
        <ele>1829</ele>
        <time>2010-02-24T10:57:47Z</time>
      </trkpt>
      <trkpt lat="42.97082" lon="-0.75265">
        <ele>1829.1</ele>
        <time>2010-02-24T10:57:51Z</time>
      </trkpt>
      <trkpt lat="42.97082" lon="-0.75265">
        <ele>1829</ele>
        <time>2010-02-24T10:58:00Z</time>
      </trkpt>
      <trkpt lat="42.97082" lon="-0.75265">
        <ele>1829.1</ele>
        <time>2010-02-24T10:58:06Z</time>
      </trkpt>
      <trkpt lat="42.97082" lon="-0.75265">
        <ele>1829</ele>
        <time>2010-02-24T10:58:12Z</time>
      </trkpt>
      <trkpt lat="42.97084" lon="-0.75266">
        <ele>1828.5</ele>
        <time>2010-02-24T10:58:15Z</time>
      </trkpt>
      <trkpt lat="42.97084" lon="-0.75266">
        <ele>1828.2</ele>
        <time>2010-02-24T10:58:19Z</time>
      </trkpt>
      <trkpt lat="42.97087" lon="-0.75267">
        <ele>1827</ele>
        <time>2010-02-24T10:58:21Z</time>
      </trkpt>
      <trkpt lat="42.9709" lon="-0.75267">
        <ele>1825.4</ele>
        <time>2010-02-24T10:58:22Z</time>
      </trkpt>
      <trkpt lat="42.971" lon="-0.75258">
        <ele>1821.2</ele>
        <time>2010-02-24T10:58:23Z</time>
      </trkpt>
      <trkpt lat="42.97105" lon="-0.75251">
        <ele>1819.4</ele>
        <time>2010-02-24T10:58:24Z</time>
      </trkpt>
      <trkpt lat="42.97111" lon="-0.75244">
        <ele>1817.3</ele>
        <time>2010-02-24T10:58:26Z</time>
      </trkpt>
      <trkpt lat="42.9712" lon="-0.75243">
        <ele>1814.7</ele>
        <time>2010-02-24T10:58:27Z</time>
      </trkpt>
      <trkpt lat="42.97129" lon="-0.75246">
        <ele>1811.5</ele>
        <time>2010-02-24T10:58:28Z</time>
      </trkpt>
      <trkpt lat="42.97139" lon="-0.75253">
        <ele>1807.8</ele>
        <time>2010-02-24T10:58:29Z</time>
      </trkpt>
      <trkpt lat="42.97149" lon="-0.75261">
        <ele>1804.7</ele>
        <time>2010-02-24T10:58:30Z</time>
      </trkpt>
      <trkpt lat="42.9716" lon="-0.75268">
        <ele>1801.5</ele>
        <time>2010-02-24T10:58:31Z</time>
      </trkpt>
      <trkpt lat="42.97184" lon="-0.75273">
        <ele>1795.5</ele>
        <time>2010-02-24T10:58:32Z</time>
      </trkpt>
      <trkpt lat="42.97196" lon="-0.75267">
        <ele>1793.2</ele>
        <time>2010-02-24T10:58:33Z</time>
      </trkpt>
      <trkpt lat="42.97206" lon="-0.75258">
        <ele>1791.7</ele>
        <time>2010-02-24T10:58:34Z</time>
      </trkpt>
      <trkpt lat="42.97216" lon="-0.75247">
        <ele>1790.1</ele>
        <time>2010-02-24T10:58:35Z</time>
      </trkpt>
      <trkpt lat="42.97224" lon="-0.75235">
        <ele>1788.1</ele>
        <time>2010-02-24T10:58:37Z</time>
      </trkpt>
      <trkpt lat="42.97233" lon="-0.75222">
        <ele>1786.5</ele>
        <time>2010-02-24T10:58:38Z</time>
      </trkpt>
      <trkpt lat="42.97242" lon="-0.7521">
        <ele>1784.7</ele>
        <time>2010-02-24T10:58:39Z</time>
      </trkpt>
      <trkpt lat="42.97252" lon="-0.75202">
        <ele>1782</ele>
        <time>2010-02-24T10:58:40Z</time>
      </trkpt>
      <trkpt lat="42.97263" lon="-0.75198">
        <ele>1778.9</ele>
        <time>2010-02-24T10:58:41Z</time>
      </trkpt>
      <trkpt lat="42.97275" lon="-0.75198">
        <ele>1775.9</ele>
        <time>2010-02-24T10:58:42Z</time>
      </trkpt>
      <trkpt lat="42.9731" lon="-0.75188">
        <ele>1763.6</ele>
        <time>2010-02-24T10:58:44Z</time>
      </trkpt>
      <trkpt lat="42.97322" lon="-0.75188">
        <ele>1762.4</ele>
        <time>2010-02-24T10:58:45Z</time>
      </trkpt>
      <trkpt lat="42.97333" lon="-0.75194">
        <ele>1761.1</ele>
        <time>2010-02-24T10:58:47Z</time>
      </trkpt>
      <trkpt lat="42.97342" lon="-0.75201">
        <ele>1759.2</ele>
        <time>2010-02-24T10:58:48Z</time>
      </trkpt>
      <trkpt lat="42.9735" lon="-0.7521">
        <ele>1758.3</ele>
        <time>2010-02-24T10:58:49Z</time>
      </trkpt>
      <trkpt lat="42.97363" lon="-0.75226">
        <ele>1758.4</ele>
        <time>2010-02-24T10:58:51Z</time>
      </trkpt>
      <trkpt lat="42.97368" lon="-0.75233">
        <ele>1759.3</ele>
        <time>2010-02-24T10:58:52Z</time>
      </trkpt>
      <trkpt lat="42.97371" lon="-0.75239">
        <ele>1759.9</ele>
        <time>2010-02-24T10:58:53Z</time>
      </trkpt>
      <trkpt lat="42.97374" lon="-0.75247">
        <ele>1760.3</ele>
        <time>2010-02-24T10:58:54Z</time>
      </trkpt>
      <trkpt lat="42.97373" lon="-0.75251">
        <ele>1760.1</ele>
        <time>2010-02-24T10:58:57Z</time>
      </trkpt>
      <trkpt lat="42.97371" lon="-0.75255">
        <ele>1759.5</ele>
        <time>2010-02-24T10:59:01Z</time>
      </trkpt>
      <trkpt lat="42.97371" lon="-0.75256">
        <ele>1759.4</ele>
        <time>2010-02-24T10:59:03Z</time>
      </trkpt>
      <trkpt lat="42.97368" lon="-0.75258">
        <ele>1758.9</ele>
        <time>2010-02-24T10:59:05Z</time>
      </trkpt>
      <trkpt lat="42.97366" lon="-0.75259">
        <ele>1758.4</ele>
        <time>2010-02-24T10:59:16Z</time>
      </trkpt>
      <trkpt lat="42.97365" lon="-0.75259">
        <ele>1758.2</ele>
        <time>2010-02-24T10:59:23Z</time>
      </trkpt>
      <trkpt lat="42.97365" lon="-0.75259">
        <ele>1758.3</ele>
        <time>2010-02-24T10:59:24Z</time>
      </trkpt>
      <trkpt lat="42.97364" lon="-0.75259">
        <ele>1758.2</ele>
        <time>2010-02-24T10:59:33Z</time>
      </trkpt>
      <trkpt lat="42.97364" lon="-0.75259">
        <ele>1758.1</ele>
        <time>2010-02-24T10:59:35Z</time>
      </trkpt>
      <trkpt lat="42.97364" lon="-0.7526">
        <ele>1758.1</ele>
        <time>2010-02-24T10:59:37Z</time>
      </trkpt>
      <trkpt lat="42.97364" lon="-0.7526">
        <ele>1758.1</ele>
        <time>2010-02-24T10:59:39Z</time>
      </trkpt>
      <trkpt lat="42.97363" lon="-0.75262">
        <ele>1757.9</ele>
        <time>2010-02-24T10:59:43Z</time>
      </trkpt>
      <trkpt lat="42.97364" lon="-0.75268">
        <ele>1757.7</ele>
        <time>2010-02-24T10:59:46Z</time>
      </trkpt>
      <trkpt lat="42.97366" lon="-0.75271">
        <ele>1757.8</ele>
        <time>2010-02-24T10:59:47Z</time>
      </trkpt>
      <trkpt lat="42.97374" lon="-0.75284">
        <ele>1757.9</ele>
        <time>2010-02-24T10:59:53Z</time>
      </trkpt>
      <trkpt lat="42.97376" lon="-0.75291">
        <ele>1757.6</ele>
        <time>2010-02-24T10:59:54Z</time>
      </trkpt>
      <trkpt lat="42.97384" lon="-0.75308">
        <ele>1755.8</ele>
        <time>2010-02-24T11:00:00Z</time>
      </trkpt>
      <trkpt lat="42.97386" lon="-0.75312">
        <ele>1755.1</ele>
        <time>2010-02-24T11:00:01Z</time>
      </trkpt>
      <trkpt lat="42.97387" lon="-0.75316">
        <ele>1754.3</ele>
        <time>2010-02-24T11:00:02Z</time>
      </trkpt>
      <trkpt lat="42.97389" lon="-0.75326">
        <ele>1752.5</ele>
        <time>2010-02-24T11:00:05Z</time>
      </trkpt>
      <trkpt lat="42.9739" lon="-0.75329">
        <ele>1751.8</ele>
        <time>2010-02-24T11:00:06Z</time>
      </trkpt>
      <trkpt lat="42.97394" lon="-0.75338">
        <ele>1750.6</ele>
        <time>2010-02-24T11:00:07Z</time>
      </trkpt>
      <trkpt lat="42.97397" lon="-0.75344">
        <ele>1749.8</ele>
        <time>2010-02-24T11:00:09Z</time>
      </trkpt>
      <trkpt lat="42.974" lon="-0.75352">
        <ele>1748.7</ele>
        <time>2010-02-24T11:00:10Z</time>
      </trkpt>
      <trkpt lat="42.97403" lon="-0.7536">
        <ele>1747.2</ele>
        <time>2010-02-24T11:00:11Z</time>
      </trkpt>
      <trkpt lat="42.97408" lon="-0.75367">
        <ele>1745.7</ele>
        <time>2010-02-24T11:00:12Z</time>
      </trkpt>
      <trkpt lat="42.97414" lon="-0.75373">
        <ele>1744.2</ele>
        <time>2010-02-24T11:00:13Z</time>
      </trkpt>
      <trkpt lat="42.97434" lon="-0.75388">
        <ele>1739.9</ele>
        <time>2010-02-24T11:00:15Z</time>
      </trkpt>
      <trkpt lat="42.9744" lon="-0.75396">
        <ele>1738.3</ele>
        <time>2010-02-24T11:00:16Z</time>
      </trkpt>
      <trkpt lat="42.97445" lon="-0.75405">
        <ele>1736.7</ele>
        <time>2010-02-24T11:00:17Z</time>
      </trkpt>
      <trkpt lat="42.97447" lon="-0.75415">
        <ele>1734.8</ele>
        <time>2010-02-24T11:00:19Z</time>
      </trkpt>
      <trkpt lat="42.97449" lon="-0.75426">
        <ele>1732.6</ele>
        <time>2010-02-24T11:00:20Z</time>
      </trkpt>
      <trkpt lat="42.97452" lon="-0.75437">
        <ele>1730.2</ele>
        <time>2010-02-24T11:00:21Z</time>
      </trkpt>
      <trkpt lat="42.97458" lon="-0.75447">
        <ele>1727.7</ele>
        <time>2010-02-24T11:00:22Z</time>
      </trkpt>
      <trkpt lat="42.97465" lon="-0.75455">
        <ele>1725.4</ele>
        <time>2010-02-24T11:00:23Z</time>
      </trkpt>
      <trkpt lat="42.97471" lon="-0.75465">
        <ele>1723.2</ele>
        <time>2010-02-24T11:00:24Z</time>
      </trkpt>
      <trkpt lat="42.97476" lon="-0.75476">
        <ele>1720.2</ele>
        <time>2010-02-24T11:00:25Z</time>
      </trkpt>
      <trkpt lat="42.97486" lon="-0.75501">
        <ele>1713.9</ele>
        <time>2010-02-24T11:00:26Z</time>
      </trkpt>
      <trkpt lat="42.9749" lon="-0.75514">
        <ele>1712.2</ele>
        <time>2010-02-24T11:00:27Z</time>
      </trkpt>
      <trkpt lat="42.97496" lon="-0.75538">
        <ele>1710.6</ele>
        <time>2010-02-24T11:00:30Z</time>
      </trkpt>
      <trkpt lat="42.97498" lon="-0.75546">
        <ele>1710.7</ele>
        <time>2010-02-24T11:00:31Z</time>
      </trkpt>
      <trkpt lat="42.97501" lon="-0.75553">
        <ele>1710.7</ele>
        <time>2010-02-24T11:00:32Z</time>
      </trkpt>
      <trkpt lat="42.97504" lon="-0.75559">
        <ele>1709.8</ele>
        <time>2010-02-24T11:00:33Z</time>
      </trkpt>
      <trkpt lat="42.97507" lon="-0.75564">
        <ele>1708.7</ele>
        <time>2010-02-24T11:00:34Z</time>
      </trkpt>
      <trkpt lat="42.97514" lon="-0.75573">
        <ele>1706.1</ele>
        <time>2010-02-24T11:00:36Z</time>
      </trkpt>
      <trkpt lat="42.97518" lon="-0.75579">
        <ele>1704.7</ele>
        <time>2010-02-24T11:00:37Z</time>
      </trkpt>
      <trkpt lat="42.97519" lon="-0.75579">
        <ele>1704.3</ele>
        <time>2010-02-24T11:00:38Z</time>
      </trkpt>
      <trkpt lat="42.97519" lon="-0.75579">
        <ele>1704.2</ele>
        <time>2010-02-24T11:00:40Z</time>
      </trkpt>
      <trkpt lat="42.97519" lon="-0.75578">
        <ele>1704.3</ele>
        <time>2010-02-24T11:00:42Z</time>
      </trkpt>
      <trkpt lat="42.97519" lon="-0.75578">
        <ele>1704.4</ele>
        <time>2010-02-24T11:00:45Z</time>
      </trkpt>
      <trkpt lat="42.97519" lon="-0.75577">
        <ele>1704.5</ele>
        <time>2010-02-24T11:00:47Z</time>
      </trkpt>
      <trkpt lat="42.97518" lon="-0.75576">
        <ele>1704.9</ele>
        <time>2010-02-24T11:01:01Z</time>
      </trkpt>
      <trkpt lat="42.97518" lon="-0.75576">
        <ele>1704.9</ele>
        <time>2010-02-24T11:01:11Z</time>
      </trkpt>
      <trkpt lat="42.97518" lon="-0.75576">
        <ele>1704.8</ele>
        <time>2010-02-24T11:01:16Z</time>
      </trkpt>
      <trkpt lat="42.97519" lon="-0.75577">
        <ele>1704.5</ele>
        <time>2010-02-24T11:01:17Z</time>
      </trkpt>
      <trkpt lat="42.97521" lon="-0.75579">
        <ele>1703.7</ele>
        <time>2010-02-24T11:01:18Z</time>
      </trkpt>
      <trkpt lat="42.97523" lon="-0.75581">
        <ele>1702.8</ele>
        <time>2010-02-24T11:01:19Z</time>
      </trkpt>
      <trkpt lat="42.97525" lon="-0.75584">
        <ele>1701.7</ele>
        <time>2010-02-24T11:01:20Z</time>
      </trkpt>
      <trkpt lat="42.97528" lon="-0.75589">
        <ele>1700.4</ele>
        <time>2010-02-24T11:01:23Z</time>
      </trkpt>
      <trkpt lat="42.97529" lon="-0.7559">
        <ele>1700.3</ele>
        <time>2010-02-24T11:01:24Z</time>
      </trkpt>
      <trkpt lat="42.97529" lon="-0.7559">
        <ele>1700.1</ele>
        <time>2010-02-24T11:01:27Z</time>
      </trkpt>
      <trkpt lat="42.9753" lon="-0.75595">
        <ele>1699.6</ele>
        <time>2010-02-24T11:01:29Z</time>
      </trkpt>
      <trkpt lat="42.97532" lon="-0.75598">
        <ele>1699</ele>
        <time>2010-02-24T11:01:30Z</time>
      </trkpt>
      <trkpt lat="42.97536" lon="-0.75609">
        <ele>1697</ele>
        <time>2010-02-24T11:01:33Z</time>
      </trkpt>
      <trkpt lat="42.9754" lon="-0.75616">
        <ele>1695.5</ele>
        <time>2010-02-24T11:01:34Z</time>
      </trkpt>
      <trkpt lat="42.97549" lon="-0.75632">
        <ele>1692.4</ele>
        <time>2010-02-24T11:01:36Z</time>
      </trkpt>
      <trkpt lat="42.97555" lon="-0.7565">
        <ele>1689.9</ele>
        <time>2010-02-24T11:01:37Z</time>
      </trkpt>
      <trkpt lat="42.97556" lon="-0.75659">
        <ele>1688.8</ele>
        <time>2010-02-24T11:01:38Z</time>
      </trkpt>
      <trkpt lat="42.97556" lon="-0.75667">
        <ele>1687.9</ele>
        <time>2010-02-24T11:01:39Z</time>
      </trkpt>
      <trkpt lat="42.97556" lon="-0.75675">
        <ele>1687.2</ele>
        <time>2010-02-24T11:01:41Z</time>
      </trkpt>
      <trkpt lat="42.97556" lon="-0.75682">
        <ele>1686.8</ele>
        <time>2010-02-24T11:01:42Z</time>
      </trkpt>
      <trkpt lat="42.97556" lon="-0.75688">
        <ele>1686.4</ele>
        <time>2010-02-24T11:01:43Z</time>
      </trkpt>
      <trkpt lat="42.97555" lon="-0.75692">
        <ele>1686.2</ele>
        <time>2010-02-24T11:01:44Z</time>
      </trkpt>
      <trkpt lat="42.97554" lon="-0.75695">
        <ele>1686.1</ele>
        <time>2010-02-24T11:01:46Z</time>
      </trkpt>
      <trkpt lat="42.97553" lon="-0.75696">
        <ele>1686</ele>
        <time>2010-02-24T11:01:48Z</time>
      </trkpt>
      <trkpt lat="42.97553" lon="-0.75697">
        <ele>1686</ele>
        <time>2010-02-24T11:01:52Z</time>
      </trkpt>
      <trkpt lat="42.97552" lon="-0.75697">
        <ele>1686</ele>
        <time>2010-02-24T11:01:53Z</time>
      </trkpt>
      <trkpt lat="42.97551" lon="-0.75698">
        <ele>1685.9</ele>
        <time>2010-02-24T11:01:55Z</time>
      </trkpt>
      <trkpt lat="42.97551" lon="-0.75699">
        <ele>1685.9</ele>
        <time>2010-02-24T11:01:56Z</time>
      </trkpt>
      <trkpt lat="42.97549" lon="-0.75699">
        <ele>1686</ele>
        <time>2010-02-24T11:01:57Z</time>
      </trkpt>
      <trkpt lat="42.97544" lon="-0.75698">
        <ele>1686.4</ele>
        <time>2010-02-24T11:02:02Z</time>
      </trkpt>
      <trkpt lat="42.97544" lon="-0.75698">
        <ele>1686.4</ele>
        <time>2010-02-24T11:02:03Z</time>
      </trkpt>
      <trkpt lat="42.97542" lon="-0.75697">
        <ele>1686.6</ele>
        <time>2010-02-24T11:02:04Z</time>
      </trkpt>
      <trkpt lat="42.97534" lon="-0.75694">
        <ele>1687.6</ele>
        <time>2010-02-24T11:02:06Z</time>
      </trkpt>
      <trkpt lat="42.97513" lon="-0.75685">
        <ele>1691.3</ele>
        <time>2010-02-24T11:02:13Z</time>
      </trkpt>
      <trkpt lat="42.97502" lon="-0.7568">
        <ele>1693.6</ele>
        <time>2010-02-24T11:02:16Z</time>
      </trkpt>
      <trkpt lat="42.97483" lon="-0.75672">
        <ele>1696.7</ele>
        <time>2010-02-24T11:02:21Z</time>
      </trkpt>
      <trkpt lat="42.97463" lon="-0.75664">
        <ele>1699.6</ele>
        <time>2010-02-24T11:02:28Z</time>
      </trkpt>
      <trkpt lat="42.9744" lon="-0.75654">
        <ele>1704.2</ele>
        <time>2010-02-24T11:02:35Z</time>
      </trkpt>
      <trkpt lat="42.97431" lon="-0.7565">
        <ele>1707.3</ele>
        <time>2010-02-24T11:02:38Z</time>
      </trkpt>
      <trkpt lat="42.97419" lon="-0.75645">
        <ele>1711.2</ele>
        <time>2010-02-24T11:02:41Z</time>
      </trkpt>
      <trkpt lat="42.9741" lon="-0.7564">
        <ele>1714.2</ele>
        <time>2010-02-24T11:02:45Z</time>
      </trkpt>
      <trkpt lat="42.97403" lon="-0.75638">
        <ele>1716.4</ele>
        <time>2010-02-24T11:02:47Z</time>
      </trkpt>
      <trkpt lat="42.97394" lon="-0.75633">
        <ele>1719.9</ele>
        <time>2010-02-24T11:02:50Z</time>
      </trkpt>
      <trkpt lat="42.97388" lon="-0.75631">
        <ele>1722.1</ele>
        <time>2010-02-24T11:02:51Z</time>
      </trkpt>
      <trkpt lat="42.97379" lon="-0.75626">
        <ele>1724.1</ele>
        <time>2010-02-24T11:02:55Z</time>
      </trkpt>
      <trkpt lat="42.97372" lon="-0.75624">
        <ele>1725.3</ele>
        <time>2010-02-24T11:02:57Z</time>
      </trkpt>
      <trkpt lat="42.9736" lon="-0.75617">
        <ele>1727.8</ele>
        <time>2010-02-24T11:03:00Z</time>
      </trkpt>
      <trkpt lat="42.97344" lon="-0.75611">
        <ele>1731.1</ele>
        <time>2010-02-24T11:03:06Z</time>
      </trkpt>
      <trkpt lat="42.97341" lon="-0.75609">
        <ele>1731.9</ele>
        <time>2010-02-24T11:03:07Z</time>
      </trkpt>
      <trkpt lat="42.97337" lon="-0.75607">
        <ele>1732.6</ele>
        <time>2010-02-24T11:03:08Z</time>
      </trkpt>
      <trkpt lat="42.97334" lon="-0.75606">
        <ele>1733.3</ele>
        <time>2010-02-24T11:03:09Z</time>
      </trkpt>
      <trkpt lat="42.97322" lon="-0.75601">
        <ele>1737.5</ele>
        <time>2010-02-24T11:03:13Z</time>
      </trkpt>
      <trkpt lat="42.97316" lon="-0.75599">
        <ele>1739.6</ele>
        <time>2010-02-24T11:03:15Z</time>
      </trkpt>
      <trkpt lat="42.97313" lon="-0.75597">
        <ele>1740.7</ele>
        <time>2010-02-24T11:03:16Z</time>
      </trkpt>
      <trkpt lat="42.97289" lon="-0.75587">
        <ele>1750.5</ele>
        <time>2010-02-24T11:03:24Z</time>
      </trkpt>
      <trkpt lat="42.97276" lon="-0.75581">
        <ele>1755.6</ele>
        <time>2010-02-24T11:03:28Z</time>
      </trkpt>
      <trkpt lat="42.97264" lon="-0.75576">
        <ele>1760.2</ele>
        <time>2010-02-24T11:03:31Z</time>
      </trkpt>
      <trkpt lat="42.97255" lon="-0.75572">
        <ele>1763.7</ele>
        <time>2010-02-24T11:03:35Z</time>
      </trkpt>
      <trkpt lat="42.97249" lon="-0.75569">
        <ele>1765.6</ele>
        <time>2010-02-24T11:03:37Z</time>
      </trkpt>
      <trkpt lat="42.97236" lon="-0.75564">
        <ele>1767</ele>
        <time>2010-02-24T11:03:40Z</time>
      </trkpt>
      <trkpt lat="42.9723" lon="-0.75561">
        <ele>1767.9</ele>
        <time>2010-02-24T11:03:42Z</time>
      </trkpt>
      <trkpt lat="42.97214" lon="-0.75554">
        <ele>1770</ele>
        <time>2010-02-24T11:03:48Z</time>
      </trkpt>
      <trkpt lat="42.97208" lon="-0.7555">
        <ele>1771</ele>
        <time>2010-02-24T11:03:50Z</time>
      </trkpt>
      <trkpt lat="42.97201" lon="-0.75548">
        <ele>1771.9</ele>
        <time>2010-02-24T11:03:51Z</time>
      </trkpt>
      <trkpt lat="42.97191" lon="-0.75544">
        <ele>1773.4</ele>
        <time>2010-02-24T11:03:55Z</time>
      </trkpt>
      <trkpt lat="42.97188" lon="-0.75542">
        <ele>1774</ele>
        <time>2010-02-24T11:03:56Z</time>
      </trkpt>
      <trkpt lat="42.97172" lon="-0.75536">
        <ele>1777.7</ele>
        <time>2010-02-24T11:04:00Z</time>
      </trkpt>
      <trkpt lat="42.9716" lon="-0.7553">
        <ele>1782.8</ele>
        <time>2010-02-24T11:04:05Z</time>
      </trkpt>
      <trkpt lat="42.97148" lon="-0.75526">
        <ele>1788.1</ele>
        <time>2010-02-24T11:04:09Z</time>
      </trkpt>
      <trkpt lat="42.97142" lon="-0.75522">
        <ele>1790.7</ele>
        <time>2010-02-24T11:04:10Z</time>
      </trkpt>
      <trkpt lat="42.97139" lon="-0.7552">
        <ele>1792.1</ele>
        <time>2010-02-24T11:04:11Z</time>
      </trkpt>
      <trkpt lat="42.97135" lon="-0.75519">
        <ele>1793.6</ele>
        <time>2010-02-24T11:04:12Z</time>
      </trkpt>
      <trkpt lat="42.97126" lon="-0.75516">
        <ele>1797.9</ele>
        <time>2010-02-24T11:04:16Z</time>
      </trkpt>
      <trkpt lat="42.97121" lon="-0.75514">
        <ele>1800.9</ele>
        <time>2010-02-24T11:04:18Z</time>
      </trkpt>
      <trkpt lat="42.97115" lon="-0.75511">
        <ele>1803.9</ele>
        <time>2010-02-24T11:04:20Z</time>
      </trkpt>
      <trkpt lat="42.97107" lon="-0.75507">
        <ele>1808.9</ele>
        <time>2010-02-24T11:04:22Z</time>
      </trkpt>
      <trkpt lat="42.97092" lon="-0.755">
        <ele>1816.9</ele>
        <time>2010-02-24T11:04:28Z</time>
      </trkpt>
      <trkpt lat="42.97077" lon="-0.75493">
        <ele>1823.7</ele>
        <time>2010-02-24T11:04:32Z</time>
      </trkpt>
      <trkpt lat="42.9707" lon="-0.7549">
        <ele>1826</ele>
        <time>2010-02-24T11:04:35Z</time>
      </trkpt>
      <trkpt lat="42.97061" lon="-0.75486">
        <ele>1829.1</ele>
        <time>2010-02-24T11:04:38Z</time>
      </trkpt>
      <trkpt lat="42.97055" lon="-0.75483">
        <ele>1831</ele>
        <time>2010-02-24T11:04:40Z</time>
      </trkpt>
      <trkpt lat="42.97037" lon="-0.75475">
        <ele>1837.7</ele>
        <time>2010-02-24T11:04:46Z</time>
      </trkpt>
      <trkpt lat="42.97027" lon="-0.75471">
        <ele>1841.2</ele>
        <time>2010-02-24T11:04:49Z</time>
      </trkpt>
      <trkpt lat="42.97021" lon="-0.75468">
        <ele>1844.1</ele>
        <time>2010-02-24T11:04:51Z</time>
      </trkpt>
      <trkpt lat="42.97016" lon="-0.75466">
        <ele>1846.7</ele>
        <time>2010-02-24T11:04:52Z</time>
      </trkpt>
      <trkpt lat="42.9701" lon="-0.75463">
        <ele>1849.5</ele>
        <time>2010-02-24T11:04:54Z</time>
      </trkpt>
      <trkpt lat="42.97007" lon="-0.75462">
        <ele>1851</ele>
        <time>2010-02-24T11:04:56Z</time>
      </trkpt>
      <trkpt lat="42.96992" lon="-0.75455">
        <ele>1857.5</ele>
        <time>2010-02-24T11:05:01Z</time>
      </trkpt>
      <trkpt lat="42.96983" lon="-0.75451">
        <ele>1861.6</ele>
        <time>2010-02-24T11:05:03Z</time>
      </trkpt>
      <trkpt lat="42.96977" lon="-0.75448">
        <ele>1864.4</ele>
        <time>2010-02-24T11:05:06Z</time>
      </trkpt>
      <trkpt lat="42.96951" lon="-0.75436">
        <ele>1877.9</ele>
        <time>2010-02-24T11:05:14Z</time>
      </trkpt>
      <trkpt lat="42.96941" lon="-0.75433">
        <ele>1882.9</ele>
        <time>2010-02-24T11:05:18Z</time>
      </trkpt>
      <trkpt lat="42.96923" lon="-0.75426">
        <ele>1892.5</ele>
        <time>2010-02-24T11:05:23Z</time>
      </trkpt>
      <trkpt lat="42.96909" lon="-0.75418">
        <ele>1897.4</ele>
        <time>2010-02-24T11:05:29Z</time>
      </trkpt>
      <trkpt lat="42.969" lon="-0.75415">
        <ele>1899.5</ele>
        <time>2010-02-24T11:05:32Z</time>
      </trkpt>
      <trkpt lat="42.96893" lon="-0.75411">
        <ele>1901.1</ele>
        <time>2010-02-24T11:05:33Z</time>
      </trkpt>
      <trkpt lat="42.96888" lon="-0.75406">
        <ele>1901.6</ele>
        <time>2010-02-24T11:05:34Z</time>
      </trkpt>
      <trkpt lat="42.96884" lon="-0.754">
        <ele>1901.2</ele>
        <time>2010-02-24T11:05:35Z</time>
      </trkpt>
      <trkpt lat="42.96883" lon="-0.75392">
        <ele>1900.5</ele>
        <time>2010-02-24T11:05:37Z</time>
      </trkpt>
      <trkpt lat="42.96883" lon="-0.75383">
        <ele>1900.4</ele>
        <time>2010-02-24T11:05:38Z</time>
      </trkpt>
      <trkpt lat="42.96887" lon="-0.75374">
        <ele>1900.2</ele>
        <time>2010-02-24T11:05:39Z</time>
      </trkpt>
      <trkpt lat="42.96892" lon="-0.75366">
        <ele>1898.9</ele>
        <time>2010-02-24T11:05:40Z</time>
      </trkpt>
      <trkpt lat="42.96898" lon="-0.7536">
        <ele>1897.3</ele>
        <time>2010-02-24T11:05:41Z</time>
      </trkpt>
      <trkpt lat="42.96903" lon="-0.75354">
        <ele>1896.1</ele>
        <time>2010-02-24T11:05:42Z</time>
      </trkpt>
      <trkpt lat="42.96906" lon="-0.75349">
        <ele>1895.3</ele>
        <time>2010-02-24T11:05:43Z</time>
      </trkpt>
      <trkpt lat="42.96908" lon="-0.75343">
        <ele>1894.5</ele>
        <time>2010-02-24T11:05:45Z</time>
      </trkpt>
      <trkpt lat="42.9691" lon="-0.75344">
        <ele>1893.9</ele>
        <time>2010-02-24T11:05:52Z</time>
      </trkpt>
      <trkpt lat="42.96911" lon="-0.75344">
        <ele>1893.5</ele>
        <time>2010-02-24T11:05:58Z</time>
      </trkpt>
      <trkpt lat="42.9691" lon="-0.75345">
        <ele>1893.6</ele>
        <time>2010-02-24T11:05:59Z</time>
      </trkpt>
      <trkpt lat="42.9691" lon="-0.75344">
        <ele>1893.7</ele>
        <time>2010-02-24T11:06:00Z</time>
      </trkpt>
      <trkpt lat="42.96911" lon="-0.75344">
        <ele>1893.5</ele>
        <time>2010-02-24T11:06:02Z</time>
      </trkpt>
      <trkpt lat="42.96911" lon="-0.75344">
        <ele>1893.5</ele>
        <time>2010-02-24T11:06:06Z</time>
      </trkpt>
      <trkpt lat="42.96911" lon="-0.75345">
        <ele>1893.2</ele>
        <time>2010-02-24T11:06:15Z</time>
      </trkpt>
      <trkpt lat="42.96912" lon="-0.75346">
        <ele>1892.9</ele>
        <time>2010-02-24T11:06:17Z</time>
      </trkpt>
      <trkpt lat="42.96916" lon="-0.75347">
        <ele>1891.3</ele>
        <time>2010-02-24T11:06:20Z</time>
      </trkpt>
      <trkpt lat="42.96921" lon="-0.75348">
        <ele>1889.5</ele>
        <time>2010-02-24T11:06:21Z</time>
      </trkpt>
      <trkpt lat="42.96932" lon="-0.75355">
        <ele>1885</ele>
        <time>2010-02-24T11:06:23Z</time>
      </trkpt>
      <trkpt lat="42.96944" lon="-0.75351">
        <ele>1880.4</ele>
        <time>2010-02-24T11:06:24Z</time>
      </trkpt>
      <trkpt lat="42.96949" lon="-0.75346">
        <ele>1878.5</ele>
        <time>2010-02-24T11:06:25Z</time>
      </trkpt>
      <trkpt lat="42.96952" lon="-0.7534">
        <ele>1877</ele>
        <time>2010-02-24T11:06:26Z</time>
      </trkpt>
      <trkpt lat="42.96956" lon="-0.75337">
        <ele>1875.3</ele>
        <time>2010-02-24T11:06:27Z</time>
      </trkpt>
      <trkpt lat="42.96965" lon="-0.7534">
        <ele>1870.9</ele>
        <time>2010-02-24T11:06:30Z</time>
      </trkpt>
      <trkpt lat="42.96972" lon="-0.75338">
        <ele>1867.7</ele>
        <time>2010-02-24T11:06:32Z</time>
      </trkpt>
      <trkpt lat="42.96975" lon="-0.75336">
        <ele>1866.5</ele>
        <time>2010-02-24T11:06:33Z</time>
      </trkpt>
      <trkpt lat="42.96981" lon="-0.75322">
        <ele>1863.8</ele>
        <time>2010-02-24T11:06:35Z</time>
      </trkpt>
      <trkpt lat="42.96984" lon="-0.75318">
        <ele>1862.5</ele>
        <time>2010-02-24T11:06:36Z</time>
      </trkpt>
      <trkpt lat="42.96988" lon="-0.75316">
        <ele>1860.8</ele>
        <time>2010-02-24T11:06:37Z</time>
      </trkpt>
      <trkpt lat="42.96992" lon="-0.7532">
        <ele>1858.2</ele>
        <time>2010-02-24T11:06:39Z</time>
      </trkpt>
      <trkpt lat="42.96996" lon="-0.75326">
        <ele>1855</ele>
        <time>2010-02-24T11:06:40Z</time>
      </trkpt>
      <trkpt lat="42.96998" lon="-0.75334">
        <ele>1852</ele>
        <time>2010-02-24T11:06:41Z</time>
      </trkpt>
      <trkpt lat="42.97002" lon="-0.75347">
        <ele>1850.3</ele>
        <time>2010-02-24T11:06:43Z</time>
      </trkpt>
      <trkpt lat="42.97008" lon="-0.75363">
        <ele>1848.4</ele>
        <time>2010-02-24T11:06:44Z</time>
      </trkpt>
      <trkpt lat="42.97013" lon="-0.7537">
        <ele>1846.8</ele>
        <time>2010-02-24T11:06:45Z</time>
      </trkpt>
      <trkpt lat="42.97019" lon="-0.75373">
        <ele>1844.8</ele>
        <time>2010-02-24T11:06:46Z</time>
      </trkpt>
      <trkpt lat="42.97026" lon="-0.75373">
        <ele>1842.5</ele>
        <time>2010-02-24T11:06:47Z</time>
      </trkpt>
      <trkpt lat="42.97034" lon="-0.75375">
        <ele>1840.1</ele>
        <time>2010-02-24T11:06:49Z</time>
      </trkpt>
      <trkpt lat="42.97041" lon="-0.75379">
        <ele>1838.1</ele>
        <time>2010-02-24T11:06:50Z</time>
      </trkpt>
      <trkpt lat="42.97046" lon="-0.75384">
        <ele>1836.6</ele>
        <time>2010-02-24T11:06:51Z</time>
      </trkpt>
      <trkpt lat="42.97051" lon="-0.7539">
        <ele>1835.4</ele>
        <time>2010-02-24T11:06:52Z</time>
      </trkpt>
      <trkpt lat="42.97055" lon="-0.75395">
        <ele>1833.8</ele>
        <time>2010-02-24T11:06:53Z</time>
      </trkpt>
      <trkpt lat="42.97061" lon="-0.75396">
        <ele>1830.8</ele>
        <time>2010-02-24T11:06:54Z</time>
      </trkpt>
      <trkpt lat="42.97068" lon="-0.75392">
        <ele>1827.3</ele>
        <time>2010-02-24T11:06:56Z</time>
      </trkpt>
      <trkpt lat="42.9707" lon="-0.7539">
        <ele>1826.5</ele>
        <time>2010-02-24T11:06:57Z</time>
      </trkpt>
      <trkpt lat="42.9707" lon="-0.75391">
        <ele>1826.1</ele>
        <time>2010-02-24T11:06:59Z</time>
      </trkpt>
      <trkpt lat="42.97072" lon="-0.75391">
        <ele>1825.2</ele>
        <time>2010-02-24T11:07:00Z</time>
      </trkpt>
      <trkpt lat="42.97075" lon="-0.75391">
        <ele>1823.4</ele>
        <time>2010-02-24T11:07:01Z</time>
      </trkpt>
      <trkpt lat="42.9708" lon="-0.75394">
        <ele>1821.3</ele>
        <time>2010-02-24T11:07:02Z</time>
      </trkpt>
      <trkpt lat="42.97086" lon="-0.75407">
        <ele>1819.1</ele>
        <time>2010-02-24T11:07:04Z</time>
      </trkpt>
      <trkpt lat="42.97093" lon="-0.75416">
        <ele>1816.1</ele>
        <time>2010-02-24T11:07:05Z</time>
      </trkpt>
      <trkpt lat="42.97098" lon="-0.75415">
        <ele>1813.9</ele>
        <time>2010-02-24T11:07:06Z</time>
      </trkpt>
      <trkpt lat="42.97102" lon="-0.7541">
        <ele>1811.6</ele>
        <time>2010-02-24T11:07:07Z</time>
      </trkpt>
      <trkpt lat="42.97107" lon="-0.75405">
        <ele>1809.5</ele>
        <time>2010-02-24T11:07:09Z</time>
      </trkpt>
      <trkpt lat="42.97113" lon="-0.75401">
        <ele>1807.4</ele>
        <time>2010-02-24T11:07:10Z</time>
      </trkpt>
      <trkpt lat="42.97119" lon="-0.75402">
        <ele>1804.4</ele>
        <time>2010-02-24T11:07:11Z</time>
      </trkpt>
      <trkpt lat="42.97125" lon="-0.75406">
        <ele>1801.1</ele>
        <time>2010-02-24T11:07:12Z</time>
      </trkpt>
      <trkpt lat="42.9713" lon="-0.75414">
        <ele>1798.5</ele>
        <time>2010-02-24T11:07:13Z</time>
      </trkpt>
      <trkpt lat="42.97132" lon="-0.75424">
        <ele>1795.7</ele>
        <time>2010-02-24T11:07:14Z</time>
      </trkpt>
      <trkpt lat="42.97133" lon="-0.75432">
        <ele>1793.2</ele>
        <time>2010-02-24T11:07:15Z</time>
      </trkpt>
      <trkpt lat="42.97136" lon="-0.75442">
        <ele>1790.1</ele>
        <time>2010-02-24T11:07:16Z</time>
      </trkpt>
      <trkpt lat="42.97138" lon="-0.75446">
        <ele>1788.4</ele>
        <time>2010-02-24T11:07:17Z</time>
      </trkpt>
      <trkpt lat="42.97143" lon="-0.75449">
        <ele>1787.4</ele>
        <time>2010-02-24T11:07:19Z</time>
      </trkpt>
      <trkpt lat="42.97155" lon="-0.75449">
        <ele>1784.8</ele>
        <time>2010-02-24T11:07:21Z</time>
      </trkpt>
      <trkpt lat="42.97162" lon="-0.75451">
        <ele>1783.1</ele>
        <time>2010-02-24T11:07:22Z</time>
      </trkpt>
      <trkpt lat="42.97169" lon="-0.75454">
        <ele>1781.5</ele>
        <time>2010-02-24T11:07:23Z</time>
      </trkpt>
      <trkpt lat="42.97173" lon="-0.75462">
        <ele>1780.3</ele>
        <time>2010-02-24T11:07:24Z</time>
      </trkpt>
      <trkpt lat="42.97183" lon="-0.75475">
        <ele>1778.2</ele>
        <time>2010-02-24T11:07:26Z</time>
      </trkpt>
      <trkpt lat="42.97193" lon="-0.75484">
        <ele>1777.2</ele>
        <time>2010-02-24T11:07:27Z</time>
      </trkpt>
      <trkpt lat="42.97198" lon="-0.75487">
        <ele>1777</ele>
        <time>2010-02-24T11:07:28Z</time>
      </trkpt>
      <trkpt lat="42.97203" lon="-0.75492">
        <ele>1776.4</ele>
        <time>2010-02-24T11:07:30Z</time>
      </trkpt>
      <trkpt lat="42.97207" lon="-0.75498">
        <ele>1775.4</ele>
        <time>2010-02-24T11:07:31Z</time>
      </trkpt>
      <trkpt lat="42.97213" lon="-0.7551">
        <ele>1773.9</ele>
        <time>2010-02-24T11:07:33Z</time>
      </trkpt>
      <trkpt lat="42.97217" lon="-0.75515">
        <ele>1773.3</ele>
        <time>2010-02-24T11:07:34Z</time>
      </trkpt>
      <trkpt lat="42.97224" lon="-0.75518">
        <ele>1772.5</ele>
        <time>2010-02-24T11:07:35Z</time>
      </trkpt>
      <trkpt lat="42.97226" lon="-0.75518">
        <ele>1772.1</ele>
        <time>2010-02-24T11:07:36Z</time>
      </trkpt>
      <trkpt lat="42.97232" lon="-0.75517">
        <ele>1771.3</ele>
        <time>2010-02-24T11:07:38Z</time>
      </trkpt>
      <trkpt lat="42.97236" lon="-0.75517">
        <ele>1770.6</ele>
        <time>2010-02-24T11:07:39Z</time>
      </trkpt>
      <trkpt lat="42.9724" lon="-0.75519">
        <ele>1769.9</ele>
        <time>2010-02-24T11:07:41Z</time>
      </trkpt>
      <trkpt lat="42.97244" lon="-0.75522">
        <ele>1769.1</ele>
        <time>2010-02-24T11:07:42Z</time>
      </trkpt>
      <trkpt lat="42.97248" lon="-0.75527">
        <ele>1768.3</ele>
        <time>2010-02-24T11:07:43Z</time>
      </trkpt>
      <trkpt lat="42.97252" lon="-0.75532">
        <ele>1767.2</ele>
        <time>2010-02-24T11:07:44Z</time>
      </trkpt>
      <trkpt lat="42.97257" lon="-0.75538">
        <ele>1765.5</ele>
        <time>2010-02-24T11:07:45Z</time>
      </trkpt>
      <trkpt lat="42.97275" lon="-0.75547">
        <ele>1758.7</ele>
        <time>2010-02-24T11:07:47Z</time>
      </trkpt>
      <trkpt lat="42.9728" lon="-0.75554">
        <ele>1755.7</ele>
        <time>2010-02-24T11:07:48Z</time>
      </trkpt>
      <trkpt lat="42.97285" lon="-0.75561">
        <ele>1753.3</ele>
        <time>2010-02-24T11:07:50Z</time>
      </trkpt>
      <trkpt lat="42.9729" lon="-0.75568">
        <ele>1750.8</ele>
        <time>2010-02-24T11:07:51Z</time>
      </trkpt>
      <trkpt lat="42.97297" lon="-0.75572">
        <ele>1748.1</ele>
        <time>2010-02-24T11:07:52Z</time>
      </trkpt>
      <trkpt lat="42.97306" lon="-0.75574">
        <ele>1744.6</ele>
        <time>2010-02-24T11:07:53Z</time>
      </trkpt>
      <trkpt lat="42.97314" lon="-0.75578">
        <ele>1741.5</ele>
        <time>2010-02-24T11:07:54Z</time>
      </trkpt>
      <trkpt lat="42.97322" lon="-0.75584">
        <ele>1738.5</ele>
        <time>2010-02-24T11:07:55Z</time>
      </trkpt>
      <trkpt lat="42.97332" lon="-0.75589">
        <ele>1735</ele>
        <time>2010-02-24T11:07:56Z</time>
      </trkpt>
      <trkpt lat="42.97352" lon="-0.75596">
        <ele>1730.7</ele>
        <time>2010-02-24T11:07:57Z</time>
      </trkpt>
      <trkpt lat="42.97362" lon="-0.75596">
        <ele>1728.9</ele>
        <time>2010-02-24T11:07:58Z</time>
      </trkpt>
      <trkpt lat="42.97372" lon="-0.75599">
        <ele>1727.6</ele>
        <time>2010-02-24T11:08:00Z</time>
      </trkpt>
      <trkpt lat="42.9739" lon="-0.75608">
        <ele>1723.9</ele>
        <time>2010-02-24T11:08:02Z</time>
      </trkpt>
      <trkpt lat="42.974" lon="-0.7561">
        <ele>1720.1</ele>
        <time>2010-02-24T11:08:03Z</time>
      </trkpt>
      <trkpt lat="42.9741" lon="-0.75614">
        <ele>1716.3</ele>
        <time>2010-02-24T11:08:04Z</time>
      </trkpt>
      <trkpt lat="42.9742" lon="-0.75618">
        <ele>1712.6</ele>
        <time>2010-02-24T11:08:05Z</time>
      </trkpt>
      <trkpt lat="42.97441" lon="-0.75631">
        <ele>1706.2</ele>
        <time>2010-02-24T11:08:06Z</time>
      </trkpt>
      <trkpt lat="42.97451" lon="-0.75636">
        <ele>1703.8</ele>
        <time>2010-02-24T11:08:07Z</time>
      </trkpt>
      <trkpt lat="42.97462" lon="-0.75642">
        <ele>1701.9</ele>
        <time>2010-02-24T11:08:08Z</time>
      </trkpt>
      <trkpt lat="42.97483" lon="-0.75658">
        <ele>1698.6</ele>
        <time>2010-02-24T11:08:10Z</time>
      </trkpt>
      <trkpt lat="42.97493" lon="-0.75663">
        <ele>1696.8</ele>
        <time>2010-02-24T11:08:12Z</time>
      </trkpt>
      <trkpt lat="42.97504" lon="-0.75666">
        <ele>1694.4</ele>
        <time>2010-02-24T11:08:13Z</time>
      </trkpt>
      <trkpt lat="42.97516" lon="-0.75666">
        <ele>1691.7</ele>
        <time>2010-02-24T11:08:14Z</time>
      </trkpt>
      <trkpt lat="42.97528" lon="-0.75663">
        <ele>1689.6</ele>
        <time>2010-02-24T11:08:15Z</time>
      </trkpt>
      <trkpt lat="42.97539" lon="-0.75659">
        <ele>1689.7</ele>
        <time>2010-02-24T11:08:16Z</time>
      </trkpt>
      <trkpt lat="42.97555" lon="-0.75647">
        <ele>1690.1</ele>
        <time>2010-02-24T11:08:17Z</time>
      </trkpt>
      <trkpt lat="42.9756" lon="-0.75642">
        <ele>1690.1</ele>
        <time>2010-02-24T11:08:18Z</time>
      </trkpt>
      <trkpt lat="42.97563" lon="-0.75638">
        <ele>1690.1</ele>
        <time>2010-02-24T11:08:19Z</time>
      </trkpt>
      <trkpt lat="42.97564" lon="-0.75636">
        <ele>1690.2</ele>
        <time>2010-02-24T11:08:21Z</time>
      </trkpt>
      <trkpt lat="42.97563" lon="-0.75636">
        <ele>1690.3</ele>
        <time>2010-02-24T11:08:22Z</time>
      </trkpt>
      <trkpt lat="42.97557" lon="-0.75641">
        <ele>1690.6</ele>
        <time>2010-02-24T11:08:28Z</time>
      </trkpt>
      <trkpt lat="42.97556" lon="-0.75641">
        <ele>1690.8</ele>
        <time>2010-02-24T11:08:42Z</time>
      </trkpt>
      <trkpt lat="42.97555" lon="-0.75641">
        <ele>1690.8</ele>
        <time>2010-02-24T11:08:43Z</time>
      </trkpt>
      <trkpt lat="42.97555" lon="-0.7564">
        <ele>1690.9</ele>
        <time>2010-02-24T11:08:48Z</time>
      </trkpt>
      <trkpt lat="42.97555" lon="-0.7564">
        <ele>1690.9</ele>
        <time>2010-02-24T11:08:51Z</time>
      </trkpt>
      <trkpt lat="42.97555" lon="-0.75641">
        <ele>1690.9</ele>
        <time>2010-02-24T11:08:55Z</time>
      </trkpt>
      <trkpt lat="42.97555" lon="-0.7564">
        <ele>1690.9</ele>
        <time>2010-02-24T11:08:59Z</time>
      </trkpt>
      <trkpt lat="42.97555" lon="-0.75641">
        <ele>1690.8</ele>
        <time>2010-02-24T11:09:01Z</time>
      </trkpt>
      <trkpt lat="42.97558" lon="-0.7564">
        <ele>1690.6</ele>
        <time>2010-02-24T11:09:08Z</time>
      </trkpt>
      <trkpt lat="42.97558" lon="-0.7564">
        <ele>1690.5</ele>
        <time>2010-02-24T11:09:09Z</time>
      </trkpt>
      <trkpt lat="42.97558" lon="-0.75639">
        <ele>1690.6</ele>
        <time>2010-02-24T11:09:18Z</time>
      </trkpt>
      <trkpt lat="42.97558" lon="-0.75639">
        <ele>1690.7</ele>
        <time>2010-02-24T11:09:20Z</time>
      </trkpt>
      <trkpt lat="42.97558" lon="-0.75639">
        <ele>1690.6</ele>
        <time>2010-02-24T11:09:23Z</time>
      </trkpt>
      <trkpt lat="42.97558" lon="-0.75638">
        <ele>1690.7</ele>
        <time>2010-02-24T11:09:28Z</time>
      </trkpt>
      <trkpt lat="42.97558" lon="-0.75639">
        <ele>1690.7</ele>
        <time>2010-02-24T11:09:30Z</time>
      </trkpt>
      <trkpt lat="42.97558" lon="-0.75641">
        <ele>1690.4</ele>
        <time>2010-02-24T11:09:40Z</time>
      </trkpt>
      <trkpt lat="42.97559" lon="-0.75646">
        <ele>1689.7</ele>
        <time>2010-02-24T11:09:41Z</time>
      </trkpt>
      <trkpt lat="42.97561" lon="-0.75657">
        <ele>1688</ele>
        <time>2010-02-24T11:09:45Z</time>
      </trkpt>
      <trkpt lat="42.97562" lon="-0.75662">
        <ele>1687.5</ele>
        <time>2010-02-24T11:09:46Z</time>
      </trkpt>
      <trkpt lat="42.97563" lon="-0.75672">
        <ele>1686.1</ele>
        <time>2010-02-24T11:09:48Z</time>
      </trkpt>
      <trkpt lat="42.97563" lon="-0.75692">
        <ele>1683.5</ele>
        <time>2010-02-24T11:09:51Z</time>
      </trkpt>
      <trkpt lat="42.97562" lon="-0.75699">
        <ele>1683.1</ele>
        <time>2010-02-24T11:09:55Z</time>
      </trkpt>
      <trkpt lat="42.97563" lon="-0.757">
        <ele>1683</ele>
        <time>2010-02-24T11:09:57Z</time>
      </trkpt>
      <trkpt lat="42.97563" lon="-0.757">
        <ele>1682.8</ele>
        <time>2010-02-24T11:09:58Z</time>
      </trkpt>
      <trkpt lat="42.97564" lon="-0.757">
        <ele>1682.4</ele>
        <time>2010-02-24T11:09:59Z</time>
      </trkpt>
      <trkpt lat="42.97566" lon="-0.75697">
        <ele>1681.7</ele>
        <time>2010-02-24T11:10:00Z</time>
      </trkpt>
      <trkpt lat="42.97567" lon="-0.75696">
        <ele>1681.4</ele>
        <time>2010-02-24T11:10:01Z</time>
      </trkpt>
      <trkpt lat="42.97569" lon="-0.75691">
        <ele>1681.4</ele>
        <time>2010-02-24T11:10:05Z</time>
      </trkpt>
      <trkpt lat="42.97572" lon="-0.75679">
        <ele>1682.7</ele>
        <time>2010-02-24T11:10:11Z</time>
      </trkpt>
      <trkpt lat="42.97573" lon="-0.75677">
        <ele>1682.7</ele>
        <time>2010-02-24T11:10:14Z</time>
      </trkpt>
      <trkpt lat="42.97575" lon="-0.75671">
        <ele>1683.5</ele>
        <time>2010-02-24T11:10:18Z</time>
      </trkpt>
      <trkpt lat="42.97575" lon="-0.75669">
        <ele>1683.8</ele>
        <time>2010-02-24T11:10:19Z</time>
      </trkpt>
      <trkpt lat="42.97577" lon="-0.75664">
        <ele>1684.5</ele>
        <time>2010-02-24T11:10:22Z</time>
      </trkpt>
      <trkpt lat="42.97578" lon="-0.75661">
        <ele>1684.7</ele>
        <time>2010-02-24T11:10:25Z</time>
      </trkpt>
      <trkpt lat="42.97579" lon="-0.75659">
        <ele>1684.9</ele>
        <time>2010-02-24T11:10:26Z</time>
      </trkpt>
      <trkpt lat="42.97585" lon="-0.75643">
        <ele>1685.8</ele>
        <time>2010-02-24T11:10:34Z</time>
      </trkpt>
      <trkpt lat="42.97586" lon="-0.75641">
        <ele>1686</ele>
        <time>2010-02-24T11:10:35Z</time>
      </trkpt>
      <trkpt lat="42.97588" lon="-0.75636">
        <ele>1686.2</ele>
        <time>2010-02-24T11:10:37Z</time>
      </trkpt>
      <trkpt lat="42.9759" lon="-0.75633">
        <ele>1686.3</ele>
        <time>2010-02-24T11:10:38Z</time>
      </trkpt>
      <trkpt lat="42.97592" lon="-0.75627">
        <ele>1687</ele>
        <time>2010-02-24T11:10:40Z</time>
      </trkpt>
      <trkpt lat="42.97595" lon="-0.75623">
        <ele>1687.3</ele>
        <time>2010-02-24T11:10:41Z</time>
      </trkpt>
      <trkpt lat="42.97596" lon="-0.75621">
        <ele>1687.4</ele>
        <time>2010-02-24T11:10:49Z</time>
      </trkpt>
      <trkpt lat="42.97595" lon="-0.75619">
        <ele>1687.9</ele>
        <time>2010-02-24T11:10:59Z</time>
      </trkpt>
      <trkpt lat="42.97596" lon="-0.7562">
        <ele>1687.8</ele>
        <time>2010-02-24T11:11:04Z</time>
      </trkpt>
      <trkpt lat="42.97596" lon="-0.7562">
        <ele>1687.7</ele>
        <time>2010-02-24T11:11:09Z</time>
      </trkpt>
      <trkpt lat="42.97595" lon="-0.7562">
        <ele>1687.8</ele>
        <time>2010-02-24T11:11:13Z</time>
      </trkpt>
      <trkpt lat="42.97596" lon="-0.7562">
        <ele>1687.7</ele>
        <time>2010-02-24T11:11:22Z</time>
      </trkpt>
      <trkpt lat="42.97595" lon="-0.7562">
        <ele>1687.7</ele>
        <time>2010-02-24T11:11:35Z</time>
      </trkpt>
      <trkpt lat="42.97595" lon="-0.75621">
        <ele>1687.6</ele>
        <time>2010-02-24T11:11:39Z</time>
      </trkpt>
      <trkpt lat="42.97595" lon="-0.7562">
        <ele>1687.7</ele>
        <time>2010-02-24T11:11:41Z</time>
      </trkpt>
      <trkpt lat="42.97595" lon="-0.75621">
        <ele>1687.6</ele>
        <time>2010-02-24T11:11:47Z</time>
      </trkpt>
      <trkpt lat="42.97595" lon="-0.75621">
        <ele>1687.7</ele>
        <time>2010-02-24T11:11:49Z</time>
      </trkpt>
      <trkpt lat="42.97596" lon="-0.7562">
        <ele>1687.6</ele>
        <time>2010-02-24T11:11:53Z</time>
      </trkpt>
      <trkpt lat="42.97596" lon="-0.75621">
        <ele>1687.5</ele>
        <time>2010-02-24T11:12:02Z</time>
      </trkpt>
      <trkpt lat="42.97595" lon="-0.75621">
        <ele>1687.5</ele>
        <time>2010-02-24T11:12:12Z</time>
      </trkpt>
      <trkpt lat="42.97594" lon="-0.7562">
        <ele>1688</ele>
        <time>2010-02-24T11:12:27Z</time>
      </trkpt>
      <trkpt lat="42.97594" lon="-0.7562">
        <ele>1687.9</ele>
        <time>2010-02-24T11:12:31Z</time>
      </trkpt>
      <trkpt lat="42.97594" lon="-0.75619">
        <ele>1688.1</ele>
        <time>2010-02-24T11:12:45Z</time>
      </trkpt>
      <trkpt lat="42.97594" lon="-0.75619">
        <ele>1688</ele>
        <time>2010-02-24T11:12:51Z</time>
      </trkpt>
      <trkpt lat="42.97594" lon="-0.75619">
        <ele>1688.1</ele>
        <time>2010-02-24T11:12:53Z</time>
      </trkpt>
      <trkpt lat="42.97595" lon="-0.75619">
        <ele>1688</ele>
        <time>2010-02-24T11:12:54Z</time>
      </trkpt>
      <trkpt lat="42.97595" lon="-0.75621">
        <ele>1687.7</ele>
        <time>2010-02-24T11:13:04Z</time>
      </trkpt>
      <trkpt lat="42.97595" lon="-0.75621">
        <ele>1687.6</ele>
        <time>2010-02-24T11:13:05Z</time>
      </trkpt>
      <trkpt lat="42.97595" lon="-0.75621">
        <ele>1687.6</ele>
        <time>2010-02-24T11:13:06Z</time>
      </trkpt>
      <trkpt lat="42.97597" lon="-0.75622">
        <ele>1687.2</ele>
        <time>2010-02-24T11:13:16Z</time>
      </trkpt>
      <trkpt lat="42.97596" lon="-0.75621">
        <ele>1687.4</ele>
        <time>2010-02-24T11:13:23Z</time>
      </trkpt>
      <trkpt lat="42.97596" lon="-0.75622">
        <ele>1687.2</ele>
        <time>2010-02-24T11:13:39Z</time>
      </trkpt>
      <trkpt lat="42.97597" lon="-0.75622">
        <ele>1687</ele>
        <time>2010-02-24T11:13:43Z</time>
      </trkpt>
      <trkpt lat="42.97596" lon="-0.75622">
        <ele>1687.2</ele>
        <time>2010-02-24T11:13:53Z</time>
      </trkpt>
      <trkpt lat="42.97596" lon="-0.75622">
        <ele>1687.1</ele>
        <time>2010-02-24T11:13:55Z</time>
      </trkpt>
      <trkpt lat="42.97596" lon="-0.75622">
        <ele>1687.1</ele>
        <time>2010-02-24T11:14:01Z</time>
      </trkpt>
      <trkpt lat="42.97596" lon="-0.75622">
        <ele>1687.2</ele>
        <time>2010-02-24T11:14:14Z</time>
      </trkpt>
      <trkpt lat="42.97596" lon="-0.75622">
        <ele>1687.3</ele>
        <time>2010-02-24T11:14:17Z</time>
      </trkpt>
      <trkpt lat="42.97596" lon="-0.75622">
        <ele>1687.2</ele>
        <time>2010-02-24T11:14:20Z</time>
      </trkpt>
      <trkpt lat="42.97596" lon="-0.75622">
        <ele>1687.2</ele>
        <time>2010-02-24T11:14:22Z</time>
      </trkpt>
      <trkpt lat="42.97596" lon="-0.75622">
        <ele>1687.2</ele>
        <time>2010-02-24T11:14:23Z</time>
      </trkpt>
      <trkpt lat="42.97596" lon="-0.75622">
        <ele>1687.1</ele>
        <time>2010-02-24T11:14:25Z</time>
      </trkpt>
      <trkpt lat="42.97596" lon="-0.75622">
        <ele>1687.3</ele>
        <time>2010-02-24T11:14:27Z</time>
      </trkpt>
      <trkpt lat="42.97596" lon="-0.75622">
        <ele>1687.3</ele>
        <time>2010-02-24T11:14:30Z</time>
      </trkpt>
      <trkpt lat="42.97596" lon="-0.75621">
        <ele>1687.4</ele>
        <time>2010-02-24T11:14:34Z</time>
      </trkpt>
      <trkpt lat="42.97596" lon="-0.75621">
        <ele>1687.4</ele>
        <time>2010-02-24T11:14:35Z</time>
      </trkpt>
      <trkpt lat="42.97596" lon="-0.7562">
        <ele>1687.6</ele>
        <time>2010-02-24T11:14:47Z</time>
      </trkpt>
      <trkpt lat="42.97596" lon="-0.75621">
        <ele>1687.5</ele>
        <time>2010-02-24T11:14:57Z</time>
      </trkpt>
      <trkpt lat="42.97596" lon="-0.7562">
        <ele>1687.6</ele>
        <time>2010-02-24T11:15:01Z</time>
      </trkpt>
      <trkpt lat="42.97596" lon="-0.7562">
        <ele>1687.7</ele>
        <time>2010-02-24T11:15:03Z</time>
      </trkpt>
      <trkpt lat="42.97595" lon="-0.7562">
        <ele>1687.8</ele>
        <time>2010-02-24T11:15:06Z</time>
      </trkpt>
      <trkpt lat="42.97596" lon="-0.7562">
        <ele>1687.7</ele>
        <time>2010-02-24T11:15:08Z</time>
      </trkpt>
      <trkpt lat="42.97596" lon="-0.7562">
        <ele>1687.6</ele>
        <time>2010-02-24T11:15:15Z</time>
      </trkpt>
      <trkpt lat="42.97596" lon="-0.7562">
        <ele>1687.5</ele>
        <time>2010-02-24T11:15:17Z</time>
      </trkpt>
      <trkpt lat="42.97596" lon="-0.7562">
        <ele>1687.7</ele>
        <time>2010-02-24T11:15:19Z</time>
      </trkpt>
      <trkpt lat="42.97595" lon="-0.7562">
        <ele>1687.9</ele>
        <time>2010-02-24T11:15:28Z</time>
      </trkpt>
      <trkpt lat="42.97594" lon="-0.7562">
        <ele>1687.9</ele>
        <time>2010-02-24T11:15:32Z</time>
      </trkpt>
      <trkpt lat="42.97594" lon="-0.7562">
        <ele>1688</ele>
        <time>2010-02-24T11:15:34Z</time>
      </trkpt>
      <trkpt lat="42.97594" lon="-0.7562">
        <ele>1688</ele>
        <time>2010-02-24T11:15:36Z</time>
      </trkpt>
      <trkpt lat="42.97594" lon="-0.75621">
        <ele>1687.9</ele>
        <time>2010-02-24T11:15:37Z</time>
      </trkpt>
      <trkpt lat="42.97594" lon="-0.75621">
        <ele>1687.8</ele>
        <time>2010-02-24T11:15:39Z</time>
      </trkpt>
      <trkpt lat="42.97593" lon="-0.75621">
        <ele>1687.9</ele>
        <time>2010-02-24T11:15:48Z</time>
      </trkpt>
      <trkpt lat="42.97593" lon="-0.75622">
        <ele>1687.8</ele>
        <time>2010-02-24T11:15:49Z</time>
      </trkpt>
      <trkpt lat="42.97594" lon="-0.75622">
        <ele>1687.6</ele>
        <time>2010-02-24T11:15:53Z</time>
      </trkpt>
      <trkpt lat="42.97593" lon="-0.75623">
        <ele>1687.6</ele>
        <time>2010-02-24T11:15:55Z</time>
      </trkpt>
      <trkpt lat="42.97593" lon="-0.75623">
        <ele>1687.4</ele>
        <time>2010-02-24T11:15:58Z</time>
      </trkpt>
      <trkpt lat="42.97593" lon="-0.75624">
        <ele>1687.3</ele>
        <time>2010-02-24T11:15:59Z</time>
      </trkpt>
      <trkpt lat="42.9759" lon="-0.75629">
        <ele>1687</ele>
        <time>2010-02-24T11:16:07Z</time>
      </trkpt>
      <trkpt lat="42.97588" lon="-0.75631">
        <ele>1687.2</ele>
        <time>2010-02-24T11:16:10Z</time>
      </trkpt>
      <trkpt lat="42.97587" lon="-0.75631">
        <ele>1687.1</ele>
        <time>2010-02-24T11:16:15Z</time>
      </trkpt>
      <trkpt lat="42.97588" lon="-0.75631">
        <ele>1687.1</ele>
        <time>2010-02-24T11:16:17Z</time>
      </trkpt>
      <trkpt lat="42.97587" lon="-0.75631">
        <ele>1687.2</ele>
        <time>2010-02-24T11:16:18Z</time>
      </trkpt>
      <trkpt lat="42.97585" lon="-0.75633">
        <ele>1687.3</ele>
        <time>2010-02-24T11:16:23Z</time>
      </trkpt>
      <trkpt lat="42.97585" lon="-0.75633">
        <ele>1687.5</ele>
        <time>2010-02-24T11:16:24Z</time>
      </trkpt>
      <trkpt lat="42.97582" lon="-0.75636">
        <ele>1687.6</ele>
        <time>2010-02-24T11:16:30Z</time>
      </trkpt>
      <trkpt lat="42.97579" lon="-0.75641">
        <ele>1687.4</ele>
        <time>2010-02-24T11:16:38Z</time>
      </trkpt>
      <trkpt lat="42.97578" lon="-0.75641">
        <ele>1687.5</ele>
        <time>2010-02-24T11:16:39Z</time>
      </trkpt>
      <trkpt lat="42.97577" lon="-0.75642">
        <ele>1687.4</ele>
        <time>2010-02-24T11:16:40Z</time>
      </trkpt>
      <trkpt lat="42.97576" lon="-0.75642">
        <ele>1687.6</ele>
        <time>2010-02-24T11:16:44Z</time>
      </trkpt>
      <trkpt lat="42.97575" lon="-0.75643">
        <ele>1687.7</ele>
        <time>2010-02-24T11:16:46Z</time>
      </trkpt>
      <trkpt lat="42.97574" lon="-0.75643">
        <ele>1687.8</ele>
        <time>2010-02-24T11:16:48Z</time>
      </trkpt>
      <trkpt lat="42.97572" lon="-0.75641">
        <ele>1688.5</ele>
        <time>2010-02-24T11:17:02Z</time>
      </trkpt>
      <trkpt lat="42.9757" lon="-0.75642">
        <ele>1688.5</ele>
        <time>2010-02-24T11:17:12Z</time>
      </trkpt>
      <trkpt lat="42.97571" lon="-0.75642">
        <ele>1688.5</ele>
        <time>2010-02-24T11:17:15Z</time>
      </trkpt>
      <trkpt lat="42.97571" lon="-0.75642">
        <ele>1688.4</ele>
        <time>2010-02-24T11:17:16Z</time>
      </trkpt>
      <trkpt lat="42.97571" lon="-0.75641">
        <ele>1688.4</ele>
        <time>2010-02-24T11:17:25Z</time>
      </trkpt>
      <trkpt lat="42.97572" lon="-0.75641">
        <ele>1688.4</ele>
        <time>2010-02-24T11:17:30Z</time>
      </trkpt>
      <trkpt lat="42.97572" lon="-0.75641">
        <ele>1688.4</ele>
        <time>2010-02-24T11:17:31Z</time>
      </trkpt>
      <trkpt lat="42.97572" lon="-0.75641">
        <ele>1688.4</ele>
        <time>2010-02-24T11:17:37Z</time>
      </trkpt>
      <trkpt lat="42.97572" lon="-0.75641">
        <ele>1688.4</ele>
        <time>2010-02-24T11:17:39Z</time>
      </trkpt>
      <trkpt lat="42.97572" lon="-0.75641">
        <ele>1688.3</ele>
        <time>2010-02-24T11:17:40Z</time>
      </trkpt>
      <trkpt lat="42.97572" lon="-0.75641">
        <ele>1688.4</ele>
        <time>2010-02-24T11:17:51Z</time>
      </trkpt>
      <trkpt lat="42.97572" lon="-0.7564">
        <ele>1688.5</ele>
        <time>2010-02-24T11:17:56Z</time>
      </trkpt>
      <trkpt lat="42.97573" lon="-0.75639">
        <ele>1688.6</ele>
        <time>2010-02-24T11:18:02Z</time>
      </trkpt>
      <trkpt lat="42.97573" lon="-0.75639">
        <ele>1688.5</ele>
        <time>2010-02-24T11:18:07Z</time>
      </trkpt>
      <trkpt lat="42.97573" lon="-0.75638">
        <ele>1688.6</ele>
        <time>2010-02-24T11:18:09Z</time>
      </trkpt>
      <trkpt lat="42.97574" lon="-0.75636">
        <ele>1688.7</ele>
        <time>2010-02-24T11:18:11Z</time>
      </trkpt>
      <trkpt lat="42.97574" lon="-0.75634">
        <ele>1688.9</ele>
        <time>2010-02-24T11:18:15Z</time>
      </trkpt>
      <trkpt lat="42.97575" lon="-0.75633">
        <ele>1689</ele>
        <time>2010-02-24T11:18:18Z</time>
      </trkpt>
      <trkpt lat="42.97575" lon="-0.75633">
        <ele>1689.1</ele>
        <time>2010-02-24T11:18:19Z</time>
      </trkpt>
      <trkpt lat="42.97575" lon="-0.75632">
        <ele>1689.1</ele>
        <time>2010-02-24T11:18:21Z</time>
      </trkpt>
      <trkpt lat="42.97574" lon="-0.75631">
        <ele>1689.3</ele>
        <time>2010-02-24T11:18:29Z</time>
      </trkpt>
      <trkpt lat="42.97573" lon="-0.75629">
        <ele>1689.8</ele>
        <time>2010-02-24T11:18:32Z</time>
      </trkpt>
      <trkpt lat="42.97573" lon="-0.75627">
        <ele>1690.1</ele>
        <time>2010-02-24T11:18:33Z</time>
      </trkpt>
      <trkpt lat="42.97564" lon="-0.7561">
        <ele>1693.4</ele>
        <time>2010-02-24T11:18:40Z</time>
      </trkpt>
      <trkpt lat="42.97549" lon="-0.75582">
        <ele>1699.6</ele>
        <time>2010-02-24T11:18:49Z</time>
      </trkpt>
      <trkpt lat="42.97538" lon="-0.7556">
        <ele>1702.8</ele>
        <time>2010-02-24T11:18:55Z</time>
      </trkpt>
      <trkpt lat="42.97533" lon="-0.75551">
        <ele>1704.1</ele>
        <time>2010-02-24T11:18:59Z</time>
      </trkpt>
      <trkpt lat="42.97524" lon="-0.75533">
        <ele>1707</ele>
        <time>2010-02-24T11:19:04Z</time>
      </trkpt>
      <trkpt lat="42.97519" lon="-0.75525">
        <ele>1708.2</ele>
        <time>2010-02-24T11:19:08Z</time>
      </trkpt>
      <trkpt lat="42.97512" lon="-0.75509">
        <ele>1710.1</ele>
        <time>2010-02-24T11:19:12Z</time>
      </trkpt>
      <trkpt lat="42.97501" lon="-0.75488">
        <ele>1713.2</ele>
        <time>2010-02-24T11:19:20Z</time>
      </trkpt>
      <trkpt lat="42.97494" lon="-0.75474">
        <ele>1716.4</ele>
        <time>2010-02-24T11:19:24Z</time>
      </trkpt>
      <trkpt lat="42.97487" lon="-0.75462">
        <ele>1719.4</ele>
        <time>2010-02-24T11:19:29Z</time>
      </trkpt>
      <trkpt lat="42.97483" lon="-0.75453">
        <ele>1721.8</ele>
        <time>2010-02-24T11:19:32Z</time>
      </trkpt>
      <trkpt lat="42.97477" lon="-0.75442">
        <ele>1725.1</ele>
        <time>2010-02-24T11:19:35Z</time>
      </trkpt>
      <trkpt lat="42.97474" lon="-0.75435">
        <ele>1726.9</ele>
        <time>2010-02-24T11:19:38Z</time>
      </trkpt>
      <trkpt lat="42.97468" lon="-0.75427">
        <ele>1729.2</ele>
        <time>2010-02-24T11:19:41Z</time>
      </trkpt>
      <trkpt lat="42.97462" lon="-0.75416">
        <ele>1732</ele>
        <time>2010-02-24T11:19:44Z</time>
      </trkpt>
      <trkpt lat="42.97452" lon="-0.75395">
        <ele>1737</ele>
        <time>2010-02-24T11:19:52Z</time>
      </trkpt>
      <trkpt lat="42.97443" lon="-0.75377">
        <ele>1742.5</ele>
        <time>2010-02-24T11:19:57Z</time>
      </trkpt>
      <trkpt lat="42.97439" lon="-0.75371">
        <ele>1744.1</ele>
        <time>2010-02-24T11:20:00Z</time>
      </trkpt>
      <trkpt lat="42.9743" lon="-0.75353">
        <ele>1748.3</ele>
        <time>2010-02-24T11:20:05Z</time>
      </trkpt>
      <trkpt lat="42.97427" lon="-0.75347">
        <ele>1749.6</ele>
        <time>2010-02-24T11:20:07Z</time>
      </trkpt>
      <trkpt lat="42.9742" lon="-0.75335">
        <ele>1751.9</ele>
        <time>2010-02-24T11:20:12Z</time>
      </trkpt>
      <trkpt lat="42.97417" lon="-0.75329">
        <ele>1752.9</ele>
        <time>2010-02-24T11:20:14Z</time>
      </trkpt>
      <trkpt lat="42.97407" lon="-0.75308">
        <ele>1756.8</ele>
        <time>2010-02-24T11:20:21Z</time>
      </trkpt>
      <trkpt lat="42.97402" lon="-0.75299">
        <ele>1757.8</ele>
        <time>2010-02-24T11:20:24Z</time>
      </trkpt>
      <trkpt lat="42.97387" lon="-0.75271">
        <ele>1760.4</ele>
        <time>2010-02-24T11:20:33Z</time>
      </trkpt>
      <trkpt lat="42.9738" lon="-0.75261">
        <ele>1760.5</ele>
        <time>2010-02-24T11:20:35Z</time>
      </trkpt>
      <trkpt lat="42.97373" lon="-0.75252">
        <ele>1760</ele>
        <time>2010-02-24T11:20:37Z</time>
      </trkpt>
      <trkpt lat="42.97365" lon="-0.75242">
        <ele>1758.6</ele>
        <time>2010-02-24T11:20:40Z</time>
      </trkpt>
      <trkpt lat="42.97361" lon="-0.75236">
        <ele>1758</ele>
        <time>2010-02-24T11:20:41Z</time>
      </trkpt>
      <trkpt lat="42.97359" lon="-0.75231">
        <ele>1758</ele>
        <time>2010-02-24T11:20:42Z</time>
      </trkpt>
      <trkpt lat="42.97358" lon="-0.75224">
        <ele>1758.1</ele>
        <time>2010-02-24T11:20:43Z</time>
      </trkpt>
      <trkpt lat="42.97359" lon="-0.75219">
        <ele>1757.9</ele>
        <time>2010-02-24T11:20:44Z</time>
      </trkpt>
      <trkpt lat="42.9736" lon="-0.75214">
        <ele>1757.5</ele>
        <time>2010-02-24T11:20:45Z</time>
      </trkpt>
      <trkpt lat="42.97365" lon="-0.75208">
        <ele>1757.6</ele>
        <time>2010-02-24T11:20:46Z</time>
      </trkpt>
      <trkpt lat="42.97365" lon="-0.75204">
        <ele>1757.3</ele>
        <time>2010-02-24T11:20:47Z</time>
      </trkpt>
      <trkpt lat="42.97363" lon="-0.75201">
        <ele>1756.8</ele>
        <time>2010-02-24T11:20:50Z</time>
      </trkpt>
      <trkpt lat="42.97363" lon="-0.75199">
        <ele>1756.7</ele>
        <time>2010-02-24T11:20:53Z</time>
      </trkpt>
      <trkpt lat="42.97363" lon="-0.75199">
        <ele>1756.6</ele>
        <time>2010-02-24T11:20:55Z</time>
      </trkpt>
      <trkpt lat="42.97361" lon="-0.75193">
        <ele>1756</ele>
        <time>2010-02-24T11:20:59Z</time>
      </trkpt>
      <trkpt lat="42.97361" lon="-0.75192">
        <ele>1755.6</ele>
        <time>2010-02-24T11:21:01Z</time>
      </trkpt>
      <trkpt lat="42.9736" lon="-0.75181">
        <ele>1754.4</ele>
        <time>2010-02-24T11:21:05Z</time>
      </trkpt>
      <trkpt lat="42.9736" lon="-0.75176">
        <ele>1753.8</ele>
        <time>2010-02-24T11:21:06Z</time>
      </trkpt>
      <trkpt lat="42.97361" lon="-0.75163">
        <ele>1751.8</ele>
        <time>2010-02-24T11:21:07Z</time>
      </trkpt>
      <trkpt lat="42.97362" lon="-0.75146">
        <ele>1750.4</ele>
        <time>2010-02-24T11:21:10Z</time>
      </trkpt>
      <trkpt lat="42.97363" lon="-0.75137">
        <ele>1749.4</ele>
        <time>2010-02-24T11:21:11Z</time>
      </trkpt>
      <trkpt lat="42.97366" lon="-0.75128">
        <ele>1747.8</ele>
        <time>2010-02-24T11:21:12Z</time>
      </trkpt>
      <trkpt lat="42.97371" lon="-0.75121">
        <ele>1745.9</ele>
        <time>2010-02-24T11:21:13Z</time>
      </trkpt>
      <trkpt lat="42.97377" lon="-0.75116">
        <ele>1743.6</ele>
        <time>2010-02-24T11:21:14Z</time>
      </trkpt>
      <trkpt lat="42.97385" lon="-0.75114">
        <ele>1740.5</ele>
        <time>2010-02-24T11:21:15Z</time>
      </trkpt>
      <trkpt lat="42.97402" lon="-0.751">
        <ele>1735.6</ele>
        <time>2010-02-24T11:21:16Z</time>
      </trkpt>
      <trkpt lat="42.9741" lon="-0.75089">
        <ele>1733.8</ele>
        <time>2010-02-24T11:21:17Z</time>
      </trkpt>
      <trkpt lat="42.97418" lon="-0.75079">
        <ele>1732.9</ele>
        <time>2010-02-24T11:21:18Z</time>
      </trkpt>
      <trkpt lat="42.97426" lon="-0.75072">
        <ele>1731.7</ele>
        <time>2010-02-24T11:21:19Z</time>
      </trkpt>
      <trkpt lat="42.97436" lon="-0.75071">
        <ele>1730.2</ele>
        <time>2010-02-24T11:21:21Z</time>
      </trkpt>
      <trkpt lat="42.97446" lon="-0.75067">
        <ele>1728.6</ele>
        <time>2010-02-24T11:21:22Z</time>
      </trkpt>
      <trkpt lat="42.97455" lon="-0.75063">
        <ele>1725.6</ele>
        <time>2010-02-24T11:21:23Z</time>
      </trkpt>
      <trkpt lat="42.97461" lon="-0.75058">
        <ele>1723.7</ele>
        <time>2010-02-24T11:21:24Z</time>
      </trkpt>
      <trkpt lat="42.97465" lon="-0.75053">
        <ele>1722.3</ele>
        <time>2010-02-24T11:21:26Z</time>
      </trkpt>
      <trkpt lat="42.97463" lon="-0.75054">
        <ele>1723</ele>
        <time>2010-02-24T11:21:35Z</time>
      </trkpt>
      <trkpt lat="42.97463" lon="-0.75055">
        <ele>1723</ele>
        <time>2010-02-24T11:21:38Z</time>
      </trkpt>
      <trkpt lat="42.97462" lon="-0.75055">
        <ele>1723.3</ele>
        <time>2010-02-24T11:21:46Z</time>
      </trkpt>
      <trkpt lat="42.97462" lon="-0.75056">
        <ele>1723.2</ele>
        <time>2010-02-24T11:21:50Z</time>
      </trkpt>
      <trkpt lat="42.97463" lon="-0.75055">
        <ele>1723</ele>
        <time>2010-02-24T11:21:52Z</time>
      </trkpt>
      <trkpt lat="42.97464" lon="-0.75055">
        <ele>1722.8</ele>
        <time>2010-02-24T11:21:55Z</time>
      </trkpt>
      <trkpt lat="42.97463" lon="-0.75055">
        <ele>1722.9</ele>
        <time>2010-02-24T11:21:58Z</time>
      </trkpt>
      <trkpt lat="42.97464" lon="-0.75055">
        <ele>1722.8</ele>
        <time>2010-02-24T11:21:59Z</time>
      </trkpt>
      <trkpt lat="42.97463" lon="-0.75055">
        <ele>1722.9</ele>
        <time>2010-02-24T11:22:02Z</time>
      </trkpt>
      <trkpt lat="42.97463" lon="-0.75055">
        <ele>1722.9</ele>
        <time>2010-02-24T11:22:06Z</time>
      </trkpt>
      <trkpt lat="42.97463" lon="-0.75055">
        <ele>1723</ele>
        <time>2010-02-24T11:22:13Z</time>
      </trkpt>
      <trkpt lat="42.97463" lon="-0.75054">
        <ele>1722.9</ele>
        <time>2010-02-24T11:22:15Z</time>
      </trkpt>
      <trkpt lat="42.97463" lon="-0.75054">
        <ele>1723</ele>
        <time>2010-02-24T11:22:16Z</time>
      </trkpt>
      <trkpt lat="42.97463" lon="-0.75054">
        <ele>1723</ele>
        <time>2010-02-24T11:22:18Z</time>
      </trkpt>
      <trkpt lat="42.97463" lon="-0.75054">
        <ele>1722.8</ele>
        <time>2010-02-24T11:22:21Z</time>
      </trkpt>
      <trkpt lat="42.97464" lon="-0.75053">
        <ele>1722.5</ele>
        <time>2010-02-24T11:22:22Z</time>
      </trkpt>
      <trkpt lat="42.97467" lon="-0.75052">
        <ele>1721.5</ele>
        <time>2010-02-24T11:22:23Z</time>
      </trkpt>
      <trkpt lat="42.97472" lon="-0.75052">
        <ele>1719.9</ele>
        <time>2010-02-24T11:22:24Z</time>
      </trkpt>
      <trkpt lat="42.97479" lon="-0.75053">
        <ele>1717.4</ele>
        <time>2010-02-24T11:22:25Z</time>
      </trkpt>
      <trkpt lat="42.97486" lon="-0.75052">
        <ele>1714.3</ele>
        <time>2010-02-24T11:22:26Z</time>
      </trkpt>
      <trkpt lat="42.97495" lon="-0.75049">
        <ele>1710.6</ele>
        <time>2010-02-24T11:22:27Z</time>
      </trkpt>
      <trkpt lat="42.9751" lon="-0.75029">
        <ele>1706.4</ele>
        <time>2010-02-24T11:22:28Z</time>
      </trkpt>
      <trkpt lat="42.97517" lon="-0.75015">
        <ele>1705.5</ele>
        <time>2010-02-24T11:22:29Z</time>
      </trkpt>
      <trkpt lat="42.97522" lon="-0.75">
        <ele>1704.7</ele>
        <time>2010-02-24T11:22:30Z</time>
      </trkpt>
      <trkpt lat="42.97525" lon="-0.74985">
        <ele>1704.3</ele>
        <time>2010-02-24T11:22:32Z</time>
      </trkpt>
      <trkpt lat="42.97528" lon="-0.7497">
        <ele>1703.9</ele>
        <time>2010-02-24T11:22:33Z</time>
      </trkpt>
      <trkpt lat="42.9753" lon="-0.74955">
        <ele>1703.4</ele>
        <time>2010-02-24T11:22:34Z</time>
      </trkpt>
      <trkpt lat="42.9753" lon="-0.74939">
        <ele>1702.7</ele>
        <time>2010-02-24T11:22:35Z</time>
      </trkpt>
      <trkpt lat="42.97527" lon="-0.74924">
        <ele>1701.5</ele>
        <time>2010-02-24T11:22:36Z</time>
      </trkpt>
      <trkpt lat="42.97523" lon="-0.7491">
        <ele>1700.5</ele>
        <time>2010-02-24T11:22:37Z</time>
      </trkpt>
      <trkpt lat="42.9752" lon="-0.74895">
        <ele>1699.5</ele>
        <time>2010-02-24T11:22:38Z</time>
      </trkpt>
      <trkpt lat="42.97516" lon="-0.74865">
        <ele>1697.4</ele>
        <time>2010-02-24T11:22:39Z</time>
      </trkpt>
      <trkpt lat="42.97515" lon="-0.74849">
        <ele>1695.5</ele>
        <time>2010-02-24T11:22:40Z</time>
      </trkpt>
      <trkpt lat="42.97515" lon="-0.74833">
        <ele>1693.1</ele>
        <time>2010-02-24T11:22:42Z</time>
      </trkpt>
      <trkpt lat="42.97516" lon="-0.74816">
        <ele>1692</ele>
        <time>2010-02-24T11:22:43Z</time>
      </trkpt>
      <trkpt lat="42.97518" lon="-0.74798">
        <ele>1690.7</ele>
        <time>2010-02-24T11:22:44Z</time>
      </trkpt>
      <trkpt lat="42.97522" lon="-0.74781">
        <ele>1688.2</ele>
        <time>2010-02-24T11:22:45Z</time>
      </trkpt>
      <trkpt lat="42.97528" lon="-0.74765">
        <ele>1686.5</ele>
        <time>2010-02-24T11:22:46Z</time>
      </trkpt>
      <trkpt lat="42.97536" lon="-0.74751">
        <ele>1684.9</ele>
        <time>2010-02-24T11:22:47Z</time>
      </trkpt>
      <trkpt lat="42.97558" lon="-0.74731">
        <ele>1681</ele>
        <time>2010-02-24T11:22:48Z</time>
      </trkpt>
      <trkpt lat="42.97572" lon="-0.74727">
        <ele>1678.8</ele>
        <time>2010-02-24T11:22:49Z</time>
      </trkpt>
      <trkpt lat="42.97588" lon="-0.74728">
        <ele>1676.1</ele>
        <time>2010-02-24T11:22:50Z</time>
      </trkpt>
      <trkpt lat="42.97603" lon="-0.74731">
        <ele>1673.1</ele>
        <time>2010-02-24T11:22:51Z</time>
      </trkpt>
      <trkpt lat="42.97614" lon="-0.74739">
        <ele>1671.1</ele>
        <time>2010-02-24T11:22:53Z</time>
      </trkpt>
      <trkpt lat="42.97624" lon="-0.74747">
        <ele>1669.5</ele>
        <time>2010-02-24T11:22:54Z</time>
      </trkpt>
      <trkpt lat="42.97633" lon="-0.74756">
        <ele>1668.3</ele>
        <time>2010-02-24T11:22:55Z</time>
      </trkpt>
      <trkpt lat="42.9764" lon="-0.74763">
        <ele>1667.2</ele>
        <time>2010-02-24T11:22:56Z</time>
      </trkpt>
      <trkpt lat="42.97646" lon="-0.74768">
        <ele>1665.6</ele>
        <time>2010-02-24T11:22:57Z</time>
      </trkpt>
      <trkpt lat="42.97649" lon="-0.7477">
        <ele>1664.6</ele>
        <time>2010-02-24T11:22:58Z</time>
      </trkpt>
      <trkpt lat="42.9765" lon="-0.74771">
        <ele>1664.5</ele>
        <time>2010-02-24T11:22:59Z</time>
      </trkpt>
      <trkpt lat="42.97648" lon="-0.74771">
        <ele>1664.9</ele>
        <time>2010-02-24T11:23:02Z</time>
      </trkpt>
      <trkpt lat="42.97646" lon="-0.74769">
        <ele>1665.6</ele>
        <time>2010-02-24T11:23:07Z</time>
      </trkpt>
      <trkpt lat="42.97645" lon="-0.74769">
        <ele>1665.9</ele>
        <time>2010-02-24T11:23:17Z</time>
      </trkpt>
      <trkpt lat="42.97645" lon="-0.74769">
        <ele>1665.9</ele>
        <time>2010-02-24T11:23:18Z</time>
      </trkpt>
      <trkpt lat="42.97652" lon="-0.7476">
        <ele>1663.2</ele>
        <time>2010-02-24T11:23:24Z</time>
      </trkpt>
      <trkpt lat="42.97657" lon="-0.74756">
        <ele>1661.5</ele>
        <time>2010-02-24T11:23:25Z</time>
      </trkpt>
      <trkpt lat="42.97664" lon="-0.74753">
        <ele>1659.1</ele>
        <time>2010-02-24T11:23:26Z</time>
      </trkpt>
      <trkpt lat="42.97673" lon="-0.74752">
        <ele>1656.8</ele>
        <time>2010-02-24T11:23:27Z</time>
      </trkpt>
      <trkpt lat="42.97683" lon="-0.74753">
        <ele>1654.5</ele>
        <time>2010-02-24T11:23:28Z</time>
      </trkpt>
      <trkpt lat="42.97708" lon="-0.74754">
        <ele>1650.4</ele>
        <time>2010-02-24T11:23:30Z</time>
      </trkpt>
      <trkpt lat="42.97731" lon="-0.74752">
        <ele>1648</ele>
        <time>2010-02-24T11:23:31Z</time>
      </trkpt>
      <trkpt lat="42.97742" lon="-0.74752">
        <ele>1646.8</ele>
        <time>2010-02-24T11:23:32Z</time>
      </trkpt>
      <trkpt lat="42.97753" lon="-0.74751">
        <ele>1645.4</ele>
        <time>2010-02-24T11:23:34Z</time>
      </trkpt>
      <trkpt lat="42.97763" lon="-0.74751">
        <ele>1643.6</ele>
        <time>2010-02-24T11:23:35Z</time>
      </trkpt>
      <trkpt lat="42.97773" lon="-0.74753">
        <ele>1642</ele>
        <time>2010-02-24T11:23:36Z</time>
      </trkpt>
      <trkpt lat="42.97789" lon="-0.74753">
        <ele>1639.9</ele>
        <time>2010-02-24T11:23:38Z</time>
      </trkpt>
      <trkpt lat="42.97795" lon="-0.74752">
        <ele>1639.1</ele>
        <time>2010-02-24T11:23:39Z</time>
      </trkpt>
      <trkpt lat="42.978" lon="-0.7475">
        <ele>1638.6</ele>
        <time>2010-02-24T11:23:40Z</time>
      </trkpt>
      <trkpt lat="42.97807" lon="-0.74746">
        <ele>1637.9</ele>
        <time>2010-02-24T11:23:41Z</time>
      </trkpt>
      <trkpt lat="42.97809" lon="-0.74746">
        <ele>1637.3</ele>
        <time>2010-02-24T11:23:42Z</time>
      </trkpt>
      <trkpt lat="42.9781" lon="-0.74746">
        <ele>1636.9</ele>
        <time>2010-02-24T11:23:44Z</time>
      </trkpt>
      <trkpt lat="42.97812" lon="-0.74748">
        <ele>1636.5</ele>
        <time>2010-02-24T11:23:46Z</time>
      </trkpt>
      <trkpt lat="42.97811" lon="-0.74746">
        <ele>1636.7</ele>
        <time>2010-02-24T11:23:48Z</time>
      </trkpt>
      <trkpt lat="42.9781" lon="-0.74747">
        <ele>1636.9</ele>
        <time>2010-02-24T11:23:49Z</time>
      </trkpt>
      <trkpt lat="42.97809" lon="-0.74748">
        <ele>1637.2</ele>
        <time>2010-02-24T11:23:52Z</time>
      </trkpt>
      <trkpt lat="42.97809" lon="-0.74748">
        <ele>1637.3</ele>
        <time>2010-02-24T11:23:56Z</time>
      </trkpt>
      <trkpt lat="42.97809" lon="-0.74748">
        <ele>1637.3</ele>
        <time>2010-02-24T11:23:58Z</time>
      </trkpt>
      <trkpt lat="42.97809" lon="-0.74748">
        <ele>1637.2</ele>
        <time>2010-02-24T11:24:00Z</time>
      </trkpt>
      <trkpt lat="42.97809" lon="-0.74748">
        <ele>1637.2</ele>
        <time>2010-02-24T11:24:02Z</time>
      </trkpt>
      <trkpt lat="42.97809" lon="-0.74748">
        <ele>1637.1</ele>
        <time>2010-02-24T11:24:06Z</time>
      </trkpt>
      <trkpt lat="42.97809" lon="-0.74747">
        <ele>1637.1</ele>
        <time>2010-02-24T11:24:08Z</time>
      </trkpt>
      <trkpt lat="42.97811" lon="-0.74747">
        <ele>1636.9</ele>
        <time>2010-02-24T11:24:19Z</time>
      </trkpt>
      <trkpt lat="42.9781" lon="-0.74747">
        <ele>1637</ele>
        <time>2010-02-24T11:24:23Z</time>
      </trkpt>
      <trkpt lat="42.97809" lon="-0.74746">
        <ele>1637.4</ele>
        <time>2010-02-24T11:24:31Z</time>
      </trkpt>
      <trkpt lat="42.9781" lon="-0.74745">
        <ele>1637.1</ele>
        <time>2010-02-24T11:24:41Z</time>
      </trkpt>
      <trkpt lat="42.9781" lon="-0.74745">
        <ele>1637.1</ele>
        <time>2010-02-24T11:24:46Z</time>
      </trkpt>
      <trkpt lat="42.97811" lon="-0.74745">
        <ele>1636.8</ele>
        <time>2010-02-24T11:25:09Z</time>
      </trkpt>
      <trkpt lat="42.97811" lon="-0.74745">
        <ele>1636.8</ele>
        <time>2010-02-24T11:25:10Z</time>
      </trkpt>
      <trkpt lat="42.97811" lon="-0.74744">
        <ele>1636.7</ele>
        <time>2010-02-24T11:25:16Z</time>
      </trkpt>
      <trkpt lat="42.97811" lon="-0.74744">
        <ele>1636.8</ele>
        <time>2010-02-24T11:25:18Z</time>
      </trkpt>
      <trkpt lat="42.97812" lon="-0.74744">
        <ele>1636.5</ele>
        <time>2010-02-24T11:25:23Z</time>
      </trkpt>
      <trkpt lat="42.97813" lon="-0.74743">
        <ele>1636.4</ele>
        <time>2010-02-24T11:25:29Z</time>
      </trkpt>
      <trkpt lat="42.97812" lon="-0.74744">
        <ele>1636.5</ele>
        <time>2010-02-24T11:25:33Z</time>
      </trkpt>
      <trkpt lat="42.97813" lon="-0.74744">
        <ele>1636.3</ele>
        <time>2010-02-24T11:25:40Z</time>
      </trkpt>
      <trkpt lat="42.97813" lon="-0.74743">
        <ele>1636.3</ele>
        <time>2010-02-24T11:25:41Z</time>
      </trkpt>
      <trkpt lat="42.97814" lon="-0.74743">
        <ele>1636</ele>
        <time>2010-02-24T11:25:47Z</time>
      </trkpt>
      <trkpt lat="42.97815" lon="-0.74741">
        <ele>1636</ele>
        <time>2010-02-24T11:25:59Z</time>
      </trkpt>
      <trkpt lat="42.97815" lon="-0.7474">
        <ele>1635.9</ele>
        <time>2010-02-24T11:26:01Z</time>
      </trkpt>
      <trkpt lat="42.97813" lon="-0.74739">
        <ele>1636.6</ele>
        <time>2010-02-24T11:26:04Z</time>
      </trkpt>
      <trkpt lat="42.97813" lon="-0.74738">
        <ele>1636.5</ele>
        <time>2010-02-24T11:26:05Z</time>
      </trkpt>
      <trkpt lat="42.97813" lon="-0.74738">
        <ele>1636.5</ele>
        <time>2010-02-24T11:26:12Z</time>
      </trkpt>
      <trkpt lat="42.97813" lon="-0.74738">
        <ele>1636.4</ele>
        <time>2010-02-24T11:26:13Z</time>
      </trkpt>
      <trkpt lat="42.97813" lon="-0.74739">
        <ele>1636.4</ele>
        <time>2010-02-24T11:26:18Z</time>
      </trkpt>
      <trkpt lat="42.97813" lon="-0.74739">
        <ele>1636.6</ele>
        <time>2010-02-24T11:26:20Z</time>
      </trkpt>
      <trkpt lat="42.97813" lon="-0.74739">
        <ele>1636.3</ele>
        <time>2010-02-24T11:26:22Z</time>
      </trkpt>
      <trkpt lat="42.97815" lon="-0.74738">
        <ele>1635.8</ele>
        <time>2010-02-24T11:26:25Z</time>
      </trkpt>
      <trkpt lat="42.97816" lon="-0.74738">
        <ele>1635.6</ele>
        <time>2010-02-24T11:26:29Z</time>
      </trkpt>
      <trkpt lat="42.97816" lon="-0.74738">
        <ele>1635.6</ele>
        <time>2010-02-24T11:26:32Z</time>
      </trkpt>
      <trkpt lat="42.97816" lon="-0.74738">
        <ele>1635.5</ele>
        <time>2010-02-24T11:26:33Z</time>
      </trkpt>
      <trkpt lat="42.97816" lon="-0.74738">
        <ele>1635.6</ele>
        <time>2010-02-24T11:26:38Z</time>
      </trkpt>
      <trkpt lat="42.97816" lon="-0.74738">
        <ele>1635.7</ele>
        <time>2010-02-24T11:26:41Z</time>
      </trkpt>
      <trkpt lat="42.97816" lon="-0.74739">
        <ele>1635.8</ele>
        <time>2010-02-24T11:26:42Z</time>
      </trkpt>
      <trkpt lat="42.97815" lon="-0.74739">
        <ele>1635.8</ele>
        <time>2010-02-24T11:26:51Z</time>
      </trkpt>
      <trkpt lat="42.97815" lon="-0.74739">
        <ele>1635.9</ele>
        <time>2010-02-24T11:26:52Z</time>
      </trkpt>
      <trkpt lat="42.97815" lon="-0.74739">
        <ele>1635.8</ele>
        <time>2010-02-24T11:26:53Z</time>
      </trkpt>
      <trkpt lat="42.97816" lon="-0.74739">
        <ele>1635.7</ele>
        <time>2010-02-24T11:26:56Z</time>
      </trkpt>
      <trkpt lat="42.97816" lon="-0.74738">
        <ele>1635.7</ele>
        <time>2010-02-24T11:27:01Z</time>
      </trkpt>
      <trkpt lat="42.97816" lon="-0.74737">
        <ele>1635.7</ele>
        <time>2010-02-24T11:27:02Z</time>
      </trkpt>
      <trkpt lat="42.97816" lon="-0.74737">
        <ele>1635.7</ele>
        <time>2010-02-24T11:27:05Z</time>
      </trkpt>
      <trkpt lat="42.97816" lon="-0.74737">
        <ele>1635.7</ele>
        <time>2010-02-24T11:27:06Z</time>
      </trkpt>
      <trkpt lat="42.97817" lon="-0.74737">
        <ele>1635.4</ele>
        <time>2010-02-24T11:27:08Z</time>
      </trkpt>
      <trkpt lat="42.97818" lon="-0.74736">
        <ele>1635.1</ele>
        <time>2010-02-24T11:27:10Z</time>
      </trkpt>
      <trkpt lat="42.97818" lon="-0.74735">
        <ele>1635.1</ele>
        <time>2010-02-24T11:27:13Z</time>
      </trkpt>
      <trkpt lat="42.97818" lon="-0.74735">
        <ele>1635.2</ele>
        <time>2010-02-24T11:27:16Z</time>
      </trkpt>
      <trkpt lat="42.97818" lon="-0.74734">
        <ele>1635.3</ele>
        <time>2010-02-24T11:27:22Z</time>
      </trkpt>
      <trkpt lat="42.97818" lon="-0.74734">
        <ele>1635.3</ele>
        <time>2010-02-24T11:27:23Z</time>
      </trkpt>
      <trkpt lat="42.97818" lon="-0.74732">
        <ele>1635.1</ele>
        <time>2010-02-24T11:27:27Z</time>
      </trkpt>
      <trkpt lat="42.97819" lon="-0.74731">
        <ele>1634.9</ele>
        <time>2010-02-24T11:27:32Z</time>
      </trkpt>
      <trkpt lat="42.9782" lon="-0.74731">
        <ele>1634.7</ele>
        <time>2010-02-24T11:27:34Z</time>
      </trkpt>
      <trkpt lat="42.9782" lon="-0.7473">
        <ele>1634.8</ele>
        <time>2010-02-24T11:27:36Z</time>
      </trkpt>
      <trkpt lat="42.97821" lon="-0.74727">
        <ele>1634.5</ele>
        <time>2010-02-24T11:27:44Z</time>
      </trkpt>
      <trkpt lat="42.97822" lon="-0.74727">
        <ele>1634.3</ele>
        <time>2010-02-24T11:27:50Z</time>
      </trkpt>
      <trkpt lat="42.97822" lon="-0.74727">
        <ele>1634.2</ele>
        <time>2010-02-24T11:27:51Z</time>
      </trkpt>
      <trkpt lat="42.97821" lon="-0.74727">
        <ele>1634.4</ele>
        <time>2010-02-24T11:27:55Z</time>
      </trkpt>
      <trkpt lat="42.97822" lon="-0.74727">
        <ele>1634.3</ele>
        <time>2010-02-24T11:27:56Z</time>
      </trkpt>
      <trkpt lat="42.97822" lon="-0.74726">
        <ele>1634.2</ele>
        <time>2010-02-24T11:28:01Z</time>
      </trkpt>
      <trkpt lat="42.97822" lon="-0.74725">
        <ele>1634.2</ele>
        <time>2010-02-24T11:28:02Z</time>
      </trkpt>
      <trkpt lat="42.97822" lon="-0.74725">
        <ele>1634.3</ele>
        <time>2010-02-24T11:28:05Z</time>
      </trkpt>
      <trkpt lat="42.97822" lon="-0.74725">
        <ele>1634.2</ele>
        <time>2010-02-24T11:28:06Z</time>
      </trkpt>
      <trkpt lat="42.97822" lon="-0.74724">
        <ele>1634.1</ele>
        <time>2010-02-24T11:28:12Z</time>
      </trkpt>
      <trkpt lat="42.97822" lon="-0.74724">
        <ele>1634.2</ele>
        <time>2010-02-24T11:28:13Z</time>
      </trkpt>
      <trkpt lat="42.97822" lon="-0.74723">
        <ele>1634.2</ele>
        <time>2010-02-24T11:28:16Z</time>
      </trkpt>
      <trkpt lat="42.97822" lon="-0.74722">
        <ele>1634.3</ele>
        <time>2010-02-24T11:28:18Z</time>
      </trkpt>
      <trkpt lat="42.97822" lon="-0.74721">
        <ele>1634.3</ele>
        <time>2010-02-24T11:28:26Z</time>
      </trkpt>
      <trkpt lat="42.97821" lon="-0.7472">
        <ele>1634.4</ele>
        <time>2010-02-24T11:28:41Z</time>
      </trkpt>
      <trkpt lat="42.9782" lon="-0.7472">
        <ele>1634.5</ele>
        <time>2010-02-24T11:28:48Z</time>
      </trkpt>
      <trkpt lat="42.9782" lon="-0.74719">
        <ele>1634.5</ele>
        <time>2010-02-24T11:28:52Z</time>
      </trkpt>
      <trkpt lat="42.9782" lon="-0.74719">
        <ele>1634.7</ele>
        <time>2010-02-24T11:28:56Z</time>
      </trkpt>
      <trkpt lat="42.97819" lon="-0.74718">
        <ele>1634.7</ele>
        <time>2010-02-24T11:28:58Z</time>
      </trkpt>
      <trkpt lat="42.97818" lon="-0.74717">
        <ele>1634.9</ele>
        <time>2010-02-24T11:28:59Z</time>
      </trkpt>
      <trkpt lat="42.97817" lon="-0.74717">
        <ele>1635.4</ele>
        <time>2010-02-24T11:29:04Z</time>
      </trkpt>
      <trkpt lat="42.97816" lon="-0.74717">
        <ele>1635.5</ele>
        <time>2010-02-24T11:29:05Z</time>
      </trkpt>
      <trkpt lat="42.97816" lon="-0.74716">
        <ele>1635.6</ele>
        <time>2010-02-24T11:29:06Z</time>
      </trkpt>
      <trkpt lat="42.97814" lon="-0.74715">
        <ele>1636</ele>
        <time>2010-02-24T11:29:08Z</time>
      </trkpt>
      <trkpt lat="42.97813" lon="-0.74716">
        <ele>1636.4</ele>
        <time>2010-02-24T11:29:10Z</time>
      </trkpt>
      <trkpt lat="42.97811" lon="-0.74715">
        <ele>1636.8</ele>
        <time>2010-02-24T11:29:14Z</time>
      </trkpt>
      <trkpt lat="42.97808" lon="-0.74713">
        <ele>1637.7</ele>
        <time>2010-02-24T11:29:16Z</time>
      </trkpt>
      <trkpt lat="42.97801" lon="-0.74714">
        <ele>1638.7</ele>
        <time>2010-02-24T11:29:19Z</time>
      </trkpt>
      <trkpt lat="42.97798" lon="-0.74714">
        <ele>1638.8</ele>
        <time>2010-02-24T11:29:22Z</time>
      </trkpt>
      <trkpt lat="42.97794" lon="-0.74714">
        <ele>1639.1</ele>
        <time>2010-02-24T11:29:24Z</time>
      </trkpt>
      <trkpt lat="42.97791" lon="-0.74714">
        <ele>1639.3</ele>
        <time>2010-02-24T11:29:26Z</time>
      </trkpt>
      <trkpt lat="42.97787" lon="-0.74714">
        <ele>1639.5</ele>
        <time>2010-02-24T11:29:28Z</time>
      </trkpt>
      <trkpt lat="42.97783" lon="-0.74714">
        <ele>1639.7</ele>
        <time>2010-02-24T11:29:29Z</time>
      </trkpt>
      <trkpt lat="42.97781" lon="-0.74714">
        <ele>1639.8</ele>
        <time>2010-02-24T11:29:30Z</time>
      </trkpt>
      <trkpt lat="42.97772" lon="-0.74711">
        <ele>1641.5</ele>
        <time>2010-02-24T11:29:36Z</time>
      </trkpt>
      <trkpt lat="42.97768" lon="-0.7471">
        <ele>1642.4</ele>
        <time>2010-02-24T11:29:38Z</time>
      </trkpt>
      <trkpt lat="42.97749" lon="-0.74707">
        <ele>1646.7</ele>
        <time>2010-02-24T11:29:48Z</time>
      </trkpt>
      <trkpt lat="42.97738" lon="-0.74705">
        <ele>1648.3</ele>
        <time>2010-02-24T11:29:54Z</time>
      </trkpt>
      <trkpt lat="42.97734" lon="-0.74704">
        <ele>1648.8</ele>
        <time>2010-02-24T11:29:56Z</time>
      </trkpt>
      <trkpt lat="42.97714" lon="-0.747">
        <ele>1651.6</ele>
        <time>2010-02-24T11:30:07Z</time>
      </trkpt>
      <trkpt lat="42.9771" lon="-0.747">
        <ele>1652</ele>
        <time>2010-02-24T11:30:09Z</time>
      </trkpt>
      <trkpt lat="42.97703" lon="-0.74699">
        <ele>1653</ele>
        <time>2010-02-24T11:30:15Z</time>
      </trkpt>
      <trkpt lat="42.977" lon="-0.74698">
        <ele>1653.4</ele>
        <time>2010-02-24T11:30:17Z</time>
      </trkpt>
      <trkpt lat="42.9769" lon="-0.74697">
        <ele>1655.1</ele>
        <time>2010-02-24T11:30:23Z</time>
      </trkpt>
      <trkpt lat="42.97666" lon="-0.74692">
        <ele>1659.9</ele>
        <time>2010-02-24T11:30:36Z</time>
      </trkpt>
      <trkpt lat="42.97628" lon="-0.74686">
        <ele>1667.7</ele>
        <time>2010-02-24T11:30:57Z</time>
      </trkpt>
      <trkpt lat="42.97625" lon="-0.74685">
        <ele>1668.7</ele>
        <time>2010-02-24T11:30:59Z</time>
      </trkpt>
      <trkpt lat="42.97598" lon="-0.7468">
        <ele>1674.8</ele>
        <time>2010-02-24T11:31:14Z</time>
      </trkpt>
      <trkpt lat="42.97595" lon="-0.7468">
        <ele>1675.4</ele>
        <time>2010-02-24T11:31:16Z</time>
      </trkpt>
      <trkpt lat="42.97593" lon="-0.7468">
        <ele>1675.7</ele>
        <time>2010-02-24T11:31:17Z</time>
      </trkpt>
      <trkpt lat="42.97588" lon="-0.7468">
        <ele>1676.6</ele>
        <time>2010-02-24T11:31:20Z</time>
      </trkpt>
      <trkpt lat="42.97585" lon="-0.74679">
        <ele>1677.2</ele>
        <time>2010-02-24T11:31:21Z</time>
      </trkpt>
      <trkpt lat="42.97576" lon="-0.74677">
        <ele>1677.5</ele>
        <time>2010-02-24T11:31:27Z</time>
      </trkpt>
      <trkpt lat="42.97572" lon="-0.74677">
        <ele>1677.5</ele>
        <time>2010-02-24T11:31:29Z</time>
      </trkpt>
      <trkpt lat="42.97568" lon="-0.74676">
        <ele>1677.5</ele>
        <time>2010-02-24T11:31:30Z</time>
      </trkpt>
      <trkpt lat="42.97542" lon="-0.74671">
        <ele>1674.8</ele>
        <time>2010-02-24T11:31:44Z</time>
      </trkpt>
      <trkpt lat="42.97517" lon="-0.74667">
        <ele>1673.6</ele>
        <time>2010-02-24T11:31:59Z</time>
      </trkpt>
      <trkpt lat="42.97513" lon="-0.74666">
        <ele>1674.2</ele>
        <time>2010-02-24T11:32:01Z</time>
      </trkpt>
      <trkpt lat="42.97477" lon="-0.7466">
        <ele>1678</ele>
        <time>2010-02-24T11:32:21Z</time>
      </trkpt>
      <trkpt lat="42.97473" lon="-0.74659">
        <ele>1678.1</ele>
        <time>2010-02-24T11:32:22Z</time>
      </trkpt>
      <trkpt lat="42.97464" lon="-0.74658">
        <ele>1681</ele>
        <time>2010-02-24T11:32:28Z</time>
      </trkpt>
      <trkpt lat="42.97459" lon="-0.74657">
        <ele>1683</ele>
        <time>2010-02-24T11:32:31Z</time>
      </trkpt>
      <trkpt lat="42.97457" lon="-0.74657">
        <ele>1683.6</ele>
        <time>2010-02-24T11:32:32Z</time>
      </trkpt>
      <trkpt lat="42.97454" lon="-0.74656">
        <ele>1684.9</ele>
        <time>2010-02-24T11:32:33Z</time>
      </trkpt>
      <trkpt lat="42.97444" lon="-0.74655">
        <ele>1688.5</ele>
        <time>2010-02-24T11:32:39Z</time>
      </trkpt>
      <trkpt lat="42.97443" lon="-0.74654">
        <ele>1688.8</ele>
        <time>2010-02-24T11:32:40Z</time>
      </trkpt>
      <trkpt lat="42.97439" lon="-0.74654">
        <ele>1689.4</ele>
        <time>2010-02-24T11:32:42Z</time>
      </trkpt>
      <trkpt lat="42.97434" lon="-0.74653">
        <ele>1690.5</ele>
        <time>2010-02-24T11:32:44Z</time>
      </trkpt>
      <trkpt lat="42.97432" lon="-0.74653">
        <ele>1690.8</ele>
        <time>2010-02-24T11:32:45Z</time>
      </trkpt>
      <trkpt lat="42.97419" lon="-0.74651">
        <ele>1693.1</ele>
        <time>2010-02-24T11:32:52Z</time>
      </trkpt>
      <trkpt lat="42.97412" lon="-0.74649">
        <ele>1694.9</ele>
        <time>2010-02-24T11:32:57Z</time>
      </trkpt>
      <trkpt lat="42.97405" lon="-0.74648">
        <ele>1696.9</ele>
        <time>2010-02-24T11:33:01Z</time>
      </trkpt>
      <trkpt lat="42.97396" lon="-0.74646">
        <ele>1699.2</ele>
        <time>2010-02-24T11:33:05Z</time>
      </trkpt>
      <trkpt lat="42.97393" lon="-0.74645">
        <ele>1700.2</ele>
        <time>2010-02-24T11:33:08Z</time>
      </trkpt>
      <trkpt lat="42.97388" lon="-0.74645">
        <ele>1701.6</ele>
        <time>2010-02-24T11:33:11Z</time>
      </trkpt>
      <trkpt lat="42.97386" lon="-0.74644">
        <ele>1702</ele>
        <time>2010-02-24T11:33:12Z</time>
      </trkpt>
      <trkpt lat="42.97384" lon="-0.74644">
        <ele>1702.7</ele>
        <time>2010-02-24T11:33:14Z</time>
      </trkpt>
      <trkpt lat="42.97383" lon="-0.74643">
        <ele>1702.8</ele>
        <time>2010-02-24T11:33:15Z</time>
      </trkpt>
      <trkpt lat="42.97374" lon="-0.74642">
        <ele>1705.5</ele>
        <time>2010-02-24T11:33:25Z</time>
      </trkpt>
      <trkpt lat="42.97372" lon="-0.74641">
        <ele>1706</ele>
        <time>2010-02-24T11:33:26Z</time>
      </trkpt>
      <trkpt lat="42.97368" lon="-0.74641">
        <ele>1707.3</ele>
        <time>2010-02-24T11:33:30Z</time>
      </trkpt>
      <trkpt lat="42.97366" lon="-0.74641">
        <ele>1707.8</ele>
        <time>2010-02-24T11:33:31Z</time>
      </trkpt>
      <trkpt lat="42.9735" lon="-0.74638">
        <ele>1712.2</ele>
        <time>2010-02-24T11:33:40Z</time>
      </trkpt>
      <trkpt lat="42.97343" lon="-0.74636">
        <ele>1714.1</ele>
        <time>2010-02-24T11:33:44Z</time>
      </trkpt>
      <trkpt lat="42.97333" lon="-0.74633">
        <ele>1717</ele>
        <time>2010-02-24T11:33:50Z</time>
      </trkpt>
      <trkpt lat="42.97322" lon="-0.74631">
        <ele>1717.6</ele>
        <time>2010-02-24T11:33:55Z</time>
      </trkpt>
      <trkpt lat="42.9732" lon="-0.74631">
        <ele>1717.8</ele>
        <time>2010-02-24T11:33:56Z</time>
      </trkpt>
      <trkpt lat="42.97286" lon="-0.74625">
        <ele>1721.8</ele>
        <time>2010-02-24T11:34:15Z</time>
      </trkpt>
      <trkpt lat="42.97273" lon="-0.74623">
        <ele>1723.8</ele>
        <time>2010-02-24T11:34:23Z</time>
      </trkpt>
      <trkpt lat="42.97272" lon="-0.74623">
        <ele>1724.1</ele>
        <time>2010-02-24T11:34:24Z</time>
      </trkpt>
      <trkpt lat="42.97247" lon="-0.74619">
        <ele>1729</ele>
        <time>2010-02-24T11:34:41Z</time>
      </trkpt>
      <trkpt lat="42.97238" lon="-0.74619">
        <ele>1732.2</ele>
        <time>2010-02-24T11:34:47Z</time>
      </trkpt>
      <trkpt lat="42.97237" lon="-0.74619">
        <ele>1732.7</ele>
        <time>2010-02-24T11:34:48Z</time>
      </trkpt>
      <trkpt lat="42.97236" lon="-0.74618">
        <ele>1733.1</ele>
        <time>2010-02-24T11:34:50Z</time>
      </trkpt>
      <trkpt lat="42.97227" lon="-0.74617">
        <ele>1736.2</ele>
        <time>2010-02-24T11:34:56Z</time>
      </trkpt>
      <trkpt lat="42.97221" lon="-0.74616">
        <ele>1737.7</ele>
        <time>2010-02-24T11:34:58Z</time>
      </trkpt>
      <trkpt lat="42.97219" lon="-0.74616">
        <ele>1737.6</ele>
        <time>2010-02-24T11:34:59Z</time>
      </trkpt>
      <trkpt lat="42.97212" lon="-0.74614">
        <ele>1737.2</ele>
        <time>2010-02-24T11:35:04Z</time>
      </trkpt>
      <trkpt lat="42.97199" lon="-0.74612">
        <ele>1736.3</ele>
        <time>2010-02-24T11:35:11Z</time>
      </trkpt>
      <trkpt lat="42.97183" lon="-0.7461">
        <ele>1738.9</ele>
        <time>2010-02-24T11:35:19Z</time>
      </trkpt>
      <trkpt lat="42.97163" lon="-0.74606">
        <ele>1744.3</ele>
        <time>2010-02-24T11:35:30Z</time>
      </trkpt>
      <trkpt lat="42.9716" lon="-0.74605">
        <ele>1745.9</ele>
        <time>2010-02-24T11:35:33Z</time>
      </trkpt>
      <trkpt lat="42.97158" lon="-0.74605">
        <ele>1746.7</ele>
        <time>2010-02-24T11:35:34Z</time>
      </trkpt>
      <trkpt lat="42.97152" lon="-0.74603">
        <ele>1748.6</ele>
        <time>2010-02-24T11:35:36Z</time>
      </trkpt>
      <trkpt lat="42.97147" lon="-0.74603">
        <ele>1750.6</ele>
        <time>2010-02-24T11:35:39Z</time>
      </trkpt>
      <trkpt lat="42.97142" lon="-0.74601">
        <ele>1752.3</ele>
        <time>2010-02-24T11:35:42Z</time>
      </trkpt>
      <trkpt lat="42.97138" lon="-0.74601">
        <ele>1753.5</ele>
        <time>2010-02-24T11:35:43Z</time>
      </trkpt>
      <trkpt lat="42.97135" lon="-0.74602">
        <ele>1753.5</ele>
        <time>2010-02-24T11:35:44Z</time>
      </trkpt>
      <trkpt lat="42.97131" lon="-0.74605">
        <ele>1753.5</ele>
        <time>2010-02-24T11:35:45Z</time>
      </trkpt>
      <trkpt lat="42.97129" lon="-0.74608">
        <ele>1753.7</ele>
        <time>2010-02-24T11:35:46Z</time>
      </trkpt>
      <trkpt lat="42.97129" lon="-0.74615">
        <ele>1753.7</ele>
        <time>2010-02-24T11:35:47Z</time>
      </trkpt>
      <trkpt lat="42.9713" lon="-0.74617">
        <ele>1753.6</ele>
        <time>2010-02-24T11:35:48Z</time>
      </trkpt>
      <trkpt lat="42.97132" lon="-0.74619">
        <ele>1753.6</ele>
        <time>2010-02-24T11:35:49Z</time>
      </trkpt>
      <trkpt lat="42.97137" lon="-0.74621">
        <ele>1753.6</ele>
        <time>2010-02-24T11:35:53Z</time>
      </trkpt>
      <trkpt lat="42.97139" lon="-0.74621">
        <ele>1753.5</ele>
        <time>2010-02-24T11:35:55Z</time>
      </trkpt>
      <trkpt lat="42.9714" lon="-0.74622">
        <ele>1753</ele>
        <time>2010-02-24T11:35:57Z</time>
      </trkpt>
      <trkpt lat="42.97142" lon="-0.74623">
        <ele>1752.3</ele>
        <time>2010-02-24T11:35:59Z</time>
      </trkpt>
      <trkpt lat="42.97143" lon="-0.74625">
        <ele>1751.5</ele>
        <time>2010-02-24T11:36:03Z</time>
      </trkpt>
      <trkpt lat="42.97144" lon="-0.74625">
        <ele>1751.3</ele>
        <time>2010-02-24T11:36:06Z</time>
      </trkpt>
      <trkpt lat="42.97144" lon="-0.74625">
        <ele>1751.1</ele>
        <time>2010-02-24T11:36:08Z</time>
      </trkpt>
      <trkpt lat="42.97144" lon="-0.74625">
        <ele>1751</ele>
        <time>2010-02-24T11:36:09Z</time>
      </trkpt>
      <trkpt lat="42.97145" lon="-0.74633">
        <ele>1749.8</ele>
        <time>2010-02-24T11:36:14Z</time>
      </trkpt>
      <trkpt lat="42.97146" lon="-0.74637">
        <ele>1749.2</ele>
        <time>2010-02-24T11:36:15Z</time>
      </trkpt>
      <trkpt lat="42.97147" lon="-0.74641">
        <ele>1748.7</ele>
        <time>2010-02-24T11:36:16Z</time>
      </trkpt>
      <trkpt lat="42.97151" lon="-0.7465">
        <ele>1748.2</ele>
        <time>2010-02-24T11:36:18Z</time>
      </trkpt>
      <trkpt lat="42.97157" lon="-0.7466">
        <ele>1747.2</ele>
        <time>2010-02-24T11:36:19Z</time>
      </trkpt>
      <trkpt lat="42.97161" lon="-0.74666">
        <ele>1746.5</ele>
        <time>2010-02-24T11:36:20Z</time>
      </trkpt>
      <trkpt lat="42.97166" lon="-0.74672">
        <ele>1746.2</ele>
        <time>2010-02-24T11:36:21Z</time>
      </trkpt>
      <trkpt lat="42.97176" lon="-0.74683">
        <ele>1744.7</ele>
        <time>2010-02-24T11:36:24Z</time>
      </trkpt>
      <trkpt lat="42.97181" lon="-0.7469">
        <ele>1743.9</ele>
        <time>2010-02-24T11:36:25Z</time>
      </trkpt>
      <trkpt lat="42.97186" lon="-0.74697">
        <ele>1743.2</ele>
        <time>2010-02-24T11:36:26Z</time>
      </trkpt>
      <trkpt lat="42.9719" lon="-0.74707">
        <ele>1742</ele>
        <time>2010-02-24T11:36:27Z</time>
      </trkpt>
      <trkpt lat="42.97199" lon="-0.74725">
        <ele>1739.6</ele>
        <time>2010-02-24T11:36:28Z</time>
      </trkpt>
      <trkpt lat="42.97207" lon="-0.74733">
        <ele>1738.7</ele>
        <time>2010-02-24T11:36:29Z</time>
      </trkpt>
      <trkpt lat="42.97215" lon="-0.74739">
        <ele>1737</ele>
        <time>2010-02-24T11:36:30Z</time>
      </trkpt>
      <trkpt lat="42.97225" lon="-0.74744">
        <ele>1734.7</ele>
        <time>2010-02-24T11:36:31Z</time>
      </trkpt>
      <trkpt lat="42.97242" lon="-0.74752">
        <ele>1732.1</ele>
        <time>2010-02-24T11:36:34Z</time>
      </trkpt>
      <trkpt lat="42.97251" lon="-0.74753">
        <ele>1731.2</ele>
        <time>2010-02-24T11:36:35Z</time>
      </trkpt>
      <trkpt lat="42.9726" lon="-0.74752">
        <ele>1729.8</ele>
        <time>2010-02-24T11:36:36Z</time>
      </trkpt>
      <trkpt lat="42.97269" lon="-0.74747">
        <ele>1728.3</ele>
        <time>2010-02-24T11:36:37Z</time>
      </trkpt>
      <trkpt lat="42.97278" lon="-0.7474">
        <ele>1726.2</ele>
        <time>2010-02-24T11:36:38Z</time>
      </trkpt>
      <trkpt lat="42.97304" lon="-0.74711">
        <ele>1720.1</ele>
        <time>2010-02-24T11:36:40Z</time>
      </trkpt>
      <trkpt lat="42.97321" lon="-0.74694">
        <ele>1718.9</ele>
        <time>2010-02-24T11:36:43Z</time>
      </trkpt>
      <trkpt lat="42.9733" lon="-0.74687">
        <ele>1717.6</ele>
        <time>2010-02-24T11:36:44Z</time>
      </trkpt>
      <trkpt lat="42.97345" lon="-0.74672">
        <ele>1714.1</ele>
        <time>2010-02-24T11:36:46Z</time>
      </trkpt>
      <trkpt lat="42.97352" lon="-0.74663">
        <ele>1712.8</ele>
        <time>2010-02-24T11:36:47Z</time>
      </trkpt>
      <trkpt lat="42.97359" lon="-0.74655">
        <ele>1711</ele>
        <time>2010-02-24T11:36:48Z</time>
      </trkpt>
      <trkpt lat="42.97374" lon="-0.74638">
        <ele>1705.3</ele>
        <time>2010-02-24T11:36:49Z</time>
      </trkpt>
      <trkpt lat="42.97383" lon="-0.74629">
        <ele>1703.1</ele>
        <time>2010-02-24T11:36:50Z</time>
      </trkpt>
      <trkpt lat="42.97391" lon="-0.7462">
        <ele>1701.2</ele>
        <time>2010-02-24T11:36:51Z</time>
      </trkpt>
      <trkpt lat="42.97398" lon="-0.74609">
        <ele>1699.8</ele>
        <time>2010-02-24T11:36:52Z</time>
      </trkpt>
      <trkpt lat="42.97413" lon="-0.7459">
        <ele>1698.1</ele>
        <time>2010-02-24T11:36:55Z</time>
      </trkpt>
      <trkpt lat="42.97419" lon="-0.74585">
        <ele>1697.3</ele>
        <time>2010-02-24T11:36:56Z</time>
      </trkpt>
      <trkpt lat="42.97422" lon="-0.74585">
        <ele>1696.7</ele>
        <time>2010-02-24T11:36:57Z</time>
      </trkpt>
      <trkpt lat="42.97421" lon="-0.74587">
        <ele>1696.7</ele>
        <time>2010-02-24T11:36:58Z</time>
      </trkpt>
      <trkpt lat="42.9742" lon="-0.74589">
        <ele>1696.7</ele>
        <time>2010-02-24T11:36:59Z</time>
      </trkpt>
      <trkpt lat="42.97419" lon="-0.74592">
        <ele>1696.6</ele>
        <time>2010-02-24T11:37:01Z</time>
      </trkpt>
      <trkpt lat="42.97419" lon="-0.74597">
        <ele>1696.1</ele>
        <time>2010-02-24T11:37:04Z</time>
      </trkpt>
      <trkpt lat="42.97418" lon="-0.746">
        <ele>1695.9</ele>
        <time>2010-02-24T11:37:07Z</time>
      </trkpt>
      <trkpt lat="42.97417" lon="-0.74601">
        <ele>1696</ele>
        <time>2010-02-24T11:37:09Z</time>
      </trkpt>
      <trkpt lat="42.97417" lon="-0.746">
        <ele>1696.1</ele>
        <time>2010-02-24T11:37:10Z</time>
      </trkpt>
      <trkpt lat="42.97416" lon="-0.74601">
        <ele>1696.2</ele>
        <time>2010-02-24T11:37:13Z</time>
      </trkpt>
      <trkpt lat="42.97416" lon="-0.746">
        <ele>1696.3</ele>
        <time>2010-02-24T11:37:15Z</time>
      </trkpt>
      <trkpt lat="42.97416" lon="-0.746">
        <ele>1696.3</ele>
        <time>2010-02-24T11:37:16Z</time>
      </trkpt>
      <trkpt lat="42.97419" lon="-0.74607">
        <ele>1695.1</ele>
        <time>2010-02-24T11:37:21Z</time>
      </trkpt>
      <trkpt lat="42.9742" lon="-0.74609">
        <ele>1694.6</ele>
        <time>2010-02-24T11:37:24Z</time>
      </trkpt>
      <trkpt lat="42.97423" lon="-0.74615">
        <ele>1693.8</ele>
        <time>2010-02-24T11:37:26Z</time>
      </trkpt>
      <trkpt lat="42.97424" lon="-0.74619">
        <ele>1693.4</ele>
        <time>2010-02-24T11:37:27Z</time>
      </trkpt>
      <trkpt lat="42.9743" lon="-0.74642">
        <ele>1691.6</ele>
        <time>2010-02-24T11:37:30Z</time>
      </trkpt>
      <trkpt lat="42.97432" lon="-0.7465">
        <ele>1690.8</ele>
        <time>2010-02-24T11:37:31Z</time>
      </trkpt>
      <trkpt lat="42.97434" lon="-0.74659">
        <ele>1690.1</ele>
        <time>2010-02-24T11:37:33Z</time>
      </trkpt>
      <trkpt lat="42.97439" lon="-0.74682">
        <ele>1688.8</ele>
        <time>2010-02-24T11:37:36Z</time>
      </trkpt>
      <trkpt lat="42.97442" lon="-0.7469">
        <ele>1687.9</ele>
        <time>2010-02-24T11:37:37Z</time>
      </trkpt>
      <trkpt lat="42.97445" lon="-0.74698">
        <ele>1686.6</ele>
        <time>2010-02-24T11:37:38Z</time>
      </trkpt>
      <trkpt lat="42.97456" lon="-0.74713">
        <ele>1683.8</ele>
        <time>2010-02-24T11:37:39Z</time>
      </trkpt>
      <trkpt lat="42.9746" lon="-0.74722">
        <ele>1682.7</ele>
        <time>2010-02-24T11:37:40Z</time>
      </trkpt>
      <trkpt lat="42.97465" lon="-0.7473">
        <ele>1681.5</ele>
        <time>2010-02-24T11:37:41Z</time>
      </trkpt>
      <trkpt lat="42.97472" lon="-0.74737">
        <ele>1679.6</ele>
        <time>2010-02-24T11:37:42Z</time>
      </trkpt>
      <trkpt lat="42.97479" lon="-0.74741">
        <ele>1678.4</ele>
        <time>2010-02-24T11:37:43Z</time>
      </trkpt>
      <trkpt lat="42.97487" lon="-0.74741">
        <ele>1677.4</ele>
        <time>2010-02-24T11:37:45Z</time>
      </trkpt>
      <trkpt lat="42.97495" lon="-0.74737">
        <ele>1676.2</ele>
        <time>2010-02-24T11:37:46Z</time>
      </trkpt>
      <trkpt lat="42.97505" lon="-0.7473">
        <ele>1676.5</ele>
        <time>2010-02-24T11:37:47Z</time>
      </trkpt>
      <trkpt lat="42.97515" lon="-0.74721">
        <ele>1677.9</ele>
        <time>2010-02-24T11:37:48Z</time>
      </trkpt>
      <trkpt lat="42.97523" lon="-0.7471">
        <ele>1676.9</ele>
        <time>2010-02-24T11:37:49Z</time>
      </trkpt>
      <trkpt lat="42.97536" lon="-0.74688">
        <ele>1674.4</ele>
        <time>2010-02-24T11:37:50Z</time>
      </trkpt>
      <trkpt lat="42.9754" lon="-0.74676">
        <ele>1674.8</ele>
        <time>2010-02-24T11:37:51Z</time>
      </trkpt>
      <trkpt lat="42.97546" lon="-0.74665">
        <ele>1675.1</ele>
        <time>2010-02-24T11:37:52Z</time>
      </trkpt>
      <trkpt lat="42.97551" lon="-0.74654">
        <ele>1673.8</ele>
        <time>2010-02-24T11:37:53Z</time>
      </trkpt>
      <trkpt lat="42.97563" lon="-0.74633">
        <ele>1671.3</ele>
        <time>2010-02-24T11:37:56Z</time>
      </trkpt>
      <trkpt lat="42.97572" lon="-0.74611">
        <ele>1670.7</ele>
        <time>2010-02-24T11:37:58Z</time>
      </trkpt>
      <trkpt lat="42.97576" lon="-0.74601">
        <ele>1670.3</ele>
        <time>2010-02-24T11:37:59Z</time>
      </trkpt>
      <trkpt lat="42.97583" lon="-0.74592">
        <ele>1669.9</ele>
        <time>2010-02-24T11:38:00Z</time>
      </trkpt>
      <trkpt lat="42.97584" lon="-0.74592">
        <ele>1670</ele>
        <time>2010-02-24T11:38:01Z</time>
      </trkpt>
      <trkpt lat="42.97584" lon="-0.74593">
        <ele>1670</ele>
        <time>2010-02-24T11:38:05Z</time>
      </trkpt>
      <trkpt lat="42.97583" lon="-0.74594">
        <ele>1670.2</ele>
        <time>2010-02-24T11:38:10Z</time>
      </trkpt>
      <trkpt lat="42.97582" lon="-0.74595">
        <ele>1670.2</ele>
        <time>2010-02-24T11:38:19Z</time>
      </trkpt>
      <trkpt lat="42.97582" lon="-0.74596">
        <ele>1670.3</ele>
        <time>2010-02-24T11:38:24Z</time>
      </trkpt>
      <trkpt lat="42.97582" lon="-0.74596">
        <ele>1670.3</ele>
        <time>2010-02-24T11:38:26Z</time>
      </trkpt>
      <trkpt lat="42.97582" lon="-0.74597">
        <ele>1670.3</ele>
        <time>2010-02-24T11:38:31Z</time>
      </trkpt>
      <trkpt lat="42.97582" lon="-0.74597">
        <ele>1670.3</ele>
        <time>2010-02-24T11:38:35Z</time>
      </trkpt>
      <trkpt lat="42.97582" lon="-0.74597">
        <ele>1670.4</ele>
        <time>2010-02-24T11:38:38Z</time>
      </trkpt>
      <trkpt lat="42.97581" lon="-0.74597">
        <ele>1670.4</ele>
        <time>2010-02-24T11:38:41Z</time>
      </trkpt>
      <trkpt lat="42.97581" lon="-0.74597">
        <ele>1670.3</ele>
        <time>2010-02-24T11:38:43Z</time>
      </trkpt>
      <trkpt lat="42.97581" lon="-0.74597">
        <ele>1670.3</ele>
        <time>2010-02-24T11:38:48Z</time>
      </trkpt>
      <trkpt lat="42.97582" lon="-0.74598">
        <ele>1670.4</ele>
        <time>2010-02-24T11:38:51Z</time>
      </trkpt>
      <trkpt lat="42.97582" lon="-0.74599">
        <ele>1670.6</ele>
        <time>2010-02-24T11:38:56Z</time>
      </trkpt>
      <trkpt lat="42.97583" lon="-0.74601">
        <ele>1670.8</ele>
        <time>2010-02-24T11:38:58Z</time>
      </trkpt>
      <trkpt lat="42.97583" lon="-0.74603">
        <ele>1671.1</ele>
        <time>2010-02-24T11:39:00Z</time>
      </trkpt>
      <trkpt lat="42.97584" lon="-0.74606">
        <ele>1671.4</ele>
        <time>2010-02-24T11:39:02Z</time>
      </trkpt>
      <trkpt lat="42.97585" lon="-0.74607">
        <ele>1671.5</ele>
        <time>2010-02-24T11:39:04Z</time>
      </trkpt>
      <trkpt lat="42.97586" lon="-0.74611">
        <ele>1671.8</ele>
        <time>2010-02-24T11:39:08Z</time>
      </trkpt>
      <trkpt lat="42.97592" lon="-0.74629">
        <ele>1672.3</ele>
        <time>2010-02-24T11:39:16Z</time>
      </trkpt>
      <trkpt lat="42.97593" lon="-0.74632">
        <ele>1672.2</ele>
        <time>2010-02-24T11:39:18Z</time>
      </trkpt>
      <trkpt lat="42.97594" lon="-0.74633">
        <ele>1672.1</ele>
        <time>2010-02-24T11:39:20Z</time>
      </trkpt>
      <trkpt lat="42.97598" lon="-0.74633">
        <ele>1671.7</ele>
        <time>2010-02-24T11:39:24Z</time>
      </trkpt>
      <trkpt lat="42.976" lon="-0.74632">
        <ele>1671.5</ele>
        <time>2010-02-24T11:39:25Z</time>
      </trkpt>
      <trkpt lat="42.97601" lon="-0.74631">
        <ele>1671.2</ele>
        <time>2010-02-24T11:39:27Z</time>
      </trkpt>
      <trkpt lat="42.97602" lon="-0.7463">
        <ele>1671.1</ele>
        <time>2010-02-24T11:39:28Z</time>
      </trkpt>
      <trkpt lat="42.97602" lon="-0.74629">
        <ele>1671.1</ele>
        <time>2010-02-24T11:39:33Z</time>
      </trkpt>
      <trkpt lat="42.97602" lon="-0.74629">
        <ele>1671.1</ele>
        <time>2010-02-24T11:39:38Z</time>
      </trkpt>
      <trkpt lat="42.97602" lon="-0.7463">
        <ele>1671.1</ele>
        <time>2010-02-24T11:39:41Z</time>
      </trkpt>
      <trkpt lat="42.97605" lon="-0.74629">
        <ele>1670.7</ele>
        <time>2010-02-24T11:39:43Z</time>
      </trkpt>
      <trkpt lat="42.9761" lon="-0.74632">
        <ele>1670.1</ele>
        <time>2010-02-24T11:39:45Z</time>
      </trkpt>
      <trkpt lat="42.97614" lon="-0.74632">
        <ele>1669.2</ele>
        <time>2010-02-24T11:39:47Z</time>
      </trkpt>
      <trkpt lat="42.97619" lon="-0.74631">
        <ele>1667.8</ele>
        <time>2010-02-24T11:39:48Z</time>
      </trkpt>
      <trkpt lat="42.97624" lon="-0.74632">
        <ele>1666.4</ele>
        <time>2010-02-24T11:39:49Z</time>
      </trkpt>
      <trkpt lat="42.97628" lon="-0.74635">
        <ele>1665.1</ele>
        <time>2010-02-24T11:39:50Z</time>
      </trkpt>
      <trkpt lat="42.97632" lon="-0.74639">
        <ele>1663.9</ele>
        <time>2010-02-24T11:39:51Z</time>
      </trkpt>
      <trkpt lat="42.97639" lon="-0.74646">
        <ele>1662.5</ele>
        <time>2010-02-24T11:39:52Z</time>
      </trkpt>
      <trkpt lat="42.97645" lon="-0.74654">
        <ele>1662</ele>
        <time>2010-02-24T11:39:54Z</time>
      </trkpt>
      <trkpt lat="42.97648" lon="-0.7466">
        <ele>1661.7</ele>
        <time>2010-02-24T11:39:56Z</time>
      </trkpt>
      <trkpt lat="42.9765" lon="-0.74662">
        <ele>1661.5</ele>
        <time>2010-02-24T11:39:58Z</time>
      </trkpt>
      <trkpt lat="42.97652" lon="-0.74664">
        <ele>1661.1</ele>
        <time>2010-02-24T11:39:59Z</time>
      </trkpt>
      <trkpt lat="42.97655" lon="-0.74667">
        <ele>1660.5</ele>
        <time>2010-02-24T11:40:00Z</time>
      </trkpt>
      <trkpt lat="42.97658" lon="-0.7467">
        <ele>1660</ele>
        <time>2010-02-24T11:40:01Z</time>
      </trkpt>
      <trkpt lat="42.97671" lon="-0.74683">
        <ele>1658.5</ele>
        <time>2010-02-24T11:40:04Z</time>
      </trkpt>
      <trkpt lat="42.97673" lon="-0.74686">
        <ele>1658.2</ele>
        <time>2010-02-24T11:40:07Z</time>
      </trkpt>
      <trkpt lat="42.97673" lon="-0.74687">
        <ele>1658.3</ele>
        <time>2010-02-24T11:40:08Z</time>
      </trkpt>
      <trkpt lat="42.97673" lon="-0.74686">
        <ele>1658.2</ele>
        <time>2010-02-24T11:40:10Z</time>
      </trkpt>
      <trkpt lat="42.97674" lon="-0.74686">
        <ele>1658.1</ele>
        <time>2010-02-24T11:40:13Z</time>
      </trkpt>
      <trkpt lat="42.97675" lon="-0.74688">
        <ele>1658</ele>
        <time>2010-02-24T11:40:14Z</time>
      </trkpt>
      <trkpt lat="42.97676" lon="-0.74689">
        <ele>1657.8</ele>
        <time>2010-02-24T11:40:15Z</time>
      </trkpt>
      <trkpt lat="42.9768" lon="-0.74692">
        <ele>1657</ele>
        <time>2010-02-24T11:40:18Z</time>
      </trkpt>
      <trkpt lat="42.97687" lon="-0.74697">
        <ele>1655.6</ele>
        <time>2010-02-24T11:40:20Z</time>
      </trkpt>
      <trkpt lat="42.97692" lon="-0.74701">
        <ele>1654.8</ele>
        <time>2010-02-24T11:40:21Z</time>
      </trkpt>
      <trkpt lat="42.97696" lon="-0.74705">
        <ele>1654.2</ele>
        <time>2010-02-24T11:40:22Z</time>
      </trkpt>
      <trkpt lat="42.977" lon="-0.74711">
        <ele>1653.9</ele>
        <time>2010-02-24T11:40:23Z</time>
      </trkpt>
      <trkpt lat="42.97706" lon="-0.74722">
        <ele>1653.7</ele>
        <time>2010-02-24T11:40:24Z</time>
      </trkpt>
      <trkpt lat="42.97712" lon="-0.74736">
        <ele>1651.6</ele>
        <time>2010-02-24T11:40:26Z</time>
      </trkpt>
      <trkpt lat="42.97717" lon="-0.74744">
        <ele>1650.3</ele>
        <time>2010-02-24T11:40:27Z</time>
      </trkpt>
      <trkpt lat="42.97721" lon="-0.74752">
        <ele>1649</ele>
        <time>2010-02-24T11:40:29Z</time>
      </trkpt>
      <trkpt lat="42.97738" lon="-0.74777">
        <ele>1646.4</ele>
        <time>2010-02-24T11:40:32Z</time>
      </trkpt>
      <trkpt lat="42.97749" lon="-0.74795">
        <ele>1645.1</ele>
        <time>2010-02-24T11:40:33Z</time>
      </trkpt>
      <trkpt lat="42.97754" lon="-0.74804">
        <ele>1644.6</ele>
        <time>2010-02-24T11:40:34Z</time>
      </trkpt>
      <trkpt lat="42.97759" lon="-0.74813">
        <ele>1643.8</ele>
        <time>2010-02-24T11:40:35Z</time>
      </trkpt>
      <trkpt lat="42.97763" lon="-0.74823">
        <ele>1643</ele>
        <time>2010-02-24T11:40:36Z</time>
      </trkpt>
      <trkpt lat="42.97767" lon="-0.74831">
        <ele>1642.3</ele>
        <time>2010-02-24T11:40:38Z</time>
      </trkpt>
      <trkpt lat="42.97771" lon="-0.74838">
        <ele>1641.7</ele>
        <time>2010-02-24T11:40:39Z</time>
      </trkpt>
      <trkpt lat="42.97777" lon="-0.74842">
        <ele>1641.1</ele>
        <time>2010-02-24T11:40:40Z</time>
      </trkpt>
      <trkpt lat="42.97783" lon="-0.74843">
        <ele>1640.5</ele>
        <time>2010-02-24T11:40:41Z</time>
      </trkpt>
      <trkpt lat="42.97789" lon="-0.74845">
        <ele>1640</ele>
        <time>2010-02-24T11:40:42Z</time>
      </trkpt>
      <trkpt lat="42.97793" lon="-0.74848">
        <ele>1639.7</ele>
        <time>2010-02-24T11:40:43Z</time>
      </trkpt>
      <trkpt lat="42.97796" lon="-0.74852">
        <ele>1639.5</ele>
        <time>2010-02-24T11:40:44Z</time>
      </trkpt>
      <trkpt lat="42.97799" lon="-0.74858">
        <ele>1639.4</ele>
        <time>2010-02-24T11:40:45Z</time>
      </trkpt>
      <trkpt lat="42.97799" lon="-0.7486">
        <ele>1639.4</ele>
        <time>2010-02-24T11:40:46Z</time>
      </trkpt>
      <trkpt lat="42.97799" lon="-0.74864">
        <ele>1639.7</ele>
        <time>2010-02-24T11:40:50Z</time>
      </trkpt>
      <trkpt lat="42.97798" lon="-0.74864">
        <ele>1639.8</ele>
        <time>2010-02-24T11:40:54Z</time>
      </trkpt>
      <trkpt lat="42.97798" lon="-0.74866">
        <ele>1640</ele>
        <time>2010-02-24T11:40:57Z</time>
      </trkpt>
      <trkpt lat="42.97798" lon="-0.74866">
        <ele>1640</ele>
        <time>2010-02-24T11:40:59Z</time>
      </trkpt>
      <trkpt lat="42.97798" lon="-0.74867">
        <ele>1640.1</ele>
        <time>2010-02-24T11:41:01Z</time>
      </trkpt>
      <trkpt lat="42.97798" lon="-0.74866">
        <ele>1640.1</ele>
        <time>2010-02-24T11:41:03Z</time>
      </trkpt>
      <trkpt lat="42.97798" lon="-0.74866">
        <ele>1640</ele>
        <time>2010-02-24T11:41:06Z</time>
      </trkpt>
      <trkpt lat="42.97798" lon="-0.74866">
        <ele>1640</ele>
        <time>2010-02-24T11:41:08Z</time>
      </trkpt>
      <trkpt lat="42.97798" lon="-0.74867">
        <ele>1640.1</ele>
        <time>2010-02-24T11:41:12Z</time>
      </trkpt>
      <trkpt lat="42.97798" lon="-0.74868">
        <ele>1640.3</ele>
        <time>2010-02-24T11:41:13Z</time>
      </trkpt>
      <trkpt lat="42.97797" lon="-0.74869">
        <ele>1640.4</ele>
        <time>2010-02-24T11:41:14Z</time>
      </trkpt>
      <trkpt lat="42.97797" lon="-0.74871">
        <ele>1640.6</ele>
        <time>2010-02-24T11:41:15Z</time>
      </trkpt>
      <trkpt lat="42.97796" lon="-0.74875">
        <ele>1641.1</ele>
        <time>2010-02-24T11:41:16Z</time>
      </trkpt>
      <trkpt lat="42.97792" lon="-0.74884">
        <ele>1642</ele>
        <time>2010-02-24T11:41:20Z</time>
      </trkpt>
      <trkpt lat="42.97791" lon="-0.74886">
        <ele>1642.3</ele>
        <time>2010-02-24T11:41:21Z</time>
      </trkpt>
      <trkpt lat="42.97788" lon="-0.74893">
        <ele>1643.3</ele>
        <time>2010-02-24T11:41:23Z</time>
      </trkpt>
      <trkpt lat="42.97786" lon="-0.74899">
        <ele>1644.1</ele>
        <time>2010-02-24T11:41:25Z</time>
      </trkpt>
      <trkpt lat="42.97782" lon="-0.74909">
        <ele>1644.9</ele>
        <time>2010-02-24T11:41:27Z</time>
      </trkpt>
      <trkpt lat="42.9778" lon="-0.74915">
        <ele>1645.2</ele>
        <time>2010-02-24T11:41:30Z</time>
      </trkpt>
      <trkpt lat="42.97774" lon="-0.74927">
        <ele>1647.4</ele>
        <time>2010-02-24T11:41:34Z</time>
      </trkpt>
      <trkpt lat="42.9777" lon="-0.74936">
        <ele>1649.9</ele>
        <time>2010-02-24T11:41:36Z</time>
      </trkpt>
      <trkpt lat="42.97769" lon="-0.74939">
        <ele>1650.7</ele>
        <time>2010-02-24T11:41:37Z</time>
      </trkpt>
      <trkpt lat="42.97767" lon="-0.74945">
        <ele>1652.5</ele>
        <time>2010-02-24T11:41:40Z</time>
      </trkpt>
      <trkpt lat="42.97764" lon="-0.74951">
        <ele>1654.2</ele>
        <time>2010-02-24T11:41:42Z</time>
      </trkpt>
      <trkpt lat="42.97759" lon="-0.74962">
        <ele>1657.9</ele>
        <time>2010-02-24T11:41:46Z</time>
      </trkpt>
      <trkpt lat="42.97753" lon="-0.74976">
        <ele>1662.8</ele>
        <time>2010-02-24T11:41:51Z</time>
      </trkpt>
      <trkpt lat="42.9775" lon="-0.74981">
        <ele>1664.8</ele>
        <time>2010-02-24T11:41:53Z</time>
      </trkpt>
      <trkpt lat="42.97746" lon="-0.7499">
        <ele>1668</ele>
        <time>2010-02-24T11:41:55Z</time>
      </trkpt>
      <trkpt lat="42.97745" lon="-0.74993">
        <ele>1669.1</ele>
        <time>2010-02-24T11:41:56Z</time>
      </trkpt>
      <trkpt lat="42.97744" lon="-0.74996">
        <ele>1670</ele>
        <time>2010-02-24T11:41:57Z</time>
      </trkpt>
      <trkpt lat="42.97742" lon="-0.75002">
        <ele>1671.7</ele>
        <time>2010-02-24T11:42:00Z</time>
      </trkpt>
      <trkpt lat="42.97738" lon="-0.7501">
        <ele>1674.4</ele>
        <time>2010-02-24T11:42:03Z</time>
      </trkpt>
      <trkpt lat="42.97734" lon="-0.75015">
        <ele>1676.2</ele>
        <time>2010-02-24T11:42:05Z</time>
      </trkpt>
      <trkpt lat="42.97733" lon="-0.75018">
        <ele>1677</ele>
        <time>2010-02-24T11:42:06Z</time>
      </trkpt>
      <trkpt lat="42.9773" lon="-0.75027">
        <ele>1679.6</ele>
        <time>2010-02-24T11:42:08Z</time>
      </trkpt>
      <trkpt lat="42.97729" lon="-0.7503">
        <ele>1680.4</ele>
        <time>2010-02-24T11:42:09Z</time>
      </trkpt>
      <trkpt lat="42.97726" lon="-0.75036">
        <ele>1682.3</ele>
        <time>2010-02-24T11:42:12Z</time>
      </trkpt>
      <trkpt lat="42.97723" lon="-0.75042">
        <ele>1683.9</ele>
        <time>2010-02-24T11:42:14Z</time>
      </trkpt>
      <trkpt lat="42.9772" lon="-0.75054">
        <ele>1686.4</ele>
        <time>2010-02-24T11:42:17Z</time>
      </trkpt>
      <trkpt lat="42.97718" lon="-0.7506">
        <ele>1687.8</ele>
        <time>2010-02-24T11:42:20Z</time>
      </trkpt>
      <trkpt lat="42.97715" lon="-0.75065">
        <ele>1689.3</ele>
        <time>2010-02-24T11:42:22Z</time>
      </trkpt>
      <trkpt lat="42.97713" lon="-0.75068">
        <ele>1690</ele>
        <time>2010-02-24T11:42:23Z</time>
      </trkpt>
      <trkpt lat="42.9771" lon="-0.75081">
        <ele>1692.8</ele>
        <time>2010-02-24T11:42:27Z</time>
      </trkpt>
      <trkpt lat="42.97705" lon="-0.75089">
        <ele>1695</ele>
        <time>2010-02-24T11:42:29Z</time>
      </trkpt>
      <trkpt lat="42.97703" lon="-0.75095">
        <ele>1696.5</ele>
        <time>2010-02-24T11:42:32Z</time>
      </trkpt>
      <trkpt lat="42.977" lon="-0.75104">
        <ele>1698.7</ele>
        <time>2010-02-24T11:42:35Z</time>
      </trkpt>
      <trkpt lat="42.97697" lon="-0.7511">
        <ele>1700.1</ele>
        <time>2010-02-24T11:42:36Z</time>
      </trkpt>
      <trkpt lat="42.97694" lon="-0.75115">
        <ele>1701.9</ele>
        <time>2010-02-24T11:42:38Z</time>
      </trkpt>
      <trkpt lat="42.97692" lon="-0.7512">
        <ele>1704</ele>
        <time>2010-02-24T11:42:40Z</time>
      </trkpt>
      <trkpt lat="42.97689" lon="-0.75129">
        <ele>1707</ele>
        <time>2010-02-24T11:42:44Z</time>
      </trkpt>
      <trkpt lat="42.97686" lon="-0.75133">
        <ele>1708.9</ele>
        <time>2010-02-24T11:42:46Z</time>
      </trkpt>
      <trkpt lat="42.97681" lon="-0.75148">
        <ele>1714.4</ele>
        <time>2010-02-24T11:42:51Z</time>
      </trkpt>
      <trkpt lat="42.97677" lon="-0.75156">
        <ele>1717.6</ele>
        <time>2010-02-24T11:42:54Z</time>
      </trkpt>
      <trkpt lat="42.97674" lon="-0.75161">
        <ele>1719.8</ele>
        <time>2010-02-24T11:42:56Z</time>
      </trkpt>
      <trkpt lat="42.97668" lon="-0.75174">
        <ele>1725.2</ele>
        <time>2010-02-24T11:43:00Z</time>
      </trkpt>
      <trkpt lat="42.97667" lon="-0.75177">
        <ele>1726.3</ele>
        <time>2010-02-24T11:43:02Z</time>
      </trkpt>
      <trkpt lat="42.97663" lon="-0.75186">
        <ele>1729.7</ele>
        <time>2010-02-24T11:43:05Z</time>
      </trkpt>
      <trkpt lat="42.97658" lon="-0.75199">
        <ele>1734.1</ele>
        <time>2010-02-24T11:43:08Z</time>
      </trkpt>
      <trkpt lat="42.97653" lon="-0.75213">
        <ele>1738.4</ele>
        <time>2010-02-24T11:43:14Z</time>
      </trkpt>
      <trkpt lat="42.97651" lon="-0.75218">
        <ele>1740.1</ele>
        <time>2010-02-24T11:43:16Z</time>
      </trkpt>
      <trkpt lat="42.97649" lon="-0.75223">
        <ele>1742</ele>
        <time>2010-02-24T11:43:17Z</time>
      </trkpt>
      <trkpt lat="42.97648" lon="-0.75225">
        <ele>1743.2</ele>
        <time>2010-02-24T11:43:18Z</time>
      </trkpt>
      <trkpt lat="42.97645" lon="-0.75234">
        <ele>1746.7</ele>
        <time>2010-02-24T11:43:21Z</time>
      </trkpt>
      <trkpt lat="42.97642" lon="-0.75239">
        <ele>1749.1</ele>
        <time>2010-02-24T11:43:24Z</time>
      </trkpt>
      <trkpt lat="42.97639" lon="-0.75247">
        <ele>1752.9</ele>
        <time>2010-02-24T11:43:27Z</time>
      </trkpt>
      <trkpt lat="42.97636" lon="-0.75252">
        <ele>1754.3</ele>
        <time>2010-02-24T11:43:28Z</time>
      </trkpt>
      <trkpt lat="42.97635" lon="-0.75255">
        <ele>1754.6</ele>
        <time>2010-02-24T11:43:29Z</time>
      </trkpt>
      <trkpt lat="42.97634" lon="-0.75255">
        <ele>1754.6</ele>
        <time>2010-02-24T11:43:30Z</time>
      </trkpt>
      <trkpt lat="42.97632" lon="-0.75254">
        <ele>1754.5</ele>
        <time>2010-02-24T11:43:32Z</time>
      </trkpt>
      <trkpt lat="42.97628" lon="-0.75252">
        <ele>1754.2</ele>
        <time>2010-02-24T11:43:35Z</time>
      </trkpt>
      <trkpt lat="42.97627" lon="-0.75251">
        <ele>1754.1</ele>
        <time>2010-02-24T11:43:36Z</time>
      </trkpt>
      <trkpt lat="42.97626" lon="-0.7525">
        <ele>1753.9</ele>
        <time>2010-02-24T11:43:38Z</time>
      </trkpt>
      <trkpt lat="42.97622" lon="-0.75243">
        <ele>1752.6</ele>
        <time>2010-02-24T11:43:43Z</time>
      </trkpt>
      <trkpt lat="42.9762" lon="-0.75241">
        <ele>1752.3</ele>
        <time>2010-02-24T11:43:44Z</time>
      </trkpt>
      <trkpt lat="42.97614" lon="-0.75234">
        <ele>1751.9</ele>
        <time>2010-02-24T11:43:47Z</time>
      </trkpt>
      <trkpt lat="42.97608" lon="-0.7523">
        <ele>1752.1</ele>
        <time>2010-02-24T11:43:49Z</time>
      </trkpt>
      <trkpt lat="42.97606" lon="-0.75229">
        <ele>1752</ele>
        <time>2010-02-24T11:43:51Z</time>
      </trkpt>
      <trkpt lat="42.97605" lon="-0.75227">
        <ele>1751.8</ele>
        <time>2010-02-24T11:43:54Z</time>
      </trkpt>
      <trkpt lat="42.97604" lon="-0.75226">
        <ele>1751.7</ele>
        <time>2010-02-24T11:43:55Z</time>
      </trkpt>
      <trkpt lat="42.97602" lon="-0.75225">
        <ele>1751.6</ele>
        <time>2010-02-24T11:43:56Z</time>
      </trkpt>
      <trkpt lat="42.97599" lon="-0.75224">
        <ele>1751.7</ele>
        <time>2010-02-24T11:43:58Z</time>
      </trkpt>
      <trkpt lat="42.97595" lon="-0.75224">
        <ele>1751.9</ele>
        <time>2010-02-24T11:44:00Z</time>
      </trkpt>
      <trkpt lat="42.97594" lon="-0.75224">
        <ele>1751.8</ele>
        <time>2010-02-24T11:44:02Z</time>
      </trkpt>
      <trkpt lat="42.97593" lon="-0.75224">
        <ele>1752</ele>
        <time>2010-02-24T11:44:05Z</time>
      </trkpt>
      <trkpt lat="42.97592" lon="-0.75225">
        <ele>1752.1</ele>
        <time>2010-02-24T11:44:07Z</time>
      </trkpt>
      <trkpt lat="42.97592" lon="-0.75225">
        <ele>1752.3</ele>
        <time>2010-02-24T11:44:09Z</time>
      </trkpt>
      <trkpt lat="42.9759" lon="-0.75225">
        <ele>1752.3</ele>
        <time>2010-02-24T11:44:11Z</time>
      </trkpt>
      <trkpt lat="42.97587" lon="-0.75224">
        <ele>1752.1</ele>
        <time>2010-02-24T11:44:17Z</time>
      </trkpt>
      <trkpt lat="42.97577" lon="-0.75222">
        <ele>1751.7</ele>
        <time>2010-02-24T11:44:23Z</time>
      </trkpt>
      <trkpt lat="42.97576" lon="-0.75222">
        <ele>1751.7</ele>
        <time>2010-02-24T11:44:25Z</time>
      </trkpt>
      <trkpt lat="42.97573" lon="-0.75223">
        <ele>1751.8</ele>
        <time>2010-02-24T11:44:27Z</time>
      </trkpt>
      <trkpt lat="42.97572" lon="-0.75223">
        <ele>1751.7</ele>
        <time>2010-02-24T11:44:28Z</time>
      </trkpt>
      <trkpt lat="42.97569" lon="-0.75222">
        <ele>1751.5</ele>
        <time>2010-02-24T11:44:29Z</time>
      </trkpt>
      <trkpt lat="42.97567" lon="-0.75222">
        <ele>1751.4</ele>
        <time>2010-02-24T11:44:30Z</time>
      </trkpt>
      <trkpt lat="42.97562" lon="-0.75221">
        <ele>1750.9</ele>
        <time>2010-02-24T11:44:32Z</time>
      </trkpt>
      <trkpt lat="42.9755" lon="-0.75221">
        <ele>1749.8</ele>
        <time>2010-02-24T11:44:37Z</time>
      </trkpt>
      <trkpt lat="42.97544" lon="-0.75221">
        <ele>1749.1</ele>
        <time>2010-02-24T11:44:39Z</time>
      </trkpt>
      <trkpt lat="42.9754" lon="-0.7522">
        <ele>1748.3</ele>
        <time>2010-02-24T11:44:41Z</time>
      </trkpt>
      <trkpt lat="42.97539" lon="-0.75219">
        <ele>1747.8</ele>
        <time>2010-02-24T11:44:45Z</time>
      </trkpt>
      <trkpt lat="42.97539" lon="-0.75219">
        <ele>1747.8</ele>
        <time>2010-02-24T11:44:48Z</time>
      </trkpt>
      <trkpt lat="42.97536" lon="-0.75218">
        <ele>1746.9</ele>
        <time>2010-02-24T11:44:58Z</time>
      </trkpt>
      <trkpt lat="42.97536" lon="-0.75217">
        <ele>1746.7</ele>
        <time>2010-02-24T11:45:02Z</time>
      </trkpt>
      <trkpt lat="42.97536" lon="-0.75214">
        <ele>1745.9</ele>
        <time>2010-02-24T11:45:03Z</time>
      </trkpt>
      <trkpt lat="42.97536" lon="-0.7521">
        <ele>1744.9</ele>
        <time>2010-02-24T11:45:05Z</time>
      </trkpt>
      <trkpt lat="42.97538" lon="-0.75197">
        <ele>1741.8</ele>
        <time>2010-02-24T11:45:07Z</time>
      </trkpt>
      <trkpt lat="42.97537" lon="-0.7519">
        <ele>1739.1</ele>
        <time>2010-02-24T11:45:08Z</time>
      </trkpt>
      <trkpt lat="42.97535" lon="-0.75181">
        <ele>1735.2</ele>
        <time>2010-02-24T11:45:09Z</time>
      </trkpt>
      <trkpt lat="42.97531" lon="-0.75144">
        <ele>1723.7</ele>
        <time>2010-02-24T11:45:11Z</time>
      </trkpt>
      <trkpt lat="42.97529" lon="-0.75129">
        <ele>1720.5</ele>
        <time>2010-02-24T11:45:12Z</time>
      </trkpt>
      <trkpt lat="42.97528" lon="-0.75115">
        <ele>1717</ele>
        <time>2010-02-24T11:45:13Z</time>
      </trkpt>
      <trkpt lat="42.9753" lon="-0.751">
        <ele>1713.7</ele>
        <time>2010-02-24T11:45:14Z</time>
      </trkpt>
      <trkpt lat="42.97531" lon="-0.75084">
        <ele>1710.6</ele>
        <time>2010-02-24T11:45:16Z</time>
      </trkpt>
      <trkpt lat="42.97532" lon="-0.75068">
        <ele>1708.9</ele>
        <time>2010-02-24T11:45:17Z</time>
      </trkpt>
      <trkpt lat="42.97531" lon="-0.75053">
        <ele>1707.4</ele>
        <time>2010-02-24T11:45:18Z</time>
      </trkpt>
      <trkpt lat="42.97528" lon="-0.7502">
        <ele>1704.7</ele>
        <time>2010-02-24T11:45:20Z</time>
      </trkpt>
      <trkpt lat="42.97527" lon="-0.75004">
        <ele>1704.2</ele>
        <time>2010-02-24T11:45:21Z</time>
      </trkpt>
      <trkpt lat="42.97528" lon="-0.74975">
        <ele>1704</ele>
        <time>2010-02-24T11:45:22Z</time>
      </trkpt>
      <trkpt lat="42.97529" lon="-0.74965">
        <ele>1703.8</ele>
        <time>2010-02-24T11:45:23Z</time>
      </trkpt>
      <trkpt lat="42.97533" lon="-0.74959">
        <ele>1703.8</ele>
        <time>2010-02-24T11:45:25Z</time>
      </trkpt>
      <trkpt lat="42.97533" lon="-0.74954">
        <ele>1703.6</ele>
        <time>2010-02-24T11:45:26Z</time>
      </trkpt>
      <trkpt lat="42.97533" lon="-0.74952">
        <ele>1703.5</ele>
        <time>2010-02-24T11:45:27Z</time>
      </trkpt>
      <trkpt lat="42.97532" lon="-0.74952">
        <ele>1703.5</ele>
        <time>2010-02-24T11:45:28Z</time>
      </trkpt>
      <trkpt lat="42.97532" lon="-0.74952">
        <ele>1703.5</ele>
        <time>2010-02-24T11:45:29Z</time>
      </trkpt>
      <trkpt lat="42.97535" lon="-0.74956">
        <ele>1703.8</ele>
        <time>2010-02-24T11:45:30Z</time>
      </trkpt>
      <trkpt lat="42.97537" lon="-0.74958">
        <ele>1704</ele>
        <time>2010-02-24T11:45:33Z</time>
      </trkpt>
      <trkpt lat="42.97538" lon="-0.7496">
        <ele>1704.1</ele>
        <time>2010-02-24T11:45:36Z</time>
      </trkpt>
      <trkpt lat="42.97537" lon="-0.7496">
        <ele>1704.1</ele>
        <time>2010-02-24T11:45:37Z</time>
      </trkpt>
      <trkpt lat="42.97536" lon="-0.74962">
        <ele>1704.1</ele>
        <time>2010-02-24T11:45:42Z</time>
      </trkpt>
      <trkpt lat="42.97535" lon="-0.74962">
        <ele>1704.1</ele>
        <time>2010-02-24T11:45:50Z</time>
      </trkpt>
      <trkpt lat="42.97536" lon="-0.74962">
        <ele>1704.1</ele>
        <time>2010-02-24T11:45:54Z</time>
      </trkpt>
      <trkpt lat="42.97535" lon="-0.74962">
        <ele>1704.1</ele>
        <time>2010-02-24T11:45:57Z</time>
      </trkpt>
      <trkpt lat="42.97537" lon="-0.74963">
        <ele>1704.2</ele>
        <time>2010-02-24T11:45:59Z</time>
      </trkpt>
      <trkpt lat="42.97537" lon="-0.74963">
        <ele>1704.2</ele>
        <time>2010-02-24T11:46:01Z</time>
      </trkpt>
      <trkpt lat="42.97535" lon="-0.74962">
        <ele>1704.1</ele>
        <time>2010-02-24T11:46:04Z</time>
      </trkpt>
      <trkpt lat="42.97531" lon="-0.74955">
        <ele>1703.5</ele>
        <time>2010-02-24T11:46:08Z</time>
      </trkpt>
      <trkpt lat="42.97529" lon="-0.74951">
        <ele>1703.3</ele>
        <time>2010-02-24T11:46:09Z</time>
      </trkpt>
      <trkpt lat="42.97527" lon="-0.74946">
        <ele>1703.1</ele>
        <time>2010-02-24T11:46:10Z</time>
      </trkpt>
      <trkpt lat="42.97526" lon="-0.74941">
        <ele>1702.8</ele>
        <time>2010-02-24T11:46:11Z</time>
      </trkpt>
      <trkpt lat="42.97522" lon="-0.74917">
        <ele>1700.8</ele>
        <time>2010-02-24T11:46:13Z</time>
      </trkpt>
      <trkpt lat="42.97521" lon="-0.74908">
        <ele>1700.3</ele>
        <time>2010-02-24T11:46:14Z</time>
      </trkpt>
      <trkpt lat="42.97519" lon="-0.74899">
        <ele>1699.6</ele>
        <time>2010-02-24T11:46:15Z</time>
      </trkpt>
      <trkpt lat="42.97514" lon="-0.74879">
        <ele>1698</ele>
        <time>2010-02-24T11:46:18Z</time>
      </trkpt>
      <trkpt lat="42.97513" lon="-0.74868">
        <ele>1697.2</ele>
        <time>2010-02-24T11:46:19Z</time>
      </trkpt>
      <trkpt lat="42.97514" lon="-0.74857">
        <ele>1696.3</ele>
        <time>2010-02-24T11:46:20Z</time>
      </trkpt>
      <trkpt lat="42.97516" lon="-0.74845">
        <ele>1695</ele>
        <time>2010-02-24T11:46:21Z</time>
      </trkpt>
      <trkpt lat="42.97519" lon="-0.74833">
        <ele>1693.7</ele>
        <time>2010-02-24T11:46:22Z</time>
      </trkpt>
      <trkpt lat="42.97523" lon="-0.74812">
        <ele>1692.7</ele>
        <time>2010-02-24T11:46:23Z</time>
      </trkpt>
      <trkpt lat="42.97524" lon="-0.74803">
        <ele>1692</ele>
        <time>2010-02-24T11:46:24Z</time>
      </trkpt>
      <trkpt lat="42.97525" lon="-0.74797">
        <ele>1691</ele>
        <time>2010-02-24T11:46:25Z</time>
      </trkpt>
      <trkpt lat="42.97527" lon="-0.74793">
        <ele>1690.3</ele>
        <time>2010-02-24T11:46:27Z</time>
      </trkpt>
      <trkpt lat="42.97529" lon="-0.74793">
        <ele>1690.2</ele>
        <time>2010-02-24T11:46:28Z</time>
      </trkpt>
      <trkpt lat="42.97531" lon="-0.74793">
        <ele>1690.3</ele>
        <time>2010-02-24T11:46:29Z</time>
      </trkpt>
      <trkpt lat="42.97533" lon="-0.74794">
        <ele>1690.5</ele>
        <time>2010-02-24T11:46:31Z</time>
      </trkpt>
      <trkpt lat="42.97537" lon="-0.74789">
        <ele>1689.5</ele>
        <time>2010-02-24T11:46:33Z</time>
      </trkpt>
      <trkpt lat="42.9754" lon="-0.74783">
        <ele>1688.2</ele>
        <time>2010-02-24T11:46:34Z</time>
      </trkpt>
      <trkpt lat="42.97544" lon="-0.74775">
        <ele>1686.6</ele>
        <time>2010-02-24T11:46:35Z</time>
      </trkpt>
      <trkpt lat="42.9755" lon="-0.74766">
        <ele>1685.1</ele>
        <time>2010-02-24T11:46:36Z</time>
      </trkpt>
      <trkpt lat="42.97558" lon="-0.74756">
        <ele>1682.5</ele>
        <time>2010-02-24T11:46:38Z</time>
      </trkpt>
      <trkpt lat="42.97566" lon="-0.74746">
        <ele>1680</ele>
        <time>2010-02-24T11:46:39Z</time>
      </trkpt>
      <trkpt lat="42.97576" lon="-0.74736">
        <ele>1678.3</ele>
        <time>2010-02-24T11:46:40Z</time>
      </trkpt>
      <trkpt lat="42.97586" lon="-0.74728">
        <ele>1676.5</ele>
        <time>2010-02-24T11:46:41Z</time>
      </trkpt>
      <trkpt lat="42.97607" lon="-0.74722">
        <ele>1671.9</ele>
        <time>2010-02-24T11:46:42Z</time>
      </trkpt>
      <trkpt lat="42.97618" lon="-0.74725">
        <ele>1669.9</ele>
        <time>2010-02-24T11:46:43Z</time>
      </trkpt>
      <trkpt lat="42.97628" lon="-0.74729">
        <ele>1668.1</ele>
        <time>2010-02-24T11:46:44Z</time>
      </trkpt>
      <trkpt lat="42.97639" lon="-0.74732">
        <ele>1666.2</ele>
        <time>2010-02-24T11:46:45Z</time>
      </trkpt>
      <trkpt lat="42.97664" lon="-0.74735">
        <ele>1660</ele>
        <time>2010-02-24T11:46:48Z</time>
      </trkpt>
      <trkpt lat="42.97676" lon="-0.74734">
        <ele>1657.3</ele>
        <time>2010-02-24T11:46:49Z</time>
      </trkpt>
      <trkpt lat="42.97689" lon="-0.74733">
        <ele>1655</ele>
        <time>2010-02-24T11:46:50Z</time>
      </trkpt>
      <trkpt lat="42.97702" lon="-0.74733">
        <ele>1653</ele>
        <time>2010-02-24T11:46:51Z</time>
      </trkpt>
      <trkpt lat="42.97715" lon="-0.74734">
        <ele>1651.6</ele>
        <time>2010-02-24T11:46:52Z</time>
      </trkpt>
      <trkpt lat="42.97728" lon="-0.74732">
        <ele>1650.1</ele>
        <time>2010-02-24T11:46:53Z</time>
      </trkpt>
      <trkpt lat="42.97766" lon="-0.74731">
        <ele>1643</ele>
        <time>2010-02-24T11:46:55Z</time>
      </trkpt>
      <trkpt lat="42.97779" lon="-0.74733">
        <ele>1640.3</ele>
        <time>2010-02-24T11:46:57Z</time>
      </trkpt>
      <trkpt lat="42.97791" lon="-0.74735">
        <ele>1639.6</ele>
        <time>2010-02-24T11:46:58Z</time>
      </trkpt>
      <trkpt lat="42.97812" lon="-0.74736">
        <ele>1636.9</ele>
        <time>2010-02-24T11:47:00Z</time>
      </trkpt>
      <trkpt lat="42.97819" lon="-0.74739">
        <ele>1634.9</ele>
        <time>2010-02-24T11:47:01Z</time>
      </trkpt>
      <trkpt lat="42.97822" lon="-0.74739">
        <ele>1634.1</ele>
        <time>2010-02-24T11:47:02Z</time>
      </trkpt>
      <trkpt lat="42.97819" lon="-0.74741">
        <ele>1634.9</ele>
        <time>2010-02-24T11:47:04Z</time>
      </trkpt>
      <trkpt lat="42.97818" lon="-0.74742">
        <ele>1635</ele>
        <time>2010-02-24T11:47:05Z</time>
      </trkpt>
      <trkpt lat="42.97817" lon="-0.74743">
        <ele>1635.4</ele>
        <time>2010-02-24T11:47:09Z</time>
      </trkpt>
      <trkpt lat="42.97816" lon="-0.7474">
        <ele>1635.7</ele>
        <time>2010-02-24T11:47:11Z</time>
      </trkpt>
      <trkpt lat="42.97815" lon="-0.7474">
        <ele>1635.8</ele>
        <time>2010-02-24T11:47:12Z</time>
      </trkpt>
      <trkpt lat="42.97815" lon="-0.74739">
        <ele>1636</ele>
        <time>2010-02-24T11:47:14Z</time>
      </trkpt>
      <trkpt lat="42.97815" lon="-0.74736">
        <ele>1636.1</ele>
        <time>2010-02-24T11:47:17Z</time>
      </trkpt>
      <trkpt lat="42.97814" lon="-0.74736">
        <ele>1636.2</ele>
        <time>2010-02-24T11:47:19Z</time>
      </trkpt>
      <trkpt lat="42.97815" lon="-0.74735">
        <ele>1636.1</ele>
        <time>2010-02-24T11:47:20Z</time>
      </trkpt>
      <trkpt lat="42.97816" lon="-0.74733">
        <ele>1635.8</ele>
        <time>2010-02-24T11:47:22Z</time>
      </trkpt>
      <trkpt lat="42.97818" lon="-0.7473">
        <ele>1635.3</ele>
        <time>2010-02-24T11:47:24Z</time>
      </trkpt>
      <trkpt lat="42.97821" lon="-0.74728">
        <ele>1634.5</ele>
        <time>2010-02-24T11:47:26Z</time>
      </trkpt>
      <trkpt lat="42.9782" lon="-0.74726">
        <ele>1634.7</ele>
        <time>2010-02-24T11:47:34Z</time>
      </trkpt>
      <trkpt lat="42.9782" lon="-0.74728">
        <ele>1634.8</ele>
        <time>2010-02-24T11:47:39Z</time>
      </trkpt>
      <trkpt lat="42.9782" lon="-0.74727">
        <ele>1634.9</ele>
        <time>2010-02-24T11:47:40Z</time>
      </trkpt>
      <trkpt lat="42.97819" lon="-0.74725">
        <ele>1635.1</ele>
        <time>2010-02-24T11:47:44Z</time>
      </trkpt>
      <trkpt lat="42.9782" lon="-0.7472">
        <ele>1634.6</ele>
        <time>2010-02-24T11:47:49Z</time>
      </trkpt>
      <trkpt lat="42.97821" lon="-0.74718">
        <ele>1634.2</ele>
        <time>2010-02-24T11:47:51Z</time>
      </trkpt>
      <trkpt lat="42.97821" lon="-0.74717">
        <ele>1634.1</ele>
        <time>2010-02-24T11:47:52Z</time>
      </trkpt>
      <trkpt lat="42.9782" lon="-0.74716">
        <ele>1634.2</ele>
        <time>2010-02-24T11:47:54Z</time>
      </trkpt>
      <trkpt lat="42.9782" lon="-0.74717">
        <ele>1634.5</ele>
        <time>2010-02-24T11:47:57Z</time>
      </trkpt>
      <trkpt lat="42.97819" lon="-0.74716">
        <ele>1634.5</ele>
        <time>2010-02-24T11:47:59Z</time>
      </trkpt>
      <trkpt lat="42.97818" lon="-0.74716">
        <ele>1634.8</ele>
        <time>2010-02-24T11:48:02Z</time>
      </trkpt>
      <trkpt lat="42.97817" lon="-0.74717">
        <ele>1635.3</ele>
        <time>2010-02-24T11:48:05Z</time>
      </trkpt>
      <trkpt lat="42.97817" lon="-0.74716">
        <ele>1635.3</ele>
        <time>2010-02-24T11:48:10Z</time>
      </trkpt>
      <trkpt lat="42.97815" lon="-0.74717">
        <ele>1635.9</ele>
        <time>2010-02-24T11:48:14Z</time>
      </trkpt>
    </trkseg>
  </trk>
</gpx>